<?xml version="1.0" encoding="UTF-8" standalone="no" ?>
<gpx xmlns="http://www.topografix.com/GPX/1/1" xmlns:xsi="http://www.w3.org/2001/XMLSchema-instance" xsi:schemaLocation="http://www.topografix.com/GPX/1/1 http://www.topografix.com/GPX/1/1/gpx.xsd" version="1.1" creator="VisuGPX - https://www.visugpx.com">
  <metadata>
    <name>trip septembre</name>
  </metadata>
  <wpt lat="50.83956" lon="1.59443">
    <ele>51.1</ele>
    <name><![CDATA[Batterie Todt]]></name>
    <type><![CDATA[user]]></type>
  </wpt>
  <wpt lat="50.82679" lon="2.18225">
    <ele>10.6</ele>
    <name><![CDATA[Blockhaus D'Éperlecques]]></name>
    <type><![CDATA[user]]></type>
  </wpt>
  <wpt lat="50.70075" lon="2.09689">
    <ele>56</ele>
    <name><![CDATA[Le Moulin de Mombreux]]></name>
    <type><![CDATA[user]]></type>
  </wpt>
  <wpt lat="50.38697" lon="2.32159">
    <ele>82.6</ele>
    <name><![CDATA[www.lesballastieres.com]]></name>
    <type><![CDATA[user]]></type>
  </wpt>
  <wpt lat="50.83956" lon="1.59443">
    <ele>51.1</ele>
    <name><![CDATA[Batterie Todt]]></name>
    <type><![CDATA[user]]></type>
  </wpt>
  <wpt lat="50.82679" lon="2.18225">
    <ele>10.6</ele>
    <name><![CDATA[Blockhaus D'Éperlecques]]></name>
    <type><![CDATA[user]]></type>
  </wpt>
  <wpt lat="50.70075" lon="2.09689">
    <ele>56</ele>
    <name><![CDATA[Le Moulin de Mombreux]]></name>
    <type><![CDATA[user]]></type>
  </wpt>
  <wpt lat="50.38697" lon="2.32159">
    <ele>82.6</ele>
    <name><![CDATA[www.lesballastieres.com]]></name>
    <type><![CDATA[user]]></type>
  </wpt>
  <wpt lat="45.20002" lon="5.42078">
    <ele>251.8</ele>
    <name><![CDATA[400 La Plaine de Buissonnière]]></name>
    <type><![CDATA[ 38470 Vinay]]></type>
  </wpt>
  <wpt lat="45.08552" lon="5.46765">
    <ele>694.9</ele>
    <name><![CDATA[31b Les Granges]]></name>
    <type><![CDATA[ 26420 Rencurel]]></type>
  </wpt>
  <trk>
    <name><![CDATA[TET-ITALY-Section02-20190715]]></name>
    <extensions>
      <line xmlns="http://www.topografix.com/GPX/gpx_style/0/2">
        <color>0008ff</color>
        <opacity>0.95</opacity>
        <width>4</width>
      </line>
    </extensions>
    <trkseg>
      <trkpt lat="45.04704" lon="6.75823">
        <ele>1153</ele>
        <time>2017-01-02T07:44:09Z</time>
      </trkpt>
      <trkpt lat="45.04704" lon="6.75823">
        <ele>1153</ele>
        <time>2017-01-02T07:44:09Z</time>
      </trkpt>
      <trkpt lat="45.04704" lon="6.75823">
        <ele>1153</ele>
        <time>2017-01-02T07:44:09Z</time>
      </trkpt>
      <trkpt lat="45.04704" lon="6.75823">
        <ele>1153</ele>
        <time>2017-01-02T07:44:09Z</time>
      </trkpt>
      <trkpt lat="45.04704" lon="6.75823">
        <ele>1153</ele>
        <time>2017-01-02T07:44:09Z</time>
      </trkpt>
      <trkpt lat="45.04691" lon="6.75815">
        <ele>1150</ele>
        <time>2017-01-02T07:44:15Z</time>
      </trkpt>
      <trkpt lat="45.0468" lon="6.75813">
        <ele>1148</ele>
        <time>2017-01-02T07:44:20Z</time>
      </trkpt>
      <trkpt lat="45.04658" lon="6.75802">
        <ele>1147</ele>
        <time>2017-01-02T07:44:29Z</time>
      </trkpt>
      <trkpt lat="45.04622" lon="6.75778">
        <ele>1151</ele>
        <time>2017-01-02T07:44:45Z</time>
      </trkpt>
      <trkpt lat="45.04598" lon="6.75768">
        <ele>1153</ele>
        <time>2017-01-02T07:44:55Z</time>
      </trkpt>
      <trkpt lat="45.0453" lon="6.75764">
        <ele>1162</ele>
        <time>2017-01-02T07:45:22Z</time>
      </trkpt>
      <trkpt lat="45.04443" lon="6.75729">
        <ele>1168</ele>
        <time>2017-01-02T07:45:58Z</time>
      </trkpt>
      <trkpt lat="45.04429" lon="6.75728">
        <ele>1168</ele>
        <time>2017-01-02T07:46:04Z</time>
      </trkpt>
      <trkpt lat="45.04392" lon="6.75717">
        <ele>1172</ele>
        <time>2017-01-02T07:46:19Z</time>
      </trkpt>
      <trkpt lat="45.0438" lon="6.75716">
        <ele>1173</ele>
        <time>2017-01-02T07:46:24Z</time>
      </trkpt>
      <trkpt lat="45.04388" lon="6.7569">
        <ele>1175</ele>
        <time>2017-01-02T07:46:32Z</time>
      </trkpt>
      <trkpt lat="45.04383" lon="6.7566">
        <ele>1178</ele>
        <time>2017-01-02T07:46:41Z</time>
      </trkpt>
      <trkpt lat="45.04388" lon="6.75639">
        <ele>1179</ele>
        <time>2017-01-02T07:46:47Z</time>
      </trkpt>
      <trkpt lat="45.04403" lon="6.75549">
        <ele>1180</ele>
        <time>2017-01-02T07:47:13Z</time>
      </trkpt>
      <trkpt lat="45.04407" lon="6.75506">
        <ele>1180</ele>
        <time>2017-01-02T07:47:26Z</time>
      </trkpt>
      <trkpt lat="45.04397" lon="6.75396">
        <ele>1176</ele>
        <time>2017-01-02T07:47:57Z</time>
      </trkpt>
      <trkpt lat="45.04395" lon="6.75343">
        <ele>1182</ele>
        <time>2017-01-02T07:48:12Z</time>
      </trkpt>
      <trkpt lat="45.04399" lon="6.75583">
        <ele>1178.92</ele>
        <time>2017-01-03T07:25:08Z</time>
      </trkpt>
      <trkpt lat="45.04408" lon="6.75529">
        <ele>1180.55</ele>
        <time>2017-01-03T07:25:10Z</time>
      </trkpt>
      <trkpt lat="45.04409" lon="6.75509">
        <ele>1179.2</ele>
        <time>2017-01-03T07:25:10Z</time>
      </trkpt>
      <trkpt lat="45.04405" lon="6.75466">
        <ele>1176.72</ele>
        <time>2017-01-03T07:25:12Z</time>
      </trkpt>
      <trkpt lat="45.04398" lon="6.75429">
        <ele>1175.35</ele>
        <time>2017-01-03T07:25:14Z</time>
      </trkpt>
      <trkpt lat="45.04396" lon="6.75389">
        <ele>1176.23</ele>
        <time>2017-01-03T07:25:15Z</time>
      </trkpt>
      <trkpt lat="45.04392" lon="6.75325">
        <ele>1183.86</ele>
        <time>2017-01-03T07:25:18Z</time>
      </trkpt>
      <trkpt lat="45.04398" lon="6.75312">
        <ele>1185.09</ele>
        <time>2017-01-03T07:25:18Z</time>
      </trkpt>
      <trkpt lat="45.04433" lon="6.75282">
        <ele>1186.63</ele>
        <time>2017-01-03T07:25:20Z</time>
      </trkpt>
      <trkpt lat="45.0444" lon="6.75272">
        <ele>1188.58</ele>
        <time>2017-01-03T07:25:21Z</time>
      </trkpt>
      <trkpt lat="45.04448" lon="6.75257">
        <ele>1191.98</ele>
        <time>2017-01-03T07:25:22Z</time>
      </trkpt>
      <trkpt lat="45.04462" lon="6.75244">
        <ele>1194.74</ele>
        <time>2017-01-03T07:25:23Z</time>
      </trkpt>
      <trkpt lat="45.04489" lon="6.75232">
        <ele>1197.27</ele>
        <time>2017-01-03T07:25:24Z</time>
      </trkpt>
      <trkpt lat="45.04501" lon="6.7523">
        <ele>1196.92</ele>
        <time>2017-01-03T07:25:25Z</time>
      </trkpt>
      <trkpt lat="45.04522" lon="6.75211">
        <ele>1197.22</ele>
        <time>2017-01-03T07:25:26Z</time>
      </trkpt>
      <trkpt lat="45.04534" lon="6.7519">
        <ele>1198.27</ele>
        <time>2017-01-03T07:25:27Z</time>
      </trkpt>
      <trkpt lat="45.04528" lon="6.75168">
        <ele>1207.56</ele>
        <time>2017-01-03T07:25:28Z</time>
      </trkpt>
      <trkpt lat="45.04503" lon="6.75198">
        <ele>1206.21</ele>
        <time>2017-01-03T07:25:30Z</time>
      </trkpt>
      <trkpt lat="45.04489" lon="6.75197">
        <ele>1209.49</ele>
        <time>2017-01-03T07:25:31Z</time>
      </trkpt>
      <trkpt lat="45.04482" lon="6.75187">
        <ele>1213.23</ele>
        <time>2017-01-03T07:25:32Z</time>
      </trkpt>
      <trkpt lat="45.04476" lon="6.75173">
        <ele>1217.04</ele>
        <time>2017-01-03T07:25:32Z</time>
      </trkpt>
      <trkpt lat="45.04483" lon="6.75141">
        <ele>1219.24</ele>
        <time>2017-01-03T07:25:34Z</time>
      </trkpt>
      <trkpt lat="45.04513" lon="6.75114">
        <ele>1223.12</ele>
        <time>2017-01-03T07:25:36Z</time>
      </trkpt>
      <trkpt lat="45.04541" lon="6.75077">
        <ele>1230.5</ele>
        <time>2017-01-03T07:25:38Z</time>
      </trkpt>
      <trkpt lat="45.04549" lon="6.75066">
        <ele>1229.63</ele>
        <time>2017-01-03T07:25:38Z</time>
      </trkpt>
      <trkpt lat="45.04564" lon="6.75057">
        <ele>1225.06</ele>
        <time>2017-01-03T07:25:39Z</time>
      </trkpt>
      <trkpt lat="45.04564" lon="6.75043">
        <ele>1230.19</ele>
        <time>2017-01-03T07:25:40Z</time>
      </trkpt>
      <trkpt lat="45.04554" lon="6.75042">
        <ele>1234.9</ele>
        <time>2017-01-03T07:25:40Z</time>
      </trkpt>
      <trkpt lat="45.04536" lon="6.75059">
        <ele>1236.04</ele>
        <time>2017-01-03T07:25:42Z</time>
      </trkpt>
      <trkpt lat="45.04526" lon="6.75063">
        <ele>1238.53</ele>
        <time>2017-01-03T07:25:42Z</time>
      </trkpt>
      <trkpt lat="45.04502" lon="6.75072">
        <ele>1237.58</ele>
        <time>2017-01-03T07:25:43Z</time>
      </trkpt>
      <trkpt lat="45.04489" lon="6.75072">
        <ele>1238.07</ele>
        <time>2017-01-03T07:25:44Z</time>
      </trkpt>
      <trkpt lat="45.04435" lon="6.75057">
        <ele>1239.2</ele>
        <time>2017-01-03T07:25:47Z</time>
      </trkpt>
      <trkpt lat="45.04412" lon="6.75052">
        <ele>1234.91</ele>
        <time>2017-01-03T07:25:48Z</time>
      </trkpt>
      <trkpt lat="45.0441" lon="6.75034">
        <ele>1240.65</ele>
        <time>2017-01-03T07:25:49Z</time>
      </trkpt>
      <trkpt lat="45.04437" lon="6.75032">
        <ele>1248.6</ele>
        <time>2017-01-03T07:25:51Z</time>
      </trkpt>
      <trkpt lat="45.04458" lon="6.75017">
        <ele>1257.64</ele>
        <time>2017-01-03T07:25:52Z</time>
      </trkpt>
      <trkpt lat="45.04484" lon="6.74997">
        <ele>1265.19</ele>
        <time>2017-01-03T07:25:54Z</time>
      </trkpt>
      <trkpt lat="45.04494" lon="6.74967">
        <ele>1274.07</ele>
        <time>2017-01-03T07:25:55Z</time>
      </trkpt>
      <trkpt lat="45.04479" lon="6.74966">
        <ele>1275.72</ele>
        <time>2017-01-03T07:25:56Z</time>
      </trkpt>
      <trkpt lat="45.04447" lon="6.74982">
        <ele>1272.07</ele>
        <time>2017-01-03T07:25:58Z</time>
      </trkpt>
      <trkpt lat="45.04437" lon="6.74987">
        <ele>1268.54</ele>
        <time>2017-01-03T07:25:59Z</time>
      </trkpt>
      <trkpt lat="45.04434" lon="6.74966">
        <ele>1275.7</ele>
        <time>2017-01-03T07:26:00Z</time>
      </trkpt>
      <trkpt lat="45.04457" lon="6.74945">
        <ele>1282.5</ele>
        <time>2017-01-03T07:26:01Z</time>
      </trkpt>
      <trkpt lat="45.04479" lon="6.74933">
        <ele>1283.84</ele>
        <time>2017-01-03T07:26:03Z</time>
      </trkpt>
      <trkpt lat="45.04491" lon="6.74924">
        <ele>1286.47</ele>
        <time>2017-01-03T07:26:03Z</time>
      </trkpt>
      <trkpt lat="45.04492" lon="6.74909">
        <ele>1291.2</ele>
        <time>2017-01-03T07:26:04Z</time>
      </trkpt>
      <trkpt lat="45.04481" lon="6.74907">
        <ele>1291.45</ele>
        <time>2017-01-03T07:26:05Z</time>
      </trkpt>
      <trkpt lat="45.04466" lon="6.74911">
        <ele>1290.37</ele>
        <time>2017-01-03T07:26:05Z</time>
      </trkpt>
      <trkpt lat="45.04436" lon="6.74923">
        <ele>1288.42</ele>
        <time>2017-01-03T07:26:07Z</time>
      </trkpt>
      <trkpt lat="45.04418" lon="6.74926">
        <ele>1285.47</ele>
        <time>2017-01-03T07:26:08Z</time>
      </trkpt>
      <trkpt lat="45.04404" lon="6.74915">
        <ele>1282</ele>
        <time>2017-01-03T07:26:09Z</time>
      </trkpt>
      <trkpt lat="45.04401" lon="6.74892">
        <ele>1285.93</ele>
        <time>2017-01-03T07:26:10Z</time>
      </trkpt>
      <trkpt lat="45.04403" lon="6.74877">
        <ele>1289.53</ele>
        <time>2017-01-03T07:26:10Z</time>
      </trkpt>
      <trkpt lat="45.04414" lon="6.74863">
        <ele>1296.57</ele>
        <time>2017-01-03T07:26:11Z</time>
      </trkpt>
      <trkpt lat="45.04427" lon="6.74856">
        <ele>1301.03</ele>
        <time>2017-01-03T07:26:12Z</time>
      </trkpt>
      <trkpt lat="45.0445" lon="6.74855">
        <ele>1305.23</ele>
        <time>2017-01-03T07:26:13Z</time>
      </trkpt>
      <trkpt lat="45.04463" lon="6.74858">
        <ele>1305.94</ele>
        <time>2017-01-03T07:26:14Z</time>
      </trkpt>
      <trkpt lat="45.0451" lon="6.74833">
        <ele>1315.14</ele>
        <time>2017-01-03T07:26:17Z</time>
      </trkpt>
      <trkpt lat="45.04534" lon="6.74829">
        <ele>1316.64</ele>
        <time>2017-01-03T07:26:18Z</time>
      </trkpt>
      <trkpt lat="45.04541" lon="6.74799">
        <ele>1325.36</ele>
        <time>2017-01-03T07:26:20Z</time>
      </trkpt>
      <trkpt lat="45.04532" lon="6.74788">
        <ele>1329.94</ele>
        <time>2017-01-03T07:26:20Z</time>
      </trkpt>
      <trkpt lat="45.04514" lon="6.74795">
        <ele>1329.98</ele>
        <time>2017-01-03T07:26:21Z</time>
      </trkpt>
      <trkpt lat="45.04495" lon="6.74811">
        <ele>1324.65</ele>
        <time>2017-01-03T07:26:23Z</time>
      </trkpt>
      <trkpt lat="45.04485" lon="6.74815">
        <ele>1322.92</ele>
        <time>2017-01-03T07:26:23Z</time>
      </trkpt>
      <trkpt lat="45.04467" lon="6.74814">
        <ele>1322.28</ele>
        <time>2017-01-03T07:26:24Z</time>
      </trkpt>
      <trkpt lat="45.04449" lon="6.74807">
        <ele>1321.4</ele>
        <time>2017-01-03T07:26:25Z</time>
      </trkpt>
      <trkpt lat="45.0444" lon="6.74799">
        <ele>1322</ele>
        <time>2017-01-03T07:26:26Z</time>
      </trkpt>
      <trkpt lat="45.04419" lon="6.74767">
        <ele>1326.69</ele>
        <time>2017-01-03T07:26:27Z</time>
      </trkpt>
      <trkpt lat="45.04408" lon="6.74734">
        <ele>1333.31</ele>
        <time>2017-01-03T07:26:29Z</time>
      </trkpt>
      <trkpt lat="45.04404" lon="6.7472">
        <ele>1336.33</ele>
        <time>2017-01-03T07:26:29Z</time>
      </trkpt>
      <trkpt lat="45.04392" lon="6.74699">
        <ele>1338.7</ele>
        <time>2017-01-03T07:26:30Z</time>
      </trkpt>
      <trkpt lat="45.04369" lon="6.74663">
        <ele>1339.77</ele>
        <time>2017-01-03T07:26:32Z</time>
      </trkpt>
      <trkpt lat="45.0437" lon="6.74649">
        <ele>1344.27</ele>
        <time>2017-01-03T07:26:33Z</time>
      </trkpt>
      <trkpt lat="45.04383" lon="6.74651">
        <ele>1348.99</ele>
        <time>2017-01-03T07:26:34Z</time>
      </trkpt>
      <trkpt lat="45.04391" lon="6.74666">
        <ele>1348.91</ele>
        <time>2017-01-03T07:26:34Z</time>
      </trkpt>
      <trkpt lat="45.04407" lon="6.74688">
        <ele>1348.61</ele>
        <time>2017-01-03T07:26:36Z</time>
      </trkpt>
      <trkpt lat="45.04438" lon="6.74739">
        <ele>1343.08</ele>
        <time>2017-01-03T07:26:38Z</time>
      </trkpt>
      <trkpt lat="45.04449" lon="6.74742">
        <ele>1345.6</ele>
        <time>2017-01-03T07:26:39Z</time>
      </trkpt>
      <trkpt lat="45.04444" lon="6.74722">
        <ele>1351.89</ele>
        <time>2017-01-03T07:26:40Z</time>
      </trkpt>
      <trkpt lat="45.04432" lon="6.74709">
        <ele>1351.31</ele>
        <time>2017-01-03T07:26:41Z</time>
      </trkpt>
      <trkpt lat="45.0442" lon="6.74674">
        <ele>1357.41</ele>
        <time>2017-01-03T07:26:42Z</time>
      </trkpt>
      <trkpt lat="45.04411" lon="6.74631">
        <ele>1366.28</ele>
        <time>2017-01-03T07:26:44Z</time>
      </trkpt>
      <trkpt lat="45.04404" lon="6.74612">
        <ele>1369.33</ele>
        <time>2017-01-03T07:26:45Z</time>
      </trkpt>
      <trkpt lat="45.04391" lon="6.74593">
        <ele>1369.53</ele>
        <time>2017-01-03T07:26:46Z</time>
      </trkpt>
      <trkpt lat="45.04363" lon="6.74563">
        <ele>1367.15</ele>
        <time>2017-01-03T07:26:48Z</time>
      </trkpt>
      <trkpt lat="45.04343" lon="6.74529">
        <ele>1369.46</ele>
        <time>2017-01-03T07:26:49Z</time>
      </trkpt>
      <trkpt lat="45.04329" lon="6.74494">
        <ele>1375.82</ele>
        <time>2017-01-03T07:26:51Z</time>
      </trkpt>
      <trkpt lat="45.0432" lon="6.74445">
        <ele>1383.68</ele>
        <time>2017-01-03T07:26:53Z</time>
      </trkpt>
      <trkpt lat="45.04318" lon="6.74397">
        <ele>1390.34</ele>
        <time>2017-01-03T07:26:55Z</time>
      </trkpt>
      <trkpt lat="45.04314" lon="6.74372">
        <ele>1392.69</ele>
        <time>2017-01-03T07:26:56Z</time>
      </trkpt>
      <trkpt lat="45.04306" lon="6.74339">
        <ele>1396.74</ele>
        <time>2017-01-03T07:26:57Z</time>
      </trkpt>
      <trkpt lat="45.04298" lon="6.74314">
        <ele>1400.7</ele>
        <time>2017-01-03T07:26:58Z</time>
      </trkpt>
      <trkpt lat="45.04294" lon="6.7429">
        <ele>1403.82</ele>
        <time>2017-01-03T07:26:59Z</time>
      </trkpt>
      <trkpt lat="45.04293" lon="6.74254">
        <ele>1407.08</ele>
        <time>2017-01-03T07:27:00Z</time>
      </trkpt>
      <trkpt lat="45.04297" lon="6.74203">
        <ele>1414</ele>
        <time>2017-01-03T07:27:02Z</time>
      </trkpt>
      <trkpt lat="45.04297" lon="6.74153">
        <ele>1419.49</ele>
        <time>2017-01-03T07:27:04Z</time>
      </trkpt>
      <trkpt lat="45.04295" lon="6.74125">
        <ele>1420.72</ele>
        <time>2017-01-03T07:27:06Z</time>
      </trkpt>
      <trkpt lat="45.04313" lon="6.74086">
        <ele>1428.88</ele>
        <time>2017-01-03T07:27:07Z</time>
      </trkpt>
      <trkpt lat="45.04329" lon="6.74064">
        <ele>1435.58</ele>
        <time>2017-01-03T07:27:09Z</time>
      </trkpt>
      <trkpt lat="45.04343" lon="6.74016">
        <ele>1439.27</ele>
        <time>2017-01-03T07:27:11Z</time>
      </trkpt>
      <trkpt lat="45.04352" lon="6.73971">
        <ele>1441.15</ele>
        <time>2017-01-03T07:27:12Z</time>
      </trkpt>
      <trkpt lat="45.04352" lon="6.73987">
        <ele>1440.46</ele>
        <time>2017-01-03T07:27:14Z</time>
      </trkpt>
      <trkpt lat="45.04352" lon="6.73877">
        <ele>1451.58</ele>
        <time>2017-01-03T07:27:18Z</time>
      </trkpt>
      <trkpt lat="45.04401" lon="6.73727">
        <ele>1455.52</ele>
        <time>2017-01-03T07:27:25Z</time>
      </trkpt>
      <trkpt lat="45.04412" lon="6.73706">
        <ele>1453.21</ele>
        <time>2017-01-03T07:27:26Z</time>
      </trkpt>
      <trkpt lat="45.0443" lon="6.737">
        <ele>1449.97</ele>
        <time>2017-01-03T07:27:27Z</time>
      </trkpt>
      <trkpt lat="45.04496" lon="6.73524">
        <ele>1466.18</ele>
        <time>2017-01-03T07:27:34Z</time>
      </trkpt>
      <trkpt lat="45.04494" lon="6.73461">
        <ele>1467.07</ele>
        <time>2017-01-03T07:27:37Z</time>
      </trkpt>
      <trkpt lat="45.04483" lon="6.73423">
        <ele>1467.78</ele>
        <time>2017-01-03T07:27:38Z</time>
      </trkpt>
      <trkpt lat="45.04445" lon="6.73351">
        <ele>1476.02</ele>
        <time>2017-01-03T07:27:42Z</time>
      </trkpt>
      <trkpt lat="45.04431" lon="6.73164">
        <ele>1466.34</ele>
        <time>2017-01-03T07:27:49Z</time>
      </trkpt>
      <trkpt lat="45.04411" lon="6.73113">
        <ele>1477.33</ele>
        <time>2017-01-03T07:27:51Z</time>
      </trkpt>
      <trkpt lat="45.0442" lon="6.73075">
        <ele>1474.26</ele>
        <time>2017-01-03T07:27:53Z</time>
      </trkpt>
      <trkpt lat="45.04443" lon="6.73038">
        <ele>1471.13</ele>
        <time>2017-01-03T07:27:55Z</time>
      </trkpt>
      <trkpt lat="45.04438" lon="6.73016">
        <ele>1476.09</ele>
        <time>2017-01-03T07:27:56Z</time>
      </trkpt>
      <trkpt lat="45.04457" lon="6.72951">
        <ele>1476.78</ele>
        <time>2017-01-03T07:27:58Z</time>
      </trkpt>
      <trkpt lat="45.04413" lon="6.7291">
        <ele>1490.12</ele>
        <time>2017-01-03T07:28:01Z</time>
      </trkpt>
      <trkpt lat="45.04352" lon="6.72913">
        <ele>1497.9</ele>
        <time>2017-01-03T07:28:05Z</time>
      </trkpt>
      <trkpt lat="45.04361" lon="6.72883">
        <ele>1499.5</ele>
        <time>2017-01-03T07:28:06Z</time>
      </trkpt>
      <trkpt lat="45.04378" lon="6.7287">
        <ele>1500.94</ele>
        <time>2017-01-03T07:28:07Z</time>
      </trkpt>
      <trkpt lat="45.04444" lon="6.72879">
        <ele>1492.66</ele>
        <time>2017-01-03T07:28:11Z</time>
      </trkpt>
      <trkpt lat="45.04523" lon="6.72925">
        <ele>1484.07</ele>
        <time>2017-01-03T07:28:15Z</time>
      </trkpt>
      <trkpt lat="45.04543" lon="6.72978">
        <ele>1475.06</ele>
        <time>2017-01-03T07:28:18Z</time>
      </trkpt>
      <trkpt lat="45.04569" lon="6.72994">
        <ele>1478.55</ele>
        <time>2017-01-03T07:28:19Z</time>
      </trkpt>
      <trkpt lat="45.04627" lon="6.72948">
        <ele>1482.45</ele>
        <time>2017-01-03T07:28:23Z</time>
      </trkpt>
      <trkpt lat="45.04643" lon="6.72853">
        <ele>1495.61</ele>
        <time>2017-01-03T07:28:27Z</time>
      </trkpt>
      <trkpt lat="45.04659" lon="6.72816">
        <ele>1503.97</ele>
        <time>2017-01-03T07:28:28Z</time>
      </trkpt>
      <trkpt lat="45.04702" lon="6.72849">
        <ele>1498.2</ele>
        <time>2017-01-03T07:28:31Z</time>
      </trkpt>
      <trkpt lat="45.04706" lon="6.72878">
        <ele>1488.43</ele>
        <time>2017-01-03T07:28:32Z</time>
      </trkpt>
      <trkpt lat="45.04739" lon="6.729">
        <ele>1498.96</ele>
        <time>2017-01-03T07:28:34Z</time>
      </trkpt>
      <trkpt lat="45.04756" lon="6.72945">
        <ele>1492.45</ele>
        <time>2017-01-03T07:28:36Z</time>
      </trkpt>
      <trkpt lat="45.04784" lon="6.72962">
        <ele>1497.52</ele>
        <time>2017-01-03T07:28:38Z</time>
      </trkpt>
      <trkpt lat="45.04763" lon="6.7296">
        <ele>1489.78</ele>
        <time>2017-01-03T07:28:39Z</time>
      </trkpt>
      <trkpt lat="45.04777" lon="6.72966">
        <ele>1493.24</ele>
        <time>2017-01-03T07:28:40Z</time>
      </trkpt>
      <trkpt lat="45.04785" lon="6.72975">
        <ele>1491.13</ele>
        <time>2017-01-03T07:28:40Z</time>
      </trkpt>
      <trkpt lat="45.04818" lon="6.72957">
        <ele>1509.21</ele>
        <time>2017-01-03T07:28:42Z</time>
      </trkpt>
      <trkpt lat="45.04828" lon="6.72955">
        <ele>1512.95</ele>
        <time>2017-01-03T07:28:43Z</time>
      </trkpt>
      <trkpt lat="45.04838" lon="6.72956">
        <ele>1514.65</ele>
        <time>2017-01-03T07:28:43Z</time>
      </trkpt>
      <trkpt lat="45.04848" lon="6.72959">
        <ele>1514.85</ele>
        <time>2017-01-03T07:28:44Z</time>
      </trkpt>
      <trkpt lat="45.04863" lon="6.72967">
        <ele>1514.23</ele>
        <time>2017-01-03T07:28:45Z</time>
      </trkpt>
      <trkpt lat="45.04899" lon="6.72986">
        <ele>1514.81</ele>
        <time>2017-01-03T07:28:47Z</time>
      </trkpt>
      <trkpt lat="45.04932" lon="6.72994">
        <ele>1522.26</ele>
        <time>2017-01-03T07:28:49Z</time>
      </trkpt>
      <trkpt lat="45.04938" lon="6.73013">
        <ele>1520.29</ele>
        <time>2017-01-03T07:28:50Z</time>
      </trkpt>
      <trkpt lat="45.04949" lon="6.7304">
        <ele>1518.78</ele>
        <time>2017-01-03T07:28:51Z</time>
      </trkpt>
      <trkpt lat="45.04961" lon="6.7306">
        <ele>1517.74</ele>
        <time>2017-01-03T07:28:52Z</time>
      </trkpt>
      <trkpt lat="45.04977" lon="6.7306">
        <ele>1520.76</ele>
        <time>2017-01-03T07:28:53Z</time>
      </trkpt>
      <trkpt lat="45.04984" lon="6.7305">
        <ele>1523.95</ele>
        <time>2017-01-03T07:28:53Z</time>
      </trkpt>
      <trkpt lat="45.04991" lon="6.73026">
        <ele>1531.08</ele>
        <time>2017-01-03T07:28:54Z</time>
      </trkpt>
      <trkpt lat="45.05011" lon="6.73029">
        <ele>1535.04</ele>
        <time>2017-01-03T07:28:56Z</time>
      </trkpt>
      <trkpt lat="45.05027" lon="6.73048">
        <ele>1533.72</ele>
        <time>2017-01-03T07:28:57Z</time>
      </trkpt>
      <trkpt lat="45.05036" lon="6.73065">
        <ele>1532.67</ele>
        <time>2017-01-03T07:28:58Z</time>
      </trkpt>
      <trkpt lat="45.05057" lon="6.73092">
        <ele>1534.97</ele>
        <time>2017-01-03T07:28:59Z</time>
      </trkpt>
      <trkpt lat="45.05087" lon="6.73118">
        <ele>1544.14</ele>
        <time>2017-01-03T07:29:01Z</time>
      </trkpt>
      <trkpt lat="45.05104" lon="6.73142">
        <ele>1548.61</ele>
        <time>2017-01-03T07:29:02Z</time>
      </trkpt>
      <trkpt lat="45.05109" lon="6.73157">
        <ele>1549.71</ele>
        <time>2017-01-03T07:29:03Z</time>
      </trkpt>
      <trkpt lat="45.05113" lon="6.73184">
        <ele>1550.53</ele>
        <time>2017-01-03T07:29:04Z</time>
      </trkpt>
      <trkpt lat="45.05115" lon="6.73215">
        <ele>1550.88</ele>
        <time>2017-01-03T07:29:05Z</time>
      </trkpt>
      <trkpt lat="45.05129" lon="6.73211">
        <ele>1554.12</ele>
        <time>2017-01-03T07:29:06Z</time>
      </trkpt>
      <trkpt lat="45.05147" lon="6.73157">
        <ele>1560.85</ele>
        <time>2017-01-03T07:29:09Z</time>
      </trkpt>
      <trkpt lat="45.0515" lon="6.73124">
        <ele>1562.98</ele>
        <time>2017-01-03T07:29:10Z</time>
      </trkpt>
      <trkpt lat="45.05148" lon="6.73108">
        <ele>1564.09</ele>
        <time>2017-01-03T07:29:11Z</time>
      </trkpt>
      <trkpt lat="45.05139" lon="6.73095">
        <ele>1564.34</ele>
        <time>2017-01-03T07:29:11Z</time>
      </trkpt>
      <trkpt lat="45.05134" lon="6.73075">
        <ele>1566.55</ele>
        <time>2017-01-03T07:29:12Z</time>
      </trkpt>
      <trkpt lat="45.05131" lon="6.73053">
        <ele>1570.31</ele>
        <time>2017-01-03T07:29:13Z</time>
      </trkpt>
      <trkpt lat="45.05123" lon="6.73035">
        <ele>1571.46</ele>
        <time>2017-01-03T07:29:14Z</time>
      </trkpt>
      <trkpt lat="45.05114" lon="6.73024">
        <ele>1570.76</ele>
        <time>2017-01-03T07:29:14Z</time>
      </trkpt>
      <trkpt lat="45.05104" lon="6.73003">
        <ele>1572.26</ele>
        <time>2017-01-03T07:29:15Z</time>
      </trkpt>
      <trkpt lat="45.05091" lon="6.72963">
        <ele>1575.99</ele>
        <time>2017-01-03T07:29:17Z</time>
      </trkpt>
      <trkpt lat="45.05078" lon="6.72912">
        <ele>1582.86</ele>
        <time>2017-01-03T07:29:19Z</time>
      </trkpt>
      <trkpt lat="45.05069" lon="6.72888">
        <ele>1587.15</ele>
        <time>2017-01-03T07:29:20Z</time>
      </trkpt>
      <trkpt lat="45.05061" lon="6.72878">
        <ele>1588.23</ele>
        <time>2017-01-03T07:29:21Z</time>
      </trkpt>
      <trkpt lat="45.0505" lon="6.72871">
        <ele>1588.61</ele>
        <time>2017-01-03T07:29:22Z</time>
      </trkpt>
      <trkpt lat="45.05035" lon="6.72866">
        <ele>1588.85</ele>
        <time>2017-01-03T07:29:22Z</time>
      </trkpt>
      <trkpt lat="45.05022" lon="6.72866">
        <ele>1587.96</ele>
        <time>2017-01-03T07:29:23Z</time>
      </trkpt>
      <trkpt lat="45.05009" lon="6.72861">
        <ele>1589.36</ele>
        <time>2017-01-03T07:29:24Z</time>
      </trkpt>
      <trkpt lat="45.04999" lon="6.72851">
        <ele>1592.61</ele>
        <time>2017-01-03T07:29:24Z</time>
      </trkpt>
      <trkpt lat="45.04987" lon="6.72843">
        <ele>1595.5</ele>
        <time>2017-01-03T07:29:25Z</time>
      </trkpt>
      <trkpt lat="45.04966" lon="6.7285">
        <ele>1591.08</ele>
        <time>2017-01-03T07:29:26Z</time>
      </trkpt>
      <trkpt lat="45.04955" lon="6.72853">
        <ele>1587.7</ele>
        <time>2017-01-03T07:29:27Z</time>
      </trkpt>
      <trkpt lat="45.04946" lon="6.72843">
        <ele>1590.76</ele>
        <time>2017-01-03T07:29:28Z</time>
      </trkpt>
      <trkpt lat="45.04932" lon="6.72822">
        <ele>1598.56</ele>
        <time>2017-01-03T07:29:29Z</time>
      </trkpt>
      <trkpt lat="45.04913" lon="6.72807">
        <ele>1600.19</ele>
        <time>2017-01-03T07:29:30Z</time>
      </trkpt>
      <trkpt lat="45.04924" lon="6.72797">
        <ele>1607.99</ele>
        <time>2017-01-03T07:29:31Z</time>
      </trkpt>
      <trkpt lat="45.04936" lon="6.72809">
        <ele>1606.43</ele>
        <time>2017-01-03T07:29:32Z</time>
      </trkpt>
      <trkpt lat="45.04956" lon="6.72815">
        <ele>1606.82</ele>
        <time>2017-01-03T07:29:33Z</time>
      </trkpt>
      <trkpt lat="45.04979" lon="6.72813">
        <ele>1608.92</ele>
        <time>2017-01-03T07:29:34Z</time>
      </trkpt>
      <trkpt lat="45.05006" lon="6.72788">
        <ele>1616.95</ele>
        <time>2017-01-03T07:29:36Z</time>
      </trkpt>
      <trkpt lat="45.05017" lon="6.72776">
        <ele>1621.6</ele>
        <time>2017-01-03T07:29:37Z</time>
      </trkpt>
      <trkpt lat="45.05028" lon="6.72772">
        <ele>1622.88</ele>
        <time>2017-01-03T07:29:37Z</time>
      </trkpt>
      <trkpt lat="45.05058" lon="6.72775">
        <ele>1623.63</ele>
        <time>2017-01-03T07:29:39Z</time>
      </trkpt>
      <trkpt lat="45.05069" lon="6.72781">
        <ele>1623.57</ele>
        <time>2017-01-03T07:29:40Z</time>
      </trkpt>
      <trkpt lat="45.05067" lon="6.72753">
        <ele>1634.28</ele>
        <time>2017-01-03T07:29:41Z</time>
      </trkpt>
      <trkpt lat="45.05051" lon="6.7274">
        <ele>1636.53</ele>
        <time>2017-01-03T07:29:42Z</time>
      </trkpt>
      <trkpt lat="45.05038" lon="6.72726">
        <ele>1641.15</ele>
        <time>2017-01-03T07:29:43Z</time>
      </trkpt>
      <trkpt lat="45.05028" lon="6.7272">
        <ele>1642.82</ele>
        <time>2017-01-03T07:29:44Z</time>
      </trkpt>
      <trkpt lat="45.05017" lon="6.7272">
        <ele>1642.41</ele>
        <time>2017-01-03T07:29:45Z</time>
      </trkpt>
      <trkpt lat="45.05" lon="6.72716">
        <ele>1643.24</ele>
        <time>2017-01-03T07:29:46Z</time>
      </trkpt>
      <trkpt lat="45.04984" lon="6.72706">
        <ele>1646.17</ele>
        <time>2017-01-03T07:29:46Z</time>
      </trkpt>
      <trkpt lat="45.04967" lon="6.72698">
        <ele>1647.2</ele>
        <time>2017-01-03T07:29:47Z</time>
      </trkpt>
      <trkpt lat="45.04954" lon="6.72688">
        <ele>1648.15</ele>
        <time>2017-01-03T07:29:48Z</time>
      </trkpt>
      <trkpt lat="45.04942" lon="6.7268">
        <ele>1648.94</ele>
        <time>2017-01-03T07:29:49Z</time>
      </trkpt>
      <trkpt lat="45.04913" lon="6.7268">
        <ele>1645.95</ele>
        <time>2017-01-03T07:29:51Z</time>
      </trkpt>
      <trkpt lat="45.04901" lon="6.72674">
        <ele>1645.39</ele>
        <time>2017-01-03T07:29:51Z</time>
      </trkpt>
      <trkpt lat="45.04891" lon="6.7267">
        <ele>1644.49</ele>
        <time>2017-01-03T07:29:52Z</time>
      </trkpt>
      <trkpt lat="45.04886" lon="6.7265">
        <ele>1645.39</ele>
        <time>2017-01-03T07:29:53Z</time>
      </trkpt>
      <trkpt lat="45.04913" lon="6.72659">
        <ele>1652.23</ele>
        <time>2017-01-03T07:29:54Z</time>
      </trkpt>
      <trkpt lat="45.04927" lon="6.7266">
        <ele>1653.75</ele>
        <time>2017-01-03T07:29:55Z</time>
      </trkpt>
      <trkpt lat="45.04945" lon="6.72646">
        <ele>1659.77</ele>
        <time>2017-01-03T07:29:56Z</time>
      </trkpt>
      <trkpt lat="45.04958" lon="6.72642">
        <ele>1662.89</ele>
        <time>2017-01-03T07:29:57Z</time>
      </trkpt>
      <trkpt lat="45.04982" lon="6.72637">
        <ele>1668.16</ele>
        <time>2017-01-03T07:29:58Z</time>
      </trkpt>
      <trkpt lat="45.04995" lon="6.72632">
        <ele>1672.01</ele>
        <time>2017-01-03T07:29:59Z</time>
      </trkpt>
      <trkpt lat="45.05005" lon="6.72625">
        <ele>1676.22</ele>
        <time>2017-01-03T07:30:00Z</time>
      </trkpt>
      <trkpt lat="45.05041" lon="6.7263">
        <ele>1678.8</ele>
        <time>2017-01-03T07:30:02Z</time>
      </trkpt>
      <trkpt lat="45.05066" lon="6.72622">
        <ele>1684.5</ele>
        <time>2017-01-03T07:30:03Z</time>
      </trkpt>
      <trkpt lat="45.05089" lon="6.72617">
        <ele>1690.13</ele>
        <time>2017-01-03T07:30:04Z</time>
      </trkpt>
      <trkpt lat="45.05104" lon="6.72622">
        <ele>1692.85</ele>
        <time>2017-01-03T07:30:05Z</time>
      </trkpt>
      <trkpt lat="45.05136" lon="6.72634">
        <ele>1696.3</ele>
        <time>2017-01-03T07:30:07Z</time>
      </trkpt>
      <trkpt lat="45.05172" lon="6.72645">
        <ele>1697.01</ele>
        <time>2017-01-03T07:30:09Z</time>
      </trkpt>
      <trkpt lat="45.05182" lon="6.72646">
        <ele>1697.43</ele>
        <time>2017-01-03T07:30:10Z</time>
      </trkpt>
      <trkpt lat="45.05199" lon="6.72639">
        <ele>1701.29</ele>
        <time>2017-01-03T07:30:11Z</time>
      </trkpt>
      <trkpt lat="45.05211" lon="6.72648">
        <ele>1699.69</ele>
        <time>2017-01-03T07:30:11Z</time>
      </trkpt>
      <trkpt lat="45.05222" lon="6.72656">
        <ele>1699.27</ele>
        <time>2017-01-03T07:30:12Z</time>
      </trkpt>
      <trkpt lat="45.05227" lon="6.72637">
        <ele>1703.74</ele>
        <time>2017-01-03T07:30:13Z</time>
      </trkpt>
      <trkpt lat="45.05208" lon="6.72625">
        <ele>1705.74</ele>
        <time>2017-01-03T07:30:14Z</time>
      </trkpt>
      <trkpt lat="45.05188" lon="6.72608">
        <ele>1711.04</ele>
        <time>2017-01-03T07:30:16Z</time>
      </trkpt>
      <trkpt lat="45.05147" lon="6.72571">
        <ele>1720.98</ele>
        <time>2017-01-03T07:30:18Z</time>
      </trkpt>
      <trkpt lat="45.05133" lon="6.7257">
        <ele>1720.64</ele>
        <time>2017-01-03T07:30:19Z</time>
      </trkpt>
      <trkpt lat="45.05116" lon="6.72574">
        <ele>1717.22</ele>
        <time>2017-01-03T07:30:20Z</time>
      </trkpt>
      <trkpt lat="45.05097" lon="6.7257">
        <ele>1712.96</ele>
        <time>2017-01-03T07:30:21Z</time>
      </trkpt>
      <trkpt lat="45.05087" lon="6.72563">
        <ele>1711.74</ele>
        <time>2017-01-03T07:30:22Z</time>
      </trkpt>
      <trkpt lat="45.05066" lon="6.72521">
        <ele>1729.14</ele>
        <time>2017-01-03T07:30:24Z</time>
      </trkpt>
      <trkpt lat="45.05048" lon="6.72509">
        <ele>1731.52</ele>
        <time>2017-01-03T07:30:25Z</time>
      </trkpt>
      <trkpt lat="45.05016" lon="6.72506">
        <ele>1727.8</ele>
        <time>2017-01-03T07:30:27Z</time>
      </trkpt>
      <trkpt lat="45.05005" lon="6.725">
        <ele>1728.72</ele>
        <time>2017-01-03T07:30:27Z</time>
      </trkpt>
      <trkpt lat="45.04995" lon="6.72491">
        <ele>1730.04</ele>
        <time>2017-01-03T07:30:28Z</time>
      </trkpt>
      <trkpt lat="45.04985" lon="6.72466">
        <ele>1735.15</ele>
        <time>2017-01-03T07:30:29Z</time>
      </trkpt>
      <trkpt lat="45.04971" lon="6.72416">
        <ele>1739.61</ele>
        <time>2017-01-03T07:30:31Z</time>
      </trkpt>
      <trkpt lat="45.0496" lon="6.72363">
        <ele>1742.8</ele>
        <time>2017-01-03T07:30:33Z</time>
      </trkpt>
      <trkpt lat="45.0496" lon="6.7234">
        <ele>1743.84</ele>
        <time>2017-01-03T07:30:34Z</time>
      </trkpt>
      <trkpt lat="45.04956" lon="6.72313">
        <ele>1743.26</ele>
        <time>2017-01-03T07:30:35Z</time>
      </trkpt>
      <trkpt lat="45.04952" lon="6.72246">
        <ele>1750.66</ele>
        <time>2017-01-03T07:30:38Z</time>
      </trkpt>
      <trkpt lat="45.04953" lon="6.72216">
        <ele>1755.07</ele>
        <time>2017-01-03T07:30:39Z</time>
      </trkpt>
      <trkpt lat="45.04955" lon="6.72198">
        <ele>1757.44</ele>
        <time>2017-01-03T07:30:40Z</time>
      </trkpt>
      <trkpt lat="45.04962" lon="6.72179">
        <ele>1762.09</ele>
        <time>2017-01-03T07:30:41Z</time>
      </trkpt>
      <trkpt lat="45.04977" lon="6.7214">
        <ele>1768.56</ele>
        <time>2017-01-03T07:30:42Z</time>
      </trkpt>
      <trkpt lat="45.04984" lon="6.72107">
        <ele>1770.32</ele>
        <time>2017-01-03T07:30:44Z</time>
      </trkpt>
      <trkpt lat="45.0499" lon="6.72019">
        <ele>1777.07</ele>
        <time>2017-01-03T07:30:47Z</time>
      </trkpt>
      <trkpt lat="45.05002" lon="6.71933">
        <ele>1792.97</ele>
        <time>2017-01-03T07:30:50Z</time>
      </trkpt>
      <trkpt lat="45.05002" lon="6.71894">
        <ele>1799.55</ele>
        <time>2017-01-03T07:30:52Z</time>
      </trkpt>
      <trkpt lat="45.04994" lon="6.71873">
        <ele>1802.3</ele>
        <time>2017-01-03T07:30:53Z</time>
      </trkpt>
      <trkpt lat="45.04981" lon="6.71864">
        <ele>1802.5</ele>
        <time>2017-01-03T07:30:54Z</time>
      </trkpt>
      <trkpt lat="45.04969" lon="6.71864">
        <ele>1801.02</ele>
        <time>2017-01-03T07:30:54Z</time>
      </trkpt>
      <trkpt lat="45.04938" lon="6.71874">
        <ele>1794.09</ele>
        <time>2017-01-03T07:30:56Z</time>
      </trkpt>
      <trkpt lat="45.04928" lon="6.71871">
        <ele>1792</ele>
        <time>2017-01-03T07:30:57Z</time>
      </trkpt>
      <trkpt lat="45.04925" lon="6.71851">
        <ele>1792.72</ele>
        <time>2017-01-03T07:30:57Z</time>
      </trkpt>
      <trkpt lat="45.04936" lon="6.71817">
        <ele>1797.76</ele>
        <time>2017-01-03T07:30:59Z</time>
      </trkpt>
      <trkpt lat="45.04947" lon="6.71801">
        <ele>1802.18</ele>
        <time>2017-01-03T07:31:00Z</time>
      </trkpt>
      <trkpt lat="45.04959" lon="6.71793">
        <ele>1805.48</ele>
        <time>2017-01-03T07:31:00Z</time>
      </trkpt>
      <trkpt lat="45.0497" lon="6.71792">
        <ele>1807.57</ele>
        <time>2017-01-03T07:31:01Z</time>
      </trkpt>
      <trkpt lat="45.04997" lon="6.71796">
        <ele>1812.76</ele>
        <time>2017-01-03T07:31:03Z</time>
      </trkpt>
      <trkpt lat="45.05026" lon="6.71799">
        <ele>1816.91</ele>
        <time>2017-01-03T07:31:04Z</time>
      </trkpt>
      <trkpt lat="45.05049" lon="6.71812">
        <ele>1818.36</ele>
        <time>2017-01-03T07:31:06Z</time>
      </trkpt>
      <trkpt lat="45.05072" lon="6.71839">
        <ele>1820.39</ele>
        <time>2017-01-03T07:31:07Z</time>
      </trkpt>
      <trkpt lat="45.05082" lon="6.71859">
        <ele>1822.62</ele>
        <time>2017-01-03T07:31:08Z</time>
      </trkpt>
      <trkpt lat="45.05086" lon="6.71887">
        <ele>1824.05</ele>
        <time>2017-01-03T07:31:09Z</time>
      </trkpt>
      <trkpt lat="45.05083" lon="6.71934">
        <ele>1824.46</ele>
        <time>2017-01-03T07:31:11Z</time>
      </trkpt>
      <trkpt lat="45.05084" lon="6.71982">
        <ele>1825.23</ele>
        <time>2017-01-03T07:31:13Z</time>
      </trkpt>
      <trkpt lat="45.05087" lon="6.71997">
        <ele>1825.98</ele>
        <time>2017-01-03T07:31:14Z</time>
      </trkpt>
      <trkpt lat="45.05114" lon="6.72025">
        <ele>1829.54</ele>
        <time>2017-01-03T07:31:15Z</time>
      </trkpt>
      <trkpt lat="45.05125" lon="6.72037">
        <ele>1832.01</ele>
        <time>2017-01-03T07:31:16Z</time>
      </trkpt>
      <trkpt lat="45.05132" lon="6.72053">
        <ele>1832.42</ele>
        <time>2017-01-03T07:31:17Z</time>
      </trkpt>
      <trkpt lat="45.05143" lon="6.72044">
        <ele>1838.21</ele>
        <time>2017-01-03T07:31:18Z</time>
      </trkpt>
      <trkpt lat="45.05149" lon="6.72019">
        <ele>1844.15</ele>
        <time>2017-01-03T07:31:19Z</time>
      </trkpt>
      <trkpt lat="45.05151" lon="6.71994">
        <ele>1847.7</ele>
        <time>2017-01-03T07:31:20Z</time>
      </trkpt>
      <trkpt lat="45.05145" lon="6.71971">
        <ele>1846.99</ele>
        <time>2017-01-03T07:31:21Z</time>
      </trkpt>
      <trkpt lat="45.05147" lon="6.71948">
        <ele>1847.88</ele>
        <time>2017-01-03T07:31:21Z</time>
      </trkpt>
      <trkpt lat="45.05171" lon="6.71905">
        <ele>1855.3</ele>
        <time>2017-01-03T07:31:24Z</time>
      </trkpt>
      <trkpt lat="45.05185" lon="6.71883">
        <ele>1859.98</ele>
        <time>2017-01-03T07:31:25Z</time>
      </trkpt>
      <trkpt lat="45.05192" lon="6.71866">
        <ele>1861.53</ele>
        <time>2017-01-03T07:31:25Z</time>
      </trkpt>
      <trkpt lat="45.05198" lon="6.71844">
        <ele>1862</ele>
        <time>2017-01-03T07:31:26Z</time>
      </trkpt>
      <trkpt lat="45.05198" lon="6.71812">
        <ele>1860.41</ele>
        <time>2017-01-03T07:31:28Z</time>
      </trkpt>
      <trkpt lat="45.05207" lon="6.71791">
        <ele>1863.54</ele>
        <time>2017-01-03T07:31:29Z</time>
      </trkpt>
      <trkpt lat="45.05215" lon="6.71776">
        <ele>1867.36</ele>
        <time>2017-01-03T07:31:29Z</time>
      </trkpt>
      <trkpt lat="45.05208" lon="6.71738">
        <ele>1868.64</ele>
        <time>2017-01-03T07:31:31Z</time>
      </trkpt>
      <trkpt lat="45.05207" lon="6.71718">
        <ele>1870.11</ele>
        <time>2017-01-03T07:31:32Z</time>
      </trkpt>
      <trkpt lat="45.0522" lon="6.71619">
        <ele>1885.8</ele>
        <time>2017-01-03T07:31:36Z</time>
      </trkpt>
      <trkpt lat="45.05224" lon="6.71566">
        <ele>1895.02</ele>
        <time>2017-01-03T07:31:38Z</time>
      </trkpt>
      <trkpt lat="45.05214" lon="6.71541">
        <ele>1895.44</ele>
        <time>2017-01-03T07:31:39Z</time>
      </trkpt>
      <trkpt lat="45.05196" lon="6.71519">
        <ele>1896.79</ele>
        <time>2017-01-03T07:31:40Z</time>
      </trkpt>
      <trkpt lat="45.05189" lon="6.71501">
        <ele>1900.94</ele>
        <time>2017-01-03T07:31:41Z</time>
      </trkpt>
      <trkpt lat="45.05184" lon="6.71481">
        <ele>1907.17</ele>
        <time>2017-01-03T07:31:42Z</time>
      </trkpt>
      <trkpt lat="45.05184" lon="6.71455">
        <ele>1916.68</ele>
        <time>2017-01-03T07:31:43Z</time>
      </trkpt>
      <trkpt lat="45.0519" lon="6.71438">
        <ele>1922.96</ele>
        <time>2017-01-03T07:31:43Z</time>
      </trkpt>
      <trkpt lat="45.05201" lon="6.71431">
        <ele>1926.31</ele>
        <time>2017-01-03T07:31:44Z</time>
      </trkpt>
      <trkpt lat="45.05218" lon="6.71438">
        <ele>1926.93</ele>
        <time>2017-01-03T07:31:45Z</time>
      </trkpt>
      <trkpt lat="45.05235" lon="6.71463">
        <ele>1924.7</ele>
        <time>2017-01-03T07:31:46Z</time>
      </trkpt>
      <trkpt lat="45.05258" lon="6.7149">
        <ele>1924.11</ele>
        <time>2017-01-03T07:31:48Z</time>
      </trkpt>
      <trkpt lat="45.05289" lon="6.71489">
        <ele>1933.68</ele>
        <time>2017-01-03T07:31:50Z</time>
      </trkpt>
      <trkpt lat="45.053" lon="6.71496">
        <ele>1935.18</ele>
        <time>2017-01-03T07:31:50Z</time>
      </trkpt>
      <trkpt lat="45.05305" lon="6.71517">
        <ele>1933.34</ele>
        <time>2017-01-03T07:31:51Z</time>
      </trkpt>
      <trkpt lat="45.05309" lon="6.71564">
        <ele>1927.93</ele>
        <time>2017-01-03T07:31:53Z</time>
      </trkpt>
      <trkpt lat="45.05313" lon="6.71609">
        <ele>1923.61</ele>
        <time>2017-01-03T07:31:55Z</time>
      </trkpt>
      <trkpt lat="45.05317" lon="6.71623">
        <ele>1923.68</ele>
        <time>2017-01-03T07:31:55Z</time>
      </trkpt>
      <trkpt lat="45.0533" lon="6.71632">
        <ele>1926.75</ele>
        <time>2017-01-03T07:31:56Z</time>
      </trkpt>
      <trkpt lat="45.05325" lon="6.71606">
        <ele>1927.93</ele>
        <time>2017-01-03T07:31:58Z</time>
      </trkpt>
      <trkpt lat="45.05323" lon="6.71591">
        <ele>1929.01</ele>
        <time>2017-01-03T07:31:58Z</time>
      </trkpt>
      <trkpt lat="45.05326" lon="6.71563">
        <ele>1935.3</ele>
        <time>2017-01-03T07:31:59Z</time>
      </trkpt>
      <trkpt lat="45.05328" lon="6.71539">
        <ele>1939.6</ele>
        <time>2017-01-03T07:32:00Z</time>
      </trkpt>
      <trkpt lat="45.05325" lon="6.71484">
        <ele>1946.58</ele>
        <time>2017-01-03T07:32:02Z</time>
      </trkpt>
      <trkpt lat="45.05288" lon="6.71455">
        <ele>1941.61</ele>
        <time>2017-01-03T07:32:05Z</time>
      </trkpt>
      <trkpt lat="45.0528" lon="6.71439">
        <ele>1943.66</ele>
        <time>2017-01-03T07:32:06Z</time>
      </trkpt>
      <trkpt lat="45.05243" lon="6.71336">
        <ele>1963.9</ele>
        <time>2017-01-03T07:32:10Z</time>
      </trkpt>
      <trkpt lat="45.05219" lon="6.71327">
        <ele>1962.7</ele>
        <time>2017-01-03T07:32:11Z</time>
      </trkpt>
      <trkpt lat="45.05198" lon="6.71326">
        <ele>1962.29</ele>
        <time>2017-01-03T07:32:13Z</time>
      </trkpt>
      <trkpt lat="45.05165" lon="6.71341">
        <ele>1959.2</ele>
        <time>2017-01-03T07:32:14Z</time>
      </trkpt>
      <trkpt lat="45.05154" lon="6.71343">
        <ele>1956.97</ele>
        <time>2017-01-03T07:32:15Z</time>
      </trkpt>
      <trkpt lat="45.05135" lon="6.71292">
        <ele>1971.06</ele>
        <time>2017-01-03T07:32:17Z</time>
      </trkpt>
      <trkpt lat="45.0513" lon="6.71217">
        <ele>1984.6</ele>
        <time>2017-01-03T07:32:20Z</time>
      </trkpt>
      <trkpt lat="45.05111" lon="6.71096">
        <ele>1997.67</ele>
        <time>2017-01-03T07:32:25Z</time>
      </trkpt>
      <trkpt lat="45.05091" lon="6.7103">
        <ele>1998.35</ele>
        <time>2017-01-03T07:32:28Z</time>
      </trkpt>
      <trkpt lat="45.05083" lon="6.70997">
        <ele>1999.34</ele>
        <time>2017-01-03T07:32:29Z</time>
      </trkpt>
      <trkpt lat="45.05082" lon="6.70975">
        <ele>2002.26</ele>
        <time>2017-01-03T07:32:30Z</time>
      </trkpt>
      <trkpt lat="45.05086" lon="6.70938">
        <ele>2006.72</ele>
        <time>2017-01-03T07:32:32Z</time>
      </trkpt>
      <trkpt lat="45.05085" lon="6.70922">
        <ele>2008.17</ele>
        <time>2017-01-03T07:32:32Z</time>
      </trkpt>
      <trkpt lat="45.0506" lon="6.70878">
        <ele>2011.64</ele>
        <time>2017-01-03T07:32:34Z</time>
      </trkpt>
      <trkpt lat="45.05073" lon="6.70843">
        <ele>2020.01</ele>
        <time>2017-01-03T07:32:36Z</time>
      </trkpt>
      <trkpt lat="45.05086" lon="6.70833">
        <ele>2021.55</ele>
        <time>2017-01-03T07:32:37Z</time>
      </trkpt>
      <trkpt lat="45.05097" lon="6.70865">
        <ele>2023.44</ele>
        <time>2017-01-03T07:32:38Z</time>
      </trkpt>
      <trkpt lat="45.0511" lon="6.70904">
        <ele>2023.22</ele>
        <time>2017-01-03T07:32:40Z</time>
      </trkpt>
      <trkpt lat="45.05129" lon="6.7094">
        <ele>2024.43</ele>
        <time>2017-01-03T07:32:42Z</time>
      </trkpt>
      <trkpt lat="45.05173" lon="6.71003">
        <ele>2027.01</ele>
        <time>2017-01-03T07:32:45Z</time>
      </trkpt>
      <trkpt lat="45.05176" lon="6.71028">
        <ele>2026.34</ele>
        <time>2017-01-03T07:32:46Z</time>
      </trkpt>
      <trkpt lat="45.05173" lon="6.71044">
        <ele>2025.46</ele>
        <time>2017-01-03T07:32:47Z</time>
      </trkpt>
      <trkpt lat="45.05177" lon="6.71057">
        <ele>2025.78</ele>
        <time>2017-01-03T07:32:48Z</time>
      </trkpt>
      <trkpt lat="45.05192" lon="6.71077">
        <ele>2027.72</ele>
        <time>2017-01-03T07:32:49Z</time>
      </trkpt>
      <trkpt lat="45.05192" lon="6.71094">
        <ele>2026.25</ele>
        <time>2017-01-03T07:32:49Z</time>
      </trkpt>
      <trkpt lat="45.05192" lon="6.71135">
        <ele>2019.06</ele>
        <time>2017-01-03T07:32:51Z</time>
      </trkpt>
      <trkpt lat="45.05198" lon="6.71168">
        <ele>2013.12</ele>
        <time>2017-01-03T07:32:52Z</time>
      </trkpt>
      <trkpt lat="45.05204" lon="6.71182">
        <ele>2010.51</ele>
        <time>2017-01-03T07:32:53Z</time>
      </trkpt>
      <trkpt lat="45.05222" lon="6.71177">
        <ele>2012.64</ele>
        <time>2017-01-03T07:32:54Z</time>
      </trkpt>
      <trkpt lat="45.05275" lon="6.71125">
        <ele>2017.15</ele>
        <time>2017-01-03T07:32:58Z</time>
      </trkpt>
      <trkpt lat="45.05292" lon="6.71122">
        <ele>2014.37</ele>
        <time>2017-01-03T07:32:59Z</time>
      </trkpt>
      <trkpt lat="45.05305" lon="6.71149">
        <ele>2009.67</ele>
        <time>2017-01-03T07:33:00Z</time>
      </trkpt>
      <trkpt lat="45.05306" lon="6.71198">
        <ele>2006.57</ele>
        <time>2017-01-03T07:33:02Z</time>
      </trkpt>
      <trkpt lat="45.05309" lon="6.71297">
        <ele>1991.2</ele>
        <time>2017-01-03T07:33:06Z</time>
      </trkpt>
      <trkpt lat="45.05316" lon="6.71337">
        <ele>1983.25</ele>
        <time>2017-01-03T07:33:07Z</time>
      </trkpt>
      <trkpt lat="45.05331" lon="6.71348">
        <ele>1984.72</ele>
        <time>2017-01-03T07:33:08Z</time>
      </trkpt>
      <trkpt lat="45.05353" lon="6.71344">
        <ele>1986.58</ele>
        <time>2017-01-03T07:33:09Z</time>
      </trkpt>
      <trkpt lat="45.05404" lon="6.71321">
        <ele>1987.54</ele>
        <time>2017-01-03T07:33:12Z</time>
      </trkpt>
      <trkpt lat="45.05421" lon="6.71315">
        <ele>1986.63</ele>
        <time>2017-01-03T07:33:13Z</time>
      </trkpt>
      <trkpt lat="45.05439" lon="6.71317">
        <ele>1983.58</ele>
        <time>2017-01-03T07:33:14Z</time>
      </trkpt>
      <trkpt lat="45.05457" lon="6.71319">
        <ele>1979.38</ele>
        <time>2017-01-03T07:33:15Z</time>
      </trkpt>
      <trkpt lat="45.05485" lon="6.71284">
        <ele>1973.39</ele>
        <time>2017-01-03T07:33:17Z</time>
      </trkpt>
      <trkpt lat="45.05506" lon="6.71225">
        <ele>1959.33</ele>
        <time>2017-01-03T07:33:20Z</time>
      </trkpt>
      <trkpt lat="45.05514" lon="6.71209">
        <ele>1953.04</ele>
        <time>2017-01-03T07:33:21Z</time>
      </trkpt>
      <trkpt lat="45.05508" lon="6.71164">
        <ele>1947.64</ele>
        <time>2017-01-03T07:33:23Z</time>
      </trkpt>
      <trkpt lat="45.05494" lon="6.71108">
        <ele>1942.1</ele>
        <time>2017-01-03T07:33:25Z</time>
      </trkpt>
      <trkpt lat="45.05476" lon="6.71079">
        <ele>1942.88</ele>
        <time>2017-01-03T07:33:26Z</time>
      </trkpt>
      <trkpt lat="45.05521" lon="6.71107">
        <ele>1933.42</ele>
        <time>2017-01-03T07:33:29Z</time>
      </trkpt>
      <trkpt lat="45.05559" lon="6.71149">
        <ele>1923.27</ele>
        <time>2017-01-03T07:33:32Z</time>
      </trkpt>
      <trkpt lat="45.0557" lon="6.71295">
        <ele>1918.98</ele>
        <time>2017-01-03T07:33:37Z</time>
      </trkpt>
      <trkpt lat="45.05599" lon="6.71225">
        <ele>1911.26</ele>
        <time>2017-01-03T07:33:41Z</time>
      </trkpt>
      <trkpt lat="45.05608" lon="6.71231">
        <ele>1907.8</ele>
        <time>2017-01-03T07:33:41Z</time>
      </trkpt>
      <trkpt lat="45.0561" lon="6.71276">
        <ele>1904.49</ele>
        <time>2017-01-03T07:33:43Z</time>
      </trkpt>
      <trkpt lat="45.056" lon="6.71327">
        <ele>1902.93</ele>
        <time>2017-01-03T07:33:45Z</time>
      </trkpt>
      <trkpt lat="45.05608" lon="6.71349">
        <ele>1896.64</ele>
        <time>2017-01-03T07:33:46Z</time>
      </trkpt>
      <trkpt lat="45.05637" lon="6.71274">
        <ele>1894.95</ele>
        <time>2017-01-03T07:33:49Z</time>
      </trkpt>
      <trkpt lat="45.05648" lon="6.71173">
        <ele>1895.82</ele>
        <time>2017-01-03T07:33:53Z</time>
      </trkpt>
      <trkpt lat="45.05679" lon="6.71126">
        <ele>1886.72</ele>
        <time>2017-01-03T07:33:56Z</time>
      </trkpt>
      <trkpt lat="45.05676" lon="6.71002">
        <ele>1870.78</ele>
        <time>2017-01-03T07:34:00Z</time>
      </trkpt>
      <trkpt lat="45.05686" lon="6.71">
        <ele>1865.95</ele>
        <time>2017-01-03T07:34:01Z</time>
      </trkpt>
      <trkpt lat="45.05699" lon="6.71016">
        <ele>1863.48</ele>
        <time>2017-01-03T07:34:02Z</time>
      </trkpt>
      <trkpt lat="45.05712" lon="6.7104">
        <ele>1865.04</ele>
        <time>2017-01-03T07:34:03Z</time>
      </trkpt>
      <trkpt lat="45.05775" lon="6.71046">
        <ele>1857.34</ele>
        <time>2017-01-03T07:34:07Z</time>
      </trkpt>
      <trkpt lat="45.05823" lon="6.7108">
        <ele>1847.09</ele>
        <time>2017-01-03T07:34:10Z</time>
      </trkpt>
      <trkpt lat="45.05858" lon="6.71117">
        <ele>1843.12</ele>
        <time>2017-01-03T07:34:12Z</time>
      </trkpt>
      <trkpt lat="45.05837" lon="6.71068">
        <ele>1839.18</ele>
        <time>2017-01-03T07:34:14Z</time>
      </trkpt>
      <trkpt lat="45.05811" lon="6.7099">
        <ele>1833.84</ele>
        <time>2017-01-03T07:34:18Z</time>
      </trkpt>
      <trkpt lat="45.0586" lon="6.71042">
        <ele>1824.98</ele>
        <time>2017-01-03T07:34:21Z</time>
      </trkpt>
      <trkpt lat="45.05967" lon="6.71135">
        <ele>1805.69</ele>
        <time>2017-01-03T07:34:28Z</time>
      </trkpt>
      <trkpt lat="45.05974" lon="6.71096">
        <ele>1800.54</ele>
        <time>2017-01-03T07:34:30Z</time>
      </trkpt>
      <trkpt lat="45.05931" lon="6.71014">
        <ele>1796.72</ele>
        <time>2017-01-03T07:34:34Z</time>
      </trkpt>
      <trkpt lat="45.05928" lon="6.7095">
        <ele>1783.24</ele>
        <time>2017-01-03T07:34:36Z</time>
      </trkpt>
      <trkpt lat="45.05909" lon="6.70933">
        <ele>1783.6</ele>
        <time>2017-01-03T07:34:37Z</time>
      </trkpt>
      <trkpt lat="45.05919" lon="6.70921">
        <ele>1779.22</ele>
        <time>2017-01-03T07:34:38Z</time>
      </trkpt>
      <trkpt lat="45.05996" lon="6.70963">
        <ele>1767.4</ele>
        <time>2017-01-03T07:34:43Z</time>
      </trkpt>
      <trkpt lat="45.06016" lon="6.71009">
        <ele>1764.84</ele>
        <time>2017-01-03T07:34:45Z</time>
      </trkpt>
      <trkpt lat="45.06078" lon="6.71052">
        <ele>1749.42</ele>
        <time>2017-01-03T07:34:49Z</time>
      </trkpt>
      <trkpt lat="45.06121" lon="6.71133">
        <ele>1737.8</ele>
        <time>2017-01-03T07:34:52Z</time>
      </trkpt>
      <trkpt lat="45.06139" lon="6.71205">
        <ele>1722.53</ele>
        <time>2017-01-03T07:34:55Z</time>
      </trkpt>
      <trkpt lat="45.06151" lon="6.71083">
        <ele>1724.73</ele>
        <time>2017-01-03T07:35:00Z</time>
      </trkpt>
      <trkpt lat="45.06162" lon="6.71056">
        <ele>1716.24</ele>
        <time>2017-01-03T07:35:01Z</time>
      </trkpt>
      <trkpt lat="45.06159" lon="6.71027">
        <ele>1714.23</ele>
        <time>2017-01-03T07:35:03Z</time>
      </trkpt>
      <trkpt lat="45.0621" lon="6.71057">
        <ele>1702.27</ele>
        <time>2017-01-03T07:35:06Z</time>
      </trkpt>
      <trkpt lat="45.06247" lon="6.71137">
        <ele>1697.73</ele>
        <time>2017-01-03T07:35:09Z</time>
      </trkpt>
      <trkpt lat="45.06267" lon="6.71068">
        <ele>1686.89</ele>
        <time>2017-01-03T07:35:12Z</time>
      </trkpt>
      <trkpt lat="45.06263" lon="6.71023">
        <ele>1682.71</ele>
        <time>2017-01-03T07:35:14Z</time>
      </trkpt>
      <trkpt lat="45.06301" lon="6.71058">
        <ele>1672.77</ele>
        <time>2017-01-03T07:35:17Z</time>
      </trkpt>
      <trkpt lat="45.06322" lon="6.71136">
        <ele>1668.53</ele>
        <time>2017-01-03T07:35:20Z</time>
      </trkpt>
      <trkpt lat="45.0634" lon="6.71136">
        <ele>1663.84</ele>
        <time>2017-01-03T07:35:21Z</time>
      </trkpt>
      <trkpt lat="45.06344" lon="6.71046">
        <ele>1656.53</ele>
        <time>2017-01-03T07:35:25Z</time>
      </trkpt>
      <trkpt lat="45.06334" lon="6.70978">
        <ele>1651.6</ele>
        <time>2017-01-03T07:35:27Z</time>
      </trkpt>
      <trkpt lat="45.06373" lon="6.71008">
        <ele>1641.38</ele>
        <time>2017-01-03T07:35:30Z</time>
      </trkpt>
      <trkpt lat="45.06396" lon="6.71056">
        <ele>1638.2</ele>
        <time>2017-01-03T07:35:32Z</time>
      </trkpt>
      <trkpt lat="45.0642" lon="6.71074">
        <ele>1629.22</ele>
        <time>2017-01-03T07:35:33Z</time>
      </trkpt>
      <trkpt lat="45.06436" lon="6.71134">
        <ele>1623.49</ele>
        <time>2017-01-03T07:35:36Z</time>
      </trkpt>
      <trkpt lat="45.06468" lon="6.71188">
        <ele>1617.03</ele>
        <time>2017-01-03T07:35:39Z</time>
      </trkpt>
      <trkpt lat="45.06467" lon="6.71132">
        <ele>1614.62</ele>
        <time>2017-01-03T07:35:41Z</time>
      </trkpt>
      <trkpt lat="45.06488" lon="6.70999">
        <ele>1594.8</ele>
        <time>2017-01-03T07:35:46Z</time>
      </trkpt>
      <trkpt lat="45.06453" lon="6.70911">
        <ele>1594.55</ele>
        <time>2017-01-03T07:35:50Z</time>
      </trkpt>
      <trkpt lat="45.06454" lon="6.70848">
        <ele>1590.72</ele>
        <time>2017-01-03T07:35:52Z</time>
      </trkpt>
      <trkpt lat="45.06474" lon="6.70808">
        <ele>1586.37</ele>
        <time>2017-01-03T07:35:54Z</time>
      </trkpt>
      <trkpt lat="45.06512" lon="6.70772">
        <ele>1580.54</ele>
        <time>2017-01-03T07:35:57Z</time>
      </trkpt>
      <trkpt lat="45.06523" lon="6.70738">
        <ele>1578.87</ele>
        <time>2017-01-03T07:35:58Z</time>
      </trkpt>
      <trkpt lat="45.06566" lon="6.70687">
        <ele>1564.48</ele>
        <time>2017-01-03T07:36:01Z</time>
      </trkpt>
      <trkpt lat="45.06596" lon="6.70654">
        <ele>1551.82</ele>
        <time>2017-01-03T07:36:03Z</time>
      </trkpt>
      <trkpt lat="45.06593" lon="6.70623">
        <ele>1554.15</ele>
        <time>2017-01-03T07:36:05Z</time>
      </trkpt>
      <trkpt lat="45.06606" lon="6.70629">
        <ele>1548.09</ele>
        <time>2017-01-03T07:36:06Z</time>
      </trkpt>
      <trkpt lat="45.06612" lon="6.70657">
        <ele>1543.18</ele>
        <time>2017-01-03T07:36:07Z</time>
      </trkpt>
      <trkpt lat="45.06602" lon="6.70692">
        <ele>1546.1</ele>
        <time>2017-01-03T07:36:08Z</time>
      </trkpt>
      <trkpt lat="45.06601" lon="6.70741">
        <ele>1542.47</ele>
        <time>2017-01-03T07:36:10Z</time>
      </trkpt>
      <trkpt lat="45.06607" lon="6.70812">
        <ele>1535.82</ele>
        <time>2017-01-03T07:36:13Z</time>
      </trkpt>
      <trkpt lat="45.06627" lon="6.70796">
        <ele>1528.08</ele>
        <time>2017-01-03T07:36:14Z</time>
      </trkpt>
      <trkpt lat="45.06639" lon="6.70831">
        <ele>1523.95</ele>
        <time>2017-01-03T07:36:16Z</time>
      </trkpt>
      <trkpt lat="45.06654" lon="6.70815">
        <ele>1517.11</ele>
        <time>2017-01-03T07:36:17Z</time>
      </trkpt>
      <trkpt lat="45.06642" lon="6.70758">
        <ele>1521.27</ele>
        <time>2017-01-03T07:36:19Z</time>
      </trkpt>
      <trkpt lat="45.06667" lon="6.70798">
        <ele>1510.27</ele>
        <time>2017-01-03T07:36:21Z</time>
      </trkpt>
      <trkpt lat="45.06681" lon="6.70871">
        <ele>1506.29</ele>
        <time>2017-01-03T07:36:24Z</time>
      </trkpt>
      <trkpt lat="45.06689" lon="6.70829">
        <ele>1501.14</ele>
        <time>2017-01-03T07:36:26Z</time>
      </trkpt>
      <trkpt lat="45.06685" lon="6.708">
        <ele>1500.44</ele>
        <time>2017-01-03T07:36:27Z</time>
      </trkpt>
      <trkpt lat="45.06714" lon="6.70704">
        <ele>1483.69</ele>
        <time>2017-01-03T07:36:31Z</time>
      </trkpt>
      <trkpt lat="45.06719" lon="6.70647">
        <ele>1480.51</ele>
        <time>2017-01-03T07:36:33Z</time>
      </trkpt>
      <trkpt lat="45.06771" lon="6.70679">
        <ele>1454.8</ele>
        <time>2017-01-03T07:36:37Z</time>
      </trkpt>
      <trkpt lat="45.06787" lon="6.70709">
        <ele>1447.7</ele>
        <time>2017-01-03T07:36:38Z</time>
      </trkpt>
      <trkpt lat="45.06801" lon="6.70666">
        <ele>1441.86</ele>
        <time>2017-01-03T07:36:40Z</time>
      </trkpt>
      <trkpt lat="45.06829" lon="6.70649">
        <ele>1433.68</ele>
        <time>2017-01-03T07:36:42Z</time>
      </trkpt>
      <trkpt lat="45.06838" lon="6.70594">
        <ele>1433.77</ele>
        <time>2017-01-03T07:36:44Z</time>
      </trkpt>
      <trkpt lat="45.06864" lon="6.70543">
        <ele>1423.42</ele>
        <time>2017-01-03T07:36:46Z</time>
      </trkpt>
      <trkpt lat="45.06894" lon="6.7041">
        <ele>1413.3</ele>
        <time>2017-01-03T07:36:52Z</time>
      </trkpt>
      <trkpt lat="45.06884" lon="6.70394">
        <ele>1417.75</ele>
        <time>2017-01-03T07:36:53Z</time>
      </trkpt>
      <trkpt lat="45.0691" lon="6.70412">
        <ele>1407.06</ele>
        <time>2017-01-03T07:36:54Z</time>
      </trkpt>
      <trkpt lat="45.06926" lon="6.70441">
        <ele>1398.5</ele>
        <time>2017-01-03T07:36:56Z</time>
      </trkpt>
      <trkpt lat="45.06924" lon="6.70507">
        <ele>1400.5</ele>
        <time>2017-01-03T07:36:58Z</time>
      </trkpt>
      <trkpt lat="45.06947" lon="6.70593">
        <ele>1385.52</ele>
        <time>2017-01-03T07:37:02Z</time>
      </trkpt>
      <trkpt lat="45.06988" lon="6.70557">
        <ele>1374</ele>
        <time>2017-01-03T07:37:04Z</time>
      </trkpt>
      <trkpt lat="45.07015" lon="6.70581">
        <ele>1369.38</ele>
        <time>2017-01-03T07:37:06Z</time>
      </trkpt>
      <trkpt lat="45.07025" lon="6.70575">
        <ele>1368.3</ele>
        <time>2017-01-03T07:37:07Z</time>
      </trkpt>
      <trkpt lat="45.07035" lon="6.70532">
        <ele>1365</ele>
        <time>2017-01-03T07:37:08Z</time>
      </trkpt>
      <trkpt lat="45.0703" lon="6.70482">
        <ele>1364.42</ele>
        <time>2017-01-03T07:37:10Z</time>
      </trkpt>
      <trkpt lat="45.07041" lon="6.70412">
        <ele>1360.24</ele>
        <time>2017-01-03T07:37:13Z</time>
      </trkpt>
      <trkpt lat="45.07085" lon="6.70359">
        <ele>1341.03</ele>
        <time>2017-01-03T07:37:16Z</time>
      </trkpt>
      <trkpt lat="45.07099" lon="6.70316">
        <ele>1331.5</ele>
        <time>2017-01-03T07:37:18Z</time>
      </trkpt>
      <trkpt lat="45.07068" lon="6.7021">
        <ele>1338.76</ele>
        <time>2017-01-03T07:37:23Z</time>
      </trkpt>
      <trkpt lat="45.07087" lon="6.70107">
        <ele>1318.99</ele>
        <time>2017-01-03T07:37:27Z</time>
      </trkpt>
      <trkpt lat="45.07081" lon="6.70083">
        <ele>1315.28</ele>
        <time>2017-01-03T07:37:28Z</time>
      </trkpt>
      <trkpt lat="45.07069" lon="6.70043">
        <ele>1313.93</ele>
        <time>2017-01-03T07:37:30Z</time>
      </trkpt>
      <trkpt lat="45.07101" lon="6.69976">
        <ele>1288.15</ele>
        <time>2017-01-03T07:37:33Z</time>
      </trkpt>
      <trkpt lat="45.07112" lon="6.69891">
        <ele>1277.12</ele>
        <time>2017-01-03T07:37:36Z</time>
      </trkpt>
      <trkpt lat="45.07135" lon="6.69818">
        <ele>1267.39</ele>
        <time>2017-01-03T07:37:39Z</time>
      </trkpt>
      <trkpt lat="45.07132" lon="6.69771">
        <ele>1270.68</ele>
        <time>2017-01-03T07:37:41Z</time>
      </trkpt>
      <trkpt lat="45.07147" lon="6.69726">
        <ele>1273.92</ele>
        <time>2017-01-03T07:37:43Z</time>
      </trkpt>
      <trkpt lat="45.07153" lon="6.69658">
        <ele>1276</ele>
        <time>2017-01-03T07:37:46Z</time>
      </trkpt>
      <trkpt lat="45.0711" lon="6.69741">
        <ele>1275.35</ele>
        <time>2017-01-03T07:37:50Z</time>
      </trkpt>
      <trkpt lat="45.07128" lon="6.69676">
        <ele>1276</ele>
        <time>2017-01-03T07:37:52Z</time>
      </trkpt>
      <trkpt lat="45.0715" lon="6.69649">
        <ele>1276</ele>
        <time>2017-01-03T07:37:54Z</time>
      </trkpt>
      <trkpt lat="45.07171" lon="6.69618">
        <ele>1277.3</ele>
        <time>2017-01-03T07:37:56Z</time>
      </trkpt>
      <trkpt lat="45.07376" lon="6.70524">
        <ele>1265.73</ele>
        <time>2017-01-03T15:23:42Z</time>
      </trkpt>
      <trkpt lat="45.07392" lon="6.70536">
        <ele>1265.99</ele>
        <time>2017-01-03T17:38:35Z</time>
      </trkpt>
      <trkpt lat="45.07502" lon="6.70798">
        <ele>1264.93</ele>
        <time>2017-01-03T17:38:47Z</time>
      </trkpt>
      <trkpt lat="45.0755" lon="6.70872">
        <ele>1260.53</ele>
        <time>2017-01-03T17:38:51Z</time>
      </trkpt>
      <trkpt lat="45.07563" lon="6.70879">
        <ele>1260.62</ele>
        <time>2017-01-03T17:38:52Z</time>
      </trkpt>
      <trkpt lat="45.07559" lon="6.70898">
        <ele>1259.51</ele>
        <time>2017-01-03T17:38:52Z</time>
      </trkpt>
      <trkpt lat="45.07473" lon="6.71076">
        <ele>1257.29</ele>
        <time>2017-01-03T17:39:01Z</time>
      </trkpt>
      <trkpt lat="45.07494" lon="6.71209">
        <ele>1248.93</ele>
        <time>2017-01-03T17:39:06Z</time>
      </trkpt>
      <trkpt lat="45.07506" lon="6.71356">
        <ele>1246.49</ele>
        <time>2017-01-03T17:39:12Z</time>
      </trkpt>
      <trkpt lat="45.07519" lon="6.71384">
        <ele>1247.14</ele>
        <time>2017-01-03T17:39:13Z</time>
      </trkpt>
      <trkpt lat="45.07549" lon="6.71379">
        <ele>1247.14</ele>
        <time>2017-01-03T17:39:15Z</time>
      </trkpt>
      <trkpt lat="45.07679" lon="6.71294">
        <ele>1258.38</ele>
        <time>2017-01-03T17:39:23Z</time>
      </trkpt>
      <trkpt lat="45.07841" lon="6.71111">
        <ele>1261.82</ele>
        <time>2017-01-03T17:39:34Z</time>
      </trkpt>
      <trkpt lat="45.07916" lon="6.71101">
        <ele>1271.43</ele>
        <time>2017-01-03T17:39:38Z</time>
      </trkpt>
      <trkpt lat="45.07998" lon="6.71059">
        <ele>1274.13</ele>
        <time>2017-01-03T17:39:43Z</time>
      </trkpt>
      <trkpt lat="45.08065" lon="6.71038">
        <ele>1281.71</ele>
        <time>2017-01-03T17:39:47Z</time>
      </trkpt>
      <trkpt lat="45.08082" lon="6.71025">
        <ele>1280.36</ele>
        <time>2017-01-03T17:39:48Z</time>
      </trkpt>
      <trkpt lat="45.08114" lon="6.71019">
        <ele>1284.59</ele>
        <time>2017-01-03T17:39:50Z</time>
      </trkpt>
      <trkpt lat="45.08205" lon="6.71018">
        <ele>1286.74</ele>
        <time>2017-01-03T17:39:55Z</time>
      </trkpt>
      <trkpt lat="45.08284" lon="6.71036">
        <ele>1288.82</ele>
        <time>2017-01-03T17:39:59Z</time>
      </trkpt>
      <trkpt lat="45.08511" lon="6.71183">
        <ele>1297.27</ele>
        <time>2017-01-03T17:40:13Z</time>
      </trkpt>
      <trkpt lat="45.08557" lon="6.71241">
        <ele>1296.05</ele>
        <time>2017-01-03T17:40:16Z</time>
      </trkpt>
      <trkpt lat="45.08602" lon="6.71392">
        <ele>1307.31</ele>
        <time>2017-01-03T17:40:22Z</time>
      </trkpt>
      <trkpt lat="45.08632" lon="6.71459">
        <ele>1305.43</ele>
        <time>2017-01-03T17:40:25Z</time>
      </trkpt>
      <trkpt lat="45.0868" lon="6.71513">
        <ele>1306.87</ele>
        <time>2017-01-03T17:40:29Z</time>
      </trkpt>
      <trkpt lat="45.08725" lon="6.71547">
        <ele>1307.43</ele>
        <time>2017-01-03T17:40:32Z</time>
      </trkpt>
      <trkpt lat="45.08779" lon="6.71563">
        <ele>1311.94</ele>
        <time>2017-01-03T17:40:35Z</time>
      </trkpt>
      <trkpt lat="45.08973" lon="6.7176">
        <ele>1333.41</ele>
        <time>2017-01-03T17:40:48Z</time>
      </trkpt>
      <trkpt lat="45.08998" lon="6.71813">
        <ele>1341.71</ele>
        <time>2017-01-03T17:40:50Z</time>
      </trkpt>
      <trkpt lat="45.09012" lon="6.71848">
        <ele>1345.55</ele>
        <time>2017-01-03T17:40:52Z</time>
      </trkpt>
      <trkpt lat="45.09056" lon="6.71885">
        <ele>1350.84</ele>
        <time>2017-01-03T17:40:55Z</time>
      </trkpt>
      <trkpt lat="45.09137" lon="6.71866">
        <ele>1349.62</ele>
        <time>2017-01-03T17:40:59Z</time>
      </trkpt>
      <trkpt lat="45.09145" lon="6.71876">
        <ele>1351.27</ele>
        <time>2017-01-03T17:41:00Z</time>
      </trkpt>
      <trkpt lat="45.0911" lon="6.71914">
        <ele>1369</ele>
        <time>2017-01-03T17:41:02Z</time>
      </trkpt>
      <trkpt lat="45.09061" lon="6.71936">
        <ele>1376.59</ele>
        <time>2017-01-03T17:41:05Z</time>
      </trkpt>
      <trkpt lat="45.09036" lon="6.71921">
        <ele>1373.25</ele>
        <time>2017-01-03T17:41:06Z</time>
      </trkpt>
      <trkpt lat="45.09025" lon="6.71922">
        <ele>1376.91</ele>
        <time>2017-01-03T17:41:07Z</time>
      </trkpt>
      <trkpt lat="45.09063" lon="6.71953">
        <ele>1385.35</ele>
        <time>2017-01-03T17:41:09Z</time>
      </trkpt>
      <trkpt lat="45.09133" lon="6.71962">
        <ele>1383.82</ele>
        <time>2017-01-03T17:41:13Z</time>
      </trkpt>
      <trkpt lat="45.09154" lon="6.7205">
        <ele>1399.51</ele>
        <time>2017-01-03T17:41:17Z</time>
      </trkpt>
      <trkpt lat="45.09201" lon="6.7224">
        <ele>1424.29</ele>
        <time>2017-01-03T17:41:25Z</time>
      </trkpt>
      <trkpt lat="45.09218" lon="6.72265">
        <ele>1425.53</ele>
        <time>2017-01-03T17:41:26Z</time>
      </trkpt>
      <trkpt lat="45.09244" lon="6.72274">
        <ele>1421.99</ele>
        <time>2017-01-03T17:41:27Z</time>
      </trkpt>
      <trkpt lat="45.09289" lon="6.72323">
        <ele>1429.59</ele>
        <time>2017-01-03T17:41:31Z</time>
      </trkpt>
      <trkpt lat="45.0931" lon="6.72366">
        <ele>1434.82</ele>
        <time>2017-01-03T17:41:33Z</time>
      </trkpt>
      <trkpt lat="45.0934" lon="6.72368">
        <ele>1431.16</ele>
        <time>2017-01-03T17:41:34Z</time>
      </trkpt>
      <trkpt lat="45.09366" lon="6.72404">
        <ele>1440.67</ele>
        <time>2017-01-03T17:41:36Z</time>
      </trkpt>
      <trkpt lat="45.09454" lon="6.72479">
        <ele>1433.23</ele>
        <time>2017-01-03T17:41:42Z</time>
      </trkpt>
      <trkpt lat="45.09529" lon="6.72532">
        <ele>1435.7</ele>
        <time>2017-01-03T17:41:46Z</time>
      </trkpt>
      <trkpt lat="45.09672" lon="6.7264">
        <ele>1453.85</ele>
        <time>2017-01-03T17:41:55Z</time>
      </trkpt>
      <trkpt lat="45.09714" lon="6.72677">
        <ele>1451.45</ele>
        <time>2017-01-03T17:41:58Z</time>
      </trkpt>
      <trkpt lat="45.09725" lon="6.72728">
        <ele>1457.72</ele>
        <time>2017-01-03T17:42:00Z</time>
      </trkpt>
      <trkpt lat="45.09732" lon="6.72767">
        <ele>1467.57</ele>
        <time>2017-01-03T17:42:02Z</time>
      </trkpt>
      <trkpt lat="45.09759" lon="6.72754">
        <ele>1459.19</ele>
        <time>2017-01-03T17:42:03Z</time>
      </trkpt>
      <trkpt lat="45.0981" lon="6.72819">
        <ele>1467.36</ele>
        <time>2017-01-03T17:42:07Z</time>
      </trkpt>
      <trkpt lat="45.09825" lon="6.72977">
        <ele>1483.37</ele>
        <time>2017-01-03T17:42:13Z</time>
      </trkpt>
      <trkpt lat="45.09827" lon="6.73065">
        <ele>1490.57</ele>
        <time>2017-01-03T17:42:17Z</time>
      </trkpt>
      <trkpt lat="45.09868" lon="6.7309">
        <ele>1479.79</ele>
        <time>2017-01-03T17:42:19Z</time>
      </trkpt>
      <trkpt lat="45.09871" lon="6.7315">
        <ele>1495.2</ele>
        <time>2017-01-03T17:42:21Z</time>
      </trkpt>
      <trkpt lat="45.09906" lon="6.73181">
        <ele>1493.33</ele>
        <time>2017-01-03T17:42:24Z</time>
      </trkpt>
      <trkpt lat="45.0996" lon="6.73229">
        <ele>1496.12</ele>
        <time>2017-01-03T17:42:27Z</time>
      </trkpt>
      <trkpt lat="45.10041" lon="6.73304">
        <ele>1513.9</ele>
        <time>2017-01-03T17:42:32Z</time>
      </trkpt>
      <trkpt lat="45.10076" lon="6.73261">
        <ele>1500.54</ele>
        <time>2017-01-03T17:42:35Z</time>
      </trkpt>
      <trkpt lat="45.10093" lon="6.73248">
        <ele>1499.19</ele>
        <time>2017-01-03T17:42:36Z</time>
      </trkpt>
      <trkpt lat="45.10165" lon="6.73261">
        <ele>1511.96</ele>
        <time>2017-01-03T17:42:40Z</time>
      </trkpt>
      <trkpt lat="45.10324" lon="6.73348">
        <ele>1521.88</ele>
        <time>2017-01-03T17:42:49Z</time>
      </trkpt>
      <trkpt lat="45.10387" lon="6.73452">
        <ele>1534.5</ele>
        <time>2017-01-03T17:42:55Z</time>
      </trkpt>
      <trkpt lat="45.10432" lon="6.73516">
        <ele>1539.16</ele>
        <time>2017-01-03T17:42:58Z</time>
      </trkpt>
      <trkpt lat="45.10511" lon="6.73564">
        <ele>1538.99</ele>
        <time>2017-01-03T17:43:03Z</time>
      </trkpt>
      <trkpt lat="45.10567" lon="6.73649">
        <ele>1547</ele>
        <time>2017-01-03T17:43:07Z</time>
      </trkpt>
      <trkpt lat="45.10639" lon="6.73783">
        <ele>1554.29</ele>
        <time>2017-01-03T17:43:14Z</time>
      </trkpt>
      <trkpt lat="45.10716" lon="6.73847">
        <ele>1550.02</ele>
        <time>2017-01-03T17:43:19Z</time>
      </trkpt>
      <trkpt lat="45.10732" lon="6.73895">
        <ele>1554.06</ele>
        <time>2017-01-03T17:43:21Z</time>
      </trkpt>
      <trkpt lat="45.1077" lon="6.73921">
        <ele>1552.37</ele>
        <time>2017-01-03T17:43:23Z</time>
      </trkpt>
      <trkpt lat="45.10831" lon="6.73993">
        <ele>1560.73</ele>
        <time>2017-01-03T17:43:27Z</time>
      </trkpt>
      <trkpt lat="45.10939" lon="6.74065">
        <ele>1563.59</ele>
        <time>2017-01-03T17:43:34Z</time>
      </trkpt>
      <trkpt lat="45.11022" lon="6.74221">
        <ele>1585.71</ele>
        <time>2017-01-03T17:43:42Z</time>
      </trkpt>
      <trkpt lat="45.1111" lon="6.74376">
        <ele>1594.07</ele>
        <time>2017-01-03T17:43:49Z</time>
      </trkpt>
      <trkpt lat="45.11152" lon="6.74446">
        <ele>1597.76</ele>
        <time>2017-01-03T17:43:53Z</time>
      </trkpt>
      <trkpt lat="45.11194" lon="6.74698">
        <ele>1616.7</ele>
        <time>2017-01-03T17:44:03Z</time>
      </trkpt>
      <trkpt lat="45.11249" lon="6.74937">
        <ele>1630.66</ele>
        <time>2017-01-03T17:44:13Z</time>
      </trkpt>
      <trkpt lat="45.1128" lon="6.75035">
        <ele>1636.12</ele>
        <time>2017-01-03T17:44:17Z</time>
      </trkpt>
      <trkpt lat="45.11307" lon="6.75064">
        <ele>1634.18</ele>
        <time>2017-01-03T17:44:19Z</time>
      </trkpt>
      <trkpt lat="45.11329" lon="6.75073">
        <ele>1635.2</ele>
        <time>2017-01-03T17:44:20Z</time>
      </trkpt>
      <trkpt lat="45.11357" lon="6.75059">
        <ele>1633.58</ele>
        <time>2017-01-03T17:44:21Z</time>
      </trkpt>
      <trkpt lat="45.11391" lon="6.75066">
        <ele>1637.83</ele>
        <time>2017-01-03T17:44:23Z</time>
      </trkpt>
      <trkpt lat="45.11531" lon="6.75102">
        <ele>1654.82</ele>
        <time>2017-01-03T17:44:31Z</time>
      </trkpt>
      <trkpt lat="45.11607" lon="6.75161">
        <ele>1666.42</ele>
        <time>2017-01-03T17:44:36Z</time>
      </trkpt>
      <trkpt lat="45.11664" lon="6.75202">
        <ele>1676.13</ele>
        <time>2017-01-03T17:44:39Z</time>
      </trkpt>
      <trkpt lat="45.11655" lon="6.7521">
        <ele>1678.53</ele>
        <time>2017-01-03T17:44:40Z</time>
      </trkpt>
      <trkpt lat="45.11572" lon="6.75177">
        <ele>1675.33</ele>
        <time>2017-01-03T17:44:45Z</time>
      </trkpt>
      <trkpt lat="45.11705" lon="6.75289">
        <ele>1694.97</ele>
        <time>2017-01-03T17:44:53Z</time>
      </trkpt>
      <trkpt lat="45.11666" lon="6.75286">
        <ele>1706.78</ele>
        <time>2017-01-03T17:44:56Z</time>
      </trkpt>
      <trkpt lat="45.11493" lon="6.75264">
        <ele>1723.68</ele>
        <time>2017-01-03T17:45:05Z</time>
      </trkpt>
      <trkpt lat="45.11428" lon="6.75262">
        <ele>1723.34</ele>
        <time>2017-01-03T17:45:09Z</time>
      </trkpt>
      <trkpt lat="45.11439" lon="6.75278">
        <ele>1729.49</ele>
        <time>2017-01-03T17:45:10Z</time>
      </trkpt>
      <trkpt lat="45.11546" lon="6.7532">
        <ele>1742.91</ele>
        <time>2017-01-03T17:45:16Z</time>
      </trkpt>
      <trkpt lat="45.11583" lon="6.75332">
        <ele>1751.3</ele>
        <time>2017-01-03T17:45:18Z</time>
      </trkpt>
      <trkpt lat="45.11634" lon="6.75387">
        <ele>1764.12</ele>
        <time>2017-01-03T17:45:22Z</time>
      </trkpt>
      <trkpt lat="45.1167" lon="6.75409">
        <ele>1766.84</ele>
        <time>2017-01-03T17:45:24Z</time>
      </trkpt>
      <trkpt lat="45.11723" lon="6.75453">
        <ele>1766.68</ele>
        <time>2017-01-03T17:45:27Z</time>
      </trkpt>
      <trkpt lat="45.11735" lon="6.75477">
        <ele>1773.42</ele>
        <time>2017-01-03T17:45:28Z</time>
      </trkpt>
      <trkpt lat="45.11657" lon="6.75457">
        <ele>1784.39</ele>
        <time>2017-01-03T17:45:33Z</time>
      </trkpt>
      <trkpt lat="45.116" lon="6.75441">
        <ele>1787.73</ele>
        <time>2017-01-03T17:45:36Z</time>
      </trkpt>
      <trkpt lat="45.11576" lon="6.7544">
        <ele>1786.09</ele>
        <time>2017-01-03T17:45:37Z</time>
      </trkpt>
      <trkpt lat="45.11522" lon="6.75478">
        <ele>1796.88</ele>
        <time>2017-01-03T17:45:41Z</time>
      </trkpt>
      <trkpt lat="45.11462" lon="6.75501">
        <ele>1801.56</ele>
        <time>2017-01-03T17:45:44Z</time>
      </trkpt>
      <trkpt lat="45.11561" lon="6.75576">
        <ele>1814.52</ele>
        <time>2017-01-03T17:45:50Z</time>
      </trkpt>
      <trkpt lat="45.11616" lon="6.75603">
        <ele>1820.85</ele>
        <time>2017-01-03T17:45:54Z</time>
      </trkpt>
      <trkpt lat="45.11645" lon="6.75641">
        <ele>1825.27</ele>
        <time>2017-01-03T17:45:56Z</time>
      </trkpt>
      <trkpt lat="45.11673" lon="6.75724">
        <ele>1835.12</ele>
        <time>2017-01-03T17:45:59Z</time>
      </trkpt>
      <trkpt lat="45.11706" lon="6.75753">
        <ele>1844.98</ele>
        <time>2017-01-03T17:46:02Z</time>
      </trkpt>
      <trkpt lat="45.11762" lon="6.75743">
        <ele>1848.1</ele>
        <time>2017-01-03T17:46:05Z</time>
      </trkpt>
      <trkpt lat="45.11828" lon="6.75815">
        <ele>1858.73</ele>
        <time>2017-01-03T17:46:09Z</time>
      </trkpt>
      <trkpt lat="45.11788" lon="6.75808">
        <ele>1861.07</ele>
        <time>2017-01-03T17:46:11Z</time>
      </trkpt>
      <trkpt lat="45.11756" lon="6.75801">
        <ele>1858.61</ele>
        <time>2017-01-03T17:46:13Z</time>
      </trkpt>
      <trkpt lat="45.11728" lon="6.75822">
        <ele>1862.43</ele>
        <time>2017-01-03T17:46:15Z</time>
      </trkpt>
      <trkpt lat="45.11725" lon="6.75846">
        <ele>1866.77</ele>
        <time>2017-01-03T17:46:16Z</time>
      </trkpt>
      <trkpt lat="45.11779" lon="6.75904">
        <ele>1872.52</ele>
        <time>2017-01-03T17:46:20Z</time>
      </trkpt>
      <trkpt lat="45.11793" lon="6.76003">
        <ele>1876.3</ele>
        <time>2017-01-03T17:46:23Z</time>
      </trkpt>
      <trkpt lat="45.11802" lon="6.76056">
        <ele>1884.01</ele>
        <time>2017-01-03T17:46:26Z</time>
      </trkpt>
      <trkpt lat="45.11821" lon="6.76078">
        <ele>1889.32</ele>
        <time>2017-01-03T17:46:27Z</time>
      </trkpt>
      <trkpt lat="45.11875" lon="6.76072">
        <ele>1890.53</ele>
        <time>2017-01-03T17:46:30Z</time>
      </trkpt>
      <trkpt lat="45.11927" lon="6.76126">
        <ele>1900.73</ele>
        <time>2017-01-03T17:46:33Z</time>
      </trkpt>
      <trkpt lat="45.11948" lon="6.76171">
        <ele>1908.88</ele>
        <time>2017-01-03T17:46:35Z</time>
      </trkpt>
      <trkpt lat="45.12003" lon="6.76195">
        <ele>1911.02</ele>
        <time>2017-01-03T17:46:39Z</time>
      </trkpt>
      <trkpt lat="45.12058" lon="6.76199">
        <ele>1910.7</ele>
        <time>2017-01-03T17:46:42Z</time>
      </trkpt>
      <trkpt lat="45.1219" lon="6.76296">
        <ele>1931.31</ele>
        <time>2017-01-03T17:46:50Z</time>
      </trkpt>
      <trkpt lat="45.12242" lon="6.76356">
        <ele>1937.7</ele>
        <time>2017-01-03T17:46:53Z</time>
      </trkpt>
      <trkpt lat="45.12282" lon="6.76445">
        <ele>1946.47</ele>
        <time>2017-01-03T17:46:58Z</time>
      </trkpt>
      <trkpt lat="45.12359" lon="6.76598">
        <ele>1964.21</ele>
        <time>2017-01-03T17:47:05Z</time>
      </trkpt>
      <trkpt lat="45.12401" lon="6.76675">
        <ele>1968.61</ele>
        <time>2017-01-03T17:47:09Z</time>
      </trkpt>
      <trkpt lat="45.12406" lon="6.76796">
        <ele>1980.12</ele>
        <time>2017-01-03T17:47:13Z</time>
      </trkpt>
      <trkpt lat="45.1236" lon="6.76945">
        <ele>1983.56</ele>
        <time>2017-01-03T17:47:20Z</time>
      </trkpt>
      <trkpt lat="45.12294" lon="6.77071">
        <ele>1999.41</ele>
        <time>2017-01-03T17:47:26Z</time>
      </trkpt>
      <trkpt lat="45.1231" lon="6.77089">
        <ele>1997.21</ele>
        <time>2017-01-03T17:47:27Z</time>
      </trkpt>
      <trkpt lat="45.12389" lon="6.77044">
        <ele>1982.85</ele>
        <time>2017-01-03T17:47:31Z</time>
      </trkpt>
      <trkpt lat="45.1243" lon="6.77044">
        <ele>1987.76</ele>
        <time>2017-01-03T17:47:34Z</time>
      </trkpt>
      <trkpt lat="45.12458" lon="6.77059">
        <ele>1995.42</ele>
        <time>2017-01-03T17:47:35Z</time>
      </trkpt>
      <trkpt lat="45.12483" lon="6.77054">
        <ele>1997.34</ele>
        <time>2017-01-03T17:47:37Z</time>
      </trkpt>
      <trkpt lat="45.12524" lon="6.77017">
        <ele>2000.07</ele>
        <time>2017-01-03T17:47:39Z</time>
      </trkpt>
      <trkpt lat="45.12583" lon="6.76904">
        <ele>1989.74</ele>
        <time>2017-01-03T17:47:45Z</time>
      </trkpt>
      <trkpt lat="45.12635" lon="6.76849">
        <ele>1992.14</ele>
        <time>2017-01-03T17:47:48Z</time>
      </trkpt>
      <trkpt lat="45.12743" lon="6.76791">
        <ele>1998.56</ele>
        <time>2017-01-03T17:47:55Z</time>
      </trkpt>
      <trkpt lat="45.12814" lon="6.76718">
        <ele>1987.8</ele>
        <time>2017-01-03T17:48:00Z</time>
      </trkpt>
      <trkpt lat="45.12869" lon="6.76715">
        <ele>1993.43</ele>
        <time>2017-01-03T17:48:03Z</time>
      </trkpt>
      <trkpt lat="45.12992" lon="6.76691">
        <ele>2001.81</ele>
        <time>2017-01-03T17:48:09Z</time>
      </trkpt>
      <trkpt lat="45.13124" lon="6.76633">
        <ele>2001.12</ele>
        <time>2017-01-03T17:48:17Z</time>
      </trkpt>
      <trkpt lat="45.13202" lon="6.76643">
        <ele>2000.81</ele>
        <time>2017-01-03T17:48:21Z</time>
      </trkpt>
      <trkpt lat="45.13272" lon="6.7664">
        <ele>2003.4</ele>
        <time>2017-01-03T17:48:25Z</time>
      </trkpt>
      <trkpt lat="45.1332" lon="6.76599">
        <ele>1987.51</ele>
        <time>2017-01-03T17:48:28Z</time>
      </trkpt>
      <trkpt lat="45.1339" lon="6.76592">
        <ele>1998.18</ele>
        <time>2017-01-03T17:48:32Z</time>
      </trkpt>
      <trkpt lat="45.13528" lon="6.76617">
        <ele>1996.11</ele>
        <time>2017-01-03T17:48:40Z</time>
      </trkpt>
      <trkpt lat="45.13579" lon="6.76662">
        <ele>2001.71</ele>
        <time>2017-01-03T17:48:43Z</time>
      </trkpt>
      <trkpt lat="45.13619" lon="6.7669">
        <ele>1999.81</ele>
        <time>2017-01-03T17:48:45Z</time>
      </trkpt>
      <trkpt lat="45.13671" lon="6.76734">
        <ele>1994.87</ele>
        <time>2017-01-03T17:48:49Z</time>
      </trkpt>
      <trkpt lat="45.13821" lon="6.76971">
        <ele>1997.92</ele>
        <time>2017-01-03T17:49:01Z</time>
      </trkpt>
      <trkpt lat="45.13841" lon="6.77091">
        <ele>2003.1</ele>
        <time>2017-01-03T17:49:06Z</time>
      </trkpt>
      <trkpt lat="45.13835" lon="6.77245">
        <ele>2012.38</ele>
        <time>2017-01-03T17:49:12Z</time>
      </trkpt>
      <trkpt lat="45.13845" lon="6.7759">
        <ele>2004.18</ele>
        <time>2017-01-03T17:49:25Z</time>
      </trkpt>
      <trkpt lat="45.13837" lon="6.77721">
        <ele>2000.85</ele>
        <time>2017-01-03T17:49:30Z</time>
      </trkpt>
      <trkpt lat="45.13867" lon="6.7775">
        <ele>2000.06</ele>
        <time>2017-01-03T17:49:32Z</time>
      </trkpt>
      <trkpt lat="45.13884" lon="6.77798">
        <ele>2004.55</ele>
        <time>2017-01-03T17:49:34Z</time>
      </trkpt>
      <trkpt lat="45.13885" lon="6.77966">
        <ele>2012.5</ele>
        <time>2017-01-03T17:49:41Z</time>
      </trkpt>
      <trkpt lat="45.13854" lon="6.78091">
        <ele>2024.08</ele>
        <time>2017-01-03T17:49:46Z</time>
      </trkpt>
      <trkpt lat="45.13794" lon="6.78173">
        <ele>2025.89</ele>
        <time>2017-01-03T17:49:50Z</time>
      </trkpt>
      <trkpt lat="45.13796" lon="6.78188">
        <ele>2027.42</ele>
        <time>2017-01-03T17:49:51Z</time>
      </trkpt>
      <trkpt lat="45.13833" lon="6.78174">
        <ele>2033.98</ele>
        <time>2017-01-03T17:49:53Z</time>
      </trkpt>
      <trkpt lat="45.13873" lon="6.78168">
        <ele>2045.04</ele>
        <time>2017-01-03T17:49:55Z</time>
      </trkpt>
      <trkpt lat="45.13908" lon="6.78067">
        <ele>2042.47</ele>
        <time>2017-01-03T17:50:00Z</time>
      </trkpt>
      <trkpt lat="45.13906" lon="6.78105">
        <ele>2046.98</ele>
        <time>2017-01-03T17:50:01Z</time>
      </trkpt>
      <trkpt lat="45.13902" lon="6.78262">
        <ele>2067.16</ele>
        <time>2017-01-03T17:50:07Z</time>
      </trkpt>
      <trkpt lat="45.13885" lon="6.78305">
        <ele>2065.24</ele>
        <time>2017-01-03T17:50:09Z</time>
      </trkpt>
      <trkpt lat="45.13859" lon="6.78388">
        <ele>2072.35</ele>
        <time>2017-01-03T17:50:13Z</time>
      </trkpt>
      <trkpt lat="45.13862" lon="6.78425">
        <ele>2081.17</ele>
        <time>2017-01-03T17:50:14Z</time>
      </trkpt>
      <trkpt lat="45.13832" lon="6.78434">
        <ele>2075.68</ele>
        <time>2017-01-03T17:50:16Z</time>
      </trkpt>
      <trkpt lat="45.13806" lon="6.78478">
        <ele>2072.7</ele>
        <time>2017-01-03T17:50:18Z</time>
      </trkpt>
      <trkpt lat="45.13784" lon="6.78621">
        <ele>2092.77</ele>
        <time>2017-01-03T17:50:24Z</time>
      </trkpt>
      <trkpt lat="45.13756" lon="6.78717">
        <ele>2100.53</ele>
        <time>2017-01-03T17:50:28Z</time>
      </trkpt>
      <trkpt lat="45.13626" lon="6.78948">
        <ele>2113.66</ele>
        <time>2017-01-03T17:50:39Z</time>
      </trkpt>
      <trkpt lat="45.13493" lon="6.79157">
        <ele>2123.33</ele>
        <time>2017-01-03T17:50:50Z</time>
      </trkpt>
      <trkpt lat="45.1346" lon="6.79256">
        <ele>2127.26</ele>
        <time>2017-01-03T17:50:54Z</time>
      </trkpt>
      <trkpt lat="45.13434" lon="6.79303">
        <ele>2128.51</ele>
        <time>2017-01-03T17:50:56Z</time>
      </trkpt>
      <trkpt lat="45.13428" lon="6.79366">
        <ele>2134.9</ele>
        <time>2017-01-03T17:50:59Z</time>
      </trkpt>
      <trkpt lat="45.13355" lon="6.79559">
        <ele>2145.72</ele>
        <time>2017-01-03T17:51:07Z</time>
      </trkpt>
      <trkpt lat="45.13287" lon="6.79625">
        <ele>2157.67</ele>
        <time>2017-01-03T17:51:12Z</time>
      </trkpt>
      <trkpt lat="45.13186" lon="6.79737">
        <ele>2164.28</ele>
        <time>2017-01-03T17:51:19Z</time>
      </trkpt>
      <trkpt lat="45.13151" lon="6.79761">
        <ele>2169.89</ele>
        <time>2017-01-03T17:51:21Z</time>
      </trkpt>
      <trkpt lat="45.13113" lon="6.7983">
        <ele>2179.62</ele>
        <time>2017-01-03T17:51:24Z</time>
      </trkpt>
      <trkpt lat="45.13059" lon="6.79954">
        <ele>2185.13</ele>
        <time>2017-01-03T17:51:30Z</time>
      </trkpt>
      <trkpt lat="45.1304" lon="6.80028">
        <ele>2191.72</ele>
        <time>2017-01-03T17:51:33Z</time>
      </trkpt>
      <trkpt lat="45.13044" lon="6.80102">
        <ele>2191.81</ele>
        <time>2017-01-03T17:51:36Z</time>
      </trkpt>
      <trkpt lat="45.13002" lon="6.80219">
        <ele>2201.19</ele>
        <time>2017-01-03T17:51:41Z</time>
      </trkpt>
      <trkpt lat="45.13001" lon="6.80109">
        <ele>2203.82</ele>
        <time>2017-01-03T17:51:45Z</time>
      </trkpt>
      <trkpt lat="45.12985" lon="6.79987">
        <ele>2210.45</ele>
        <time>2017-01-03T17:51:50Z</time>
      </trkpt>
      <trkpt lat="45.12985" lon="6.79927">
        <ele>2223.24</ele>
        <time>2017-01-03T17:51:52Z</time>
      </trkpt>
      <trkpt lat="45.12924" lon="6.8013">
        <ele>2235.24</ele>
        <time>2017-01-03T17:52:01Z</time>
      </trkpt>
      <trkpt lat="45.12934" lon="6.79988">
        <ele>2247.49</ele>
        <time>2017-01-03T17:52:07Z</time>
      </trkpt>
      <trkpt lat="45.12917" lon="6.80027">
        <ele>2249.91</ele>
        <time>2017-01-03T17:52:09Z</time>
      </trkpt>
      <trkpt lat="45.12866" lon="6.80105">
        <ele>2263.52</ele>
        <time>2017-01-03T17:52:13Z</time>
      </trkpt>
      <trkpt lat="45.12865" lon="6.80165">
        <ele>2255.13</ele>
        <time>2017-01-03T17:52:15Z</time>
      </trkpt>
      <trkpt lat="45.12828" lon="6.8021">
        <ele>2273.77</ele>
        <time>2017-01-03T17:52:18Z</time>
      </trkpt>
      <trkpt lat="45.12821" lon="6.80247">
        <ele>2279.14</ele>
        <time>2017-01-03T17:52:19Z</time>
      </trkpt>
      <trkpt lat="45.12895" lon="6.80349">
        <ele>2280.08</ele>
        <time>2017-01-03T17:52:25Z</time>
      </trkpt>
      <trkpt lat="45.12829" lon="6.80316">
        <ele>2283.14</ele>
        <time>2017-01-03T17:52:29Z</time>
      </trkpt>
      <trkpt lat="45.12806" lon="6.8029">
        <ele>2289.94</ele>
        <time>2017-01-03T17:52:30Z</time>
      </trkpt>
      <trkpt lat="45.12864" lon="6.80393">
        <ele>2305.11</ele>
        <time>2017-01-03T17:52:35Z</time>
      </trkpt>
      <trkpt lat="45.12796" lon="6.80327">
        <ele>2314.52</ele>
        <time>2017-01-03T17:52:40Z</time>
      </trkpt>
      <trkpt lat="45.12826" lon="6.80404">
        <ele>2319.94</ele>
        <time>2017-01-03T17:52:44Z</time>
      </trkpt>
      <trkpt lat="45.12854" lon="6.8044">
        <ele>2319.19</ele>
        <time>2017-01-03T17:52:46Z</time>
      </trkpt>
      <trkpt lat="45.12822" lon="6.80423">
        <ele>2326.32</ele>
        <time>2017-01-03T17:52:48Z</time>
      </trkpt>
      <trkpt lat="45.12769" lon="6.80363">
        <ele>2341.58</ele>
        <time>2017-01-03T17:52:52Z</time>
      </trkpt>
      <trkpt lat="45.1279" lon="6.80416">
        <ele>2334.01</ele>
        <time>2017-01-03T17:52:54Z</time>
      </trkpt>
      <trkpt lat="45.12814" lon="6.80475">
        <ele>2344.71</ele>
        <time>2017-01-03T17:52:57Z</time>
      </trkpt>
      <trkpt lat="45.12754" lon="6.80392">
        <ele>2355.3</ele>
        <time>2017-01-03T17:53:01Z</time>
      </trkpt>
      <trkpt lat="45.12769" lon="6.80475">
        <ele>2362.35</ele>
        <time>2017-01-03T17:53:05Z</time>
      </trkpt>
      <trkpt lat="45.12764" lon="6.80495">
        <ele>2365.69</ele>
        <time>2017-01-03T17:53:06Z</time>
      </trkpt>
      <trkpt lat="45.1274" lon="6.80437">
        <ele>2370.72</ele>
        <time>2017-01-03T17:53:08Z</time>
      </trkpt>
      <trkpt lat="45.12706" lon="6.80331">
        <ele>2362.06</ele>
        <time>2017-01-03T17:53:13Z</time>
      </trkpt>
      <trkpt lat="45.12696" lon="6.80399">
        <ele>2371.49</ele>
        <time>2017-01-03T17:53:15Z</time>
      </trkpt>
      <trkpt lat="45.12629" lon="6.80509">
        <ele>2389.45</ele>
        <time>2017-01-03T17:53:21Z</time>
      </trkpt>
      <trkpt lat="45.12613" lon="6.80502">
        <ele>2395.91</ele>
        <time>2017-01-03T17:53:22Z</time>
      </trkpt>
      <trkpt lat="45.12627" lon="6.80463">
        <ele>2395.99</ele>
        <time>2017-01-03T17:53:24Z</time>
      </trkpt>
      <trkpt lat="45.12648" lon="6.80388">
        <ele>2389.31</ele>
        <time>2017-01-03T17:53:27Z</time>
      </trkpt>
      <trkpt lat="45.12584" lon="6.8047">
        <ele>2407.73</ele>
        <time>2017-01-03T17:53:31Z</time>
      </trkpt>
      <trkpt lat="45.12525" lon="6.80568">
        <ele>2422.14</ele>
        <time>2017-01-03T17:53:36Z</time>
      </trkpt>
      <trkpt lat="45.12523" lon="6.80603">
        <ele>2417.8</ele>
        <time>2017-01-03T17:53:38Z</time>
      </trkpt>
      <trkpt lat="45.125" lon="6.80632">
        <ele>2423.74</ele>
        <time>2017-01-03T17:53:39Z</time>
      </trkpt>
      <trkpt lat="45.12478" lon="6.80686">
        <ele>2424.21</ele>
        <time>2017-01-03T17:53:42Z</time>
      </trkpt>
      <trkpt lat="45.12421" lon="6.80724">
        <ele>2442.34</ele>
        <time>2017-01-03T17:53:45Z</time>
      </trkpt>
      <trkpt lat="45.1239" lon="6.80768">
        <ele>2440.96</ele>
        <time>2017-01-03T17:53:48Z</time>
      </trkpt>
      <trkpt lat="45.12336" lon="6.80743">
        <ele>2450.11</ele>
        <time>2017-01-03T17:53:51Z</time>
      </trkpt>
      <trkpt lat="45.12265" lon="6.80779">
        <ele>2452.3</ele>
        <time>2017-01-03T17:53:55Z</time>
      </trkpt>
      <trkpt lat="45.12205" lon="6.80866">
        <ele>2456.04</ele>
        <time>2017-01-03T17:54:00Z</time>
      </trkpt>
      <trkpt lat="45.12146" lon="6.81032">
        <ele>2472.46</ele>
        <time>2017-01-03T17:54:07Z</time>
      </trkpt>
      <trkpt lat="45.12141" lon="6.81184">
        <ele>2478.63</ele>
        <time>2017-01-03T17:54:13Z</time>
      </trkpt>
      <trkpt lat="45.12151" lon="6.81296">
        <ele>2486.67</ele>
        <time>2017-01-03T17:54:17Z</time>
      </trkpt>
      <trkpt lat="45.12175" lon="6.81356">
        <ele>2498.58</ele>
        <time>2017-01-03T17:54:20Z</time>
      </trkpt>
      <trkpt lat="45.12108" lon="6.81397">
        <ele>2497.9</ele>
        <time>2017-01-03T17:54:24Z</time>
      </trkpt>
      <trkpt lat="45.12099" lon="6.81421">
        <ele>2499.71</ele>
        <time>2017-01-03T17:54:25Z</time>
      </trkpt>
      <trkpt lat="45.12168" lon="6.81413">
        <ele>2508.55</ele>
        <time>2017-01-03T17:54:29Z</time>
      </trkpt>
      <trkpt lat="45.12191" lon="6.81409">
        <ele>2508.92</ele>
        <time>2017-01-03T17:54:30Z</time>
      </trkpt>
      <trkpt lat="45.1213" lon="6.81463">
        <ele>2515.17</ele>
        <time>2017-01-03T17:54:34Z</time>
      </trkpt>
      <trkpt lat="45.12056" lon="6.81489">
        <ele>2520.83</ele>
        <time>2017-01-03T17:54:38Z</time>
      </trkpt>
      <trkpt lat="45.12017" lon="6.81528">
        <ele>2533.28</ele>
        <time>2017-01-03T17:54:41Z</time>
      </trkpt>
      <trkpt lat="45.11999" lon="6.81586">
        <ele>2538.98</ele>
        <time>2017-01-03T17:54:43Z</time>
      </trkpt>
      <trkpt lat="45.12" lon="6.81716">
        <ele>2550.55</ele>
        <time>2017-01-03T17:54:48Z</time>
      </trkpt>
      <trkpt lat="45.11919" lon="6.81846">
        <ele>2567.82</ele>
        <time>2017-01-03T17:54:55Z</time>
      </trkpt>
      <trkpt lat="45.11996" lon="6.81806">
        <ele>2565.71</ele>
        <time>2017-01-03T17:54:59Z</time>
      </trkpt>
      <trkpt lat="45.12081" lon="6.81774">
        <ele>2580.27</ele>
        <time>2017-01-03T17:55:04Z</time>
      </trkpt>
      <trkpt lat="45.12171" lon="6.81771">
        <ele>2582.51</ele>
        <time>2017-01-03T17:55:09Z</time>
      </trkpt>
      <trkpt lat="45.12214" lon="6.81705">
        <ele>2572.19</ele>
        <time>2017-01-03T17:55:12Z</time>
      </trkpt>
      <trkpt lat="45.12224" lon="6.81711">
        <ele>2568.67</ele>
        <time>2017-01-03T17:55:13Z</time>
      </trkpt>
      <trkpt lat="45.12216" lon="6.81731">
        <ele>2570.94</ele>
        <time>2017-01-03T17:55:14Z</time>
      </trkpt>
      <trkpt lat="45.12205" lon="6.81781">
        <ele>2573.46</ele>
        <time>2017-01-03T17:55:16Z</time>
      </trkpt>
      <trkpt lat="45.12222" lon="6.81868">
        <ele>2574.07</ele>
        <time>2017-01-03T17:55:19Z</time>
      </trkpt>
      <trkpt lat="45.12253" lon="6.81972">
        <ele>2571.54</ele>
        <time>2017-01-03T17:55:24Z</time>
      </trkpt>
      <trkpt lat="45.12254" lon="6.82294">
        <ele>2577.77</ele>
        <time>2017-01-03T17:55:36Z</time>
      </trkpt>
      <trkpt lat="45.12244" lon="6.82501">
        <ele>2579</ele>
        <time>2017-01-03T17:55:44Z</time>
      </trkpt>
      <trkpt lat="45.12236" lon="6.82569">
        <ele>2582.95</ele>
        <time>2017-01-03T17:55:47Z</time>
      </trkpt>
      <trkpt lat="45.12245" lon="6.82664">
        <ele>2595.75</ele>
        <time>2017-01-03T17:55:51Z</time>
      </trkpt>
      <trkpt lat="45.12236" lon="6.82786">
        <ele>2604.23</ele>
        <time>2017-01-03T17:55:55Z</time>
      </trkpt>
      <trkpt lat="45.12234" lon="6.82851">
        <ele>2609.49</ele>
        <time>2017-01-03T17:55:58Z</time>
      </trkpt>
      <trkpt lat="45.12214" lon="6.82874">
        <ele>2608.07</ele>
        <time>2017-01-03T17:55:59Z</time>
      </trkpt>
      <trkpt lat="45.1218" lon="6.82898">
        <ele>2608.49</ele>
        <time>2017-01-03T17:56:01Z</time>
      </trkpt>
      <trkpt lat="45.12183" lon="6.82917">
        <ele>2609.56</ele>
        <time>2017-01-03T17:56:02Z</time>
      </trkpt>
      <trkpt lat="45.1223" lon="6.82945">
        <ele>2612.49</ele>
        <time>2017-01-03T17:56:05Z</time>
      </trkpt>
      <trkpt lat="45.12252" lon="6.82938">
        <ele>2615.63</ele>
        <time>2017-01-03T17:56:06Z</time>
      </trkpt>
      <trkpt lat="45.12294" lon="6.82892">
        <ele>2621.9</ele>
        <time>2017-01-03T17:56:09Z</time>
      </trkpt>
      <trkpt lat="45.12285" lon="6.82933">
        <ele>2624.02</ele>
        <time>2017-01-03T17:56:11Z</time>
      </trkpt>
      <trkpt lat="45.12257" lon="6.83019">
        <ele>2628.82</ele>
        <time>2017-01-03T17:56:14Z</time>
      </trkpt>
      <trkpt lat="45.12245" lon="6.8312">
        <ele>2635</ele>
        <time>2017-01-03T17:56:18Z</time>
      </trkpt>
      <trkpt lat="45.12247" lon="6.83138">
        <ele>2638.41</ele>
        <time>2017-01-03T17:56:19Z</time>
      </trkpt>
      <trkpt lat="45.12262" lon="6.83125">
        <ele>2638.88</ele>
        <time>2017-01-03T17:56:20Z</time>
      </trkpt>
      <trkpt lat="45.12299" lon="6.8308">
        <ele>2644.11</ele>
        <time>2017-01-03T17:56:23Z</time>
      </trkpt>
      <trkpt lat="45.12335" lon="6.83018">
        <ele>2648.8</ele>
        <time>2017-01-03T17:56:26Z</time>
      </trkpt>
      <trkpt lat="45.12369" lon="6.82897">
        <ele>2651.29</ele>
        <time>2017-01-03T17:56:31Z</time>
      </trkpt>
      <trkpt lat="45.12366" lon="6.83039">
        <ele>2665.71</ele>
        <time>2017-01-03T17:56:37Z</time>
      </trkpt>
      <trkpt lat="45.12371" lon="6.83155">
        <ele>2671.52</ele>
        <time>2017-01-03T17:56:41Z</time>
      </trkpt>
      <trkpt lat="45.12356" lon="6.83248">
        <ele>2677.87</ele>
        <time>2017-01-03T17:56:45Z</time>
      </trkpt>
      <trkpt lat="45.12337" lon="6.83342">
        <ele>2681.38</ele>
        <time>2017-01-03T17:56:49Z</time>
      </trkpt>
      <trkpt lat="45.12338" lon="6.83357">
        <ele>2683.03</ele>
        <time>2017-01-03T17:56:49Z</time>
      </trkpt>
      <trkpt lat="45.12346" lon="6.83345">
        <ele>2685.96</ele>
        <time>2017-01-03T17:56:50Z</time>
      </trkpt>
      <trkpt lat="45.12397" lon="6.83237">
        <ele>2695.28</ele>
        <time>2017-01-03T17:56:55Z</time>
      </trkpt>
      <trkpt lat="45.12422" lon="6.83107">
        <ele>2694.84</ele>
        <time>2017-01-03T17:57:00Z</time>
      </trkpt>
      <trkpt lat="45.1243" lon="6.82996">
        <ele>2698.64</ele>
        <time>2017-01-03T17:57:04Z</time>
      </trkpt>
      <trkpt lat="45.12435" lon="6.83008">
        <ele>2702.19</ele>
        <time>2017-01-03T17:57:06Z</time>
      </trkpt>
      <trkpt lat="45.12444" lon="6.83159">
        <ele>2707.93</ele>
        <time>2017-01-03T17:57:12Z</time>
      </trkpt>
      <trkpt lat="45.12443" lon="6.83438">
        <ele>2732.84</ele>
        <time>2017-01-03T17:57:22Z</time>
      </trkpt>
      <trkpt lat="45.12455" lon="6.83502">
        <ele>2732.82</ele>
        <time>2017-01-03T17:57:25Z</time>
      </trkpt>
      <trkpt lat="45.12464" lon="6.83495">
        <ele>2737.48</ele>
        <time>2017-01-03T17:57:25Z</time>
      </trkpt>
      <trkpt lat="45.1246" lon="6.83413">
        <ele>2743.34</ele>
        <time>2017-01-03T17:57:29Z</time>
      </trkpt>
      <trkpt lat="45.1248" lon="6.8332">
        <ele>2746.21</ele>
        <time>2017-01-03T17:57:32Z</time>
      </trkpt>
      <trkpt lat="45.12499" lon="6.83215">
        <ele>2746.81</ele>
        <time>2017-01-03T17:57:37Z</time>
      </trkpt>
      <trkpt lat="45.12507" lon="6.83228">
        <ele>2749.57</ele>
        <time>2017-01-03T17:57:38Z</time>
      </trkpt>
      <trkpt lat="45.12516" lon="6.83459">
        <ele>2771.02</ele>
        <time>2017-01-03T17:57:47Z</time>
      </trkpt>
      <trkpt lat="45.1252" lon="6.83441">
        <ele>2775.84</ele>
        <time>2017-01-03T17:57:47Z</time>
      </trkpt>
      <trkpt lat="45.1253" lon="6.83359">
        <ele>2775.19</ele>
        <time>2017-01-03T17:57:51Z</time>
      </trkpt>
      <trkpt lat="45.12542" lon="6.83301">
        <ele>2773.29</ele>
        <time>2017-01-03T17:57:53Z</time>
      </trkpt>
      <trkpt lat="45.12548" lon="6.83328">
        <ele>2781.33</ele>
        <time>2017-01-03T17:57:54Z</time>
      </trkpt>
      <trkpt lat="45.12542" lon="6.83439">
        <ele>2787.67</ele>
        <time>2017-01-03T17:57:58Z</time>
      </trkpt>
      <trkpt lat="45.12582" lon="6.83503">
        <ele>2789.12</ele>
        <time>2017-01-03T17:58:02Z</time>
      </trkpt>
      <trkpt lat="45.12618" lon="6.83563">
        <ele>2790.5</ele>
        <time>2017-01-03T17:58:05Z</time>
      </trkpt>
      <trkpt lat="45.12638" lon="6.83606">
        <ele>2801</ele>
        <time>2017-01-03T17:58:07Z</time>
      </trkpt>
      <trkpt lat="45.12636" lon="6.83677">
        <ele>2811.16</ele>
        <time>2017-01-03T17:58:09Z</time>
      </trkpt>
      <trkpt lat="45.12634" lon="6.83728">
        <ele>2814.71</ele>
        <time>2017-01-03T17:58:11Z</time>
      </trkpt>
      <trkpt lat="45.12706" lon="6.83753">
        <ele>2820.22</ele>
        <time>2017-01-03T17:58:16Z</time>
      </trkpt>
      <trkpt lat="45.12726" lon="6.83745">
        <ele>2821.86</ele>
        <time>2017-01-03T17:58:17Z</time>
      </trkpt>
      <trkpt lat="45.12755" lon="6.83754">
        <ele>2827.49</ele>
        <time>2017-01-03T17:58:18Z</time>
      </trkpt>
      <trkpt lat="45.12779" lon="6.83859">
        <ele>2839.65</ele>
        <time>2017-01-03T17:58:23Z</time>
      </trkpt>
      <trkpt lat="45.12806" lon="6.83928">
        <ele>2837.28</ele>
        <time>2017-01-03T17:58:26Z</time>
      </trkpt>
      <trkpt lat="45.12858" lon="6.83975">
        <ele>2849.38</ele>
        <time>2017-01-03T17:58:29Z</time>
      </trkpt>
      <trkpt lat="45.12925" lon="6.83898">
        <ele>2856.57</ele>
        <time>2017-01-03T17:58:34Z</time>
      </trkpt>
      <trkpt lat="45.1294" lon="6.83818">
        <ele>2862.17</ele>
        <time>2017-01-03T17:58:37Z</time>
      </trkpt>
      <trkpt lat="45.12927" lon="6.83661">
        <ele>2868.5</ele>
        <time>2017-01-03T17:58:43Z</time>
      </trkpt>
      <trkpt lat="45.12983" lon="6.8382">
        <ele>2880.41</ele>
        <time>2017-01-03T17:58:50Z</time>
      </trkpt>
      <trkpt lat="45.13033" lon="6.83947">
        <ele>2886.99</ele>
        <time>2017-01-03T17:58:56Z</time>
      </trkpt>
      <trkpt lat="45.13045" lon="6.84015">
        <ele>2893.47</ele>
        <time>2017-01-03T17:58:58Z</time>
      </trkpt>
      <trkpt lat="45.13051" lon="6.83927">
        <ele>2895.35</ele>
        <time>2017-01-03T17:59:02Z</time>
      </trkpt>
      <trkpt lat="45.13031" lon="6.8381">
        <ele>2905.93</ele>
        <time>2017-01-03T17:59:06Z</time>
      </trkpt>
      <trkpt lat="45.12999" lon="6.83585">
        <ele>2913.04</ele>
        <time>2017-01-03T17:59:15Z</time>
      </trkpt>
      <trkpt lat="45.13078" lon="6.83803">
        <ele>2927.78</ele>
        <time>2017-01-03T17:59:25Z</time>
      </trkpt>
      <trkpt lat="45.13118" lon="6.83884">
        <ele>2940.04</ele>
        <time>2017-01-03T17:59:28Z</time>
      </trkpt>
      <trkpt lat="45.13145" lon="6.83979">
        <ele>2945.04</ele>
        <time>2017-01-03T17:59:32Z</time>
      </trkpt>
      <trkpt lat="45.13177" lon="6.84122">
        <ele>2950.75</ele>
        <time>2017-01-03T17:59:38Z</time>
      </trkpt>
      <trkpt lat="45.1323" lon="6.84238">
        <ele>2964.67</ele>
        <time>2017-01-03T17:59:44Z</time>
      </trkpt>
      <trkpt lat="45.13297" lon="6.84317">
        <ele>2972.52</ele>
        <time>2017-01-03T17:59:48Z</time>
      </trkpt>
      <trkpt lat="45.13308" lon="6.84398">
        <ele>2969.02</ele>
        <time>2017-01-03T17:59:52Z</time>
      </trkpt>
      <trkpt lat="45.13319" lon="6.84377">
        <ele>2969.42</ele>
        <time>2017-01-03T17:59:53Z</time>
      </trkpt>
      <trkpt lat="45.13331" lon="6.8434">
        <ele>2977.34</ele>
        <time>2017-01-03T17:59:55Z</time>
      </trkpt>
      <trkpt lat="45.13342" lon="6.84406">
        <ele>2975.67</ele>
        <time>2017-01-03T17:59:57Z</time>
      </trkpt>
      <trkpt lat="45.13353" lon="6.84426">
        <ele>2981.36</ele>
        <time>2017-01-03T17:59:58Z</time>
      </trkpt>
      <trkpt lat="45.13369" lon="6.84423">
        <ele>2985.05</ele>
        <time>2017-01-03T17:59:59Z</time>
      </trkpt>
      <trkpt lat="45.13403" lon="6.84416">
        <ele>2994.51</ele>
        <time>2017-01-03T18:00:01Z</time>
      </trkpt>
      <trkpt lat="45.13426" lon="6.84462">
        <ele>2997.5</ele>
        <time>2017-01-03T18:00:03Z</time>
      </trkpt>
      <trkpt lat="45.13403" lon="6.84416">
        <ele>2994.51</ele>
        <time>2017-01-03T18:00:05Z</time>
      </trkpt>
      <trkpt lat="45.13369" lon="6.84423">
        <ele>2985.05</ele>
        <time>2017-01-03T18:00:07Z</time>
      </trkpt>
      <trkpt lat="45.13353" lon="6.84426">
        <ele>2981.36</ele>
        <time>2017-01-03T18:00:08Z</time>
      </trkpt>
      <trkpt lat="45.13342" lon="6.84406">
        <ele>2975.67</ele>
        <time>2017-01-03T18:00:09Z</time>
      </trkpt>
      <trkpt lat="45.13331" lon="6.8434">
        <ele>2977.34</ele>
        <time>2017-01-03T18:00:12Z</time>
      </trkpt>
      <trkpt lat="45.13319" lon="6.84377">
        <ele>2969.42</ele>
        <time>2017-01-03T18:00:13Z</time>
      </trkpt>
      <trkpt lat="45.13314" lon="6.84405">
        <ele>2971.07</ele>
        <time>2017-01-03T18:00:15Z</time>
      </trkpt>
      <trkpt lat="45.13297" lon="6.84317">
        <ele>2972.52</ele>
        <time>2017-01-03T18:00:18Z</time>
      </trkpt>
      <trkpt lat="45.1323" lon="6.84238">
        <ele>2964.67</ele>
        <time>2017-01-03T18:00:23Z</time>
      </trkpt>
      <trkpt lat="45.13177" lon="6.84122">
        <ele>2950.75</ele>
        <time>2017-01-03T18:00:28Z</time>
      </trkpt>
      <trkpt lat="45.13118" lon="6.83884">
        <ele>2940.04</ele>
        <time>2017-01-03T18:00:38Z</time>
      </trkpt>
      <trkpt lat="45.13078" lon="6.83803">
        <ele>2927.78</ele>
        <time>2017-01-03T18:00:42Z</time>
      </trkpt>
      <trkpt lat="45.13028" lon="6.83656">
        <ele>2920.27</ele>
        <time>2017-01-03T18:00:48Z</time>
      </trkpt>
      <trkpt lat="45.12999" lon="6.83585">
        <ele>2913.04</ele>
        <time>2017-01-03T18:00:51Z</time>
      </trkpt>
      <trkpt lat="45.13011" lon="6.83658">
        <ele>2910.69</ele>
        <time>2017-01-03T18:00:54Z</time>
      </trkpt>
      <trkpt lat="45.13051" lon="6.83927">
        <ele>2895.35</ele>
        <time>2017-01-03T18:01:05Z</time>
      </trkpt>
      <trkpt lat="45.13045" lon="6.84015">
        <ele>2893.47</ele>
        <time>2017-01-03T18:01:08Z</time>
      </trkpt>
      <trkpt lat="45.13033" lon="6.83947">
        <ele>2886.99</ele>
        <time>2017-01-03T18:01:11Z</time>
      </trkpt>
      <trkpt lat="45.12958" lon="6.83735">
        <ele>2873.28</ele>
        <time>2017-01-03T18:01:20Z</time>
      </trkpt>
      <trkpt lat="45.12927" lon="6.83661">
        <ele>2868.5</ele>
        <time>2017-01-03T18:01:23Z</time>
      </trkpt>
      <trkpt lat="45.12923" lon="6.83681">
        <ele>2864.53</ele>
        <time>2017-01-03T18:01:24Z</time>
      </trkpt>
      <trkpt lat="45.1294" lon="6.83818">
        <ele>2862.17</ele>
        <time>2017-01-03T18:01:30Z</time>
      </trkpt>
      <trkpt lat="45.12925" lon="6.83898">
        <ele>2856.57</ele>
        <time>2017-01-03T18:01:33Z</time>
      </trkpt>
      <trkpt lat="45.12858" lon="6.83975">
        <ele>2849.38</ele>
        <time>2017-01-03T18:01:38Z</time>
      </trkpt>
      <trkpt lat="45.12806" lon="6.83928">
        <ele>2837.28</ele>
        <time>2017-01-03T18:01:41Z</time>
      </trkpt>
      <trkpt lat="45.12779" lon="6.83859">
        <ele>2839.65</ele>
        <time>2017-01-03T18:01:44Z</time>
      </trkpt>
      <trkpt lat="45.12755" lon="6.83754">
        <ele>2827.49</ele>
        <time>2017-01-03T18:01:48Z</time>
      </trkpt>
      <trkpt lat="45.12726" lon="6.83745">
        <ele>2821.86</ele>
        <time>2017-01-03T18:01:50Z</time>
      </trkpt>
      <trkpt lat="45.12706" lon="6.83753">
        <ele>2820.22</ele>
        <time>2017-01-03T18:01:51Z</time>
      </trkpt>
      <trkpt lat="45.12634" lon="6.83728">
        <ele>2814.71</ele>
        <time>2017-01-03T18:01:55Z</time>
      </trkpt>
      <trkpt lat="45.12636" lon="6.83677">
        <ele>2811.16</ele>
        <time>2017-01-03T18:01:57Z</time>
      </trkpt>
      <trkpt lat="45.12638" lon="6.83606">
        <ele>2801</ele>
        <time>2017-01-03T18:02:00Z</time>
      </trkpt>
      <trkpt lat="45.12618" lon="6.83563">
        <ele>2790.5</ele>
        <time>2017-01-03T18:02:02Z</time>
      </trkpt>
      <trkpt lat="45.12542" lon="6.83439">
        <ele>2787.67</ele>
        <time>2017-01-03T18:02:08Z</time>
      </trkpt>
      <trkpt lat="45.12548" lon="6.83328">
        <ele>2781.33</ele>
        <time>2017-01-03T18:02:12Z</time>
      </trkpt>
      <trkpt lat="45.12542" lon="6.83301">
        <ele>2773.29</ele>
        <time>2017-01-03T18:02:14Z</time>
      </trkpt>
      <trkpt lat="45.1253" lon="6.83359">
        <ele>2775.19</ele>
        <time>2017-01-03T18:02:16Z</time>
      </trkpt>
      <trkpt lat="45.1252" lon="6.83441">
        <ele>2775.84</ele>
        <time>2017-01-03T18:02:19Z</time>
      </trkpt>
      <trkpt lat="45.12522" lon="6.83465">
        <ele>2773.18</ele>
        <time>2017-01-03T18:02:20Z</time>
      </trkpt>
      <trkpt lat="45.12503" lon="6.83366">
        <ele>2762.78</ele>
        <time>2017-01-03T18:02:24Z</time>
      </trkpt>
      <trkpt lat="45.12507" lon="6.83228">
        <ele>2749.57</ele>
        <time>2017-01-03T18:02:29Z</time>
      </trkpt>
      <trkpt lat="45.12507" lon="6.8321">
        <ele>2748.05</ele>
        <time>2017-01-03T18:02:30Z</time>
      </trkpt>
      <trkpt lat="45.1246" lon="6.83413">
        <ele>2743.34</ele>
        <time>2017-01-03T18:02:39Z</time>
      </trkpt>
      <trkpt lat="45.12464" lon="6.83495">
        <ele>2737.48</ele>
        <time>2017-01-03T18:02:42Z</time>
      </trkpt>
      <trkpt lat="45.12455" lon="6.83502">
        <ele>2732.82</ele>
        <time>2017-01-03T18:02:42Z</time>
      </trkpt>
      <trkpt lat="45.12441" lon="6.83302">
        <ele>2720.22</ele>
        <time>2017-01-03T18:02:50Z</time>
      </trkpt>
      <trkpt lat="45.12444" lon="6.83159">
        <ele>2707.93</ele>
        <time>2017-01-03T18:02:56Z</time>
      </trkpt>
      <trkpt lat="45.12435" lon="6.83008">
        <ele>2702.19</ele>
        <time>2017-01-03T18:03:02Z</time>
      </trkpt>
      <trkpt lat="45.12436" lon="6.82986">
        <ele>2700.03</ele>
        <time>2017-01-03T18:03:02Z</time>
      </trkpt>
      <trkpt lat="45.12422" lon="6.83107">
        <ele>2694.84</ele>
        <time>2017-01-03T18:03:07Z</time>
      </trkpt>
      <trkpt lat="45.12397" lon="6.83237">
        <ele>2695.28</ele>
        <time>2017-01-03T18:03:12Z</time>
      </trkpt>
      <trkpt lat="45.12346" lon="6.83345">
        <ele>2685.96</ele>
        <time>2017-01-03T18:03:17Z</time>
      </trkpt>
      <trkpt lat="45.12338" lon="6.83357">
        <ele>2683.03</ele>
        <time>2017-01-03T18:03:18Z</time>
      </trkpt>
      <trkpt lat="45.12337" lon="6.83342">
        <ele>2681.38</ele>
        <time>2017-01-03T18:03:19Z</time>
      </trkpt>
      <trkpt lat="45.12356" lon="6.83248">
        <ele>2677.87</ele>
        <time>2017-01-03T18:03:22Z</time>
      </trkpt>
      <trkpt lat="45.12371" lon="6.83155">
        <ele>2671.52</ele>
        <time>2017-01-03T18:03:26Z</time>
      </trkpt>
      <trkpt lat="45.12366" lon="6.83039">
        <ele>2665.71</ele>
        <time>2017-01-03T18:03:31Z</time>
      </trkpt>
      <trkpt lat="45.12375" lon="6.82907">
        <ele>2655.11</ele>
        <time>2017-01-03T18:03:36Z</time>
      </trkpt>
      <trkpt lat="45.12335" lon="6.83018">
        <ele>2648.8</ele>
        <time>2017-01-03T18:03:41Z</time>
      </trkpt>
      <trkpt lat="45.12299" lon="6.8308">
        <ele>2644.11</ele>
        <time>2017-01-03T18:03:44Z</time>
      </trkpt>
      <trkpt lat="45.12262" lon="6.83125">
        <ele>2638.88</ele>
        <time>2017-01-03T18:03:47Z</time>
      </trkpt>
      <trkpt lat="45.12247" lon="6.83138">
        <ele>2638.41</ele>
        <time>2017-01-03T18:03:48Z</time>
      </trkpt>
      <trkpt lat="45.12245" lon="6.8312">
        <ele>2635</ele>
        <time>2017-01-03T18:03:49Z</time>
      </trkpt>
      <trkpt lat="45.12257" lon="6.83019">
        <ele>2628.82</ele>
        <time>2017-01-03T18:03:53Z</time>
      </trkpt>
      <trkpt lat="45.12285" lon="6.82933">
        <ele>2624.02</ele>
        <time>2017-01-03T18:03:56Z</time>
      </trkpt>
      <trkpt lat="45.12294" lon="6.82892">
        <ele>2621.9</ele>
        <time>2017-01-03T18:03:58Z</time>
      </trkpt>
      <trkpt lat="45.12252" lon="6.82938">
        <ele>2615.63</ele>
        <time>2017-01-03T18:04:01Z</time>
      </trkpt>
      <trkpt lat="45.1223" lon="6.82945">
        <ele>2612.49</ele>
        <time>2017-01-03T18:04:02Z</time>
      </trkpt>
      <trkpt lat="45.12183" lon="6.82917">
        <ele>2609.56</ele>
        <time>2017-01-03T18:04:05Z</time>
      </trkpt>
      <trkpt lat="45.1218" lon="6.82898">
        <ele>2608.49</ele>
        <time>2017-01-03T18:04:06Z</time>
      </trkpt>
      <trkpt lat="45.12214" lon="6.82874">
        <ele>2608.07</ele>
        <time>2017-01-03T18:04:08Z</time>
      </trkpt>
      <trkpt lat="45.12234" lon="6.82851">
        <ele>2609.49</ele>
        <time>2017-01-03T18:04:09Z</time>
      </trkpt>
      <trkpt lat="45.12236" lon="6.82786">
        <ele>2604.23</ele>
        <time>2017-01-03T18:04:12Z</time>
      </trkpt>
      <trkpt lat="45.12245" lon="6.82664">
        <ele>2595.75</ele>
        <time>2017-01-03T18:04:16Z</time>
      </trkpt>
      <trkpt lat="45.12236" lon="6.82534">
        <ele>2579.56</ele>
        <time>2017-01-03T18:04:22Z</time>
      </trkpt>
      <trkpt lat="45.12255" lon="6.82462">
        <ele>2578.75</ele>
        <time>2017-01-03T18:04:24Z</time>
      </trkpt>
      <trkpt lat="45.12253" lon="6.81972">
        <ele>2571.54</ele>
        <time>2017-01-03T18:04:43Z</time>
      </trkpt>
      <trkpt lat="45.12205" lon="6.81781">
        <ele>2573.46</ele>
        <time>2017-01-03T18:04:51Z</time>
      </trkpt>
      <trkpt lat="45.12224" lon="6.81711">
        <ele>2568.67</ele>
        <time>2017-01-03T18:04:54Z</time>
      </trkpt>
      <trkpt lat="45.12214" lon="6.81705">
        <ele>2572.19</ele>
        <time>2017-01-03T18:04:55Z</time>
      </trkpt>
      <trkpt lat="45.12194" lon="6.8175">
        <ele>2575.13</ele>
        <time>2017-01-03T18:04:57Z</time>
      </trkpt>
      <trkpt lat="45.12171" lon="6.81771">
        <ele>2582.51</ele>
        <time>2017-01-03T18:04:58Z</time>
      </trkpt>
      <trkpt lat="45.12133" lon="6.81769">
        <ele>2586.28</ele>
        <time>2017-01-03T18:05:00Z</time>
      </trkpt>
      <trkpt lat="45.12081" lon="6.81774">
        <ele>2580.27</ele>
        <time>2017-01-03T18:05:03Z</time>
      </trkpt>
      <trkpt lat="45.11996" lon="6.81806">
        <ele>2565.71</ele>
        <time>2017-01-03T18:05:08Z</time>
      </trkpt>
      <trkpt lat="45.11919" lon="6.81846">
        <ele>2567.82</ele>
        <time>2017-01-03T18:05:13Z</time>
      </trkpt>
      <trkpt lat="45.11973" lon="6.81764">
        <ele>2552.14</ele>
        <time>2017-01-03T18:05:17Z</time>
      </trkpt>
      <trkpt lat="45.12" lon="6.81716">
        <ele>2550.55</ele>
        <time>2017-01-03T18:05:19Z</time>
      </trkpt>
      <trkpt lat="45.11999" lon="6.81586">
        <ele>2538.98</ele>
        <time>2017-01-03T18:05:24Z</time>
      </trkpt>
      <trkpt lat="45.12017" lon="6.81528">
        <ele>2533.28</ele>
        <time>2017-01-03T18:05:27Z</time>
      </trkpt>
      <trkpt lat="45.12056" lon="6.81489">
        <ele>2520.83</ele>
        <time>2017-01-03T18:05:29Z</time>
      </trkpt>
      <trkpt lat="45.1213" lon="6.81463">
        <ele>2515.17</ele>
        <time>2017-01-03T18:05:34Z</time>
      </trkpt>
      <trkpt lat="45.12191" lon="6.81409">
        <ele>2508.92</ele>
        <time>2017-01-03T18:05:38Z</time>
      </trkpt>
      <trkpt lat="45.12134" lon="6.81424">
        <ele>2505.48</ele>
        <time>2017-01-03T18:05:41Z</time>
      </trkpt>
      <trkpt lat="45.12099" lon="6.81421">
        <ele>2499.71</ele>
        <time>2017-01-03T18:05:43Z</time>
      </trkpt>
      <trkpt lat="45.12108" lon="6.81397">
        <ele>2497.9</ele>
        <time>2017-01-03T18:05:44Z</time>
      </trkpt>
      <trkpt lat="45.12175" lon="6.81356">
        <ele>2498.58</ele>
        <time>2017-01-03T18:05:48Z</time>
      </trkpt>
      <trkpt lat="45.12176" lon="6.81335">
        <ele>2494.03</ele>
        <time>2017-01-03T18:05:48Z</time>
      </trkpt>
      <trkpt lat="45.12151" lon="6.81296">
        <ele>2486.67</ele>
        <time>2017-01-03T18:05:51Z</time>
      </trkpt>
      <trkpt lat="45.12141" lon="6.81184">
        <ele>2478.63</ele>
        <time>2017-01-03T18:05:55Z</time>
      </trkpt>
      <trkpt lat="45.12146" lon="6.81032">
        <ele>2472.46</ele>
        <time>2017-01-03T18:06:01Z</time>
      </trkpt>
      <trkpt lat="45.12205" lon="6.80866">
        <ele>2456.04</ele>
        <time>2017-01-03T18:06:08Z</time>
      </trkpt>
      <trkpt lat="45.12265" lon="6.80779">
        <ele>2452.3</ele>
        <time>2017-01-03T18:06:13Z</time>
      </trkpt>
      <trkpt lat="45.12336" lon="6.80743">
        <ele>2450.11</ele>
        <time>2017-01-03T18:06:17Z</time>
      </trkpt>
      <trkpt lat="45.1239" lon="6.80768">
        <ele>2440.96</ele>
        <time>2017-01-03T18:06:20Z</time>
      </trkpt>
      <trkpt lat="45.12421" lon="6.80724">
        <ele>2442.34</ele>
        <time>2017-01-03T18:06:22Z</time>
      </trkpt>
      <trkpt lat="45.12478" lon="6.80686">
        <ele>2424.21</ele>
        <time>2017-01-03T18:06:26Z</time>
      </trkpt>
      <trkpt lat="45.12494" lon="6.80655">
        <ele>2421.33</ele>
        <time>2017-01-03T18:06:27Z</time>
      </trkpt>
      <trkpt lat="45.12523" lon="6.80603">
        <ele>2417.8</ele>
        <time>2017-01-03T18:06:30Z</time>
      </trkpt>
      <trkpt lat="45.12525" lon="6.80568">
        <ele>2422.14</ele>
        <time>2017-01-03T18:06:31Z</time>
      </trkpt>
      <trkpt lat="45.12562" lon="6.8052">
        <ele>2410.82</ele>
        <time>2017-01-03T18:06:34Z</time>
      </trkpt>
      <trkpt lat="45.12584" lon="6.8047">
        <ele>2407.73</ele>
        <time>2017-01-03T18:06:36Z</time>
      </trkpt>
      <trkpt lat="45.12648" lon="6.80388">
        <ele>2389.31</ele>
        <time>2017-01-03T18:06:41Z</time>
      </trkpt>
      <trkpt lat="45.12613" lon="6.80502">
        <ele>2395.91</ele>
        <time>2017-01-03T18:06:46Z</time>
      </trkpt>
      <trkpt lat="45.12629" lon="6.80509">
        <ele>2389.45</ele>
        <time>2017-01-03T18:06:47Z</time>
      </trkpt>
      <trkpt lat="45.12675" lon="6.80432">
        <ele>2380.79</ele>
        <time>2017-01-03T18:06:51Z</time>
      </trkpt>
      <trkpt lat="45.12706" lon="6.80354">
        <ele>2365.65</ele>
        <time>2017-01-03T18:06:54Z</time>
      </trkpt>
      <trkpt lat="45.12706" lon="6.80331">
        <ele>2362.06</ele>
        <time>2017-01-03T18:06:55Z</time>
      </trkpt>
      <trkpt lat="45.12717" lon="6.80375">
        <ele>2365.22</ele>
        <time>2017-01-03T18:06:57Z</time>
      </trkpt>
      <trkpt lat="45.12764" lon="6.80495">
        <ele>2365.69</ele>
        <time>2017-01-03T18:07:02Z</time>
      </trkpt>
      <trkpt lat="45.12769" lon="6.80475">
        <ele>2362.35</ele>
        <time>2017-01-03T18:07:03Z</time>
      </trkpt>
      <trkpt lat="45.12748" lon="6.80399">
        <ele>2361.05</ele>
        <time>2017-01-03T18:07:06Z</time>
      </trkpt>
      <trkpt lat="45.12814" lon="6.80475">
        <ele>2344.71</ele>
        <time>2017-01-03T18:07:11Z</time>
      </trkpt>
      <trkpt lat="45.12769" lon="6.80363">
        <ele>2341.58</ele>
        <time>2017-01-03T18:07:16Z</time>
      </trkpt>
      <trkpt lat="45.12822" lon="6.80423">
        <ele>2326.32</ele>
        <time>2017-01-03T18:07:20Z</time>
      </trkpt>
      <trkpt lat="45.12854" lon="6.8044">
        <ele>2319.19</ele>
        <time>2017-01-03T18:07:22Z</time>
      </trkpt>
      <trkpt lat="45.12817" lon="6.80377">
        <ele>2313.3</ele>
        <time>2017-01-03T18:07:25Z</time>
      </trkpt>
      <trkpt lat="45.1279" lon="6.80322">
        <ele>2323.42</ele>
        <time>2017-01-03T18:07:27Z</time>
      </trkpt>
      <trkpt lat="45.12861" lon="6.80396">
        <ele>2306.83</ele>
        <time>2017-01-03T18:07:32Z</time>
      </trkpt>
      <trkpt lat="45.12806" lon="6.80298">
        <ele>2291.38</ele>
        <time>2017-01-03T18:07:37Z</time>
      </trkpt>
      <trkpt lat="45.12859" lon="6.80336">
        <ele>2280.11</ele>
        <time>2017-01-03T18:07:41Z</time>
      </trkpt>
      <trkpt lat="45.12895" lon="6.80349">
        <ele>2280.08</ele>
        <time>2017-01-03T18:07:43Z</time>
      </trkpt>
      <trkpt lat="45.12869" lon="6.80321">
        <ele>2272.58</ele>
        <time>2017-01-03T18:07:44Z</time>
      </trkpt>
      <trkpt lat="45.12817" lon="6.80227">
        <ele>2282.04</ele>
        <time>2017-01-03T18:07:49Z</time>
      </trkpt>
      <trkpt lat="45.1286" lon="6.80181">
        <ele>2257.52</ele>
        <time>2017-01-03T18:07:52Z</time>
      </trkpt>
      <trkpt lat="45.12864" lon="6.80115">
        <ele>2263.64</ele>
        <time>2017-01-03T18:07:55Z</time>
      </trkpt>
      <trkpt lat="45.12933" lon="6.79985">
        <ele>2249.05</ele>
        <time>2017-01-03T18:08:01Z</time>
      </trkpt>
      <trkpt lat="45.1292" lon="6.80131">
        <ele>2236.62</ele>
        <time>2017-01-03T18:08:06Z</time>
      </trkpt>
      <trkpt lat="45.12981" lon="6.79929">
        <ele>2224.64</ele>
        <time>2017-01-03T18:08:15Z</time>
      </trkpt>
      <trkpt lat="45.12986" lon="6.80055">
        <ele>2210.52</ele>
        <time>2017-01-03T18:08:20Z</time>
      </trkpt>
      <trkpt lat="45.13004" lon="6.80166">
        <ele>2202.57</ele>
        <time>2017-01-03T18:08:24Z</time>
      </trkpt>
      <trkpt lat="45.13" lon="6.80217">
        <ele>2202.19</ele>
        <time>2017-01-03T18:08:26Z</time>
      </trkpt>
      <trkpt lat="45.13029" lon="6.80159">
        <ele>2194.82</ele>
        <time>2017-01-03T18:08:29Z</time>
      </trkpt>
      <trkpt lat="45.13043" lon="6.80053">
        <ele>2190.42</ele>
        <time>2017-01-03T18:08:33Z</time>
      </trkpt>
      <trkpt lat="45.13042" lon="6.80002">
        <ele>2189.05</ele>
        <time>2017-01-03T18:08:35Z</time>
      </trkpt>
      <trkpt lat="45.13084" lon="6.79889">
        <ele>2178.83</ele>
        <time>2017-01-03T18:08:40Z</time>
      </trkpt>
      <trkpt lat="45.13151" lon="6.79761">
        <ele>2169.89</ele>
        <time>2017-01-03T18:08:46Z</time>
      </trkpt>
      <trkpt lat="45.13186" lon="6.79737">
        <ele>2164.28</ele>
        <time>2017-01-03T18:08:48Z</time>
      </trkpt>
      <trkpt lat="45.13256" lon="6.79665">
        <ele>2156.44</ele>
        <time>2017-01-03T18:08:53Z</time>
      </trkpt>
      <trkpt lat="45.13321" lon="6.79603">
        <ele>2154.36</ele>
        <time>2017-01-03T18:08:57Z</time>
      </trkpt>
      <trkpt lat="45.13355" lon="6.79559">
        <ele>2145.72</ele>
        <time>2017-01-03T18:09:00Z</time>
      </trkpt>
      <trkpt lat="45.13396" lon="6.79455">
        <ele>2141.11</ele>
        <time>2017-01-03T18:09:05Z</time>
      </trkpt>
      <trkpt lat="45.13429" lon="6.79332">
        <ele>2131.44</ele>
        <time>2017-01-03T18:09:10Z</time>
      </trkpt>
      <trkpt lat="45.13451" lon="6.79289">
        <ele>2127.96</ele>
        <time>2017-01-03T18:09:12Z</time>
      </trkpt>
      <trkpt lat="45.13467" lon="6.79208">
        <ele>2127.86</ele>
        <time>2017-01-03T18:09:15Z</time>
      </trkpt>
      <trkpt lat="45.13531" lon="6.79101">
        <ele>2128.4</ele>
        <time>2017-01-03T18:09:20Z</time>
      </trkpt>
      <trkpt lat="45.1357" lon="6.79026">
        <ele>2118.25</ele>
        <time>2017-01-03T18:09:24Z</time>
      </trkpt>
      <trkpt lat="45.13694" lon="6.78831">
        <ele>2110.86</ele>
        <time>2017-01-03T18:09:34Z</time>
      </trkpt>
      <trkpt lat="45.13775" lon="6.78668">
        <ele>2098.7</ele>
        <time>2017-01-03T18:09:42Z</time>
      </trkpt>
      <trkpt lat="45.13793" lon="6.78568">
        <ele>2087.82</ele>
        <time>2017-01-03T18:09:46Z</time>
      </trkpt>
      <trkpt lat="45.13806" lon="6.78478">
        <ele>2072.7</ele>
        <time>2017-01-03T18:09:49Z</time>
      </trkpt>
      <trkpt lat="45.13832" lon="6.78434">
        <ele>2075.68</ele>
        <time>2017-01-03T18:09:52Z</time>
      </trkpt>
      <trkpt lat="45.13866" lon="6.7841">
        <ele>2079.8</ele>
        <time>2017-01-03T18:09:54Z</time>
      </trkpt>
      <trkpt lat="45.13861" lon="6.78357">
        <ele>2065.94</ele>
        <time>2017-01-03T18:09:56Z</time>
      </trkpt>
      <trkpt lat="45.13902" lon="6.78262">
        <ele>2067.16</ele>
        <time>2017-01-03T18:10:00Z</time>
      </trkpt>
      <trkpt lat="45.13916" lon="6.78069">
        <ele>2047.54</ele>
        <time>2017-01-03T18:10:08Z</time>
      </trkpt>
      <trkpt lat="45.13888" lon="6.7813">
        <ele>2041.76</ele>
        <time>2017-01-03T18:10:10Z</time>
      </trkpt>
      <trkpt lat="45.13864" lon="6.78174">
        <ele>2042.99</ele>
        <time>2017-01-03T18:10:13Z</time>
      </trkpt>
      <trkpt lat="45.13803" lon="6.78189">
        <ele>2028.31</ele>
        <time>2017-01-03T18:10:16Z</time>
      </trkpt>
      <trkpt lat="45.13793" lon="6.78183">
        <ele>2026.63</ele>
        <time>2017-01-03T18:10:16Z</time>
      </trkpt>
      <trkpt lat="45.13822" lon="6.78133">
        <ele>2025.67</ele>
        <time>2017-01-03T18:10:19Z</time>
      </trkpt>
      <trkpt lat="45.13854" lon="6.78091">
        <ele>2024.08</ele>
        <time>2017-01-03T18:10:21Z</time>
      </trkpt>
      <trkpt lat="45.13862" lon="6.78046">
        <ele>2019.22</ele>
        <time>2017-01-03T18:10:23Z</time>
      </trkpt>
      <trkpt lat="45.13891" lon="6.77899">
        <ele>2008.4</ele>
        <time>2017-01-03T18:10:29Z</time>
      </trkpt>
      <trkpt lat="45.13875" lon="6.77766">
        <ele>2002.36</ele>
        <time>2017-01-03T18:10:34Z</time>
      </trkpt>
      <trkpt lat="45.13837" lon="6.77721">
        <ele>2000.85</ele>
        <time>2017-01-03T18:10:37Z</time>
      </trkpt>
      <trkpt lat="45.13846" lon="6.77466">
        <ele>2005.71</ele>
        <time>2017-01-03T18:10:47Z</time>
      </trkpt>
      <trkpt lat="45.13835" lon="6.77245">
        <ele>2012.38</ele>
        <time>2017-01-03T18:10:55Z</time>
      </trkpt>
      <trkpt lat="45.13841" lon="6.77091">
        <ele>2003.1</ele>
        <time>2017-01-03T18:11:01Z</time>
      </trkpt>
      <trkpt lat="45.13821" lon="6.76971">
        <ele>1997.92</ele>
        <time>2017-01-03T18:11:06Z</time>
      </trkpt>
      <trkpt lat="45.13671" lon="6.76734">
        <ele>1994.87</ele>
        <time>2017-01-03T18:11:18Z</time>
      </trkpt>
      <trkpt lat="45.13619" lon="6.7669">
        <ele>1999.81</ele>
        <time>2017-01-03T18:11:22Z</time>
      </trkpt>
      <trkpt lat="45.13579" lon="6.76662">
        <ele>2001.71</ele>
        <time>2017-01-03T18:11:24Z</time>
      </trkpt>
      <trkpt lat="45.13557" lon="6.7663">
        <ele>1996.86</ele>
        <time>2017-01-03T18:11:26Z</time>
      </trkpt>
      <trkpt lat="45.13528" lon="6.76617">
        <ele>1996.11</ele>
        <time>2017-01-03T18:11:28Z</time>
      </trkpt>
      <trkpt lat="45.1339" lon="6.76592">
        <ele>1998.18</ele>
        <time>2017-01-03T18:11:35Z</time>
      </trkpt>
      <trkpt lat="45.1332" lon="6.76599">
        <ele>1987.51</ele>
        <time>2017-01-03T18:11:39Z</time>
      </trkpt>
      <trkpt lat="45.13272" lon="6.7664">
        <ele>2003.4</ele>
        <time>2017-01-03T18:11:42Z</time>
      </trkpt>
      <trkpt lat="45.13202" lon="6.76643">
        <ele>2000.81</ele>
        <time>2017-01-03T18:11:46Z</time>
      </trkpt>
      <trkpt lat="45.13124" lon="6.76633">
        <ele>2001.12</ele>
        <time>2017-01-03T18:11:50Z</time>
      </trkpt>
      <trkpt lat="45.13044" lon="6.76665">
        <ele>2004.29</ele>
        <time>2017-01-03T18:11:55Z</time>
      </trkpt>
      <trkpt lat="45.12992" lon="6.76691">
        <ele>2001.81</ele>
        <time>2017-01-03T18:11:58Z</time>
      </trkpt>
      <trkpt lat="45.12889" lon="6.76711">
        <ele>1997.55</ele>
        <time>2017-01-03T18:12:04Z</time>
      </trkpt>
      <trkpt lat="45.12814" lon="6.76718">
        <ele>1987.8</ele>
        <time>2017-01-03T18:12:08Z</time>
      </trkpt>
      <trkpt lat="45.12743" lon="6.76791">
        <ele>1998.56</ele>
        <time>2017-01-03T18:12:13Z</time>
      </trkpt>
      <trkpt lat="45.12673" lon="6.76822">
        <ele>1993.32</ele>
        <time>2017-01-03T18:12:17Z</time>
      </trkpt>
      <trkpt lat="45.12583" lon="6.76904">
        <ele>1989.74</ele>
        <time>2017-01-03T18:12:22Z</time>
      </trkpt>
      <trkpt lat="45.12524" lon="6.77017">
        <ele>2000.07</ele>
        <time>2017-01-03T18:12:28Z</time>
      </trkpt>
      <trkpt lat="45.12483" lon="6.77054">
        <ele>1997.34</ele>
        <time>2017-01-03T18:12:31Z</time>
      </trkpt>
      <trkpt lat="45.12458" lon="6.77059">
        <ele>1995.42</ele>
        <time>2017-01-03T18:12:32Z</time>
      </trkpt>
      <trkpt lat="45.1243" lon="6.77044">
        <ele>1987.76</ele>
        <time>2017-01-03T18:12:34Z</time>
      </trkpt>
      <trkpt lat="45.12389" lon="6.77044">
        <ele>1982.85</ele>
        <time>2017-01-03T18:12:36Z</time>
      </trkpt>
      <trkpt lat="45.12332" lon="6.77077">
        <ele>1994.81</ele>
        <time>2017-01-03T18:12:39Z</time>
      </trkpt>
      <trkpt lat="45.12299" lon="6.77086">
        <ele>1997.69</ele>
        <time>2017-01-03T18:12:41Z</time>
      </trkpt>
      <trkpt lat="45.12299" lon="6.7705">
        <ele>1998.53</ele>
        <time>2017-01-03T18:12:42Z</time>
      </trkpt>
      <trkpt lat="45.1236" lon="6.76945">
        <ele>1983.56</ele>
        <time>2017-01-03T18:12:48Z</time>
      </trkpt>
      <trkpt lat="45.12406" lon="6.76796">
        <ele>1980.12</ele>
        <time>2017-01-03T18:12:54Z</time>
      </trkpt>
      <trkpt lat="45.12401" lon="6.76675">
        <ele>1968.61</ele>
        <time>2017-01-03T18:12:59Z</time>
      </trkpt>
      <trkpt lat="45.12379" lon="6.76645">
        <ele>1968.89</ele>
        <time>2017-01-03T18:13:00Z</time>
      </trkpt>
      <trkpt lat="45.1231" lon="6.76507">
        <ele>1954.67</ele>
        <time>2017-01-03T18:13:07Z</time>
      </trkpt>
      <trkpt lat="45.12258" lon="6.76393">
        <ele>1942.34</ele>
        <time>2017-01-03T18:13:12Z</time>
      </trkpt>
      <trkpt lat="45.1222" lon="6.76333">
        <ele>1936.32</ele>
        <time>2017-01-03T18:13:15Z</time>
      </trkpt>
      <trkpt lat="45.12058" lon="6.76199">
        <ele>1910.7</ele>
        <time>2017-01-03T18:13:26Z</time>
      </trkpt>
      <trkpt lat="45.12003" lon="6.76195">
        <ele>1911.02</ele>
        <time>2017-01-03T18:13:29Z</time>
      </trkpt>
      <trkpt lat="45.11948" lon="6.76171">
        <ele>1908.88</ele>
        <time>2017-01-03T18:13:32Z</time>
      </trkpt>
      <trkpt lat="45.11927" lon="6.76126">
        <ele>1900.73</ele>
        <time>2017-01-03T18:13:34Z</time>
      </trkpt>
      <trkpt lat="45.11875" lon="6.76072">
        <ele>1890.53</ele>
        <time>2017-01-03T18:13:37Z</time>
      </trkpt>
      <trkpt lat="45.11821" lon="6.76078">
        <ele>1889.32</ele>
        <time>2017-01-03T18:13:40Z</time>
      </trkpt>
      <trkpt lat="45.11802" lon="6.76056">
        <ele>1884.01</ele>
        <time>2017-01-03T18:13:42Z</time>
      </trkpt>
      <trkpt lat="45.11786" lon="6.75927">
        <ele>1873.68</ele>
        <time>2017-01-03T18:13:47Z</time>
      </trkpt>
      <trkpt lat="45.11744" lon="6.75856">
        <ele>1868.12</ele>
        <time>2017-01-03T18:13:50Z</time>
      </trkpt>
      <trkpt lat="45.1172" lon="6.75837">
        <ele>1865.63</ele>
        <time>2017-01-03T18:13:52Z</time>
      </trkpt>
      <trkpt lat="45.11756" lon="6.75801">
        <ele>1858.61</ele>
        <time>2017-01-03T18:13:54Z</time>
      </trkpt>
      <trkpt lat="45.11821" lon="6.75821">
        <ele>1860.49</ele>
        <time>2017-01-03T18:13:58Z</time>
      </trkpt>
      <trkpt lat="45.11827" lon="6.75802">
        <ele>1857.02</ele>
        <time>2017-01-03T18:13:59Z</time>
      </trkpt>
      <trkpt lat="45.11762" lon="6.75743">
        <ele>1848.1</ele>
        <time>2017-01-03T18:14:03Z</time>
      </trkpt>
      <trkpt lat="45.11734" lon="6.75744">
        <ele>1845.88</ele>
        <time>2017-01-03T18:14:04Z</time>
      </trkpt>
      <trkpt lat="45.11706" lon="6.75753">
        <ele>1844.98</ele>
        <time>2017-01-03T18:14:06Z</time>
      </trkpt>
      <trkpt lat="45.11673" lon="6.75724">
        <ele>1835.12</ele>
        <time>2017-01-03T18:14:08Z</time>
      </trkpt>
      <trkpt lat="45.11645" lon="6.75641">
        <ele>1825.27</ele>
        <time>2017-01-03T18:14:12Z</time>
      </trkpt>
      <trkpt lat="45.11616" lon="6.75603">
        <ele>1820.85</ele>
        <time>2017-01-03T18:14:14Z</time>
      </trkpt>
      <trkpt lat="45.11473" lon="6.7552">
        <ele>1805.3</ele>
        <time>2017-01-03T18:14:22Z</time>
      </trkpt>
      <trkpt lat="45.11461" lon="6.75507">
        <ele>1802.71</ele>
        <time>2017-01-03T18:14:23Z</time>
      </trkpt>
      <trkpt lat="45.11479" lon="6.75491">
        <ele>1798.24</ele>
        <time>2017-01-03T18:14:24Z</time>
      </trkpt>
      <trkpt lat="45.11522" lon="6.75478">
        <ele>1796.88</ele>
        <time>2017-01-03T18:14:27Z</time>
      </trkpt>
      <trkpt lat="45.11576" lon="6.7544">
        <ele>1786.09</ele>
        <time>2017-01-03T18:14:30Z</time>
      </trkpt>
      <trkpt lat="45.11631" lon="6.75457">
        <ele>1788.98</ele>
        <time>2017-01-03T18:14:33Z</time>
      </trkpt>
      <trkpt lat="45.11734" lon="6.75483">
        <ele>1776.24</ele>
        <time>2017-01-03T18:14:39Z</time>
      </trkpt>
      <trkpt lat="45.11723" lon="6.75453">
        <ele>1766.68</ele>
        <time>2017-01-03T18:14:40Z</time>
      </trkpt>
      <trkpt lat="45.1167" lon="6.75409">
        <ele>1766.84</ele>
        <time>2017-01-03T18:14:44Z</time>
      </trkpt>
      <trkpt lat="45.11634" lon="6.75387">
        <ele>1764.12</ele>
        <time>2017-01-03T18:14:46Z</time>
      </trkpt>
      <trkpt lat="45.11583" lon="6.75332">
        <ele>1751.3</ele>
        <time>2017-01-03T18:14:49Z</time>
      </trkpt>
      <trkpt lat="45.11546" lon="6.7532">
        <ele>1742.91</ele>
        <time>2017-01-03T18:14:51Z</time>
      </trkpt>
      <trkpt lat="45.11439" lon="6.75278">
        <ele>1729.49</ele>
        <time>2017-01-03T18:14:57Z</time>
      </trkpt>
      <trkpt lat="45.11425" lon="6.75267">
        <ele>1724.52</ele>
        <time>2017-01-03T18:14:58Z</time>
      </trkpt>
      <trkpt lat="45.11493" lon="6.75264">
        <ele>1723.68</ele>
        <time>2017-01-03T18:15:02Z</time>
      </trkpt>
      <trkpt lat="45.11666" lon="6.75286">
        <ele>1706.78</ele>
        <time>2017-01-03T18:15:11Z</time>
      </trkpt>
      <trkpt lat="45.11702" lon="6.75292">
        <ele>1697.02</ele>
        <time>2017-01-03T18:15:13Z</time>
      </trkpt>
      <trkpt lat="45.11576" lon="6.75195">
        <ele>1682.29</ele>
        <time>2017-01-03T18:15:22Z</time>
      </trkpt>
      <trkpt lat="45.11569" lon="6.75181">
        <ele>1677.22</ele>
        <time>2017-01-03T18:15:22Z</time>
      </trkpt>
      <trkpt lat="45.11589" lon="6.75188">
        <ele>1677.39</ele>
        <time>2017-01-03T18:15:24Z</time>
      </trkpt>
      <trkpt lat="45.11663" lon="6.75207">
        <ele>1677.6</ele>
        <time>2017-01-03T18:15:28Z</time>
      </trkpt>
      <trkpt lat="45.11566" lon="6.75125">
        <ele>1660.62</ele>
        <time>2017-01-03T18:15:34Z</time>
      </trkpt>
      <trkpt lat="45.11531" lon="6.75102">
        <ele>1654.82</ele>
        <time>2017-01-03T18:15:36Z</time>
      </trkpt>
      <trkpt lat="45.11487" lon="6.75095">
        <ele>1649.17</ele>
        <time>2017-01-03T18:15:39Z</time>
      </trkpt>
      <trkpt lat="45.11357" lon="6.75059">
        <ele>1633.58</ele>
        <time>2017-01-03T18:15:46Z</time>
      </trkpt>
      <trkpt lat="45.11329" lon="6.75073">
        <ele>1635.2</ele>
        <time>2017-01-03T18:15:47Z</time>
      </trkpt>
      <trkpt lat="45.11307" lon="6.75064">
        <ele>1634.18</ele>
        <time>2017-01-03T18:15:49Z</time>
      </trkpt>
      <trkpt lat="45.1128" lon="6.75035">
        <ele>1636.12</ele>
        <time>2017-01-03T18:15:51Z</time>
      </trkpt>
      <trkpt lat="45.11249" lon="6.74937">
        <ele>1630.66</ele>
        <time>2017-01-03T18:15:55Z</time>
      </trkpt>
      <trkpt lat="45.11194" lon="6.74698">
        <ele>1616.7</ele>
        <time>2017-01-03T18:16:04Z</time>
      </trkpt>
      <trkpt lat="45.11152" lon="6.74446">
        <ele>1597.76</ele>
        <time>2017-01-03T18:16:14Z</time>
      </trkpt>
      <trkpt lat="45.11135" lon="6.74419">
        <ele>1597.66</ele>
        <time>2017-01-03T18:16:16Z</time>
      </trkpt>
      <trkpt lat="45.1106" lon="6.74285">
        <ele>1589.62</ele>
        <time>2017-01-03T18:16:22Z</time>
      </trkpt>
      <trkpt lat="45.11022" lon="6.74221">
        <ele>1585.71</ele>
        <time>2017-01-03T18:16:26Z</time>
      </trkpt>
      <trkpt lat="45.10939" lon="6.74065">
        <ele>1563.59</ele>
        <time>2017-01-03T18:16:33Z</time>
      </trkpt>
      <trkpt lat="45.10831" lon="6.73993">
        <ele>1560.73</ele>
        <time>2017-01-03T18:16:40Z</time>
      </trkpt>
      <trkpt lat="45.10798" lon="6.73954">
        <ele>1558.95</ele>
        <time>2017-01-03T18:16:42Z</time>
      </trkpt>
      <trkpt lat="45.10744" lon="6.73909">
        <ele>1552.62</ele>
        <time>2017-01-03T18:16:46Z</time>
      </trkpt>
      <trkpt lat="45.10725" lon="6.7387">
        <ele>1551.94</ele>
        <time>2017-01-03T18:16:47Z</time>
      </trkpt>
      <trkpt lat="45.10716" lon="6.73847">
        <ele>1550.02</ele>
        <time>2017-01-03T18:16:48Z</time>
      </trkpt>
      <trkpt lat="45.10672" lon="6.73816">
        <ele>1553.73</ele>
        <time>2017-01-03T18:16:51Z</time>
      </trkpt>
      <trkpt lat="45.10639" lon="6.73783">
        <ele>1554.29</ele>
        <time>2017-01-03T18:16:53Z</time>
      </trkpt>
      <trkpt lat="45.10567" lon="6.73649">
        <ele>1547</ele>
        <time>2017-01-03T18:17:00Z</time>
      </trkpt>
      <trkpt lat="45.10511" lon="6.73564">
        <ele>1538.99</ele>
        <time>2017-01-03T18:17:04Z</time>
      </trkpt>
      <trkpt lat="45.10432" lon="6.73516">
        <ele>1539.16</ele>
        <time>2017-01-03T18:17:09Z</time>
      </trkpt>
      <trkpt lat="45.10324" lon="6.73348">
        <ele>1521.88</ele>
        <time>2017-01-03T18:17:18Z</time>
      </trkpt>
      <trkpt lat="45.10165" lon="6.73261">
        <ele>1511.96</ele>
        <time>2017-01-03T18:17:27Z</time>
      </trkpt>
      <trkpt lat="45.10093" lon="6.73248">
        <ele>1499.19</ele>
        <time>2017-01-03T18:17:31Z</time>
      </trkpt>
      <trkpt lat="45.1005" lon="6.73304">
        <ele>1512.96</ele>
        <time>2017-01-03T18:17:34Z</time>
      </trkpt>
      <trkpt lat="45.09988" lon="6.7326">
        <ele>1503.38</ele>
        <time>2017-01-03T18:17:38Z</time>
      </trkpt>
      <trkpt lat="45.09948" lon="6.73214">
        <ele>1493.48</ele>
        <time>2017-01-03T18:17:41Z</time>
      </trkpt>
      <trkpt lat="45.09915" lon="6.73193">
        <ele>1494.95</ele>
        <time>2017-01-03T18:17:43Z</time>
      </trkpt>
      <trkpt lat="45.09891" lon="6.7317">
        <ele>1493.55</ele>
        <time>2017-01-03T18:17:45Z</time>
      </trkpt>
      <trkpt lat="45.09871" lon="6.7315">
        <ele>1495.2</ele>
        <time>2017-01-03T18:17:46Z</time>
      </trkpt>
      <trkpt lat="45.09869" lon="6.73116">
        <ele>1487.91</ele>
        <time>2017-01-03T18:17:47Z</time>
      </trkpt>
      <trkpt lat="45.09868" lon="6.7309">
        <ele>1479.79</ele>
        <time>2017-01-03T18:17:48Z</time>
      </trkpt>
      <trkpt lat="45.09851" lon="6.73077">
        <ele>1482.14</ele>
        <time>2017-01-03T18:17:49Z</time>
      </trkpt>
      <trkpt lat="45.09827" lon="6.73065">
        <ele>1490.57</ele>
        <time>2017-01-03T18:17:51Z</time>
      </trkpt>
      <trkpt lat="45.09819" lon="6.73034">
        <ele>1490.81</ele>
        <time>2017-01-03T18:17:52Z</time>
      </trkpt>
      <trkpt lat="45.09829" lon="6.72939">
        <ele>1479.79</ele>
        <time>2017-01-03T18:17:56Z</time>
      </trkpt>
      <trkpt lat="45.09818" lon="6.72839">
        <ele>1469.14</ele>
        <time>2017-01-03T18:18:00Z</time>
      </trkpt>
      <trkpt lat="45.09771" lon="6.7276">
        <ele>1459.85</ele>
        <time>2017-01-03T18:18:04Z</time>
      </trkpt>
      <trkpt lat="45.09741" lon="6.72766">
        <ele>1466.01</ele>
        <time>2017-01-03T18:18:05Z</time>
      </trkpt>
      <trkpt lat="45.09726" lon="6.72761">
        <ele>1466.6</ele>
        <time>2017-01-03T18:18:06Z</time>
      </trkpt>
      <trkpt lat="45.09714" lon="6.72677">
        <ele>1451.45</ele>
        <time>2017-01-03T18:18:09Z</time>
      </trkpt>
      <trkpt lat="45.09598" lon="6.7259">
        <ele>1447.18</ele>
        <time>2017-01-03T18:18:17Z</time>
      </trkpt>
      <trkpt lat="45.09514" lon="6.72511">
        <ele>1433.56</ele>
        <time>2017-01-03T18:18:22Z</time>
      </trkpt>
      <trkpt lat="45.09396" lon="6.72441">
        <ele>1441.42</ele>
        <time>2017-01-03T18:18:29Z</time>
      </trkpt>
      <trkpt lat="45.09349" lon="6.72372">
        <ele>1430.98</ele>
        <time>2017-01-03T18:18:33Z</time>
      </trkpt>
      <trkpt lat="45.09324" lon="6.72368">
        <ele>1433.66</ele>
        <time>2017-01-03T18:18:34Z</time>
      </trkpt>
      <trkpt lat="45.09301" lon="6.72353">
        <ele>1433.45</ele>
        <time>2017-01-03T18:18:36Z</time>
      </trkpt>
      <trkpt lat="45.09263" lon="6.72302">
        <ele>1428.32</ele>
        <time>2017-01-03T18:18:38Z</time>
      </trkpt>
      <trkpt lat="45.09232" lon="6.72268">
        <ele>1422.44</ele>
        <time>2017-01-03T18:18:41Z</time>
      </trkpt>
      <trkpt lat="45.09201" lon="6.7224">
        <ele>1424.29</ele>
        <time>2017-01-03T18:18:43Z</time>
      </trkpt>
      <trkpt lat="45.09139" lon="6.71968">
        <ele>1385.44</ele>
        <time>2017-01-03T18:18:54Z</time>
      </trkpt>
      <trkpt lat="45.09092" lon="6.71951">
        <ele>1381.6</ele>
        <time>2017-01-03T18:18:56Z</time>
      </trkpt>
      <trkpt lat="45.09039" lon="6.71939">
        <ele>1383.63</ele>
        <time>2017-01-03T18:18:59Z</time>
      </trkpt>
      <trkpt lat="45.09027" lon="6.71918">
        <ele>1373.27</ele>
        <time>2017-01-03T18:19:00Z</time>
      </trkpt>
      <trkpt lat="45.0905" lon="6.71934">
        <ele>1377.36</ele>
        <time>2017-01-03T18:19:02Z</time>
      </trkpt>
      <trkpt lat="45.09077" lon="6.71928">
        <ele>1373</ele>
        <time>2017-01-03T18:19:03Z</time>
      </trkpt>
      <trkpt lat="45.09124" lon="6.71896">
        <ele>1360.82</ele>
        <time>2017-01-03T18:19:06Z</time>
      </trkpt>
      <trkpt lat="45.09145" lon="6.71866">
        <ele>1348.63</ele>
        <time>2017-01-03T18:19:08Z</time>
      </trkpt>
      <trkpt lat="45.09117" lon="6.71877">
        <ele>1355.39</ele>
        <time>2017-01-03T18:19:09Z</time>
      </trkpt>
      <trkpt lat="45.09056" lon="6.71885">
        <ele>1350.84</ele>
        <time>2017-01-03T18:19:13Z</time>
      </trkpt>
      <trkpt lat="45.09012" lon="6.71848">
        <ele>1345.55</ele>
        <time>2017-01-03T18:19:16Z</time>
      </trkpt>
      <trkpt lat="45.08991" lon="6.71785">
        <ele>1335.85</ele>
        <time>2017-01-03T18:19:18Z</time>
      </trkpt>
      <trkpt lat="45.0888" lon="6.71664">
        <ele>1332.92</ele>
        <time>2017-01-03T18:19:26Z</time>
      </trkpt>
      <trkpt lat="45.08779" lon="6.71563">
        <ele>1311.94</ele>
        <time>2017-01-03T18:19:33Z</time>
      </trkpt>
      <trkpt lat="45.08725" lon="6.71547">
        <ele>1307.43</ele>
        <time>2017-01-03T18:19:36Z</time>
      </trkpt>
      <trkpt lat="45.08632" lon="6.71459">
        <ele>1305.43</ele>
        <time>2017-01-03T18:19:42Z</time>
      </trkpt>
      <trkpt lat="45.08581" lon="6.71314">
        <ele>1295.78</ele>
        <time>2017-01-03T18:19:48Z</time>
      </trkpt>
      <trkpt lat="45.08557" lon="6.71241">
        <ele>1296.05</ele>
        <time>2017-01-03T18:19:51Z</time>
      </trkpt>
      <trkpt lat="45.08511" lon="6.71183">
        <ele>1297.27</ele>
        <time>2017-01-03T18:19:55Z</time>
      </trkpt>
      <trkpt lat="45.08284" lon="6.71036">
        <ele>1288.82</ele>
        <time>2017-01-03T18:20:08Z</time>
      </trkpt>
      <trkpt lat="45.08205" lon="6.71018">
        <ele>1286.74</ele>
        <time>2017-01-03T18:20:13Z</time>
      </trkpt>
      <trkpt lat="45.08085" lon="6.71026">
        <ele>1280.97</ele>
        <time>2017-01-03T18:20:19Z</time>
      </trkpt>
      <trkpt lat="45.08082" lon="6.71059">
        <ele>1287.94</ele>
        <time>2017-01-03T18:20:21Z</time>
      </trkpt>
      <trkpt lat="45.08068" lon="6.71055">
        <ele>1286.31</ele>
        <time>2017-01-03T18:20:21Z</time>
      </trkpt>
      <trkpt lat="45.08065" lon="6.71039">
        <ele>1281.98</ele>
        <time>2017-01-03T18:20:22Z</time>
      </trkpt>
      <trkpt lat="45.08023" lon="6.71043">
        <ele>1277.32</ele>
        <time>2017-01-03T18:20:24Z</time>
      </trkpt>
      <trkpt lat="45.07982" lon="6.7107">
        <ele>1272.5</ele>
        <time>2017-01-03T18:20:27Z</time>
      </trkpt>
      <trkpt lat="45.07905" lon="6.71103">
        <ele>1269.86</ele>
        <time>2017-01-03T18:20:31Z</time>
      </trkpt>
      <trkpt lat="45.07835" lon="6.71114">
        <ele>1261.3</ele>
        <time>2017-01-03T18:20:35Z</time>
      </trkpt>
      <trkpt lat="45.07825" lon="6.71117">
        <ele>1261</ele>
        <time>2017-01-04T07:00:00Z</time>
      </trkpt>
      <trkpt lat="45.07815" lon="6.71125">
        <ele>1261</ele>
        <time>2017-01-04T07:00:04Z</time>
      </trkpt>
      <trkpt lat="45.07799" lon="6.71145">
        <ele>1261</ele>
        <time>2017-01-04T07:00:13Z</time>
      </trkpt>
      <trkpt lat="45.07772" lon="6.71194">
        <ele>1261</ele>
        <time>2017-01-04T07:00:30Z</time>
      </trkpt>
      <trkpt lat="45.07744" lon="6.71232">
        <ele>1263</ele>
        <time>2017-01-04T07:00:46Z</time>
      </trkpt>
      <trkpt lat="45.0768" lon="6.71302">
        <ele>1261</ele>
        <time>2017-01-04T07:01:18Z</time>
      </trkpt>
      <trkpt lat="45.07661" lon="6.71319">
        <ele>1259</ele>
        <time>2017-01-04T07:01:27Z</time>
      </trkpt>
      <trkpt lat="45.07616" lon="6.71351">
        <ele>1251</ele>
        <time>2017-01-04T07:01:47Z</time>
      </trkpt>
      <trkpt lat="45.07537" lon="6.71394">
        <ele>1248</ele>
        <time>2017-01-04T07:02:21Z</time>
      </trkpt>
      <trkpt lat="45.07244" lon="6.71548">
        <ele>1243</ele>
        <time>2017-01-04T07:04:26Z</time>
      </trkpt>
      <trkpt lat="45.07196" lon="6.71572">
        <ele>1240</ele>
        <time>2017-01-04T07:04:47Z</time>
      </trkpt>
      <trkpt lat="45.0716" lon="6.71584">
        <ele>1239</ele>
        <time>2017-01-04T07:05:01Z</time>
      </trkpt>
      <trkpt lat="45.07149" lon="6.71593">
        <ele>1238</ele>
        <time>2017-01-04T07:05:07Z</time>
      </trkpt>
      <trkpt lat="45.07133" lon="6.71611">
        <ele>1236</ele>
        <time>2017-01-04T07:05:15Z</time>
      </trkpt>
      <trkpt lat="45.07084" lon="6.71676">
        <ele>1234</ele>
        <time>2017-01-04T07:05:42Z</time>
      </trkpt>
      <trkpt lat="45.07044" lon="6.71722">
        <ele>1240</ele>
        <time>2017-01-04T07:06:02Z</time>
      </trkpt>
      <trkpt lat="45.07033" lon="6.7174">
        <ele>1241</ele>
        <time>2017-01-04T07:06:09Z</time>
      </trkpt>
      <trkpt lat="45.0701" lon="6.7179">
        <ele>1243</ele>
        <time>2017-01-04T07:06:26Z</time>
      </trkpt>
      <trkpt lat="45.06992" lon="6.71822">
        <ele>1244</ele>
        <time>2017-01-04T07:06:37Z</time>
      </trkpt>
      <trkpt lat="45.06975" lon="6.71847">
        <ele>1243</ele>
        <time>2017-01-04T07:06:47Z</time>
      </trkpt>
      <trkpt lat="45.06959" lon="6.71868">
        <ele>1243</ele>
        <time>2017-01-04T07:06:56Z</time>
      </trkpt>
      <trkpt lat="45.06901" lon="6.71925">
        <ele>1241</ele>
        <time>2017-01-04T07:07:24Z</time>
      </trkpt>
      <trkpt lat="45.06881" lon="6.71951">
        <ele>1239</ele>
        <time>2017-01-04T07:07:35Z</time>
      </trkpt>
      <trkpt lat="45.0682" lon="6.72043">
        <ele>1237</ele>
        <time>2017-01-04T07:08:11Z</time>
      </trkpt>
      <trkpt lat="45.0681" lon="6.72061">
        <ele>1237</ele>
        <time>2017-01-04T07:08:17Z</time>
      </trkpt>
      <trkpt lat="45.06801" lon="6.72083">
        <ele>1238</ele>
        <time>2017-01-04T07:08:24Z</time>
      </trkpt>
      <trkpt lat="45.06783" lon="6.72138">
        <ele>1240</ele>
        <time>2017-01-04T07:08:42Z</time>
      </trkpt>
      <trkpt lat="45.06768" lon="6.72163">
        <ele>1242</ele>
        <time>2017-01-04T07:08:51Z</time>
      </trkpt>
      <trkpt lat="45.06757" lon="6.72178">
        <ele>1245</ele>
        <time>2017-01-04T07:08:57Z</time>
      </trkpt>
      <trkpt lat="45.06735" lon="6.722">
        <ele>1244</ele>
        <time>2017-01-04T07:09:08Z</time>
      </trkpt>
      <trkpt lat="45.06717" lon="6.72208">
        <ele>1237</ele>
        <time>2017-01-04T07:09:15Z</time>
      </trkpt>
      <trkpt lat="45.06637" lon="6.72233">
        <ele>1231</ele>
        <time>2017-01-04T07:09:48Z</time>
      </trkpt>
      <trkpt lat="45.06622" lon="6.7224">
        <ele>1230</ele>
        <time>2017-01-04T07:09:54Z</time>
      </trkpt>
      <trkpt lat="45.06592" lon="6.72265">
        <ele>1229</ele>
        <time>2017-01-04T07:10:08Z</time>
      </trkpt>
      <trkpt lat="45.06566" lon="6.72297">
        <ele>1228</ele>
        <time>2017-01-04T07:10:22Z</time>
      </trkpt>
      <trkpt lat="45.06464" lon="6.72454">
        <ele>1222</ele>
        <time>2017-01-04T07:11:22Z</time>
      </trkpt>
      <trkpt lat="45.0634" lon="6.72631">
        <ele>1220</ele>
        <time>2017-01-04T07:12:33Z</time>
      </trkpt>
      <trkpt lat="45.06275" lon="6.72716">
        <ele>1220</ele>
        <time>2017-01-04T07:13:08Z</time>
      </trkpt>
      <trkpt lat="45.06216" lon="6.72786">
        <ele>1214</ele>
        <time>2017-01-04T07:13:39Z</time>
      </trkpt>
      <trkpt lat="45.05938" lon="6.7307">
        <ele>1204</ele>
        <time>2017-01-04T07:15:56Z</time>
      </trkpt>
      <trkpt lat="45.05928" lon="6.73075">
        <ele>1205</ele>
        <time>2017-01-04T07:16:01Z</time>
      </trkpt>
      <trkpt lat="45.05896" lon="6.73078">
        <ele>1206</ele>
        <time>2017-01-04T07:16:13Z</time>
      </trkpt>
      <trkpt lat="45.05882" lon="6.73084">
        <ele>1207</ele>
        <time>2017-01-04T07:16:19Z</time>
      </trkpt>
      <trkpt lat="45.05869" lon="6.73093">
        <ele>1207</ele>
        <time>2017-01-04T07:16:25Z</time>
      </trkpt>
      <trkpt lat="45.05856" lon="6.73104">
        <ele>1208</ele>
        <time>2017-01-04T07:16:31Z</time>
      </trkpt>
      <trkpt lat="45.05845" lon="6.73118">
        <ele>1207</ele>
        <time>2017-01-04T07:16:37Z</time>
      </trkpt>
      <trkpt lat="45.05829" lon="6.7315">
        <ele>1204</ele>
        <time>2017-01-04T07:16:48Z</time>
      </trkpt>
      <trkpt lat="45.05785" lon="6.73277">
        <ele>1207</ele>
        <time>2017-01-04T07:17:28Z</time>
      </trkpt>
      <trkpt lat="45.05768" lon="6.73307">
        <ele>1206</ele>
        <time>2017-01-04T07:17:39Z</time>
      </trkpt>
      <trkpt lat="45.05715" lon="6.73389">
        <ele>1196</ele>
        <time>2017-01-04T07:18:11Z</time>
      </trkpt>
      <trkpt lat="45.05709" lon="6.73404">
        <ele>1195</ele>
        <time>2017-01-04T07:18:15Z</time>
      </trkpt>
      <trkpt lat="45.05687" lon="6.7349">
        <ele>1192</ele>
        <time>2017-01-04T07:18:41Z</time>
      </trkpt>
      <trkpt lat="45.05659" lon="6.73581">
        <ele>1190</ele>
        <time>2017-01-04T07:19:09Z</time>
      </trkpt>
      <trkpt lat="45.05615" lon="6.73687">
        <ele>1183</ele>
        <time>2017-01-04T07:19:44Z</time>
      </trkpt>
      <trkpt lat="45.05464" lon="6.74034">
        <ele>1182</ele>
        <time>2017-01-04T07:21:39Z</time>
      </trkpt>
      <trkpt lat="45.05419" lon="6.74133">
        <ele>1175</ele>
        <time>2017-01-04T07:22:13Z</time>
      </trkpt>
      <trkpt lat="45.05397" lon="6.74173">
        <ele>1178</ele>
        <time>2017-01-04T07:22:27Z</time>
      </trkpt>
      <trkpt lat="45.05371" lon="6.74212">
        <ele>1179</ele>
        <time>2017-01-04T07:22:42Z</time>
      </trkpt>
      <trkpt lat="45.05342" lon="6.74249">
        <ele>1177</ele>
        <time>2017-01-04T07:22:58Z</time>
      </trkpt>
      <trkpt lat="45.05309" lon="6.74283">
        <ele>1178</ele>
        <time>2017-01-04T07:23:14Z</time>
      </trkpt>
      <trkpt lat="45.05221" lon="6.74357">
        <ele>1174</ele>
        <time>2017-01-04T07:23:55Z</time>
      </trkpt>
      <trkpt lat="45.05207" lon="6.74371">
        <ele>1173</ele>
        <time>2017-01-04T07:24:02Z</time>
      </trkpt>
      <trkpt lat="45.05199" lon="6.74389">
        <ele>1173</ele>
        <time>2017-01-04T07:24:08Z</time>
      </trkpt>
      <trkpt lat="45.05178" lon="6.7445">
        <ele>1181</ele>
        <time>2017-01-04T07:24:27Z</time>
      </trkpt>
      <trkpt lat="45.05154" lon="6.745">
        <ele>1180</ele>
        <time>2017-01-04T07:24:44Z</time>
      </trkpt>
      <trkpt lat="45.05128" lon="6.74549">
        <ele>1179</ele>
        <time>2017-01-04T07:25:02Z</time>
      </trkpt>
      <trkpt lat="45.0511" lon="6.74577">
        <ele>1177</ele>
        <time>2017-01-04T07:25:12Z</time>
      </trkpt>
      <trkpt lat="45.05074" lon="6.74615">
        <ele>1173</ele>
        <time>2017-01-04T07:25:30Z</time>
      </trkpt>
      <trkpt lat="45.0506" lon="6.7464">
        <ele>1171</ele>
        <time>2017-01-04T07:25:39Z</time>
      </trkpt>
      <trkpt lat="45.05052" lon="6.7466">
        <ele>1171</ele>
        <time>2017-01-04T07:25:46Z</time>
      </trkpt>
      <trkpt lat="45.05043" lon="6.74693">
        <ele>1169</ele>
        <time>2017-01-04T07:25:56Z</time>
      </trkpt>
      <trkpt lat="45.0501" lon="6.74843">
        <ele>1163</ele>
        <time>2017-01-04T07:26:40Z</time>
      </trkpt>
      <trkpt lat="45.05001" lon="6.74875">
        <ele>1163</ele>
        <time>2017-01-04T07:26:50Z</time>
      </trkpt>
      <trkpt lat="45.0499" lon="6.74911">
        <ele>1166</ele>
        <time>2017-01-04T07:27:01Z</time>
      </trkpt>
      <trkpt lat="45.04881" lon="6.75147">
        <ele>1162</ele>
        <time>2017-01-04T07:28:21Z</time>
      </trkpt>
      <trkpt lat="45.04852" lon="6.75218">
        <ele>1162</ele>
        <time>2017-01-04T07:28:44Z</time>
      </trkpt>
      <trkpt lat="45.04825" lon="6.75301">
        <ele>1163</ele>
        <time>2017-01-04T07:29:10Z</time>
      </trkpt>
      <trkpt lat="45.04808" lon="6.7537">
        <ele>1161</ele>
        <time>2017-01-04T07:29:30Z</time>
      </trkpt>
      <trkpt lat="45.04709" lon="6.75798">
        <ele>1152</ele>
        <time>2017-01-04T07:31:38Z</time>
      </trkpt>
      <trkpt lat="45.04688" lon="6.75895">
        <ele>1155</ele>
        <time>2017-01-04T07:32:07Z</time>
      </trkpt>
      <trkpt lat="45.04668" lon="6.75999">
        <ele>1160</ele>
        <time>2017-01-04T07:32:37Z</time>
      </trkpt>
      <trkpt lat="45.04643" lon="6.76075">
        <ele>1158</ele>
        <time>2017-01-04T07:33:01Z</time>
      </trkpt>
      <trkpt lat="45.04592" lon="6.76265">
        <ele>1147</ele>
        <time>2017-01-04T07:33:58Z</time>
      </trkpt>
      <trkpt lat="45.04532" lon="6.765">
        <ele>1140</ele>
        <time>2017-01-04T07:35:09Z</time>
      </trkpt>
      <trkpt lat="45.04518" lon="6.76564">
        <ele>1136</ele>
        <time>2017-01-04T07:35:28Z</time>
      </trkpt>
      <trkpt lat="45.04512" lon="6.76603">
        <ele>1136</ele>
        <time>2017-01-04T07:35:39Z</time>
      </trkpt>
      <trkpt lat="45.04509" lon="6.76641">
        <ele>1136</ele>
        <time>2017-01-04T07:35:50Z</time>
      </trkpt>
      <trkpt lat="45.04503" lon="6.76758">
        <ele>1132</ele>
        <time>2017-01-04T07:36:23Z</time>
      </trkpt>
      <trkpt lat="45.04486" lon="6.77241">
        <ele>1128</ele>
        <time>2017-01-04T07:38:40Z</time>
      </trkpt>
      <trkpt lat="45.04479" lon="6.77324">
        <ele>1124</ele>
        <time>2017-01-04T07:39:04Z</time>
      </trkpt>
      <trkpt lat="45.04467" lon="6.77399">
        <ele>1127</ele>
        <time>2017-01-04T07:39:25Z</time>
      </trkpt>
      <trkpt lat="45.04415" lon="6.77629">
        <ele>1124</ele>
        <time>2017-01-04T07:40:34Z</time>
      </trkpt>
      <trkpt lat="45.04399" lon="6.77684">
        <ele>1125</ele>
        <time>2017-01-04T07:40:50Z</time>
      </trkpt>
      <trkpt lat="45.04381" lon="6.77738">
        <ele>1125</ele>
        <time>2017-01-04T07:41:07Z</time>
      </trkpt>
      <trkpt lat="45.04299" lon="6.77949">
        <ele>1121</ele>
        <time>2017-01-04T07:42:15Z</time>
      </trkpt>
      <trkpt lat="45.04221" lon="6.78155">
        <ele>1121</ele>
        <time>2017-01-04T07:43:22Z</time>
      </trkpt>
      <trkpt lat="45.04211" lon="6.78191">
        <ele>1120</ele>
        <time>2017-01-04T07:43:32Z</time>
      </trkpt>
      <trkpt lat="45.042" lon="6.78233">
        <ele>1120</ele>
        <time>2017-01-04T07:43:45Z</time>
      </trkpt>
      <trkpt lat="45.04184" lon="6.7832">
        <ele>1118</ele>
        <time>2017-01-04T07:44:11Z</time>
      </trkpt>
      <trkpt lat="45.0418" lon="6.78352">
        <ele>1116</ele>
        <time>2017-01-04T07:44:20Z</time>
      </trkpt>
      <trkpt lat="45.04178" lon="6.78381">
        <ele>1114</ele>
        <time>2017-01-04T07:44:28Z</time>
      </trkpt>
      <trkpt lat="45.04179" lon="6.78461">
        <ele>1115</ele>
        <time>2017-01-04T07:44:51Z</time>
      </trkpt>
      <trkpt lat="45.04182" lon="6.78483">
        <ele>1115</ele>
        <time>2017-01-04T07:44:57Z</time>
      </trkpt>
      <trkpt lat="45.04194" lon="6.78523">
        <ele>1115</ele>
        <time>2017-01-04T07:45:09Z</time>
      </trkpt>
      <trkpt lat="45.04208" lon="6.78565">
        <ele>1114</ele>
        <time>2017-01-04T07:45:22Z</time>
      </trkpt>
      <trkpt lat="45.04222" lon="6.78591">
        <ele>1114</ele>
        <time>2017-01-04T07:45:32Z</time>
      </trkpt>
      <trkpt lat="45.04239" lon="6.78614">
        <ele>1115</ele>
        <time>2017-01-04T07:45:41Z</time>
      </trkpt>
      <trkpt lat="45.04288" lon="6.78661">
        <ele>1118</ele>
        <time>2017-01-04T07:46:05Z</time>
      </trkpt>
      <trkpt lat="45.04325" lon="6.7871">
        <ele>1117</ele>
        <time>2017-01-04T07:46:25Z</time>
      </trkpt>
      <trkpt lat="45.04331" lon="6.78696">
        <ele>1116.96</ele>
        <time>2017-01-05T07:22:17Z</time>
      </trkpt>
      <trkpt lat="45.04326" lon="6.78683">
        <ele>1117.43</ele>
        <time>2017-01-05T07:22:19Z</time>
      </trkpt>
      <trkpt lat="45.04317" lon="6.7867">
        <ele>1117.9</ele>
        <time>2017-01-05T07:22:21Z</time>
      </trkpt>
      <trkpt lat="45.043" lon="6.78645">
        <ele>1119.07</ele>
        <time>2017-01-05T07:22:24Z</time>
      </trkpt>
      <trkpt lat="45.04292" lon="6.78631">
        <ele>1118.65</ele>
        <time>2017-01-05T07:22:26Z</time>
      </trkpt>
      <trkpt lat="45.04284" lon="6.78617">
        <ele>1118.3</ele>
        <time>2017-01-05T07:22:28Z</time>
      </trkpt>
      <trkpt lat="45.04286" lon="6.78598">
        <ele>1118.27</ele>
        <time>2017-01-05T07:22:39Z</time>
      </trkpt>
      <trkpt lat="45.04297" lon="6.78592">
        <ele>1119.13</ele>
        <time>2017-01-05T07:22:42Z</time>
      </trkpt>
      <trkpt lat="45.0431" lon="6.7859">
        <ele>1120.49</ele>
        <time>2017-01-05T07:22:44Z</time>
      </trkpt>
      <trkpt lat="45.0432" lon="6.78589">
        <ele>1121.56</ele>
        <time>2017-01-05T07:22:46Z</time>
      </trkpt>
      <trkpt lat="45.0433" lon="6.78584">
        <ele>1122.62</ele>
        <time>2017-01-05T07:22:48Z</time>
      </trkpt>
      <trkpt lat="45.0435" lon="6.78584">
        <ele>1124.22</ele>
        <time>2017-01-05T07:22:50Z</time>
      </trkpt>
      <trkpt lat="45.04361" lon="6.7858">
        <ele>1125.25</ele>
        <time>2017-01-05T07:22:51Z</time>
      </trkpt>
      <trkpt lat="45.0438" lon="6.78575">
        <ele>1127.01</ele>
        <time>2017-01-05T07:22:53Z</time>
      </trkpt>
      <trkpt lat="45.04399" lon="6.7857">
        <ele>1128.91</ele>
        <time>2017-01-05T07:22:55Z</time>
      </trkpt>
      <trkpt lat="45.04409" lon="6.78565">
        <ele>1130.24</ele>
        <time>2017-01-05T07:22:56Z</time>
      </trkpt>
      <trkpt lat="45.04427" lon="6.7856">
        <ele>1132.31</ele>
        <time>2017-01-05T07:22:58Z</time>
      </trkpt>
      <trkpt lat="45.04437" lon="6.78558">
        <ele>1133.24</ele>
        <time>2017-01-05T07:22:59Z</time>
      </trkpt>
      <trkpt lat="45.04454" lon="6.78552">
        <ele>1134.59</ele>
        <time>2017-01-05T07:23:01Z</time>
      </trkpt>
      <trkpt lat="45.04472" lon="6.78546">
        <ele>1135.7</ele>
        <time>2017-01-05T07:23:03Z</time>
      </trkpt>
      <trkpt lat="45.0449" lon="6.7854">
        <ele>1138.29</ele>
        <time>2017-01-05T07:23:05Z</time>
      </trkpt>
      <trkpt lat="45.04515" lon="6.78532">
        <ele>1142.36</ele>
        <time>2017-01-05T07:23:08Z</time>
      </trkpt>
      <trkpt lat="45.0453" lon="6.78528">
        <ele>1145.35</ele>
        <time>2017-01-05T07:23:10Z</time>
      </trkpt>
      <trkpt lat="45.04544" lon="6.78525">
        <ele>1147.35</ele>
        <time>2017-01-05T07:23:12Z</time>
      </trkpt>
      <trkpt lat="45.04558" lon="6.78524">
        <ele>1149.51</ele>
        <time>2017-01-05T07:23:15Z</time>
      </trkpt>
      <trkpt lat="45.04572" lon="6.78526">
        <ele>1151.36</ele>
        <time>2017-01-05T07:23:17Z</time>
      </trkpt>
      <trkpt lat="45.04583" lon="6.78531">
        <ele>1152.75</ele>
        <time>2017-01-05T07:23:19Z</time>
      </trkpt>
      <trkpt lat="45.04595" lon="6.78537">
        <ele>1153.8</ele>
        <time>2017-01-05T07:23:21Z</time>
      </trkpt>
      <trkpt lat="45.04608" lon="6.78542">
        <ele>1155.03</ele>
        <time>2017-01-05T07:23:23Z</time>
      </trkpt>
      <trkpt lat="45.0462" lon="6.78548">
        <ele>1157.02</ele>
        <time>2017-01-05T07:23:25Z</time>
      </trkpt>
      <trkpt lat="45.04632" lon="6.78554">
        <ele>1159.48</ele>
        <time>2017-01-05T07:23:27Z</time>
      </trkpt>
      <trkpt lat="45.04645" lon="6.78563">
        <ele>1163.07</ele>
        <time>2017-01-05T07:23:29Z</time>
      </trkpt>
      <trkpt lat="45.04658" lon="6.78566">
        <ele>1166.63</ele>
        <time>2017-01-05T07:23:31Z</time>
      </trkpt>
      <trkpt lat="45.04672" lon="6.78567">
        <ele>1169.63</ele>
        <time>2017-01-05T07:23:34Z</time>
      </trkpt>
      <trkpt lat="45.04685" lon="6.78565">
        <ele>1171.69</ele>
        <time>2017-01-05T07:23:36Z</time>
      </trkpt>
      <trkpt lat="45.04696" lon="6.78554">
        <ele>1173.13</ele>
        <time>2017-01-05T07:23:38Z</time>
      </trkpt>
      <trkpt lat="45.04706" lon="6.78543">
        <ele>1173.95</ele>
        <time>2017-01-05T07:23:40Z</time>
      </trkpt>
      <trkpt lat="45.04714" lon="6.78535">
        <ele>1174.84</ele>
        <time>2017-01-05T07:23:42Z</time>
      </trkpt>
      <trkpt lat="45.04731" lon="6.78522">
        <ele>1179.1</ele>
        <time>2017-01-05T07:24:02Z</time>
      </trkpt>
      <trkpt lat="45.0474" lon="6.78513">
        <ele>1181.61</ele>
        <time>2017-01-05T07:24:05Z</time>
      </trkpt>
      <trkpt lat="45.04756" lon="6.78492">
        <ele>1187.34</ele>
        <time>2017-01-05T07:24:10Z</time>
      </trkpt>
      <trkpt lat="45.04764" lon="6.78479">
        <ele>1191.54</ele>
        <time>2017-01-05T07:24:12Z</time>
      </trkpt>
      <trkpt lat="45.04783" lon="6.78485">
        <ele>1194.78</ele>
        <time>2017-01-05T07:24:15Z</time>
      </trkpt>
      <trkpt lat="45.04787" lon="6.78502">
        <ele>1195.55</ele>
        <time>2017-01-05T07:24:18Z</time>
      </trkpt>
      <trkpt lat="45.04785" lon="6.78517">
        <ele>1196.51</ele>
        <time>2017-01-05T07:24:21Z</time>
      </trkpt>
      <trkpt lat="45.04782" lon="6.7853">
        <ele>1197.02</ele>
        <time>2017-01-05T07:24:24Z</time>
      </trkpt>
      <trkpt lat="45.04782" lon="6.78558">
        <ele>1200.3</ele>
        <time>2017-01-05T07:24:28Z</time>
      </trkpt>
      <trkpt lat="45.04783" lon="6.78573">
        <ele>1201.34</ele>
        <time>2017-01-05T07:24:30Z</time>
      </trkpt>
      <trkpt lat="45.04785" lon="6.78588">
        <ele>1202.45</ele>
        <time>2017-01-05T07:24:32Z</time>
      </trkpt>
      <trkpt lat="45.04793" lon="6.78599">
        <ele>1205.63</ele>
        <time>2017-01-05T07:24:34Z</time>
      </trkpt>
      <trkpt lat="45.04797" lon="6.78613">
        <ele>1207.74</ele>
        <time>2017-01-05T07:24:36Z</time>
      </trkpt>
      <trkpt lat="45.04793" lon="6.78642">
        <ele>1205.48</ele>
        <time>2017-01-05T07:24:40Z</time>
      </trkpt>
      <trkpt lat="45.04793" lon="6.78659">
        <ele>1204.95</ele>
        <time>2017-01-05T07:24:42Z</time>
      </trkpt>
      <trkpt lat="45.04797" lon="6.78673">
        <ele>1206.01</ele>
        <time>2017-01-05T07:24:44Z</time>
      </trkpt>
      <trkpt lat="45.04803" lon="6.78685">
        <ele>1208.2</ele>
        <time>2017-01-05T07:24:46Z</time>
      </trkpt>
      <trkpt lat="45.04808" lon="6.78698">
        <ele>1208.78</ele>
        <time>2017-01-05T07:24:48Z</time>
      </trkpt>
      <trkpt lat="45.04812" lon="6.78712">
        <ele>1209.7</ele>
        <time>2017-01-05T07:24:50Z</time>
      </trkpt>
      <trkpt lat="45.04816" lon="6.78725">
        <ele>1210.94</ele>
        <time>2017-01-05T07:24:52Z</time>
      </trkpt>
      <trkpt lat="45.04833" lon="6.78743">
        <ele>1219.34</ele>
        <time>2017-01-05T07:24:57Z</time>
      </trkpt>
      <trkpt lat="45.04842" lon="6.78752">
        <ele>1222.86</ele>
        <time>2017-01-05T07:25:00Z</time>
      </trkpt>
      <trkpt lat="45.04846" lon="6.78778">
        <ele>1224.34</ele>
        <time>2017-01-05T07:25:04Z</time>
      </trkpt>
      <trkpt lat="45.0485" lon="6.78806">
        <ele>1227.54</ele>
        <time>2017-01-05T07:25:08Z</time>
      </trkpt>
      <trkpt lat="45.04851" lon="6.7882">
        <ele>1228.12</ele>
        <time>2017-01-05T07:25:11Z</time>
      </trkpt>
      <trkpt lat="45.04855" lon="6.78834">
        <ele>1230.19</ele>
        <time>2017-01-05T07:25:13Z</time>
      </trkpt>
      <trkpt lat="45.04861" lon="6.78849">
        <ele>1232.98</ele>
        <time>2017-01-05T07:25:16Z</time>
      </trkpt>
      <trkpt lat="45.0487" lon="6.78863">
        <ele>1237.24</ele>
        <time>2017-01-05T07:25:19Z</time>
      </trkpt>
      <trkpt lat="45.04875" lon="6.7888">
        <ele>1238.98</ele>
        <time>2017-01-05T07:25:22Z</time>
      </trkpt>
      <trkpt lat="45.04877" lon="6.78894">
        <ele>1239.34</ele>
        <time>2017-01-05T07:25:24Z</time>
      </trkpt>
      <trkpt lat="45.04875" lon="6.78909">
        <ele>1236.4</ele>
        <time>2017-01-05T07:25:26Z</time>
      </trkpt>
      <trkpt lat="45.04875" lon="6.78924">
        <ele>1235.48</ele>
        <time>2017-01-05T07:25:28Z</time>
      </trkpt>
      <trkpt lat="45.04869" lon="6.78957">
        <ele>1232.81</ele>
        <time>2017-01-05T07:25:33Z</time>
      </trkpt>
      <trkpt lat="45.04867" lon="6.78973">
        <ele>1232.13</ele>
        <time>2017-01-05T07:25:36Z</time>
      </trkpt>
      <trkpt lat="45.04877" lon="6.78978">
        <ele>1233.38</ele>
        <time>2017-01-05T07:25:39Z</time>
      </trkpt>
      <trkpt lat="45.0488" lon="6.78951">
        <ele>1236.37</ele>
        <time>2017-01-05T07:25:44Z</time>
      </trkpt>
      <trkpt lat="45.04886" lon="6.78934">
        <ele>1240.25</ele>
        <time>2017-01-05T07:25:47Z</time>
      </trkpt>
      <trkpt lat="45.04896" lon="6.78909">
        <ele>1248.15</ele>
        <time>2017-01-05T07:25:51Z</time>
      </trkpt>
      <trkpt lat="45.04898" lon="6.78896">
        <ele>1250.8</ele>
        <time>2017-01-05T07:25:53Z</time>
      </trkpt>
      <trkpt lat="45.04901" lon="6.78866">
        <ele>1253.69</ele>
        <time>2017-01-05T07:25:57Z</time>
      </trkpt>
      <trkpt lat="45.049" lon="6.78847">
        <ele>1253.04</ele>
        <time>2017-01-05T07:25:59Z</time>
      </trkpt>
      <trkpt lat="45.04901" lon="6.78831">
        <ele>1253.16</ele>
        <time>2017-01-05T07:26:01Z</time>
      </trkpt>
      <trkpt lat="45.04905" lon="6.78811">
        <ele>1254.86</ele>
        <time>2017-01-05T07:26:03Z</time>
      </trkpt>
      <trkpt lat="45.04905" lon="6.78796">
        <ele>1254.98</ele>
        <time>2017-01-05T07:26:06Z</time>
      </trkpt>
      <trkpt lat="45.0491" lon="6.78778">
        <ele>1258.87</ele>
        <time>2017-01-05T07:26:09Z</time>
      </trkpt>
      <trkpt lat="45.04914" lon="6.78763">
        <ele>1261.91</ele>
        <time>2017-01-05T07:26:11Z</time>
      </trkpt>
      <trkpt lat="45.04917" lon="6.78749">
        <ele>1264.15</ele>
        <time>2017-01-05T07:26:13Z</time>
      </trkpt>
      <trkpt lat="45.04924" lon="6.78735">
        <ele>1268.3</ele>
        <time>2017-01-05T07:26:16Z</time>
      </trkpt>
      <trkpt lat="45.04913" lon="6.78708">
        <ele>1263.81</ele>
        <time>2017-01-05T07:26:23Z</time>
      </trkpt>
      <trkpt lat="45.04911" lon="6.78694">
        <ele>1263.15</ele>
        <time>2017-01-05T07:26:25Z</time>
      </trkpt>
      <trkpt lat="45.04913" lon="6.7868">
        <ele>1264.62</ele>
        <time>2017-01-05T07:26:27Z</time>
      </trkpt>
      <trkpt lat="45.04913" lon="6.78662">
        <ele>1264.91</ele>
        <time>2017-01-05T07:26:29Z</time>
      </trkpt>
      <trkpt lat="45.04916" lon="6.78648">
        <ele>1265.85</ele>
        <time>2017-01-05T07:26:31Z</time>
      </trkpt>
      <trkpt lat="45.04921" lon="6.78633">
        <ele>1267.23</ele>
        <time>2017-01-05T07:26:33Z</time>
      </trkpt>
      <trkpt lat="45.04928" lon="6.78622">
        <ele>1269.39</ele>
        <time>2017-01-05T07:26:35Z</time>
      </trkpt>
      <trkpt lat="45.04935" lon="6.78608">
        <ele>1270.84</ele>
        <time>2017-01-05T07:26:37Z</time>
      </trkpt>
      <trkpt lat="45.04943" lon="6.78583">
        <ele>1272.51</ele>
        <time>2017-01-05T07:26:40Z</time>
      </trkpt>
      <trkpt lat="45.04956" lon="6.78565">
        <ele>1275.75</ele>
        <time>2017-01-05T07:26:46Z</time>
      </trkpt>
      <trkpt lat="45.04973" lon="6.78554">
        <ele>1283.33</ele>
        <time>2017-01-05T07:26:50Z</time>
      </trkpt>
      <trkpt lat="45.04974" lon="6.78536">
        <ele>1281.79</ele>
        <time>2017-01-05T07:26:53Z</time>
      </trkpt>
      <trkpt lat="45.04972" lon="6.78509">
        <ele>1281.62</ele>
        <time>2017-01-05T07:26:57Z</time>
      </trkpt>
      <trkpt lat="45.04972" lon="6.78482">
        <ele>1285.53</ele>
        <time>2017-01-05T07:27:01Z</time>
      </trkpt>
      <trkpt lat="45.04967" lon="6.78465">
        <ele>1284.31</ele>
        <time>2017-01-05T07:27:03Z</time>
      </trkpt>
      <trkpt lat="45.04958" lon="6.78452">
        <ele>1279.63</ele>
        <time>2017-01-05T07:27:05Z</time>
      </trkpt>
      <trkpt lat="45.04956" lon="6.78425">
        <ele>1280.47</ele>
        <time>2017-01-05T07:27:09Z</time>
      </trkpt>
      <trkpt lat="45.04961" lon="6.78399">
        <ele>1284.72</ele>
        <time>2017-01-05T07:27:12Z</time>
      </trkpt>
      <trkpt lat="45.04973" lon="6.78402">
        <ele>1291.65</ele>
        <time>2017-01-05T07:27:18Z</time>
      </trkpt>
      <trkpt lat="45.04973" lon="6.78418">
        <ele>1292.1</ele>
        <time>2017-01-05T07:27:21Z</time>
      </trkpt>
      <trkpt lat="45.0498" lon="6.78443">
        <ele>1292.81</ele>
        <time>2017-01-05T07:27:26Z</time>
      </trkpt>
      <trkpt lat="45.04997" lon="6.78453">
        <ele>1301.61</ele>
        <time>2017-01-05T07:27:31Z</time>
      </trkpt>
      <trkpt lat="45.05004" lon="6.78464">
        <ele>1304.34</ele>
        <time>2017-01-05T07:27:33Z</time>
      </trkpt>
      <trkpt lat="45.05004" lon="6.78484">
        <ele>1302.42</ele>
        <time>2017-01-05T07:27:36Z</time>
      </trkpt>
      <trkpt lat="45.05" lon="6.78498">
        <ele>1299.29</ele>
        <time>2017-01-05T07:27:38Z</time>
      </trkpt>
      <trkpt lat="45.05003" lon="6.78525">
        <ele>1298.6</ele>
        <time>2017-01-05T07:27:42Z</time>
      </trkpt>
      <trkpt lat="45.05009" lon="6.78541">
        <ele>1300.72</ele>
        <time>2017-01-05T07:27:45Z</time>
      </trkpt>
      <trkpt lat="45.05023" lon="6.78563">
        <ele>1306.54</ele>
        <time>2017-01-05T07:27:49Z</time>
      </trkpt>
      <trkpt lat="45.05031" lon="6.78574">
        <ele>1310.31</ele>
        <time>2017-01-05T07:27:51Z</time>
      </trkpt>
      <trkpt lat="45.05024" lon="6.78587">
        <ele>1307.57</ele>
        <time>2017-01-05T07:27:54Z</time>
      </trkpt>
      <trkpt lat="45.05007" lon="6.786">
        <ele>1301.08</ele>
        <time>2017-01-05T07:27:58Z</time>
      </trkpt>
      <trkpt lat="45.04994" lon="6.78618">
        <ele>1297.11</ele>
        <time>2017-01-05T07:28:02Z</time>
      </trkpt>
      <trkpt lat="45.04989" lon="6.78631">
        <ele>1296.16</ele>
        <time>2017-01-05T07:28:04Z</time>
      </trkpt>
      <trkpt lat="45.04983" lon="6.78646">
        <ele>1295.68</ele>
        <time>2017-01-05T07:28:07Z</time>
      </trkpt>
      <trkpt lat="45.04987" lon="6.78679">
        <ele>1301.6</ele>
        <time>2017-01-05T07:28:12Z</time>
      </trkpt>
      <trkpt lat="45.04991" lon="6.78697">
        <ele>1304.11</ele>
        <time>2017-01-05T07:28:15Z</time>
      </trkpt>
      <trkpt lat="45.05005" lon="6.78722">
        <ele>1310.07</ele>
        <time>2017-01-05T07:28:21Z</time>
      </trkpt>
      <trkpt lat="45.0501" lon="6.78736">
        <ele>1312.35</ele>
        <time>2017-01-05T07:28:24Z</time>
      </trkpt>
      <trkpt lat="45.05007" lon="6.78763">
        <ele>1308.38</ele>
        <time>2017-01-05T07:28:29Z</time>
      </trkpt>
      <trkpt lat="45.05017" lon="6.78765">
        <ele>1314.07</ele>
        <time>2017-01-05T07:28:32Z</time>
      </trkpt>
      <trkpt lat="45.0502" lon="6.78752">
        <ele>1317.14</ele>
        <time>2017-01-05T07:28:35Z</time>
      </trkpt>
      <trkpt lat="45.05024" lon="6.78736">
        <ele>1320.87</ele>
        <time>2017-01-05T07:28:38Z</time>
      </trkpt>
      <trkpt lat="45.05021" lon="6.78704">
        <ele>1319.72</ele>
        <time>2017-01-05T07:28:44Z</time>
      </trkpt>
      <trkpt lat="45.05021" lon="6.78687">
        <ele>1319.18</ele>
        <time>2017-01-05T07:28:47Z</time>
      </trkpt>
      <trkpt lat="45.05021" lon="6.78673">
        <ele>1318.27</ele>
        <time>2017-01-05T07:28:49Z</time>
      </trkpt>
      <trkpt lat="45.05035" lon="6.78649">
        <ele>1321.21</ele>
        <time>2017-01-05T07:28:53Z</time>
      </trkpt>
      <trkpt lat="45.05042" lon="6.78637">
        <ele>1322.56</ele>
        <time>2017-01-05T07:28:55Z</time>
      </trkpt>
      <trkpt lat="45.0505" lon="6.78627">
        <ele>1324.96</ele>
        <time>2017-01-05T07:28:57Z</time>
      </trkpt>
      <trkpt lat="45.05063" lon="6.78621">
        <ele>1330.86</ele>
        <time>2017-01-05T07:28:59Z</time>
      </trkpt>
      <trkpt lat="45.05071" lon="6.78613">
        <ele>1334.46</ele>
        <time>2017-01-05T07:29:01Z</time>
      </trkpt>
      <trkpt lat="45.05076" lon="6.78602">
        <ele>1336.59</ele>
        <time>2017-01-05T07:29:03Z</time>
      </trkpt>
      <trkpt lat="45.05082" lon="6.78589">
        <ele>1339.51</ele>
        <time>2017-01-05T07:29:05Z</time>
      </trkpt>
      <trkpt lat="45.05087" lon="6.78575">
        <ele>1341.49</ele>
        <time>2017-01-05T07:29:07Z</time>
      </trkpt>
      <trkpt lat="45.05086" lon="6.78561">
        <ele>1339.83</ele>
        <time>2017-01-05T07:29:09Z</time>
      </trkpt>
      <trkpt lat="45.05079" lon="6.78548">
        <ele>1336.83</ele>
        <time>2017-01-05T07:29:11Z</time>
      </trkpt>
      <trkpt lat="45.05074" lon="6.78534">
        <ele>1336.3</ele>
        <time>2017-01-05T07:29:13Z</time>
      </trkpt>
      <trkpt lat="45.05073" lon="6.78517">
        <ele>1337.19</ele>
        <time>2017-01-05T07:29:15Z</time>
      </trkpt>
      <trkpt lat="45.05087" lon="6.78502">
        <ele>1346.14</ele>
        <time>2017-01-05T07:29:19Z</time>
      </trkpt>
      <trkpt lat="45.05089" lon="6.78485">
        <ele>1347.42</ele>
        <time>2017-01-05T07:29:21Z</time>
      </trkpt>
      <trkpt lat="45.05081" lon="6.78462">
        <ele>1343.89</ele>
        <time>2017-01-05T07:29:24Z</time>
      </trkpt>
      <trkpt lat="45.05083" lon="6.78444">
        <ele>1346.67</ele>
        <time>2017-01-05T07:29:27Z</time>
      </trkpt>
      <trkpt lat="45.05082" lon="6.78429">
        <ele>1347.3</ele>
        <time>2017-01-05T07:29:29Z</time>
      </trkpt>
      <trkpt lat="45.05079" lon="6.78413">
        <ele>1345.56</ele>
        <time>2017-01-05T07:29:31Z</time>
      </trkpt>
      <trkpt lat="45.05074" lon="6.78395">
        <ele>1341.46</ele>
        <time>2017-01-05T07:29:33Z</time>
      </trkpt>
      <trkpt lat="45.05075" lon="6.7838">
        <ele>1342</ele>
        <time>2017-01-05T07:29:35Z</time>
      </trkpt>
      <trkpt lat="45.05077" lon="6.78367">
        <ele>1343.7</ele>
        <time>2017-01-05T07:29:37Z</time>
      </trkpt>
      <trkpt lat="45.05079" lon="6.78352">
        <ele>1345.02</ele>
        <time>2017-01-05T07:29:39Z</time>
      </trkpt>
      <trkpt lat="45.05093" lon="6.78332">
        <ele>1351.16</ele>
        <time>2017-01-05T07:29:43Z</time>
      </trkpt>
      <trkpt lat="45.05108" lon="6.78318">
        <ele>1357.2</ele>
        <time>2017-01-05T07:29:47Z</time>
      </trkpt>
      <trkpt lat="45.05119" lon="6.78314">
        <ele>1361.24</ele>
        <time>2017-01-05T07:29:49Z</time>
      </trkpt>
      <trkpt lat="45.05125" lon="6.78302">
        <ele>1363.89</ele>
        <time>2017-01-05T07:29:52Z</time>
      </trkpt>
      <trkpt lat="45.05119" lon="6.78274">
        <ele>1363.64</ele>
        <time>2017-01-05T07:29:57Z</time>
      </trkpt>
      <trkpt lat="45.05113" lon="6.78262">
        <ele>1362.45</ele>
        <time>2017-01-05T07:29:59Z</time>
      </trkpt>
      <trkpt lat="45.05109" lon="6.78245">
        <ele>1363.14</ele>
        <time>2017-01-05T07:30:02Z</time>
      </trkpt>
      <trkpt lat="45.05103" lon="6.78232">
        <ele>1360.85</ele>
        <time>2017-01-05T07:30:05Z</time>
      </trkpt>
      <trkpt lat="45.05113" lon="6.78224">
        <ele>1365.64</ele>
        <time>2017-01-05T07:30:12Z</time>
      </trkpt>
      <trkpt lat="45.05119" lon="6.78252">
        <ele>1366.85</ele>
        <time>2017-01-05T07:30:16Z</time>
      </trkpt>
      <trkpt lat="45.05129" lon="6.78259">
        <ele>1369.98</ele>
        <time>2017-01-05T07:30:18Z</time>
      </trkpt>
      <trkpt lat="45.05137" lon="6.7827">
        <ele>1372.45</ele>
        <time>2017-01-05T07:30:20Z</time>
      </trkpt>
      <trkpt lat="45.05147" lon="6.78273">
        <ele>1376.49</ele>
        <time>2017-01-05T07:30:22Z</time>
      </trkpt>
      <trkpt lat="45.05159" lon="6.78278">
        <ele>1380.84</ele>
        <time>2017-01-05T07:30:24Z</time>
      </trkpt>
      <trkpt lat="45.05171" lon="6.7828">
        <ele>1385.98</ele>
        <time>2017-01-05T07:30:26Z</time>
      </trkpt>
      <trkpt lat="45.05174" lon="6.78298">
        <ele>1387.86</ele>
        <time>2017-01-05T07:30:29Z</time>
      </trkpt>
      <trkpt lat="45.05167" lon="6.78317">
        <ele>1384.79</ele>
        <time>2017-01-05T07:30:32Z</time>
      </trkpt>
      <trkpt lat="45.05167" lon="6.7835">
        <ele>1385.08</ele>
        <time>2017-01-05T07:30:37Z</time>
      </trkpt>
      <trkpt lat="45.05159" lon="6.78373">
        <ele>1383.66</ele>
        <time>2017-01-05T07:30:41Z</time>
      </trkpt>
      <trkpt lat="45.05155" lon="6.78392">
        <ele>1383.15</ele>
        <time>2017-01-05T07:30:44Z</time>
      </trkpt>
      <trkpt lat="45.05159" lon="6.78407">
        <ele>1384.89</ele>
        <time>2017-01-05T07:30:47Z</time>
      </trkpt>
      <trkpt lat="45.05163" lon="6.78425">
        <ele>1385.89</ele>
        <time>2017-01-05T07:30:50Z</time>
      </trkpt>
      <trkpt lat="45.05163" lon="6.78439">
        <ele>1384.48</ele>
        <time>2017-01-05T07:30:52Z</time>
      </trkpt>
      <trkpt lat="45.05171" lon="6.78453">
        <ele>1387.79</ele>
        <time>2017-01-05T07:30:54Z</time>
      </trkpt>
      <trkpt lat="45.05177" lon="6.78468">
        <ele>1390.12</ele>
        <time>2017-01-05T07:30:57Z</time>
      </trkpt>
      <trkpt lat="45.05181" lon="6.78482">
        <ele>1390.81</ele>
        <time>2017-01-05T07:30:59Z</time>
      </trkpt>
      <trkpt lat="45.05181" lon="6.78503">
        <ele>1390.06</ele>
        <time>2017-01-05T07:31:01Z</time>
      </trkpt>
      <trkpt lat="45.05184" lon="6.78517">
        <ele>1390.36</ele>
        <time>2017-01-05T07:31:03Z</time>
      </trkpt>
      <trkpt lat="45.05192" lon="6.78531">
        <ele>1393.08</ele>
        <time>2017-01-05T07:31:05Z</time>
      </trkpt>
      <trkpt lat="45.05199" lon="6.78544">
        <ele>1395.31</ele>
        <time>2017-01-05T07:31:07Z</time>
      </trkpt>
      <trkpt lat="45.05215" lon="6.78563">
        <ele>1401.35</ele>
        <time>2017-01-05T07:31:12Z</time>
      </trkpt>
      <trkpt lat="45.05215" lon="6.78583">
        <ele>1400.04</ele>
        <time>2017-01-05T07:31:16Z</time>
      </trkpt>
      <trkpt lat="45.05218" lon="6.78598">
        <ele>1401.03</ele>
        <time>2017-01-05T07:31:19Z</time>
      </trkpt>
      <trkpt lat="45.05224" lon="6.78611">
        <ele>1402.46</ele>
        <time>2017-01-05T07:31:21Z</time>
      </trkpt>
      <trkpt lat="45.05228" lon="6.78628">
        <ele>1403.38</ele>
        <time>2017-01-05T07:31:23Z</time>
      </trkpt>
      <trkpt lat="45.05229" lon="6.78643">
        <ele>1403.52</ele>
        <time>2017-01-05T07:31:24Z</time>
      </trkpt>
      <trkpt lat="45.05234" lon="6.78658">
        <ele>1405.68</ele>
        <time>2017-01-05T07:31:26Z</time>
      </trkpt>
      <trkpt lat="45.05251" lon="6.78674">
        <ele>1410.62</ele>
        <time>2017-01-05T07:31:30Z</time>
      </trkpt>
      <trkpt lat="45.05257" lon="6.78694">
        <ele>1412.83</ele>
        <time>2017-01-05T07:31:33Z</time>
      </trkpt>
      <trkpt lat="45.05261" lon="6.78712">
        <ele>1414.92</ele>
        <time>2017-01-05T07:31:36Z</time>
      </trkpt>
      <trkpt lat="45.05264" lon="6.78729">
        <ele>1416.88</ele>
        <time>2017-01-05T07:31:39Z</time>
      </trkpt>
      <trkpt lat="45.05263" lon="6.78761">
        <ele>1418.16</ele>
        <time>2017-01-05T07:31:43Z</time>
      </trkpt>
      <trkpt lat="45.05263" lon="6.7878">
        <ele>1419.66</ele>
        <time>2017-01-05T07:31:45Z</time>
      </trkpt>
      <trkpt lat="45.05265" lon="6.78795">
        <ele>1421.61</ele>
        <time>2017-01-05T07:31:47Z</time>
      </trkpt>
      <trkpt lat="45.05265" lon="6.78815">
        <ele>1422.01</ele>
        <time>2017-01-05T07:31:50Z</time>
      </trkpt>
      <trkpt lat="45.05273" lon="6.78827">
        <ele>1425.46</ele>
        <time>2017-01-05T07:31:53Z</time>
      </trkpt>
      <trkpt lat="45.05277" lon="6.78813">
        <ele>1428.53</ele>
        <time>2017-01-05T07:31:56Z</time>
      </trkpt>
      <trkpt lat="45.05278" lon="6.78796">
        <ele>1427.95</ele>
        <time>2017-01-05T07:31:59Z</time>
      </trkpt>
      <trkpt lat="45.05283" lon="6.78783">
        <ele>1428.66</ele>
        <time>2017-01-05T07:32:01Z</time>
      </trkpt>
      <trkpt lat="45.05288" lon="6.78769">
        <ele>1428.89</ele>
        <time>2017-01-05T07:32:03Z</time>
      </trkpt>
      <trkpt lat="45.05291" lon="6.78754">
        <ele>1428.68</ele>
        <time>2017-01-05T07:32:05Z</time>
      </trkpt>
      <trkpt lat="45.05295" lon="6.78736">
        <ele>1429.94</ele>
        <time>2017-01-05T07:32:07Z</time>
      </trkpt>
      <trkpt lat="45.05299" lon="6.78714">
        <ele>1432.53</ele>
        <time>2017-01-05T07:32:09Z</time>
      </trkpt>
      <trkpt lat="45.05303" lon="6.78693">
        <ele>1436.64</ele>
        <time>2017-01-05T07:32:11Z</time>
      </trkpt>
      <trkpt lat="45.05307" lon="6.78675">
        <ele>1440.15</ele>
        <time>2017-01-05T07:32:14Z</time>
      </trkpt>
      <trkpt lat="45.05312" lon="6.7866">
        <ele>1441.99</ele>
        <time>2017-01-05T07:32:16Z</time>
      </trkpt>
      <trkpt lat="45.05313" lon="6.78641">
        <ele>1440.82</ele>
        <time>2017-01-05T07:32:18Z</time>
      </trkpt>
      <trkpt lat="45.0532" lon="6.78617">
        <ele>1441.49</ele>
        <time>2017-01-05T07:32:22Z</time>
      </trkpt>
      <trkpt lat="45.05324" lon="6.78601">
        <ele>1443.05</ele>
        <time>2017-01-05T07:32:24Z</time>
      </trkpt>
      <trkpt lat="45.05324" lon="6.78585">
        <ele>1444.41</ele>
        <time>2017-01-05T07:32:26Z</time>
      </trkpt>
      <trkpt lat="45.05325" lon="6.7857">
        <ele>1444.95</ele>
        <time>2017-01-05T07:32:28Z</time>
      </trkpt>
      <trkpt lat="45.05325" lon="6.78542">
        <ele>1445.24</ele>
        <time>2017-01-05T07:32:32Z</time>
      </trkpt>
      <trkpt lat="45.05327" lon="6.78522">
        <ele>1447.29</ele>
        <time>2017-01-05T07:32:35Z</time>
      </trkpt>
      <trkpt lat="45.0533" lon="6.78507">
        <ele>1449.27</ele>
        <time>2017-01-05T07:32:37Z</time>
      </trkpt>
      <trkpt lat="45.05332" lon="6.78493">
        <ele>1450.87</ele>
        <time>2017-01-05T07:32:39Z</time>
      </trkpt>
      <trkpt lat="45.05335" lon="6.78477">
        <ele>1453.38</ele>
        <time>2017-01-05T07:32:42Z</time>
      </trkpt>
      <trkpt lat="45.05335" lon="6.78462">
        <ele>1453.99</ele>
        <time>2017-01-05T07:32:44Z</time>
      </trkpt>
      <trkpt lat="45.05335" lon="6.78429">
        <ele>1454.64</ele>
        <time>2017-01-05T07:32:49Z</time>
      </trkpt>
      <trkpt lat="45.05333" lon="6.78414">
        <ele>1453.8</ele>
        <time>2017-01-05T07:32:51Z</time>
      </trkpt>
      <trkpt lat="45.05341" lon="6.784">
        <ele>1456.43</ele>
        <time>2017-01-05T07:32:53Z</time>
      </trkpt>
      <trkpt lat="45.05344" lon="6.78386">
        <ele>1457.14</ele>
        <time>2017-01-05T07:32:55Z</time>
      </trkpt>
      <trkpt lat="45.05349" lon="6.78359">
        <ele>1457.25</ele>
        <time>2017-01-05T07:32:58Z</time>
      </trkpt>
      <trkpt lat="45.05353" lon="6.78342">
        <ele>1456.93</ele>
        <time>2017-01-05T07:33:00Z</time>
      </trkpt>
      <trkpt lat="45.05359" lon="6.78328">
        <ele>1457.86</ele>
        <time>2017-01-05T07:33:02Z</time>
      </trkpt>
      <trkpt lat="45.05365" lon="6.78315">
        <ele>1459.42</ele>
        <time>2017-01-05T07:33:04Z</time>
      </trkpt>
      <trkpt lat="45.05372" lon="6.78285">
        <ele>1459.99</ele>
        <time>2017-01-05T07:33:09Z</time>
      </trkpt>
      <trkpt lat="45.05376" lon="6.78272">
        <ele>1461.06</ele>
        <time>2017-01-05T07:33:11Z</time>
      </trkpt>
      <trkpt lat="45.05382" lon="6.78258">
        <ele>1462.55</ele>
        <time>2017-01-05T07:33:13Z</time>
      </trkpt>
      <trkpt lat="45.05391" lon="6.78246">
        <ele>1465.66</ele>
        <time>2017-01-05T07:33:16Z</time>
      </trkpt>
      <trkpt lat="45.05396" lon="6.78232">
        <ele>1466.15</ele>
        <time>2017-01-05T07:33:19Z</time>
      </trkpt>
      <trkpt lat="45.05406" lon="6.78224">
        <ele>1469.07</ele>
        <time>2017-01-05T07:33:23Z</time>
      </trkpt>
      <trkpt lat="45.05405" lon="6.78239">
        <ele>1470.88</ele>
        <time>2017-01-05T07:33:27Z</time>
      </trkpt>
      <trkpt lat="45.05402" lon="6.78253">
        <ele>1471.45</ele>
        <time>2017-01-05T07:33:29Z</time>
      </trkpt>
      <trkpt lat="45.054" lon="6.7827">
        <ele>1472.24</ele>
        <time>2017-01-05T07:33:31Z</time>
      </trkpt>
      <trkpt lat="45.05404" lon="6.78296">
        <ele>1476.41</ele>
        <time>2017-01-05T07:33:35Z</time>
      </trkpt>
      <trkpt lat="45.05407" lon="6.78312">
        <ele>1478.35</ele>
        <time>2017-01-05T07:33:37Z</time>
      </trkpt>
      <trkpt lat="45.05411" lon="6.78325">
        <ele>1480.15</ele>
        <time>2017-01-05T07:33:39Z</time>
      </trkpt>
      <trkpt lat="45.05414" lon="6.7834">
        <ele>1481.32</ele>
        <time>2017-01-05T07:33:41Z</time>
      </trkpt>
      <trkpt lat="45.05418" lon="6.78353">
        <ele>1483.39</ele>
        <time>2017-01-05T07:33:43Z</time>
      </trkpt>
      <trkpt lat="45.05422" lon="6.78372">
        <ele>1486.36</ele>
        <time>2017-01-05T07:33:46Z</time>
      </trkpt>
      <trkpt lat="45.05424" lon="6.78387">
        <ele>1488.26</ele>
        <time>2017-01-05T07:33:49Z</time>
      </trkpt>
      <trkpt lat="45.05423" lon="6.78402">
        <ele>1488.19</ele>
        <time>2017-01-05T07:33:51Z</time>
      </trkpt>
      <trkpt lat="45.05425" lon="6.78422">
        <ele>1489.48</ele>
        <time>2017-01-05T07:33:53Z</time>
      </trkpt>
      <trkpt lat="45.05426" lon="6.78437">
        <ele>1490.47</ele>
        <time>2017-01-05T07:33:55Z</time>
      </trkpt>
      <trkpt lat="45.05429" lon="6.78464">
        <ele>1494.42</ele>
        <time>2017-01-05T07:33:59Z</time>
      </trkpt>
      <trkpt lat="45.05428" lon="6.78479">
        <ele>1495.17</ele>
        <time>2017-01-05T07:34:01Z</time>
      </trkpt>
      <trkpt lat="45.05432" lon="6.78496">
        <ele>1499.18</ele>
        <time>2017-01-05T07:34:03Z</time>
      </trkpt>
      <trkpt lat="45.05429" lon="6.78513">
        <ele>1499.54</ele>
        <time>2017-01-05T07:34:05Z</time>
      </trkpt>
      <trkpt lat="45.05427" lon="6.78533">
        <ele>1500.16</ele>
        <time>2017-01-05T07:34:07Z</time>
      </trkpt>
      <trkpt lat="45.05428" lon="6.78551">
        <ele>1501.44</ele>
        <time>2017-01-05T07:34:10Z</time>
      </trkpt>
      <trkpt lat="45.0543" lon="6.78567">
        <ele>1503.5</ele>
        <time>2017-01-05T07:34:12Z</time>
      </trkpt>
      <trkpt lat="45.05431" lon="6.78586">
        <ele>1504.86</ele>
        <time>2017-01-05T07:34:15Z</time>
      </trkpt>
      <trkpt lat="45.05431" lon="6.78617">
        <ele>1504.91</ele>
        <time>2017-01-05T07:34:19Z</time>
      </trkpt>
      <trkpt lat="45.05434" lon="6.78636">
        <ele>1504.86</ele>
        <time>2017-01-05T07:34:21Z</time>
      </trkpt>
      <trkpt lat="45.05433" lon="6.78651">
        <ele>1503.13</ele>
        <time>2017-01-05T07:34:23Z</time>
      </trkpt>
      <trkpt lat="45.05438" lon="6.78669">
        <ele>1504.11</ele>
        <time>2017-01-05T07:34:25Z</time>
      </trkpt>
      <trkpt lat="45.05439" lon="6.78683">
        <ele>1504.6</ele>
        <time>2017-01-05T07:34:27Z</time>
      </trkpt>
      <trkpt lat="45.05438" lon="6.787">
        <ele>1504.22</ele>
        <time>2017-01-05T07:34:30Z</time>
      </trkpt>
      <trkpt lat="45.05444" lon="6.78733">
        <ele>1510.97</ele>
        <time>2017-01-05T07:34:34Z</time>
      </trkpt>
      <trkpt lat="45.05449" lon="6.7875">
        <ele>1513.81</ele>
        <time>2017-01-05T07:34:37Z</time>
      </trkpt>
      <trkpt lat="45.05453" lon="6.78768">
        <ele>1514.64</ele>
        <time>2017-01-05T07:34:40Z</time>
      </trkpt>
      <trkpt lat="45.05456" lon="6.78795">
        <ele>1513.39</ele>
        <time>2017-01-05T07:34:45Z</time>
      </trkpt>
      <trkpt lat="45.05459" lon="6.78809">
        <ele>1511.83</ele>
        <time>2017-01-05T07:34:50Z</time>
      </trkpt>
      <trkpt lat="45.05469" lon="6.78803">
        <ele>1516.57</ele>
        <time>2017-01-05T07:34:54Z</time>
      </trkpt>
      <trkpt lat="45.0547" lon="6.78774">
        <ele>1523.1</ele>
        <time>2017-01-05T07:34:58Z</time>
      </trkpt>
      <trkpt lat="45.05471" lon="6.78758">
        <ele>1525.34</ele>
        <time>2017-01-05T07:35:01Z</time>
      </trkpt>
      <trkpt lat="45.05474" lon="6.78742">
        <ele>1529.96</ele>
        <time>2017-01-05T07:35:04Z</time>
      </trkpt>
      <trkpt lat="45.05476" lon="6.78722">
        <ele>1534.63</ele>
        <time>2017-01-05T07:35:08Z</time>
      </trkpt>
      <trkpt lat="45.0548" lon="6.78703">
        <ele>1534.59</ele>
        <time>2017-01-05T07:35:11Z</time>
      </trkpt>
      <trkpt lat="45.0548" lon="6.78687">
        <ele>1532.97</ele>
        <time>2017-01-05T07:35:13Z</time>
      </trkpt>
      <trkpt lat="45.05485" lon="6.78661">
        <ele>1535.36</ele>
        <time>2017-01-05T07:35:17Z</time>
      </trkpt>
      <trkpt lat="45.05485" lon="6.78642">
        <ele>1536.06</ele>
        <time>2017-01-05T07:35:20Z</time>
      </trkpt>
      <trkpt lat="45.05486" lon="6.78627">
        <ele>1536.67</ele>
        <time>2017-01-05T07:35:22Z</time>
      </trkpt>
      <trkpt lat="45.05491" lon="6.78596">
        <ele>1539.75</ele>
        <time>2017-01-05T07:35:27Z</time>
      </trkpt>
      <trkpt lat="45.0549" lon="6.7858">
        <ele>1539.19</ele>
        <time>2017-01-05T07:35:29Z</time>
      </trkpt>
      <trkpt lat="45.05495" lon="6.78564">
        <ele>1539.36</ele>
        <time>2017-01-05T07:35:32Z</time>
      </trkpt>
      <trkpt lat="45.05495" lon="6.78549">
        <ele>1538.46</ele>
        <time>2017-01-05T07:35:34Z</time>
      </trkpt>
      <trkpt lat="45.05497" lon="6.78533">
        <ele>1538.07</ele>
        <time>2017-01-05T07:35:36Z</time>
      </trkpt>
      <trkpt lat="45.05501" lon="6.78515">
        <ele>1539.1</ele>
        <time>2017-01-05T07:35:39Z</time>
      </trkpt>
      <trkpt lat="45.05507" lon="6.78499">
        <ele>1542.51</ele>
        <time>2017-01-05T07:35:42Z</time>
      </trkpt>
      <trkpt lat="45.05515" lon="6.78484">
        <ele>1546</ele>
        <time>2017-01-05T07:35:45Z</time>
      </trkpt>
      <trkpt lat="45.05524" lon="6.78471">
        <ele>1550.76</ele>
        <time>2017-01-05T07:35:48Z</time>
      </trkpt>
      <trkpt lat="45.05531" lon="6.78447">
        <ele>1551.28</ele>
        <time>2017-01-05T07:35:54Z</time>
      </trkpt>
      <trkpt lat="45.05539" lon="6.78453">
        <ele>1557.23</ele>
        <time>2017-01-05T07:38:23Z</time>
      </trkpt>
      <trkpt lat="45.05534" lon="6.78471">
        <ele>1557.25</ele>
        <time>2017-01-05T07:38:26Z</time>
      </trkpt>
      <trkpt lat="45.05531" lon="6.78485">
        <ele>1557.15</ele>
        <time>2017-01-05T07:38:28Z</time>
      </trkpt>
      <trkpt lat="45.0553" lon="6.78503">
        <ele>1557.65</ele>
        <time>2017-01-05T07:38:30Z</time>
      </trkpt>
      <trkpt lat="45.05527" lon="6.78521">
        <ele>1557.45</ele>
        <time>2017-01-05T07:38:33Z</time>
      </trkpt>
      <trkpt lat="45.05526" lon="6.78539">
        <ele>1557.03</ele>
        <time>2017-01-05T07:38:35Z</time>
      </trkpt>
      <trkpt lat="45.05529" lon="6.78553">
        <ele>1557.82</ele>
        <time>2017-01-05T07:38:37Z</time>
      </trkpt>
      <trkpt lat="45.05528" lon="6.7857">
        <ele>1559.58</ele>
        <time>2017-01-05T07:38:39Z</time>
      </trkpt>
      <trkpt lat="45.05526" lon="6.78593">
        <ele>1561.08</ele>
        <time>2017-01-05T07:38:41Z</time>
      </trkpt>
      <trkpt lat="45.05528" lon="6.78608">
        <ele>1562.17</ele>
        <time>2017-01-05T07:38:43Z</time>
      </trkpt>
      <trkpt lat="45.05528" lon="6.78623">
        <ele>1562.88</ele>
        <time>2017-01-05T07:38:45Z</time>
      </trkpt>
      <trkpt lat="45.05533" lon="6.78637">
        <ele>1566.46</ele>
        <time>2017-01-05T07:38:47Z</time>
      </trkpt>
      <trkpt lat="45.05537" lon="6.7865">
        <ele>1568.45</ele>
        <time>2017-01-05T07:38:49Z</time>
      </trkpt>
      <trkpt lat="45.05539" lon="6.78667">
        <ele>1568.69</ele>
        <time>2017-01-05T07:38:51Z</time>
      </trkpt>
      <trkpt lat="45.05538" lon="6.78694">
        <ele>1565.79</ele>
        <time>2017-01-05T07:38:53Z</time>
      </trkpt>
      <trkpt lat="45.05545" lon="6.78707">
        <ele>1568.48</ele>
        <time>2017-01-05T07:39:02Z</time>
      </trkpt>
      <trkpt lat="45.05549" lon="6.78691">
        <ele>1571.18</ele>
        <time>2017-01-05T07:39:05Z</time>
      </trkpt>
      <trkpt lat="45.05555" lon="6.78678">
        <ele>1575.44</ele>
        <time>2017-01-05T07:39:08Z</time>
      </trkpt>
      <trkpt lat="45.05562" lon="6.78654">
        <ele>1582.79</ele>
        <time>2017-01-05T07:39:11Z</time>
      </trkpt>
      <trkpt lat="45.05564" lon="6.78639">
        <ele>1586.38</ele>
        <time>2017-01-05T07:39:13Z</time>
      </trkpt>
      <trkpt lat="45.05562" lon="6.78618">
        <ele>1586.46</ele>
        <time>2017-01-05T07:39:15Z</time>
      </trkpt>
      <trkpt lat="45.05568" lon="6.78601">
        <ele>1589.98</ele>
        <time>2017-01-05T07:39:18Z</time>
      </trkpt>
      <trkpt lat="45.05568" lon="6.78587">
        <ele>1589.07</ele>
        <time>2017-01-05T07:39:20Z</time>
      </trkpt>
      <trkpt lat="45.05567" lon="6.78571">
        <ele>1588.38</ele>
        <time>2017-01-05T07:39:22Z</time>
      </trkpt>
      <trkpt lat="45.05575" lon="6.78545">
        <ele>1590.15</ele>
        <time>2017-01-05T07:39:27Z</time>
      </trkpt>
      <trkpt lat="45.05577" lon="6.78526">
        <ele>1587.98</ele>
        <time>2017-01-05T07:39:29Z</time>
      </trkpt>
      <trkpt lat="45.05585" lon="6.78518">
        <ele>1591.31</ele>
        <time>2017-01-05T07:39:31Z</time>
      </trkpt>
      <trkpt lat="45.05594" lon="6.78504">
        <ele>1594.31</ele>
        <time>2017-01-05T07:39:34Z</time>
      </trkpt>
      <trkpt lat="45.05595" lon="6.78487">
        <ele>1593.31</ele>
        <time>2017-01-05T07:39:36Z</time>
      </trkpt>
      <trkpt lat="45.05606" lon="6.78474">
        <ele>1599.07</ele>
        <time>2017-01-05T07:39:39Z</time>
      </trkpt>
      <trkpt lat="45.05617" lon="6.78445">
        <ele>1600.21</ele>
        <time>2017-01-05T07:39:44Z</time>
      </trkpt>
      <trkpt lat="45.05619" lon="6.78413">
        <ele>1597.35</ele>
        <time>2017-01-05T07:39:49Z</time>
      </trkpt>
      <trkpt lat="45.05624" lon="6.784">
        <ele>1600.23</ele>
        <time>2017-01-05T07:39:51Z</time>
      </trkpt>
      <trkpt lat="45.05625" lon="6.78384">
        <ele>1599.39</ele>
        <time>2017-01-05T07:39:53Z</time>
      </trkpt>
      <trkpt lat="45.05631" lon="6.7837">
        <ele>1600.49</ele>
        <time>2017-01-05T07:39:55Z</time>
      </trkpt>
      <trkpt lat="45.05639" lon="6.78354">
        <ele>1602.9</ele>
        <time>2017-01-05T07:39:58Z</time>
      </trkpt>
      <trkpt lat="45.05647" lon="6.78329">
        <ele>1604.1</ele>
        <time>2017-01-05T07:40:04Z</time>
      </trkpt>
      <trkpt lat="45.05653" lon="6.78314">
        <ele>1606.14</ele>
        <time>2017-01-05T07:40:07Z</time>
      </trkpt>
      <trkpt lat="45.05662" lon="6.78304">
        <ele>1610.27</ele>
        <time>2017-01-05T07:40:10Z</time>
      </trkpt>
      <trkpt lat="45.0567" lon="6.78321">
        <ele>1616</ele>
        <time>2017-01-05T07:40:16Z</time>
      </trkpt>
      <trkpt lat="45.05664" lon="6.7834">
        <ele>1615.17</ele>
        <time>2017-01-05T07:40:19Z</time>
      </trkpt>
      <trkpt lat="45.05664" lon="6.78358">
        <ele>1617.81</ele>
        <time>2017-01-05T07:40:22Z</time>
      </trkpt>
      <trkpt lat="45.05658" lon="6.78374">
        <ele>1617.04</ele>
        <time>2017-01-05T07:40:25Z</time>
      </trkpt>
      <trkpt lat="45.05656" lon="6.7839">
        <ele>1618.17</ele>
        <time>2017-01-05T07:40:28Z</time>
      </trkpt>
      <trkpt lat="45.05651" lon="6.78415">
        <ele>1618.12</ele>
        <time>2017-01-05T07:40:32Z</time>
      </trkpt>
      <trkpt lat="45.05648" lon="6.78429">
        <ele>1618.28</ele>
        <time>2017-01-05T07:40:34Z</time>
      </trkpt>
      <trkpt lat="45.05646" lon="6.78444">
        <ele>1620.04</ele>
        <time>2017-01-05T07:40:36Z</time>
      </trkpt>
      <trkpt lat="45.05646" lon="6.78459">
        <ele>1622.01</ele>
        <time>2017-01-05T07:40:38Z</time>
      </trkpt>
      <trkpt lat="45.05646" lon="6.78475">
        <ele>1624.46</ele>
        <time>2017-01-05T07:40:40Z</time>
      </trkpt>
      <trkpt lat="45.05642" lon="6.78492">
        <ele>1623.03</ele>
        <time>2017-01-05T07:40:43Z</time>
      </trkpt>
      <trkpt lat="45.05644" lon="6.78506">
        <ele>1625.03</ele>
        <time>2017-01-05T07:40:45Z</time>
      </trkpt>
      <trkpt lat="45.05638" lon="6.78533">
        <ele>1623.11</ele>
        <time>2017-01-05T07:40:49Z</time>
      </trkpt>
      <trkpt lat="45.05636" lon="6.7855">
        <ele>1623.81</ele>
        <time>2017-01-05T07:40:51Z</time>
      </trkpt>
      <trkpt lat="45.05637" lon="6.78567">
        <ele>1626.99</ele>
        <time>2017-01-05T07:40:53Z</time>
      </trkpt>
      <trkpt lat="45.0564" lon="6.7858">
        <ele>1631.06</ele>
        <time>2017-01-05T07:40:54Z</time>
      </trkpt>
      <trkpt lat="45.05638" lon="6.78599">
        <ele>1632.64</ele>
        <time>2017-01-05T07:40:56Z</time>
      </trkpt>
      <trkpt lat="45.0564" lon="6.78614">
        <ele>1635.25</ele>
        <time>2017-01-05T07:40:58Z</time>
      </trkpt>
      <trkpt lat="45.05645" lon="6.78626">
        <ele>1636.46</ele>
        <time>2017-01-05T07:41:00Z</time>
      </trkpt>
      <trkpt lat="45.0565" lon="6.78643">
        <ele>1636.8</ele>
        <time>2017-01-05T07:41:02Z</time>
      </trkpt>
      <trkpt lat="45.05658" lon="6.78658">
        <ele>1636.6</ele>
        <time>2017-01-05T07:41:04Z</time>
      </trkpt>
      <trkpt lat="45.05664" lon="6.78672">
        <ele>1636.07</ele>
        <time>2017-01-05T07:41:07Z</time>
      </trkpt>
      <trkpt lat="45.05674" lon="6.78678">
        <ele>1638.25</ele>
        <time>2017-01-05T07:41:10Z</time>
      </trkpt>
      <trkpt lat="45.05675" lon="6.78652">
        <ele>1645.11</ele>
        <time>2017-01-05T07:41:15Z</time>
      </trkpt>
      <trkpt lat="45.05672" lon="6.78634">
        <ele>1648.6</ele>
        <time>2017-01-05T07:41:19Z</time>
      </trkpt>
      <trkpt lat="45.05664" lon="6.7861">
        <ele>1646.86</ele>
        <time>2017-01-05T07:41:21Z</time>
      </trkpt>
      <trkpt lat="45.05663" lon="6.78596">
        <ele>1644.98</ele>
        <time>2017-01-05T07:41:23Z</time>
      </trkpt>
      <trkpt lat="45.05662" lon="6.78579">
        <ele>1642.85</ele>
        <time>2017-01-05T07:41:25Z</time>
      </trkpt>
      <trkpt lat="45.0567" lon="6.78554">
        <ele>1644.48</ele>
        <time>2017-01-05T07:41:29Z</time>
      </trkpt>
      <trkpt lat="45.05676" lon="6.78536">
        <ele>1647.18</ele>
        <time>2017-01-05T07:41:32Z</time>
      </trkpt>
      <trkpt lat="45.05686" lon="6.78526">
        <ele>1654.02</ele>
        <time>2017-01-05T07:41:34Z</time>
      </trkpt>
      <trkpt lat="45.05688" lon="6.7851">
        <ele>1653.26</ele>
        <time>2017-01-05T07:41:36Z</time>
      </trkpt>
      <trkpt lat="45.05691" lon="6.78494">
        <ele>1653.25</ele>
        <time>2017-01-05T07:41:38Z</time>
      </trkpt>
      <trkpt lat="45.05698" lon="6.7848">
        <ele>1655.81</ele>
        <time>2017-01-05T07:41:40Z</time>
      </trkpt>
      <trkpt lat="45.05708" lon="6.78471">
        <ele>1659.79</ele>
        <time>2017-01-05T07:41:42Z</time>
      </trkpt>
      <trkpt lat="45.05717" lon="6.78456">
        <ele>1662.71</ele>
        <time>2017-01-05T07:41:45Z</time>
      </trkpt>
      <trkpt lat="45.05725" lon="6.78442">
        <ele>1664.9</ele>
        <time>2017-01-05T07:41:48Z</time>
      </trkpt>
      <trkpt lat="45.05733" lon="6.78429">
        <ele>1666.96</ele>
        <time>2017-01-05T07:41:50Z</time>
      </trkpt>
      <trkpt lat="45.05738" lon="6.78417">
        <ele>1667.16</ele>
        <time>2017-01-05T07:41:52Z</time>
      </trkpt>
      <trkpt lat="45.05745" lon="6.78403">
        <ele>1667.18</ele>
        <time>2017-01-05T07:41:54Z</time>
      </trkpt>
      <trkpt lat="45.05749" lon="6.7839">
        <ele>1665.74</ele>
        <time>2017-01-05T07:41:56Z</time>
      </trkpt>
      <trkpt lat="45.05754" lon="6.78375">
        <ele>1666.17</ele>
        <time>2017-01-05T07:41:58Z</time>
      </trkpt>
      <trkpt lat="45.05763" lon="6.78366">
        <ele>1671.28</ele>
        <time>2017-01-05T07:42:00Z</time>
      </trkpt>
      <trkpt lat="45.05775" lon="6.78358">
        <ele>1678.98</ele>
        <time>2017-01-05T07:42:02Z</time>
      </trkpt>
      <trkpt lat="45.05775" lon="6.78342">
        <ele>1677.15</ele>
        <time>2017-01-05T07:42:04Z</time>
      </trkpt>
      <trkpt lat="45.0578" lon="6.78322">
        <ele>1677.31</ele>
        <time>2017-01-05T07:42:06Z</time>
      </trkpt>
      <trkpt lat="45.05782" lon="6.78306">
        <ele>1675.47</ele>
        <time>2017-01-05T07:42:08Z</time>
      </trkpt>
      <trkpt lat="45.05789" lon="6.78288">
        <ele>1674.83</ele>
        <time>2017-01-05T07:42:11Z</time>
      </trkpt>
      <trkpt lat="45.05793" lon="6.78262">
        <ele>1673.25</ele>
        <time>2017-01-05T07:42:15Z</time>
      </trkpt>
      <trkpt lat="45.05802" lon="6.78249">
        <ele>1676.08</ele>
        <time>2017-01-05T07:42:18Z</time>
      </trkpt>
      <trkpt lat="45.0581" lon="6.78234">
        <ele>1676.72</ele>
        <time>2017-01-05T07:42:21Z</time>
      </trkpt>
      <trkpt lat="45.05817" lon="6.78221">
        <ele>1676.74</ele>
        <time>2017-01-05T07:42:24Z</time>
      </trkpt>
      <trkpt lat="45.05825" lon="6.78209">
        <ele>1676.03</ele>
        <time>2017-01-05T07:42:26Z</time>
      </trkpt>
      <trkpt lat="45.05838" lon="6.78201">
        <ele>1676.6</ele>
        <time>2017-01-05T07:42:29Z</time>
      </trkpt>
      <trkpt lat="45.0585" lon="6.78198">
        <ele>1678.68</ele>
        <time>2017-01-05T07:42:32Z</time>
      </trkpt>
      <trkpt lat="45.05861" lon="6.78196">
        <ele>1680.46</ele>
        <time>2017-01-05T07:42:34Z</time>
      </trkpt>
      <trkpt lat="45.05872" lon="6.782">
        <ele>1683.1</ele>
        <time>2017-01-05T07:42:36Z</time>
      </trkpt>
      <trkpt lat="45.05883" lon="6.78197">
        <ele>1683.9</ele>
        <time>2017-01-05T07:42:38Z</time>
      </trkpt>
      <trkpt lat="45.05893" lon="6.78191">
        <ele>1684.7</ele>
        <time>2017-01-05T07:42:40Z</time>
      </trkpt>
      <trkpt lat="45.05904" lon="6.78189">
        <ele>1687.48</ele>
        <time>2017-01-05T07:42:43Z</time>
      </trkpt>
      <trkpt lat="45.05914" lon="6.78187">
        <ele>1690.19</ele>
        <time>2017-01-05T07:42:44Z</time>
      </trkpt>
      <trkpt lat="45.05924" lon="6.78184">
        <ele>1692.26</ele>
        <time>2017-01-05T07:42:47Z</time>
      </trkpt>
      <trkpt lat="45.05934" lon="6.78181">
        <ele>1694.1</ele>
        <time>2017-01-05T07:42:49Z</time>
      </trkpt>
      <trkpt lat="45.05927" lon="6.78203">
        <ele>1696.52</ele>
        <time>2017-01-05T07:42:53Z</time>
      </trkpt>
      <trkpt lat="45.05915" lon="6.78208">
        <ele>1694.45</ele>
        <time>2017-01-05T07:42:55Z</time>
      </trkpt>
      <trkpt lat="45.05904" lon="6.7822">
        <ele>1694.61</ele>
        <time>2017-01-05T07:42:58Z</time>
      </trkpt>
      <trkpt lat="45.05894" lon="6.78229">
        <ele>1695.36</ele>
        <time>2017-01-05T07:43:01Z</time>
      </trkpt>
      <trkpt lat="45.05877" lon="6.78242">
        <ele>1696.34</ele>
        <time>2017-01-05T07:43:05Z</time>
      </trkpt>
      <trkpt lat="45.05868" lon="6.78252">
        <ele>1697.9</ele>
        <time>2017-01-05T07:43:09Z</time>
      </trkpt>
      <trkpt lat="45.05891" lon="6.78247">
        <ele>1700.8</ele>
        <time>2017-01-05T07:43:16Z</time>
      </trkpt>
      <trkpt lat="45.05901" lon="6.78249">
        <ele>1704.23</ele>
        <time>2017-01-05T07:43:18Z</time>
      </trkpt>
      <trkpt lat="45.05911" lon="6.78251">
        <ele>1707.89</ele>
        <time>2017-01-05T07:43:20Z</time>
      </trkpt>
      <trkpt lat="45.05925" lon="6.78249">
        <ele>1710.69</ele>
        <time>2017-01-05T07:43:22Z</time>
      </trkpt>
      <trkpt lat="45.05937" lon="6.78251">
        <ele>1714.49</ele>
        <time>2017-01-05T07:43:24Z</time>
      </trkpt>
      <trkpt lat="45.05952" lon="6.78253">
        <ele>1719.33</ele>
        <time>2017-01-05T07:43:26Z</time>
      </trkpt>
      <trkpt lat="45.05961" lon="6.78243">
        <ele>1718.47</ele>
        <time>2017-01-05T07:43:27Z</time>
      </trkpt>
      <trkpt lat="45.05971" lon="6.78231">
        <ele>1716.9</ele>
        <time>2017-01-05T07:43:29Z</time>
      </trkpt>
      <trkpt lat="45.05984" lon="6.78212">
        <ele>1716.46</ele>
        <time>2017-01-05T07:43:33Z</time>
      </trkpt>
      <trkpt lat="45.05996" lon="6.78201">
        <ele>1719.96</ele>
        <time>2017-01-05T07:43:36Z</time>
      </trkpt>
      <trkpt lat="45.06008" lon="6.78193">
        <ele>1724.16</ele>
        <time>2017-01-05T07:43:38Z</time>
      </trkpt>
      <trkpt lat="45.06009" lon="6.78174">
        <ele>1723.02</ele>
        <time>2017-01-05T07:43:41Z</time>
      </trkpt>
      <trkpt lat="45.06008" lon="6.78156">
        <ele>1721.24</ele>
        <time>2017-01-05T07:43:44Z</time>
      </trkpt>
      <trkpt lat="45.06009" lon="6.78138">
        <ele>1720.21</ele>
        <time>2017-01-05T07:43:47Z</time>
      </trkpt>
      <trkpt lat="45.06014" lon="6.78124">
        <ele>1720.55</ele>
        <time>2017-01-05T07:43:50Z</time>
      </trkpt>
      <trkpt lat="45.06026" lon="6.78122">
        <ele>1724.58</ele>
        <time>2017-01-05T07:43:54Z</time>
      </trkpt>
      <trkpt lat="45.06024" lon="6.78135">
        <ele>1725.12</ele>
        <time>2017-01-05T07:43:57Z</time>
      </trkpt>
      <trkpt lat="45.06025" lon="6.78163">
        <ele>1727.62</ele>
        <time>2017-01-05T07:44:01Z</time>
      </trkpt>
      <trkpt lat="45.06033" lon="6.7819">
        <ele>1734.06</ele>
        <time>2017-01-05T07:44:06Z</time>
      </trkpt>
      <trkpt lat="45.06032" lon="6.78204">
        <ele>1735.99</ele>
        <time>2017-01-05T07:44:09Z</time>
      </trkpt>
      <trkpt lat="45.06035" lon="6.78224">
        <ele>1740.35</ele>
        <time>2017-01-05T07:44:12Z</time>
      </trkpt>
      <trkpt lat="45.06023" lon="6.7825">
        <ele>1745.62</ele>
        <time>2017-01-05T07:44:16Z</time>
      </trkpt>
      <trkpt lat="45.06013" lon="6.78261">
        <ele>1744.36</ele>
        <time>2017-01-05T07:44:18Z</time>
      </trkpt>
      <trkpt lat="45.05999" lon="6.78273">
        <ele>1741.1</ele>
        <time>2017-01-05T07:44:21Z</time>
      </trkpt>
      <trkpt lat="45.05991" lon="6.78284">
        <ele>1741.43</ele>
        <time>2017-01-05T07:44:23Z</time>
      </trkpt>
      <trkpt lat="45.05984" lon="6.78294">
        <ele>1742.3</ele>
        <time>2017-01-05T07:44:25Z</time>
      </trkpt>
      <trkpt lat="45.05967" lon="6.78308">
        <ele>1741.29</ele>
        <time>2017-01-05T07:44:29Z</time>
      </trkpt>
      <trkpt lat="45.05958" lon="6.78314">
        <ele>1740.73</ele>
        <time>2017-01-05T07:44:31Z</time>
      </trkpt>
      <trkpt lat="45.05947" lon="6.78323">
        <ele>1740.48</ele>
        <time>2017-01-05T07:44:35Z</time>
      </trkpt>
      <trkpt lat="45.05956" lon="6.78329">
        <ele>1744.32</ele>
        <time>2017-01-05T07:44:39Z</time>
      </trkpt>
      <trkpt lat="45.05967" lon="6.78318">
        <ele>1743.93</ele>
        <time>2017-01-05T07:44:42Z</time>
      </trkpt>
      <trkpt lat="45.05981" lon="6.7832">
        <ele>1748.29</ele>
        <time>2017-01-05T07:44:44Z</time>
      </trkpt>
      <trkpt lat="45.05993" lon="6.78311">
        <ele>1749.87</ele>
        <time>2017-01-05T07:44:46Z</time>
      </trkpt>
      <trkpt lat="45.06001" lon="6.78299">
        <ele>1749.31</ele>
        <time>2017-01-05T07:44:48Z</time>
      </trkpt>
      <trkpt lat="45.06011" lon="6.78289">
        <ele>1750.95</ele>
        <time>2017-01-05T07:44:50Z</time>
      </trkpt>
      <trkpt lat="45.06021" lon="6.78278">
        <ele>1752.2</ele>
        <time>2017-01-05T07:44:52Z</time>
      </trkpt>
      <trkpt lat="45.06033" lon="6.78271">
        <ele>1755.04</ele>
        <time>2017-01-05T07:44:54Z</time>
      </trkpt>
      <trkpt lat="45.06044" lon="6.78269">
        <ele>1758.58</ele>
        <time>2017-01-05T07:44:57Z</time>
      </trkpt>
      <trkpt lat="45.06058" lon="6.78267">
        <ele>1762.41</ele>
        <time>2017-01-05T07:44:59Z</time>
      </trkpt>
      <trkpt lat="45.06069" lon="6.78264">
        <ele>1764.79</ele>
        <time>2017-01-05T07:45:01Z</time>
      </trkpt>
      <trkpt lat="45.06083" lon="6.78263">
        <ele>1769.1</ele>
        <time>2017-01-05T07:45:03Z</time>
      </trkpt>
      <trkpt lat="45.06096" lon="6.78257">
        <ele>1772.35</ele>
        <time>2017-01-05T07:45:05Z</time>
      </trkpt>
      <trkpt lat="45.06107" lon="6.78247">
        <ele>1774.15</ele>
        <time>2017-01-05T07:45:07Z</time>
      </trkpt>
      <trkpt lat="45.06118" lon="6.78237">
        <ele>1775.89</ele>
        <time>2017-01-05T07:45:09Z</time>
      </trkpt>
      <trkpt lat="45.06127" lon="6.78227">
        <ele>1776.35</ele>
        <time>2017-01-05T07:45:11Z</time>
      </trkpt>
      <trkpt lat="45.06131" lon="6.78206">
        <ele>1774.31</ele>
        <time>2017-01-05T07:45:13Z</time>
      </trkpt>
      <trkpt lat="45.06136" lon="6.7819">
        <ele>1772.99</ele>
        <time>2017-01-05T07:45:15Z</time>
      </trkpt>
      <trkpt lat="45.0614" lon="6.78173">
        <ele>1772.05</ele>
        <time>2017-01-05T07:45:17Z</time>
      </trkpt>
      <trkpt lat="45.06142" lon="6.78155">
        <ele>1770.03</ele>
        <time>2017-01-05T07:45:19Z</time>
      </trkpt>
      <trkpt lat="45.06148" lon="6.7814">
        <ele>1769.52</ele>
        <time>2017-01-05T07:45:21Z</time>
      </trkpt>
      <trkpt lat="45.06162" lon="6.78125">
        <ele>1769.42</ele>
        <time>2017-01-05T07:45:25Z</time>
      </trkpt>
      <trkpt lat="45.06174" lon="6.78123">
        <ele>1772.35</ele>
        <time>2017-01-05T07:45:27Z</time>
      </trkpt>
      <trkpt lat="45.06186" lon="6.78122">
        <ele>1776.56</ele>
        <time>2017-01-05T07:45:29Z</time>
      </trkpt>
      <trkpt lat="45.06199" lon="6.78124">
        <ele>1780.57</ele>
        <time>2017-01-05T07:45:31Z</time>
      </trkpt>
      <trkpt lat="45.06221" lon="6.78122">
        <ele>1785</ele>
        <time>2017-01-05T07:45:36Z</time>
      </trkpt>
      <trkpt lat="45.06232" lon="6.78117">
        <ele>1786.88</ele>
        <time>2017-01-05T07:45:41Z</time>
      </trkpt>
      <trkpt lat="45.06229" lon="6.78137">
        <ele>1790.36</ele>
        <time>2017-01-05T07:45:47Z</time>
      </trkpt>
      <trkpt lat="45.06224" lon="6.78153">
        <ele>1792.53</ele>
        <time>2017-01-05T07:45:50Z</time>
      </trkpt>
      <trkpt lat="45.06223" lon="6.78183">
        <ele>1797.7</ele>
        <time>2017-01-05T07:45:55Z</time>
      </trkpt>
      <trkpt lat="45.06221" lon="6.78198">
        <ele>1798.94</ele>
        <time>2017-01-05T07:45:57Z</time>
      </trkpt>
      <trkpt lat="45.0622" lon="6.78216">
        <ele>1801.23</ele>
        <time>2017-01-05T07:45:59Z</time>
      </trkpt>
      <trkpt lat="45.06222" lon="6.78235">
        <ele>1803.34</ele>
        <time>2017-01-05T07:46:01Z</time>
      </trkpt>
      <trkpt lat="45.06216" lon="6.78257">
        <ele>1803.57</ele>
        <time>2017-01-05T07:46:03Z</time>
      </trkpt>
      <trkpt lat="45.06214" lon="6.78272">
        <ele>1805.83</ele>
        <time>2017-01-05T07:46:05Z</time>
      </trkpt>
      <trkpt lat="45.06206" lon="6.78283">
        <ele>1805.85</ele>
        <time>2017-01-05T07:46:07Z</time>
      </trkpt>
      <trkpt lat="45.06198" lon="6.78294">
        <ele>1806.26</ele>
        <time>2017-01-05T07:46:09Z</time>
      </trkpt>
      <trkpt lat="45.06188" lon="6.78301">
        <ele>1805.79</ele>
        <time>2017-01-05T07:46:11Z</time>
      </trkpt>
      <trkpt lat="45.06171" lon="6.78309">
        <ele>1805.02</ele>
        <time>2017-01-05T07:46:13Z</time>
      </trkpt>
      <trkpt lat="45.06162" lon="6.78319">
        <ele>1806.2</ele>
        <time>2017-01-05T07:46:15Z</time>
      </trkpt>
      <trkpt lat="45.06144" lon="6.78332">
        <ele>1804.9</ele>
        <time>2017-01-05T07:46:19Z</time>
      </trkpt>
      <trkpt lat="45.06135" lon="6.78339">
        <ele>1804.32</ele>
        <time>2017-01-05T07:46:21Z</time>
      </trkpt>
      <trkpt lat="45.0613" lon="6.78352">
        <ele>1806.44</ele>
        <time>2017-01-05T07:46:23Z</time>
      </trkpt>
      <trkpt lat="45.06125" lon="6.78364">
        <ele>1808.06</ele>
        <time>2017-01-05T07:46:25Z</time>
      </trkpt>
      <trkpt lat="45.06124" lon="6.78379">
        <ele>1809.98</ele>
        <time>2017-01-05T07:46:27Z</time>
      </trkpt>
      <trkpt lat="45.06122" lon="6.78396">
        <ele>1811.49</ele>
        <time>2017-01-05T07:46:29Z</time>
      </trkpt>
      <trkpt lat="45.0612" lon="6.78424">
        <ele>1812.17</ele>
        <time>2017-01-05T07:46:33Z</time>
      </trkpt>
      <trkpt lat="45.06125" lon="6.78437">
        <ele>1813.32</ele>
        <time>2017-01-05T07:46:35Z</time>
      </trkpt>
      <trkpt lat="45.06129" lon="6.78453">
        <ele>1813.59</ele>
        <time>2017-01-05T07:46:38Z</time>
      </trkpt>
      <trkpt lat="45.06142" lon="6.78476">
        <ele>1815.33</ele>
        <time>2017-01-05T07:46:42Z</time>
      </trkpt>
      <trkpt lat="45.06155" lon="6.78497">
        <ele>1819.9</ele>
        <time>2017-01-05T07:46:46Z</time>
      </trkpt>
      <trkpt lat="45.06171" lon="6.78512">
        <ele>1824.42</ele>
        <time>2017-01-05T07:46:50Z</time>
      </trkpt>
      <trkpt lat="45.06184" lon="6.78515">
        <ele>1826.65</ele>
        <time>2017-01-05T07:46:54Z</time>
      </trkpt>
      <trkpt lat="45.06176" lon="6.78492">
        <ele>1824.36</ele>
        <time>2017-01-05T07:46:59Z</time>
      </trkpt>
      <trkpt lat="45.06177" lon="6.7846">
        <ele>1826.76</ele>
        <time>2017-01-05T07:47:04Z</time>
      </trkpt>
      <trkpt lat="45.06181" lon="6.78445">
        <ele>1829.56</ele>
        <time>2017-01-05T07:47:07Z</time>
      </trkpt>
      <trkpt lat="45.06185" lon="6.78431">
        <ele>1831.17</ele>
        <time>2017-01-05T07:47:09Z</time>
      </trkpt>
      <trkpt lat="45.06191" lon="6.78416">
        <ele>1832.9</ele>
        <time>2017-01-05T07:47:11Z</time>
      </trkpt>
      <trkpt lat="45.062" lon="6.78404">
        <ele>1833.02</ele>
        <time>2017-01-05T07:47:13Z</time>
      </trkpt>
      <trkpt lat="45.06206" lon="6.7839">
        <ele>1832.05</ele>
        <time>2017-01-05T07:47:15Z</time>
      </trkpt>
      <trkpt lat="45.06212" lon="6.78378">
        <ele>1831.04</ele>
        <time>2017-01-05T07:47:17Z</time>
      </trkpt>
      <trkpt lat="45.06228" lon="6.78357">
        <ele>1830.16</ele>
        <time>2017-01-05T07:47:21Z</time>
      </trkpt>
      <trkpt lat="45.06239" lon="6.7835">
        <ele>1832.64</ele>
        <time>2017-01-05T07:47:24Z</time>
      </trkpt>
      <trkpt lat="45.06251" lon="6.78349">
        <ele>1837.21</ele>
        <time>2017-01-05T07:47:26Z</time>
      </trkpt>
      <trkpt lat="45.06266" lon="6.78346">
        <ele>1842.94</ele>
        <time>2017-01-05T07:47:28Z</time>
      </trkpt>
      <trkpt lat="45.06278" lon="6.78344">
        <ele>1847.74</ele>
        <time>2017-01-05T07:47:30Z</time>
      </trkpt>
      <trkpt lat="45.06289" lon="6.7834">
        <ele>1850.61</ele>
        <time>2017-01-05T07:47:32Z</time>
      </trkpt>
      <trkpt lat="45.063" lon="6.78337">
        <ele>1853.96</ele>
        <time>2017-01-05T07:47:34Z</time>
      </trkpt>
      <trkpt lat="45.06309" lon="6.78329">
        <ele>1854.98</ele>
        <time>2017-01-05T07:47:36Z</time>
      </trkpt>
      <trkpt lat="45.06318" lon="6.78318">
        <ele>1854.85</ele>
        <time>2017-01-05T07:47:38Z</time>
      </trkpt>
      <trkpt lat="45.06325" lon="6.78306">
        <ele>1854.18</ele>
        <time>2017-01-05T07:47:40Z</time>
      </trkpt>
      <trkpt lat="45.06333" lon="6.7829">
        <ele>1852.33</ele>
        <time>2017-01-05T07:47:42Z</time>
      </trkpt>
      <trkpt lat="45.06342" lon="6.78279">
        <ele>1852.52</ele>
        <time>2017-01-05T07:47:44Z</time>
      </trkpt>
      <trkpt lat="45.06348" lon="6.78266">
        <ele>1851.59</ele>
        <time>2017-01-05T07:47:46Z</time>
      </trkpt>
      <trkpt lat="45.06354" lon="6.78254">
        <ele>1851.28</ele>
        <time>2017-01-05T07:47:48Z</time>
      </trkpt>
      <trkpt lat="45.06363" lon="6.78241">
        <ele>1851.64</ele>
        <time>2017-01-05T07:47:51Z</time>
      </trkpt>
      <trkpt lat="45.06373" lon="6.78235">
        <ele>1853.53</ele>
        <time>2017-01-05T07:47:54Z</time>
      </trkpt>
      <trkpt lat="45.06384" lon="6.78228">
        <ele>1855.79</ele>
        <time>2017-01-05T07:47:57Z</time>
      </trkpt>
      <trkpt lat="45.06395" lon="6.78224">
        <ele>1858.93</ele>
        <time>2017-01-05T07:47:59Z</time>
      </trkpt>
      <trkpt lat="45.06406" lon="6.78215">
        <ele>1860.88</ele>
        <time>2017-01-05T07:48:02Z</time>
      </trkpt>
      <trkpt lat="45.06415" lon="6.78205">
        <ele>1861.86</ele>
        <time>2017-01-05T07:48:11Z</time>
      </trkpt>
      <trkpt lat="45.06402" lon="6.78226">
        <ele>1861.3</ele>
        <time>2017-01-05T07:48:19Z</time>
      </trkpt>
      <trkpt lat="45.06394" lon="6.78233">
        <ele>1859.64</ele>
        <time>2017-01-05T07:48:21Z</time>
      </trkpt>
      <trkpt lat="45.06385" lon="6.78246">
        <ele>1858.51</ele>
        <time>2017-01-05T07:48:24Z</time>
      </trkpt>
      <trkpt lat="45.06378" lon="6.78276">
        <ele>1862.33</ele>
        <time>2017-01-05T07:48:28Z</time>
      </trkpt>
      <trkpt lat="45.06373" lon="6.78303">
        <ele>1867.52</ele>
        <time>2017-01-05T07:48:32Z</time>
      </trkpt>
      <trkpt lat="45.0637" lon="6.7832">
        <ele>1869.97</ele>
        <time>2017-01-05T07:48:34Z</time>
      </trkpt>
      <trkpt lat="45.06366" lon="6.78333">
        <ele>1871.84</ele>
        <time>2017-01-05T07:48:36Z</time>
      </trkpt>
      <trkpt lat="45.06363" lon="6.78349">
        <ele>1874.1</ele>
        <time>2017-01-05T07:48:38Z</time>
      </trkpt>
      <trkpt lat="45.06355" lon="6.78364">
        <ele>1874.85</ele>
        <time>2017-01-05T07:48:40Z</time>
      </trkpt>
      <trkpt lat="45.06348" lon="6.78378">
        <ele>1874.24</ele>
        <time>2017-01-05T07:48:42Z</time>
      </trkpt>
      <trkpt lat="45.06344" lon="6.78393">
        <ele>1873.96</ele>
        <time>2017-01-05T07:48:45Z</time>
      </trkpt>
      <trkpt lat="45.06346" lon="6.78407">
        <ele>1875.22</ele>
        <time>2017-01-05T07:48:47Z</time>
      </trkpt>
      <trkpt lat="45.06351" lon="6.78425">
        <ele>1877.18</ele>
        <time>2017-01-05T07:48:49Z</time>
      </trkpt>
      <trkpt lat="45.06354" lon="6.78441">
        <ele>1878.4</ele>
        <time>2017-01-05T07:48:51Z</time>
      </trkpt>
      <trkpt lat="45.06356" lon="6.7846">
        <ele>1879.85</ele>
        <time>2017-01-05T07:48:53Z</time>
      </trkpt>
      <trkpt lat="45.06365" lon="6.78468">
        <ele>1883.46</ele>
        <time>2017-01-05T07:48:55Z</time>
      </trkpt>
      <trkpt lat="45.06376" lon="6.78492">
        <ele>1885.73</ele>
        <time>2017-01-05T07:48:59Z</time>
      </trkpt>
      <trkpt lat="45.06379" lon="6.78507">
        <ele>1886.15</ele>
        <time>2017-01-05T07:49:01Z</time>
      </trkpt>
      <trkpt lat="45.06383" lon="6.78522">
        <ele>1887.03</ele>
        <time>2017-01-05T07:49:03Z</time>
      </trkpt>
      <trkpt lat="45.06389" lon="6.78535">
        <ele>1888.86</ele>
        <time>2017-01-05T07:49:05Z</time>
      </trkpt>
      <trkpt lat="45.06396" lon="6.78548">
        <ele>1890.9</ele>
        <time>2017-01-05T07:49:07Z</time>
      </trkpt>
      <trkpt lat="45.064" lon="6.78564">
        <ele>1890.97</ele>
        <time>2017-01-05T07:49:09Z</time>
      </trkpt>
      <trkpt lat="45.06406" lon="6.7858">
        <ele>1890.51</ele>
        <time>2017-01-05T07:49:11Z</time>
      </trkpt>
      <trkpt lat="45.06411" lon="6.78596">
        <ele>1890.83</ele>
        <time>2017-01-05T07:49:13Z</time>
      </trkpt>
      <trkpt lat="45.06416" lon="6.7861">
        <ele>1891.56</ele>
        <time>2017-01-05T07:49:15Z</time>
      </trkpt>
      <trkpt lat="45.0642" lon="6.78624">
        <ele>1892.88</ele>
        <time>2017-01-05T07:49:17Z</time>
      </trkpt>
      <trkpt lat="45.06425" lon="6.78638">
        <ele>1894.18</ele>
        <time>2017-01-05T07:49:19Z</time>
      </trkpt>
      <trkpt lat="45.06431" lon="6.78652">
        <ele>1895.19</ele>
        <time>2017-01-05T07:49:21Z</time>
      </trkpt>
      <trkpt lat="45.06434" lon="6.78667">
        <ele>1894.48</ele>
        <time>2017-01-05T07:49:23Z</time>
      </trkpt>
      <trkpt lat="45.06432" lon="6.78684">
        <ele>1891.35</ele>
        <time>2017-01-05T07:49:26Z</time>
      </trkpt>
      <trkpt lat="45.06433" lon="6.78716">
        <ele>1889.13</ele>
        <time>2017-01-05T07:49:31Z</time>
      </trkpt>
      <trkpt lat="45.06436" lon="6.78733">
        <ele>1889.28</ele>
        <time>2017-01-05T07:49:33Z</time>
      </trkpt>
      <trkpt lat="45.06442" lon="6.78764">
        <ele>1889.43</ele>
        <time>2017-01-05T07:49:38Z</time>
      </trkpt>
      <trkpt lat="45.06443" lon="6.7878">
        <ele>1888.66</ele>
        <time>2017-01-05T07:49:40Z</time>
      </trkpt>
      <trkpt lat="45.06444" lon="6.78797">
        <ele>1888.73</ele>
        <time>2017-01-05T07:49:42Z</time>
      </trkpt>
      <trkpt lat="45.06445" lon="6.78815">
        <ele>1889.53</ele>
        <time>2017-01-05T07:49:44Z</time>
      </trkpt>
      <trkpt lat="45.06447" lon="6.78833">
        <ele>1891.23</ele>
        <time>2017-01-05T07:49:46Z</time>
      </trkpt>
      <trkpt lat="45.06448" lon="6.7885">
        <ele>1894.47</ele>
        <time>2017-01-05T07:49:48Z</time>
      </trkpt>
      <trkpt lat="45.0645" lon="6.78869">
        <ele>1897.9</ele>
        <time>2017-01-05T07:49:50Z</time>
      </trkpt>
      <trkpt lat="45.0645" lon="6.78884">
        <ele>1900.23</ele>
        <time>2017-01-05T07:49:52Z</time>
      </trkpt>
      <trkpt lat="45.06453" lon="6.78898">
        <ele>1902.65</ele>
        <time>2017-01-05T07:49:55Z</time>
      </trkpt>
      <trkpt lat="45.06457" lon="6.78917">
        <ele>1904.97</ele>
        <time>2017-01-05T07:49:58Z</time>
      </trkpt>
      <trkpt lat="45.06462" lon="6.78935">
        <ele>1907.16</ele>
        <time>2017-01-05T07:50:01Z</time>
      </trkpt>
      <trkpt lat="45.06465" lon="6.78951">
        <ele>1908.77</ele>
        <time>2017-01-05T07:50:03Z</time>
      </trkpt>
      <trkpt lat="45.06466" lon="6.78981">
        <ele>1908.78</ele>
        <time>2017-01-05T07:50:08Z</time>
      </trkpt>
      <trkpt lat="45.0647" lon="6.78996">
        <ele>1909.31</ele>
        <time>2017-01-05T07:50:12Z</time>
      </trkpt>
      <trkpt lat="45.06484" lon="6.78974">
        <ele>1916.85</ele>
        <time>2017-01-05T07:50:20Z</time>
      </trkpt>
      <trkpt lat="45.06491" lon="6.78959">
        <ele>1919.98</ele>
        <time>2017-01-05T07:50:23Z</time>
      </trkpt>
      <trkpt lat="45.06494" lon="6.78932">
        <ele>1921.58</ele>
        <time>2017-01-05T07:50:28Z</time>
      </trkpt>
      <trkpt lat="45.06495" lon="6.78916">
        <ele>1922.61</ele>
        <time>2017-01-05T07:50:29Z</time>
      </trkpt>
      <trkpt lat="45.06498" lon="6.78898">
        <ele>1924.55</ele>
        <time>2017-01-05T07:50:31Z</time>
      </trkpt>
      <trkpt lat="45.06501" lon="6.78883">
        <ele>1926.21</ele>
        <time>2017-01-05T07:50:33Z</time>
      </trkpt>
      <trkpt lat="45.06503" lon="6.78866">
        <ele>1926.36</ele>
        <time>2017-01-05T07:50:35Z</time>
      </trkpt>
      <trkpt lat="45.06507" lon="6.7885">
        <ele>1926.73</ele>
        <time>2017-01-05T07:50:37Z</time>
      </trkpt>
      <trkpt lat="45.0651" lon="6.78836">
        <ele>1926.79</ele>
        <time>2017-01-05T07:50:39Z</time>
      </trkpt>
      <trkpt lat="45.06514" lon="6.7882">
        <ele>1925.97</ele>
        <time>2017-01-05T07:50:41Z</time>
      </trkpt>
      <trkpt lat="45.06515" lon="6.78803">
        <ele>1924.07</ele>
        <time>2017-01-05T07:50:43Z</time>
      </trkpt>
      <trkpt lat="45.06515" lon="6.78786">
        <ele>1922.31</ele>
        <time>2017-01-05T07:50:45Z</time>
      </trkpt>
      <trkpt lat="45.06518" lon="6.78771">
        <ele>1922.04</ele>
        <time>2017-01-05T07:50:47Z</time>
      </trkpt>
      <trkpt lat="45.06518" lon="6.78753">
        <ele>1921.67</ele>
        <time>2017-01-05T07:50:49Z</time>
      </trkpt>
      <trkpt lat="45.06517" lon="6.78734">
        <ele>1922.12</ele>
        <time>2017-01-05T07:50:51Z</time>
      </trkpt>
      <trkpt lat="45.06516" lon="6.7872">
        <ele>1923.23</ele>
        <time>2017-01-05T07:50:53Z</time>
      </trkpt>
      <trkpt lat="45.06516" lon="6.78704">
        <ele>1925.62</ele>
        <time>2017-01-05T07:50:55Z</time>
      </trkpt>
      <trkpt lat="45.06519" lon="6.78674">
        <ele>1931.35</ele>
        <time>2017-01-05T07:50:59Z</time>
      </trkpt>
      <trkpt lat="45.06519" lon="6.78654">
        <ele>1932.43</ele>
        <time>2017-01-05T07:51:01Z</time>
      </trkpt>
      <trkpt lat="45.06519" lon="6.78635">
        <ele>1932.95</ele>
        <time>2017-01-05T07:51:04Z</time>
      </trkpt>
      <trkpt lat="45.06516" lon="6.7862">
        <ele>1933.02</ele>
        <time>2017-01-05T07:51:06Z</time>
      </trkpt>
      <trkpt lat="45.06514" lon="6.78606">
        <ele>1932.98</ele>
        <time>2017-01-05T07:51:08Z</time>
      </trkpt>
      <trkpt lat="45.06515" lon="6.78592">
        <ele>1934.61</ele>
        <time>2017-01-05T07:51:10Z</time>
      </trkpt>
      <trkpt lat="45.06519" lon="6.78559">
        <ele>1940.31</ele>
        <time>2017-01-05T07:51:15Z</time>
      </trkpt>
      <trkpt lat="45.06521" lon="6.78544">
        <ele>1942.03</ele>
        <time>2017-01-05T07:51:17Z</time>
      </trkpt>
      <trkpt lat="45.06532" lon="6.78522">
        <ele>1947.84</ele>
        <time>2017-01-05T07:51:21Z</time>
      </trkpt>
      <trkpt lat="45.06537" lon="6.78509">
        <ele>1949.04</ele>
        <time>2017-01-05T07:51:23Z</time>
      </trkpt>
      <trkpt lat="45.06541" lon="6.78495">
        <ele>1950.09</ele>
        <time>2017-01-05T07:51:25Z</time>
      </trkpt>
      <trkpt lat="45.06548" lon="6.78482">
        <ele>1953.08</ele>
        <time>2017-01-05T07:51:27Z</time>
      </trkpt>
      <trkpt lat="45.06554" lon="6.78465">
        <ele>1955.94</ele>
        <time>2017-01-05T07:51:30Z</time>
      </trkpt>
      <trkpt lat="45.06559" lon="6.78445">
        <ele>1957.59</ele>
        <time>2017-01-05T07:51:33Z</time>
      </trkpt>
      <trkpt lat="45.06565" lon="6.78431">
        <ele>1959.77</ele>
        <time>2017-01-05T07:51:36Z</time>
      </trkpt>
      <trkpt lat="45.06571" lon="6.78417">
        <ele>1961.77</ele>
        <time>2017-01-05T07:51:39Z</time>
      </trkpt>
      <trkpt lat="45.06577" lon="6.78403">
        <ele>1963.4</ele>
        <time>2017-01-05T07:51:42Z</time>
      </trkpt>
      <trkpt lat="45.06585" lon="6.78391">
        <ele>1965.75</ele>
        <time>2017-01-05T07:51:45Z</time>
      </trkpt>
      <trkpt lat="45.06595" lon="6.7838">
        <ele>1966.9</ele>
        <time>2017-01-05T07:51:48Z</time>
      </trkpt>
      <trkpt lat="45.06605" lon="6.78369">
        <ele>1967.65</ele>
        <time>2017-01-05T07:51:51Z</time>
      </trkpt>
      <trkpt lat="45.06615" lon="6.78357">
        <ele>1968.44</ele>
        <time>2017-01-05T07:51:54Z</time>
      </trkpt>
      <trkpt lat="45.06624" lon="6.78343">
        <ele>1968.59</ele>
        <time>2017-01-05T07:51:57Z</time>
      </trkpt>
      <trkpt lat="45.06634" lon="6.78335">
        <ele>1969.35</ele>
        <time>2017-01-05T07:52:02Z</time>
      </trkpt>
      <trkpt lat="45.06641" lon="6.78347">
        <ele>1973.39</ele>
        <time>2017-01-05T07:52:07Z</time>
      </trkpt>
      <trkpt lat="45.06632" lon="6.78357">
        <ele>1973.15</ele>
        <time>2017-01-05T07:52:11Z</time>
      </trkpt>
      <trkpt lat="45.06618" lon="6.78379">
        <ele>1973.13</ele>
        <time>2017-01-05T07:52:17Z</time>
      </trkpt>
      <trkpt lat="45.06614" lon="6.78393">
        <ele>1974.21</ele>
        <time>2017-01-05T07:52:19Z</time>
      </trkpt>
      <trkpt lat="45.06611" lon="6.78408">
        <ele>1975.6</ele>
        <time>2017-01-05T07:52:22Z</time>
      </trkpt>
      <trkpt lat="45.06611" lon="6.78423">
        <ele>1977.26</ele>
        <time>2017-01-05T07:52:25Z</time>
      </trkpt>
      <trkpt lat="45.06613" lon="6.78442">
        <ele>1979.13</ele>
        <time>2017-01-05T07:52:28Z</time>
      </trkpt>
      <trkpt lat="45.06617" lon="6.78469">
        <ele>1979.46</ele>
        <time>2017-01-05T07:52:32Z</time>
      </trkpt>
      <trkpt lat="45.06618" lon="6.78487">
        <ele>1979.49</ele>
        <time>2017-01-05T07:52:34Z</time>
      </trkpt>
      <trkpt lat="45.06618" lon="6.78505">
        <ele>1979.22</ele>
        <time>2017-01-05T07:52:36Z</time>
      </trkpt>
      <trkpt lat="45.0662" lon="6.78523">
        <ele>1979.65</ele>
        <time>2017-01-05T07:52:39Z</time>
      </trkpt>
      <trkpt lat="45.06624" lon="6.7854">
        <ele>1981.86</ele>
        <time>2017-01-05T07:52:43Z</time>
      </trkpt>
      <trkpt lat="45.06628" lon="6.78553">
        <ele>1985.08</ele>
        <time>2017-01-05T07:52:46Z</time>
      </trkpt>
      <trkpt lat="45.06635" lon="6.78568">
        <ele>1989.06</ele>
        <time>2017-01-05T07:52:49Z</time>
      </trkpt>
      <trkpt lat="45.06648" lon="6.78604">
        <ele>1994.27</ele>
        <time>2017-01-05T07:52:54Z</time>
      </trkpt>
      <trkpt lat="45.06653" lon="6.7862">
        <ele>1996.3</ele>
        <time>2017-01-05T07:52:57Z</time>
      </trkpt>
      <trkpt lat="45.06658" lon="6.78635">
        <ele>1998.37</ele>
        <time>2017-01-05T07:53:00Z</time>
      </trkpt>
      <trkpt lat="45.06669" lon="6.78661">
        <ele>2001.32</ele>
        <time>2017-01-05T07:53:05Z</time>
      </trkpt>
      <trkpt lat="45.06675" lon="6.78676">
        <ele>2001.93</ele>
        <time>2017-01-05T07:53:08Z</time>
      </trkpt>
      <trkpt lat="45.0668" lon="6.78693">
        <ele>2001.81</ele>
        <time>2017-01-05T07:53:11Z</time>
      </trkpt>
      <trkpt lat="45.06682" lon="6.7871">
        <ele>2001.31</ele>
        <time>2017-01-05T07:53:14Z</time>
      </trkpt>
      <trkpt lat="45.06685" lon="6.78724">
        <ele>2001.86</ele>
        <time>2017-01-05T07:53:17Z</time>
      </trkpt>
      <trkpt lat="45.06689" lon="6.78739">
        <ele>2003.93</ele>
        <time>2017-01-05T07:53:20Z</time>
      </trkpt>
      <trkpt lat="45.06695" lon="6.78756">
        <ele>2006.16</ele>
        <time>2017-01-05T07:53:23Z</time>
      </trkpt>
      <trkpt lat="45.06703" lon="6.78784">
        <ele>2008.74</ele>
        <time>2017-01-05T07:53:30Z</time>
      </trkpt>
      <trkpt lat="45.0671" lon="6.78774">
        <ele>2012.33</ele>
        <time>2017-01-05T07:53:40Z</time>
      </trkpt>
      <trkpt lat="45.06709" lon="6.7874">
        <ele>2012.42</ele>
        <time>2017-01-05T07:53:45Z</time>
      </trkpt>
      <trkpt lat="45.06713" lon="6.78709">
        <ele>2013.18</ele>
        <time>2017-01-05T07:53:50Z</time>
      </trkpt>
      <trkpt lat="45.06724" lon="6.7868">
        <ele>2018.77</ele>
        <time>2017-01-05T07:53:55Z</time>
      </trkpt>
      <trkpt lat="45.0674" lon="6.78657">
        <ele>2026.01</ele>
        <time>2017-01-05T07:54:00Z</time>
      </trkpt>
      <trkpt lat="45.0675" lon="6.78646">
        <ele>2029.09</ele>
        <time>2017-01-05T07:54:03Z</time>
      </trkpt>
      <trkpt lat="45.06769" lon="6.7863">
        <ele>2032.26</ele>
        <time>2017-01-05T07:54:08Z</time>
      </trkpt>
      <trkpt lat="45.06779" lon="6.78621">
        <ele>2033.26</ele>
        <time>2017-01-05T07:54:11Z</time>
      </trkpt>
      <trkpt lat="45.06789" lon="6.78612">
        <ele>2034.04</ele>
        <time>2017-01-05T07:54:14Z</time>
      </trkpt>
      <trkpt lat="45.068" lon="6.78602">
        <ele>2036.6</ele>
        <time>2017-01-05T07:54:17Z</time>
      </trkpt>
      <trkpt lat="45.06805" lon="6.78587">
        <ele>2038.68</ele>
        <time>2017-01-05T07:54:20Z</time>
      </trkpt>
      <trkpt lat="45.068" lon="6.78574">
        <ele>2038.78</ele>
        <time>2017-01-05T07:54:22Z</time>
      </trkpt>
      <trkpt lat="45.06792" lon="6.78561">
        <ele>2038.42</ele>
        <time>2017-01-05T07:54:25Z</time>
      </trkpt>
      <trkpt lat="45.06791" lon="6.78546">
        <ele>2039.21</ele>
        <time>2017-01-05T07:54:28Z</time>
      </trkpt>
      <trkpt lat="45.06801" lon="6.78523">
        <ele>2041.83</ele>
        <time>2017-01-05T07:54:32Z</time>
      </trkpt>
      <trkpt lat="45.06804" lon="6.78505">
        <ele>2041.82</ele>
        <time>2017-01-05T07:54:35Z</time>
      </trkpt>
      <trkpt lat="45.0681" lon="6.7849">
        <ele>2043.41</ele>
        <time>2017-01-05T07:54:38Z</time>
      </trkpt>
      <trkpt lat="45.06819" lon="6.78465">
        <ele>2046.62</ele>
        <time>2017-01-05T07:54:43Z</time>
      </trkpt>
      <trkpt lat="45.06824" lon="6.7845">
        <ele>2048.22</ele>
        <time>2017-01-05T07:54:46Z</time>
      </trkpt>
      <trkpt lat="45.06834" lon="6.78429">
        <ele>2050.66</ele>
        <time>2017-01-05T07:54:51Z</time>
      </trkpt>
      <trkpt lat="45.06842" lon="6.78415">
        <ele>2051.87</ele>
        <time>2017-01-05T07:54:54Z</time>
      </trkpt>
      <trkpt lat="45.06849" lon="6.78404">
        <ele>2052.24</ele>
        <time>2017-01-05T07:54:56Z</time>
      </trkpt>
      <trkpt lat="45.06856" lon="6.7839">
        <ele>2053.04</ele>
        <time>2017-01-05T07:54:58Z</time>
      </trkpt>
      <trkpt lat="45.06859" lon="6.78374">
        <ele>2052.55</ele>
        <time>2017-01-05T07:55:00Z</time>
      </trkpt>
      <trkpt lat="45.06861" lon="6.78357">
        <ele>2051.56</ele>
        <time>2017-01-05T07:55:03Z</time>
      </trkpt>
      <trkpt lat="45.06868" lon="6.78347">
        <ele>2051.51</ele>
        <time>2017-01-05T07:55:06Z</time>
      </trkpt>
      <trkpt lat="45.06877" lon="6.7834">
        <ele>2052.37</ele>
        <time>2017-01-05T07:55:09Z</time>
      </trkpt>
      <trkpt lat="45.06888" lon="6.78336">
        <ele>2053.93</ele>
        <time>2017-01-05T07:55:12Z</time>
      </trkpt>
      <trkpt lat="45.06906" lon="6.78328">
        <ele>2055.59</ele>
        <time>2017-01-05T07:55:16Z</time>
      </trkpt>
      <trkpt lat="45.06921" lon="6.78327">
        <ele>2058.05</ele>
        <time>2017-01-05T07:55:18Z</time>
      </trkpt>
      <trkpt lat="45.06933" lon="6.78329">
        <ele>2060.77</ele>
        <time>2017-01-05T07:55:21Z</time>
      </trkpt>
      <trkpt lat="45.06943" lon="6.78333">
        <ele>2063.65</ele>
        <time>2017-01-05T07:55:23Z</time>
      </trkpt>
      <trkpt lat="45.06954" lon="6.78334">
        <ele>2067.24</ele>
        <time>2017-01-05T07:55:26Z</time>
      </trkpt>
      <trkpt lat="45.06967" lon="6.78338">
        <ele>2071.46</ele>
        <time>2017-01-05T07:55:29Z</time>
      </trkpt>
      <trkpt lat="45.06979" lon="6.78336">
        <ele>2075.35</ele>
        <time>2017-01-05T07:55:31Z</time>
      </trkpt>
      <trkpt lat="45.06992" lon="6.78335">
        <ele>2079.35</ele>
        <time>2017-01-05T07:55:33Z</time>
      </trkpt>
      <trkpt lat="45.07002" lon="6.78333">
        <ele>2082.26</ele>
        <time>2017-01-05T07:55:35Z</time>
      </trkpt>
      <trkpt lat="45.07014" lon="6.78332">
        <ele>2084.1</ele>
        <time>2017-01-05T07:55:37Z</time>
      </trkpt>
      <trkpt lat="45.07026" lon="6.78333">
        <ele>2086.52</ele>
        <time>2017-01-05T07:55:39Z</time>
      </trkpt>
      <trkpt lat="45.07045" lon="6.78338">
        <ele>2089.37</ele>
        <time>2017-01-05T07:55:43Z</time>
      </trkpt>
      <trkpt lat="45.0706" lon="6.78336">
        <ele>2091.41</ele>
        <time>2017-01-05T07:55:45Z</time>
      </trkpt>
      <trkpt lat="45.07073" lon="6.78335">
        <ele>2094.5</ele>
        <time>2017-01-05T07:55:47Z</time>
      </trkpt>
      <trkpt lat="45.07084" lon="6.78333">
        <ele>2097.23</ele>
        <time>2017-01-05T07:55:49Z</time>
      </trkpt>
      <trkpt lat="45.07097" lon="6.78335">
        <ele>2101.19</ele>
        <time>2017-01-05T07:55:51Z</time>
      </trkpt>
      <trkpt lat="45.07113" lon="6.78334">
        <ele>2105.64</ele>
        <time>2017-01-05T07:55:53Z</time>
      </trkpt>
      <trkpt lat="45.07125" lon="6.78336">
        <ele>2109.54</ele>
        <time>2017-01-05T07:55:55Z</time>
      </trkpt>
      <trkpt lat="45.07136" lon="6.7834">
        <ele>2113.24</ele>
        <time>2017-01-05T07:55:57Z</time>
      </trkpt>
      <trkpt lat="45.07146" lon="6.78343">
        <ele>2117.09</ele>
        <time>2017-01-05T07:56:00Z</time>
      </trkpt>
      <trkpt lat="45.07156" lon="6.78346">
        <ele>2121.55</ele>
        <time>2017-01-05T07:56:02Z</time>
      </trkpt>
      <trkpt lat="45.07168" lon="6.7835">
        <ele>2126.88</ele>
        <time>2017-01-05T07:56:04Z</time>
      </trkpt>
      <trkpt lat="45.07181" lon="6.78347">
        <ele>2131.01</ele>
        <time>2017-01-05T07:56:07Z</time>
      </trkpt>
      <trkpt lat="45.07196" lon="6.78327">
        <ele>2129.82</ele>
        <time>2017-01-05T07:56:12Z</time>
      </trkpt>
      <trkpt lat="45.07205" lon="6.78314">
        <ele>2128.56</ele>
        <time>2017-01-05T07:56:15Z</time>
      </trkpt>
      <trkpt lat="45.07212" lon="6.78304">
        <ele>2129.06</ele>
        <time>2017-01-05T07:56:17Z</time>
      </trkpt>
      <trkpt lat="45.07221" lon="6.78294">
        <ele>2130.23</ele>
        <time>2017-01-05T07:56:19Z</time>
      </trkpt>
      <trkpt lat="45.07229" lon="6.78286">
        <ele>2131.97</ele>
        <time>2017-01-05T07:56:21Z</time>
      </trkpt>
      <trkpt lat="45.07238" lon="6.78276">
        <ele>2134.3</ele>
        <time>2017-01-05T07:56:23Z</time>
      </trkpt>
      <trkpt lat="45.07257" lon="6.78263">
        <ele>2141.6</ele>
        <time>2017-01-05T07:56:28Z</time>
      </trkpt>
      <trkpt lat="45.07268" lon="6.7826">
        <ele>2145.98</ele>
        <time>2017-01-05T07:56:30Z</time>
      </trkpt>
      <trkpt lat="45.07278" lon="6.78258">
        <ele>2150.87</ele>
        <time>2017-01-05T07:56:33Z</time>
      </trkpt>
      <trkpt lat="45.07289" lon="6.78249">
        <ele>2154.47</ele>
        <time>2017-01-05T07:56:35Z</time>
      </trkpt>
      <trkpt lat="45.07302" lon="6.78228">
        <ele>2159.82</ele>
        <time>2017-01-05T07:56:39Z</time>
      </trkpt>
      <trkpt lat="45.07308" lon="6.7821">
        <ele>2160.1</ele>
        <time>2017-01-05T07:56:41Z</time>
      </trkpt>
      <trkpt lat="45.07314" lon="6.78196">
        <ele>2159.91</ele>
        <time>2017-01-05T07:56:43Z</time>
      </trkpt>
      <trkpt lat="45.0732" lon="6.78177">
        <ele>2157.49</ele>
        <time>2017-01-05T07:56:46Z</time>
      </trkpt>
      <trkpt lat="45.07326" lon="6.78165">
        <ele>2156.65</ele>
        <time>2017-01-05T07:56:48Z</time>
      </trkpt>
      <trkpt lat="45.07335" lon="6.78158">
        <ele>2158.54</ele>
        <time>2017-01-05T07:56:50Z</time>
      </trkpt>
      <trkpt lat="45.07346" lon="6.78148">
        <ele>2160.88</ele>
        <time>2017-01-05T07:56:53Z</time>
      </trkpt>
      <trkpt lat="45.0736" lon="6.78143">
        <ele>2166.21</ele>
        <time>2017-01-05T07:56:56Z</time>
      </trkpt>
      <trkpt lat="45.07367" lon="6.78134">
        <ele>2168.32</ele>
        <time>2017-01-05T07:56:58Z</time>
      </trkpt>
      <trkpt lat="45.07374" lon="6.7812">
        <ele>2169.06</ele>
        <time>2017-01-05T07:57:00Z</time>
      </trkpt>
      <trkpt lat="45.0738" lon="6.78107">
        <ele>2169.55</ele>
        <time>2017-01-05T07:57:02Z</time>
      </trkpt>
      <trkpt lat="45.07389" lon="6.78099">
        <ele>2172.36</ele>
        <time>2017-01-05T07:57:04Z</time>
      </trkpt>
      <trkpt lat="45.07396" lon="6.78089">
        <ele>2173.51</ele>
        <time>2017-01-05T07:57:06Z</time>
      </trkpt>
      <trkpt lat="45.07407" lon="6.78076">
        <ele>2175.68</ele>
        <time>2017-01-05T07:57:09Z</time>
      </trkpt>
      <trkpt lat="45.0741" lon="6.78063">
        <ele>2175.37</ele>
        <time>2017-01-05T07:57:11Z</time>
      </trkpt>
      <trkpt lat="45.07412" lon="6.78047">
        <ele>2175.39</ele>
        <time>2017-01-05T07:57:13Z</time>
      </trkpt>
      <trkpt lat="45.07414" lon="6.78032">
        <ele>2175.51</ele>
        <time>2017-01-05T07:57:15Z</time>
      </trkpt>
      <trkpt lat="45.07414" lon="6.78014">
        <ele>2175.57</ele>
        <time>2017-01-05T07:57:19Z</time>
      </trkpt>
      <trkpt lat="45.07412" lon="6.78">
        <ele>2174.56</ele>
        <time>2017-01-05T07:57:21Z</time>
      </trkpt>
      <trkpt lat="45.07414" lon="6.77984">
        <ele>2176.66</ele>
        <time>2017-01-05T07:57:23Z</time>
      </trkpt>
      <trkpt lat="45.07414" lon="6.77968">
        <ele>2177.99</ele>
        <time>2017-01-05T07:57:24Z</time>
      </trkpt>
      <trkpt lat="45.07407" lon="6.77956">
        <ele>2177.25</ele>
        <time>2017-01-05T07:57:26Z</time>
      </trkpt>
      <trkpt lat="45.07401" lon="6.77943">
        <ele>2176.85</ele>
        <time>2017-01-05T07:57:28Z</time>
      </trkpt>
      <trkpt lat="45.07395" lon="6.77931">
        <ele>2176.41</ele>
        <time>2017-01-05T07:57:30Z</time>
      </trkpt>
      <trkpt lat="45.07393" lon="6.77901">
        <ele>2179.98</ele>
        <time>2017-01-05T07:57:35Z</time>
      </trkpt>
      <trkpt lat="45.07398" lon="6.77886">
        <ele>2184.39</ele>
        <time>2017-01-05T07:57:37Z</time>
      </trkpt>
      <trkpt lat="45.07399" lon="6.7787">
        <ele>2185.71</ele>
        <time>2017-01-05T07:57:39Z</time>
      </trkpt>
      <trkpt lat="45.07402" lon="6.77856">
        <ele>2187.68</ele>
        <time>2017-01-05T07:57:41Z</time>
      </trkpt>
      <trkpt lat="45.07405" lon="6.77843">
        <ele>2189.82</ele>
        <time>2017-01-05T07:57:43Z</time>
      </trkpt>
      <trkpt lat="45.07405" lon="6.77827">
        <ele>2190.66</ele>
        <time>2017-01-05T07:57:45Z</time>
      </trkpt>
      <trkpt lat="45.07405" lon="6.77811">
        <ele>2191.76</ele>
        <time>2017-01-05T07:57:47Z</time>
      </trkpt>
      <trkpt lat="45.07402" lon="6.77792">
        <ele>2191.94</ele>
        <time>2017-01-05T07:57:50Z</time>
      </trkpt>
      <trkpt lat="45.07407" lon="6.77766">
        <ele>2194.83</ele>
        <time>2017-01-05T07:57:54Z</time>
      </trkpt>
      <trkpt lat="45.07414" lon="6.7775">
        <ele>2196.3</ele>
        <time>2017-01-05T07:57:57Z</time>
      </trkpt>
      <trkpt lat="45.07418" lon="6.77737">
        <ele>2196.92</ele>
        <time>2017-01-05T07:57:59Z</time>
      </trkpt>
      <trkpt lat="45.07424" lon="6.77724">
        <ele>2198.08</ele>
        <time>2017-01-05T07:58:01Z</time>
      </trkpt>
      <trkpt lat="45.07431" lon="6.7771">
        <ele>2200.64</ele>
        <time>2017-01-05T07:58:04Z</time>
      </trkpt>
      <trkpt lat="45.07441" lon="6.77683">
        <ele>2202.99</ele>
        <time>2017-01-05T07:58:09Z</time>
      </trkpt>
      <trkpt lat="45.07448" lon="6.77671">
        <ele>2204.15</ele>
        <time>2017-01-05T07:58:12Z</time>
      </trkpt>
      <trkpt lat="45.07458" lon="6.77664">
        <ele>2206.95</ele>
        <time>2017-01-05T07:58:15Z</time>
      </trkpt>
      <trkpt lat="45.07464" lon="6.77675">
        <ele>2208.45</ele>
        <time>2017-01-05T07:58:18Z</time>
      </trkpt>
      <trkpt lat="45.07462" lon="6.77691">
        <ele>2207.81</ele>
        <time>2017-01-05T07:58:21Z</time>
      </trkpt>
      <trkpt lat="45.07465" lon="6.77707">
        <ele>2208.53</ele>
        <time>2017-01-05T07:58:24Z</time>
      </trkpt>
      <trkpt lat="45.0748" lon="6.77732">
        <ele>2212.69</ele>
        <time>2017-01-05T07:58:29Z</time>
      </trkpt>
      <trkpt lat="45.07486" lon="6.77744">
        <ele>2215.01</ele>
        <time>2017-01-05T07:58:31Z</time>
      </trkpt>
      <trkpt lat="45.07496" lon="6.77765">
        <ele>2219.47</ele>
        <time>2017-01-05T07:58:34Z</time>
      </trkpt>
      <trkpt lat="45.07507" lon="6.77748">
        <ele>2221.72</ele>
        <time>2017-01-05T07:58:41Z</time>
      </trkpt>
      <trkpt lat="45.07506" lon="6.77732">
        <ele>2220.27</ele>
        <time>2017-01-05T07:58:45Z</time>
      </trkpt>
      <trkpt lat="45.07519" lon="6.77705">
        <ele>2225.49</ele>
        <time>2017-01-05T07:58:51Z</time>
      </trkpt>
      <trkpt lat="45.07528" lon="6.77674">
        <ele>2229.12</ele>
        <time>2017-01-05T07:58:56Z</time>
      </trkpt>
      <trkpt lat="45.07528" lon="6.77642">
        <ele>2227.38</ele>
        <time>2017-01-05T07:59:00Z</time>
      </trkpt>
      <trkpt lat="45.0753" lon="6.77625">
        <ele>2226.82</ele>
        <time>2017-01-05T07:59:02Z</time>
      </trkpt>
      <trkpt lat="45.07527" lon="6.77611">
        <ele>2223.72</ele>
        <time>2017-01-05T07:59:04Z</time>
      </trkpt>
      <trkpt lat="45.07528" lon="6.77593">
        <ele>2224.59</ele>
        <time>2017-01-05T07:59:06Z</time>
      </trkpt>
      <trkpt lat="45.07527" lon="6.77574">
        <ele>2226.19</ele>
        <time>2017-01-05T07:59:08Z</time>
      </trkpt>
      <trkpt lat="45.07525" lon="6.77556">
        <ele>2228.25</ele>
        <time>2017-01-05T07:59:10Z</time>
      </trkpt>
      <trkpt lat="45.07515" lon="6.77546">
        <ele>2226.82</ele>
        <time>2017-01-05T07:59:12Z</time>
      </trkpt>
      <trkpt lat="45.07508" lon="6.77531">
        <ele>2226.69</ele>
        <time>2017-01-05T07:59:14Z</time>
      </trkpt>
      <trkpt lat="45.07497" lon="6.7752">
        <ele>2225.4</ele>
        <time>2017-01-05T07:59:16Z</time>
      </trkpt>
      <trkpt lat="45.07486" lon="6.77515">
        <ele>2224.34</ele>
        <time>2017-01-05T07:59:18Z</time>
      </trkpt>
      <trkpt lat="45.07472" lon="6.77513">
        <ele>2222.64</ele>
        <time>2017-01-05T07:59:20Z</time>
      </trkpt>
      <trkpt lat="45.07463" lon="6.77506">
        <ele>2222.61</ele>
        <time>2017-01-05T07:59:22Z</time>
      </trkpt>
      <trkpt lat="45.07446" lon="6.77487">
        <ele>2225.35</ele>
        <time>2017-01-05T07:59:27Z</time>
      </trkpt>
      <trkpt lat="45.07439" lon="6.77477">
        <ele>2226.55</ele>
        <time>2017-01-05T07:59:29Z</time>
      </trkpt>
      <trkpt lat="45.0743" lon="6.77465">
        <ele>2225.22</ele>
        <time>2017-01-05T07:59:31Z</time>
      </trkpt>
      <trkpt lat="45.07422" lon="6.7745">
        <ele>2223.58</ele>
        <time>2017-01-05T07:59:33Z</time>
      </trkpt>
      <trkpt lat="45.07415" lon="6.77434">
        <ele>2221.64</ele>
        <time>2017-01-05T07:59:35Z</time>
      </trkpt>
      <trkpt lat="45.07413" lon="6.77419">
        <ele>2221.13</ele>
        <time>2017-01-05T07:59:37Z</time>
      </trkpt>
      <trkpt lat="45.07409" lon="6.77403">
        <ele>2220.85</ele>
        <time>2017-01-05T07:59:39Z</time>
      </trkpt>
      <trkpt lat="45.07407" lon="6.77385">
        <ele>2221.22</ele>
        <time>2017-01-05T07:59:41Z</time>
      </trkpt>
      <trkpt lat="45.07409" lon="6.77369">
        <ele>2222.66</ele>
        <time>2017-01-05T07:59:43Z</time>
      </trkpt>
      <trkpt lat="45.07407" lon="6.77353">
        <ele>2223.08</ele>
        <time>2017-01-05T07:59:45Z</time>
      </trkpt>
      <trkpt lat="45.07404" lon="6.77337">
        <ele>2223.15</ele>
        <time>2017-01-05T07:59:47Z</time>
      </trkpt>
      <trkpt lat="45.07401" lon="6.77319">
        <ele>2224.2</ele>
        <time>2017-01-05T07:59:50Z</time>
      </trkpt>
      <trkpt lat="45.07392" lon="6.77309">
        <ele>2223.29</ele>
        <time>2017-01-05T07:59:53Z</time>
      </trkpt>
      <trkpt lat="45.07383" lon="6.77297">
        <ele>2222.46</ele>
        <time>2017-01-05T07:59:55Z</time>
      </trkpt>
      <trkpt lat="45.07376" lon="6.77281">
        <ele>2222.8</ele>
        <time>2017-01-05T07:59:57Z</time>
      </trkpt>
      <trkpt lat="45.07367" lon="6.77268">
        <ele>2222.17</ele>
        <time>2017-01-05T07:59:59Z</time>
      </trkpt>
      <trkpt lat="45.07359" lon="6.77254">
        <ele>2221.28</ele>
        <time>2017-01-05T08:00:01Z</time>
      </trkpt>
      <trkpt lat="45.07352" lon="6.77241">
        <ele>2221.71</ele>
        <time>2017-01-05T08:00:03Z</time>
      </trkpt>
      <trkpt lat="45.07344" lon="6.77229">
        <ele>2222.07</ele>
        <time>2017-01-05T08:00:05Z</time>
      </trkpt>
      <trkpt lat="45.07336" lon="6.77217">
        <ele>2223.14</ele>
        <time>2017-01-05T08:00:07Z</time>
      </trkpt>
      <trkpt lat="45.07327" lon="6.77207">
        <ele>2223.06</ele>
        <time>2017-01-05T08:00:09Z</time>
      </trkpt>
      <trkpt lat="45.07321" lon="6.77189">
        <ele>2223.11</ele>
        <time>2017-01-05T08:00:10Z</time>
      </trkpt>
      <trkpt lat="45.07315" lon="6.77173">
        <ele>2220.28</ele>
        <time>2017-01-05T08:00:12Z</time>
      </trkpt>
      <trkpt lat="45.07312" lon="6.77152">
        <ele>2219.03</ele>
        <time>2017-01-05T08:00:14Z</time>
      </trkpt>
      <trkpt lat="45.07309" lon="6.77135">
        <ele>2218.74</ele>
        <time>2017-01-05T08:00:17Z</time>
      </trkpt>
      <trkpt lat="45.07314" lon="6.77121">
        <ele>2221.8</ele>
        <time>2017-01-05T08:00:19Z</time>
      </trkpt>
      <trkpt lat="45.07321" lon="6.77108">
        <ele>2224.74</ele>
        <time>2017-01-05T08:00:21Z</time>
      </trkpt>
      <trkpt lat="45.07322" lon="6.77089">
        <ele>2226.12</ele>
        <time>2017-01-05T08:00:23Z</time>
      </trkpt>
      <trkpt lat="45.07306" lon="6.77083">
        <ele>2223.18</ele>
        <time>2017-01-05T08:00:26Z</time>
      </trkpt>
      <trkpt lat="45.07292" lon="6.77089">
        <ele>2218.58</ele>
        <time>2017-01-05T08:00:28Z</time>
      </trkpt>
      <trkpt lat="45.07287" lon="6.77075">
        <ele>2218.29</ele>
        <time>2017-01-05T08:00:31Z</time>
      </trkpt>
      <trkpt lat="45.07281" lon="6.77057">
        <ele>2218.31</ele>
        <time>2017-01-05T08:00:33Z</time>
      </trkpt>
      <trkpt lat="45.07276" lon="6.77041">
        <ele>2218.66</ele>
        <time>2017-01-05T08:00:35Z</time>
      </trkpt>
      <trkpt lat="45.07273" lon="6.77009">
        <ele>2220.3</ele>
        <time>2017-01-05T08:00:39Z</time>
      </trkpt>
      <trkpt lat="45.07272" lon="6.76988">
        <ele>2222.51</ele>
        <time>2017-01-05T08:00:41Z</time>
      </trkpt>
      <trkpt lat="45.07269" lon="6.76973">
        <ele>2223.64</ele>
        <time>2017-01-05T08:00:43Z</time>
      </trkpt>
      <trkpt lat="45.07263" lon="6.7696">
        <ele>2223.85</ele>
        <time>2017-01-05T08:00:45Z</time>
      </trkpt>
      <trkpt lat="45.07253" lon="6.7695">
        <ele>2221.14</ele>
        <time>2017-01-05T08:00:47Z</time>
      </trkpt>
      <trkpt lat="45.07242" lon="6.7694">
        <ele>2218.49</ele>
        <time>2017-01-05T08:00:49Z</time>
      </trkpt>
      <trkpt lat="45.07226" lon="6.76921">
        <ele>2218.36</ele>
        <time>2017-01-05T08:00:53Z</time>
      </trkpt>
      <trkpt lat="45.07218" lon="6.7691">
        <ele>2217.96</ele>
        <time>2017-01-05T08:00:55Z</time>
      </trkpt>
      <trkpt lat="45.07206" lon="6.76888">
        <ele>2217.41</ele>
        <time>2017-01-05T08:00:59Z</time>
      </trkpt>
      <trkpt lat="45.07198" lon="6.76879">
        <ele>2216.78</ele>
        <time>2017-01-05T08:01:01Z</time>
      </trkpt>
      <trkpt lat="45.0719" lon="6.76869">
        <ele>2216.76</ele>
        <time>2017-01-05T08:01:03Z</time>
      </trkpt>
      <trkpt lat="45.0718" lon="6.76856">
        <ele>2218.6</ele>
        <time>2017-01-05T08:01:05Z</time>
      </trkpt>
      <trkpt lat="45.07172" lon="6.76842">
        <ele>2220.75</ele>
        <time>2017-01-05T08:01:07Z</time>
      </trkpt>
      <trkpt lat="45.07163" lon="6.76831">
        <ele>2221.79</ele>
        <time>2017-01-05T08:01:09Z</time>
      </trkpt>
      <trkpt lat="45.07156" lon="6.76821">
        <ele>2221.94</ele>
        <time>2017-01-05T08:01:11Z</time>
      </trkpt>
      <trkpt lat="45.07145" lon="6.76809">
        <ele>2221.37</ele>
        <time>2017-01-05T08:01:14Z</time>
      </trkpt>
      <trkpt lat="45.07136" lon="6.76785">
        <ele>2222.4</ele>
        <time>2017-01-05T08:01:18Z</time>
      </trkpt>
      <trkpt lat="45.07131" lon="6.76771">
        <ele>2222.43</ele>
        <time>2017-01-05T08:01:20Z</time>
      </trkpt>
      <trkpt lat="45.07127" lon="6.76757">
        <ele>2223.5</ele>
        <time>2017-01-05T08:01:22Z</time>
      </trkpt>
      <trkpt lat="45.07119" lon="6.76746">
        <ele>2222.42</ele>
        <time>2017-01-05T08:01:24Z</time>
      </trkpt>
      <trkpt lat="45.07109" lon="6.76731">
        <ele>2220.46</ele>
        <time>2017-01-05T08:01:27Z</time>
      </trkpt>
      <trkpt lat="45.0709" lon="6.76719">
        <ele>2215.13</ele>
        <time>2017-01-05T08:01:33Z</time>
      </trkpt>
      <trkpt lat="45.07079" lon="6.76699">
        <ele>2215.38</ele>
        <time>2017-01-05T08:01:37Z</time>
      </trkpt>
      <trkpt lat="45.07071" lon="6.76685">
        <ele>2217.56</ele>
        <time>2017-01-05T08:01:39Z</time>
      </trkpt>
      <trkpt lat="45.07059" lon="6.76683">
        <ele>2216.48</ele>
        <time>2017-01-05T08:01:42Z</time>
      </trkpt>
      <trkpt lat="45.07047" lon="6.76686">
        <ele>2214.07</ele>
        <time>2017-01-05T08:01:46Z</time>
      </trkpt>
      <trkpt lat="45.07036" lon="6.7669">
        <ele>2211.96</ele>
        <time>2017-01-05T08:01:49Z</time>
      </trkpt>
      <trkpt lat="45.07025" lon="6.76694">
        <ele>2209.92</ele>
        <time>2017-01-05T08:01:51Z</time>
      </trkpt>
      <trkpt lat="45.07007" lon="6.76682">
        <ele>2211.08</ele>
        <time>2017-01-05T08:01:56Z</time>
      </trkpt>
      <trkpt lat="45.06994" lon="6.76676">
        <ele>2210.86</ele>
        <time>2017-01-05T08:01:59Z</time>
      </trkpt>
      <trkpt lat="45.06979" lon="6.76673">
        <ele>2207.73</ele>
        <time>2017-01-05T08:02:01Z</time>
      </trkpt>
      <trkpt lat="45.06968" lon="6.7667">
        <ele>2205.19</ele>
        <time>2017-01-05T08:02:04Z</time>
      </trkpt>
      <trkpt lat="45.06959" lon="6.7666">
        <ele>2203.96</ele>
        <time>2017-01-05T08:02:06Z</time>
      </trkpt>
      <trkpt lat="45.06954" lon="6.76647">
        <ele>2204.14</ele>
        <time>2017-01-05T08:02:08Z</time>
      </trkpt>
      <trkpt lat="45.06946" lon="6.76631">
        <ele>2203.17</ele>
        <time>2017-01-05T08:02:10Z</time>
      </trkpt>
      <trkpt lat="45.06943" lon="6.76614">
        <ele>2204.64</ele>
        <time>2017-01-05T08:02:12Z</time>
      </trkpt>
      <trkpt lat="45.06938" lon="6.76601">
        <ele>2204.59</ele>
        <time>2017-01-05T08:02:13Z</time>
      </trkpt>
      <trkpt lat="45.06933" lon="6.76589">
        <ele>2203.67</ele>
        <time>2017-01-05T08:02:34Z</time>
      </trkpt>
      <trkpt lat="45.06924" lon="6.76565">
        <ele>2203.63</ele>
        <time>2017-01-05T08:03:01Z</time>
      </trkpt>
      <trkpt lat="45.06918" lon="6.76535">
        <ele>2206.21</ele>
        <time>2017-01-05T08:03:06Z</time>
      </trkpt>
      <trkpt lat="45.06917" lon="6.76518">
        <ele>2208.99</ele>
        <time>2017-01-05T08:03:08Z</time>
      </trkpt>
      <trkpt lat="45.06915" lon="6.76502">
        <ele>2210.93</ele>
        <time>2017-01-05T08:03:11Z</time>
      </trkpt>
      <trkpt lat="45.06911" lon="6.76487">
        <ele>2212.04</ele>
        <time>2017-01-05T08:03:14Z</time>
      </trkpt>
      <trkpt lat="45.06905" lon="6.76475">
        <ele>2211.72</ele>
        <time>2017-01-05T08:03:17Z</time>
      </trkpt>
      <trkpt lat="45.06897" lon="6.76463">
        <ele>2210.86</ele>
        <time>2017-01-05T08:03:20Z</time>
      </trkpt>
      <trkpt lat="45.06889" lon="6.76453">
        <ele>2210.26</ele>
        <time>2017-01-05T08:03:24Z</time>
      </trkpt>
      <trkpt lat="45.06882" lon="6.76444">
        <ele>2210.23</ele>
        <time>2017-01-05T08:03:27Z</time>
      </trkpt>
      <trkpt lat="45.06873" lon="6.76436">
        <ele>2208.14</ele>
        <time>2017-01-05T08:03:30Z</time>
      </trkpt>
      <trkpt lat="45.06863" lon="6.76429">
        <ele>2205.84</ele>
        <time>2017-01-05T08:03:34Z</time>
      </trkpt>
      <trkpt lat="45.06854" lon="6.76421">
        <ele>2204.62</ele>
        <time>2017-01-05T08:03:38Z</time>
      </trkpt>
      <trkpt lat="45.06846" lon="6.76411">
        <ele>2203.01</ele>
        <time>2017-01-05T08:03:42Z</time>
      </trkpt>
      <trkpt lat="45.06831" lon="6.76394">
        <ele>2201.06</ele>
        <time>2017-01-05T08:03:48Z</time>
      </trkpt>
      <trkpt lat="45.06822" lon="6.76385">
        <ele>2201.48</ele>
        <time>2017-01-05T08:03:53Z</time>
      </trkpt>
      <trkpt lat="45.06821" lon="6.76379">
        <ele>2202.03</ele>
        <time>2017-01-05T08:23:29Z</time>
      </trkpt>
      <trkpt lat="45.06827" lon="6.76354">
        <ele>2203.27</ele>
        <time>2017-01-05T08:23:34Z</time>
      </trkpt>
      <trkpt lat="45.06843" lon="6.76341">
        <ele>2204.03</ele>
        <time>2017-01-05T08:23:38Z</time>
      </trkpt>
      <trkpt lat="45.06852" lon="6.76332">
        <ele>2204.42</ele>
        <time>2017-01-05T08:23:40Z</time>
      </trkpt>
      <trkpt lat="45.06857" lon="6.7632">
        <ele>2203</ele>
        <time>2017-01-05T08:23:42Z</time>
      </trkpt>
      <trkpt lat="45.06867" lon="6.7631">
        <ele>2203.72</ele>
        <time>2017-01-05T08:23:44Z</time>
      </trkpt>
      <trkpt lat="45.06876" lon="6.76301">
        <ele>2204.94</ele>
        <time>2017-01-05T08:23:46Z</time>
      </trkpt>
      <trkpt lat="45.06884" lon="6.76281">
        <ele>2203.43</ele>
        <time>2017-01-05T08:23:48Z</time>
      </trkpt>
      <trkpt lat="45.06889" lon="6.76269">
        <ele>2203.82</ele>
        <time>2017-01-05T08:23:50Z</time>
      </trkpt>
      <trkpt lat="45.06896" lon="6.76258">
        <ele>2205.95</ele>
        <time>2017-01-05T08:23:53Z</time>
      </trkpt>
      <trkpt lat="45.06914" lon="6.76249">
        <ele>2213.09</ele>
        <time>2017-01-05T08:24:07Z</time>
      </trkpt>
      <trkpt lat="45.06922" lon="6.76224">
        <ele>2211.39</ele>
        <time>2017-01-05T08:24:20Z</time>
      </trkpt>
      <trkpt lat="45.06922" lon="6.76197">
        <ele>2206.99</ele>
        <time>2017-01-05T08:24:29Z</time>
      </trkpt>
      <trkpt lat="45.06925" lon="6.76179">
        <ele>2205.93</ele>
        <time>2017-01-05T08:24:32Z</time>
      </trkpt>
      <trkpt lat="45.06929" lon="6.76162">
        <ele>2205.21</ele>
        <time>2017-01-05T08:24:35Z</time>
      </trkpt>
      <trkpt lat="45.06933" lon="6.76145">
        <ele>2202.93</ele>
        <time>2017-01-05T08:24:38Z</time>
      </trkpt>
      <trkpt lat="45.06939" lon="6.76129">
        <ele>2201.49</ele>
        <time>2017-01-05T08:24:41Z</time>
      </trkpt>
      <trkpt lat="45.06947" lon="6.7612">
        <ele>2202.14</ele>
        <time>2017-01-05T08:24:44Z</time>
      </trkpt>
      <trkpt lat="45.06946" lon="6.76094">
        <ele>2194.6</ele>
        <time>2017-01-05T08:25:38Z</time>
      </trkpt>
      <trkpt lat="45.06955" lon="6.76086">
        <ele>2194.46</ele>
        <time>2017-01-05T08:25:41Z</time>
      </trkpt>
      <trkpt lat="45.06967" lon="6.76075">
        <ele>2194.36</ele>
        <time>2017-01-05T08:25:43Z</time>
      </trkpt>
      <trkpt lat="45.06978" lon="6.76071">
        <ele>2195.34</ele>
        <time>2017-01-05T08:25:46Z</time>
      </trkpt>
      <trkpt lat="45.06997" lon="6.76075">
        <ele>2198.11</ele>
        <time>2017-01-05T08:25:52Z</time>
      </trkpt>
      <trkpt lat="45.07009" lon="6.76077">
        <ele>2199.53</ele>
        <time>2017-01-05T08:25:56Z</time>
      </trkpt>
      <trkpt lat="45.0702" lon="6.76078">
        <ele>2200.52</ele>
        <time>2017-01-05T08:25:59Z</time>
      </trkpt>
      <trkpt lat="45.07032" lon="6.76078">
        <ele>2201.83</ele>
        <time>2017-01-05T08:26:02Z</time>
      </trkpt>
      <trkpt lat="45.07051" lon="6.76081">
        <ele>2207.04</ele>
        <time>2017-01-05T08:26:06Z</time>
      </trkpt>
      <trkpt lat="45.07061" lon="6.76082">
        <ele>2209.73</ele>
        <time>2017-01-05T08:26:08Z</time>
      </trkpt>
      <trkpt lat="45.07078" lon="6.76075">
        <ele>2210.38</ele>
        <time>2017-01-05T08:26:13Z</time>
      </trkpt>
      <trkpt lat="45.07098" lon="6.76065">
        <ele>2213.18</ele>
        <time>2017-01-05T08:26:19Z</time>
      </trkpt>
      <trkpt lat="45.07106" lon="6.76055">
        <ele>2213.3</ele>
        <time>2017-01-05T08:26:23Z</time>
      </trkpt>
      <trkpt lat="45.07109" lon="6.76041">
        <ele>2210.78</ele>
        <time>2017-01-05T08:26:26Z</time>
      </trkpt>
      <trkpt lat="45.07111" lon="6.76025">
        <ele>2207.05</ele>
        <time>2017-01-05T08:26:28Z</time>
      </trkpt>
      <trkpt lat="45.07115" lon="6.76009">
        <ele>2204.07</ele>
        <time>2017-01-05T08:26:30Z</time>
      </trkpt>
      <trkpt lat="45.07118" lon="6.75994">
        <ele>2200.82</ele>
        <time>2017-01-05T08:26:32Z</time>
      </trkpt>
      <trkpt lat="45.07121" lon="6.75978">
        <ele>2197.25</ele>
        <time>2017-01-05T08:26:34Z</time>
      </trkpt>
      <trkpt lat="45.07123" lon="6.75961">
        <ele>2193.56</ele>
        <time>2017-01-05T08:26:36Z</time>
      </trkpt>
      <trkpt lat="45.07129" lon="6.75932">
        <ele>2191.59</ele>
        <time>2017-01-05T08:26:40Z</time>
      </trkpt>
      <trkpt lat="45.07137" lon="6.75925">
        <ele>2196.69</ele>
        <time>2017-01-05T08:26:42Z</time>
      </trkpt>
      <trkpt lat="45.07139" lon="6.75911">
        <ele>2196.76</ele>
        <time>2017-01-05T08:26:44Z</time>
      </trkpt>
      <trkpt lat="45.07142" lon="6.75893">
        <ele>2196.45</ele>
        <time>2017-01-05T08:26:47Z</time>
      </trkpt>
      <trkpt lat="45.07136" lon="6.75879">
        <ele>2190.22</ele>
        <time>2017-01-05T08:26:49Z</time>
      </trkpt>
      <trkpt lat="45.07135" lon="6.75864">
        <ele>2186.47</ele>
        <time>2017-01-05T08:26:51Z</time>
      </trkpt>
      <trkpt lat="45.0714" lon="6.7585">
        <ele>2188.18</ele>
        <time>2017-01-05T08:26:53Z</time>
      </trkpt>
      <trkpt lat="45.07151" lon="6.75826">
        <ele>2189.79</ele>
        <time>2017-01-05T08:26:56Z</time>
      </trkpt>
      <trkpt lat="45.07166" lon="6.75801">
        <ele>2192.48</ele>
        <time>2017-01-05T08:27:01Z</time>
      </trkpt>
      <trkpt lat="45.07175" lon="6.75787">
        <ele>2197.49</ele>
        <time>2017-01-05T08:27:04Z</time>
      </trkpt>
      <trkpt lat="45.07179" lon="6.7577">
        <ele>2198.8</ele>
        <time>2017-01-05T08:27:06Z</time>
      </trkpt>
      <trkpt lat="45.07181" lon="6.75754">
        <ele>2199.82</ele>
        <time>2017-01-05T08:27:09Z</time>
      </trkpt>
      <trkpt lat="45.07182" lon="6.75738">
        <ele>2198.23</ele>
        <time>2017-01-05T08:27:12Z</time>
      </trkpt>
      <trkpt lat="45.07181" lon="6.75721">
        <ele>2194.86</ele>
        <time>2017-01-05T08:27:15Z</time>
      </trkpt>
      <trkpt lat="45.07183" lon="6.75704">
        <ele>2192.36</ele>
        <time>2017-01-05T08:27:20Z</time>
      </trkpt>
      <trkpt lat="45.07182" lon="6.75685">
        <ele>2186.39</ele>
        <time>2017-01-05T08:27:23Z</time>
      </trkpt>
      <trkpt lat="45.07178" lon="6.75654">
        <ele>2176.04</ele>
        <time>2017-01-05T08:27:27Z</time>
      </trkpt>
      <trkpt lat="45.07198" lon="6.75634">
        <ele>2184.16</ele>
        <time>2017-01-05T08:27:32Z</time>
      </trkpt>
      <trkpt lat="45.07208" lon="6.75624">
        <ele>2188.84</ele>
        <time>2017-01-05T08:27:35Z</time>
      </trkpt>
      <trkpt lat="45.0722" lon="6.75617">
        <ele>2194.52</ele>
        <time>2017-01-05T08:27:37Z</time>
      </trkpt>
      <trkpt lat="45.0723" lon="6.75611">
        <ele>2194.89</ele>
        <time>2017-01-05T08:27:39Z</time>
      </trkpt>
      <trkpt lat="45.07241" lon="6.75607">
        <ele>2194.78</ele>
        <time>2017-01-05T08:27:41Z</time>
      </trkpt>
      <trkpt lat="45.0725" lon="6.75596">
        <ele>2192.54</ele>
        <time>2017-01-05T08:27:43Z</time>
      </trkpt>
      <trkpt lat="45.07259" lon="6.75586">
        <ele>2190.24</ele>
        <time>2017-01-05T08:27:45Z</time>
      </trkpt>
      <trkpt lat="45.07267" lon="6.75576">
        <ele>2187.35</ele>
        <time>2017-01-05T08:27:47Z</time>
      </trkpt>
      <trkpt lat="45.07277" lon="6.7557">
        <ele>2186.08</ele>
        <time>2017-01-05T08:27:49Z</time>
      </trkpt>
      <trkpt lat="45.07289" lon="6.75565">
        <ele>2185.4</ele>
        <time>2017-01-05T08:27:52Z</time>
      </trkpt>
      <trkpt lat="45.07302" lon="6.7556">
        <ele>2184.47</ele>
        <time>2017-01-05T08:27:55Z</time>
      </trkpt>
      <trkpt lat="45.07313" lon="6.75562">
        <ele>2186.19</ele>
        <time>2017-01-05T08:27:58Z</time>
      </trkpt>
      <trkpt lat="45.07324" lon="6.75564">
        <ele>2188.34</ele>
        <time>2017-01-05T08:28:00Z</time>
      </trkpt>
      <trkpt lat="45.07336" lon="6.75567">
        <ele>2190.52</ele>
        <time>2017-01-05T08:28:02Z</time>
      </trkpt>
      <trkpt lat="45.07356" lon="6.75562">
        <ele>2189.95</ele>
        <time>2017-01-05T08:28:06Z</time>
      </trkpt>
      <trkpt lat="45.07367" lon="6.7556">
        <ele>2190.25</ele>
        <time>2017-01-05T08:28:08Z</time>
      </trkpt>
      <trkpt lat="45.07376" lon="6.75562">
        <ele>2192.8</ele>
        <time>2017-01-05T08:28:09Z</time>
      </trkpt>
      <trkpt lat="45.0739" lon="6.75561">
        <ele>2194.59</ele>
        <time>2017-01-05T08:28:11Z</time>
      </trkpt>
      <trkpt lat="45.074" lon="6.7556">
        <ele>2197.91</ele>
        <time>2017-01-05T08:28:13Z</time>
      </trkpt>
      <trkpt lat="45.07412" lon="6.7555">
        <ele>2198.77</ele>
        <time>2017-01-05T08:28:16Z</time>
      </trkpt>
      <trkpt lat="45.07421" lon="6.75542">
        <ele>2201.03</ele>
        <time>2017-01-05T08:28:19Z</time>
      </trkpt>
      <trkpt lat="45.07436" lon="6.75521">
        <ele>2203.25</ele>
        <time>2017-01-05T08:28:23Z</time>
      </trkpt>
      <trkpt lat="45.07442" lon="6.75505">
        <ele>2203.36</ele>
        <time>2017-01-05T08:28:25Z</time>
      </trkpt>
      <trkpt lat="45.07445" lon="6.75485">
        <ele>2200.97</ele>
        <time>2017-01-05T08:28:27Z</time>
      </trkpt>
      <trkpt lat="45.07449" lon="6.75467">
        <ele>2199.27</ele>
        <time>2017-01-05T08:28:29Z</time>
      </trkpt>
      <trkpt lat="45.07452" lon="6.7545">
        <ele>2198.41</ele>
        <time>2017-01-05T08:28:32Z</time>
      </trkpt>
      <trkpt lat="45.07458" lon="6.75437">
        <ele>2200.36</ele>
        <time>2017-01-05T08:28:35Z</time>
      </trkpt>
      <trkpt lat="45.07462" lon="6.75422">
        <ele>2200.78</ele>
        <time>2017-01-05T08:28:37Z</time>
      </trkpt>
      <trkpt lat="45.07463" lon="6.75406">
        <ele>2198.07</ele>
        <time>2017-01-05T08:28:39Z</time>
      </trkpt>
      <trkpt lat="45.07469" lon="6.75393">
        <ele>2198.36</ele>
        <time>2017-01-05T08:28:42Z</time>
      </trkpt>
      <trkpt lat="45.07472" lon="6.75378">
        <ele>2195.51</ele>
        <time>2017-01-05T08:28:44Z</time>
      </trkpt>
      <trkpt lat="45.07489" lon="6.75361">
        <ele>2198.16</ele>
        <time>2017-01-05T08:28:48Z</time>
      </trkpt>
      <trkpt lat="45.0749" lon="6.75338">
        <ele>2189.39</ele>
        <time>2017-01-05T08:28:50Z</time>
      </trkpt>
      <trkpt lat="45.07497" lon="6.75327">
        <ele>2188.1</ele>
        <time>2017-01-05T08:28:52Z</time>
      </trkpt>
      <trkpt lat="45.07505" lon="6.75314">
        <ele>2186.3</ele>
        <time>2017-01-05T08:28:55Z</time>
      </trkpt>
      <trkpt lat="45.07515" lon="6.75305">
        <ele>2186.07</ele>
        <time>2017-01-05T08:28:57Z</time>
      </trkpt>
      <trkpt lat="45.07525" lon="6.75294">
        <ele>2185.81</ele>
        <time>2017-01-05T08:29:00Z</time>
      </trkpt>
      <trkpt lat="45.07533" lon="6.75285">
        <ele>2185.2</ele>
        <time>2017-01-05T08:29:03Z</time>
      </trkpt>
      <trkpt lat="45.07551" lon="6.75273">
        <ele>2188.7</ele>
        <time>2017-01-05T08:29:10Z</time>
      </trkpt>
      <trkpt lat="45.07561" lon="6.75266">
        <ele>2191.12</ele>
        <time>2017-01-05T08:29:13Z</time>
      </trkpt>
      <trkpt lat="45.07569" lon="6.75257">
        <ele>2191.65</ele>
        <time>2017-01-05T08:29:16Z</time>
      </trkpt>
      <trkpt lat="45.07575" lon="6.75244">
        <ele>2191.13</ele>
        <time>2017-01-05T08:29:19Z</time>
      </trkpt>
      <trkpt lat="45.07595" lon="6.75221">
        <ele>2195.22</ele>
        <time>2017-01-05T08:29:23Z</time>
      </trkpt>
      <trkpt lat="45.07606" lon="6.75209">
        <ele>2199.56</ele>
        <time>2017-01-05T08:30:33Z</time>
      </trkpt>
      <trkpt lat="45.07609" lon="6.75206">
        <ele>2200.58</ele>
        <time>2017-01-05T08:31:48Z</time>
      </trkpt>
      <trkpt lat="45.07609" lon="6.75192">
        <ele>2199.5</ele>
        <time>2017-01-05T08:31:50Z</time>
      </trkpt>
      <trkpt lat="45.07612" lon="6.75165">
        <ele>2199.51</ele>
        <time>2017-01-05T08:31:54Z</time>
      </trkpt>
      <trkpt lat="45.07616" lon="6.75151">
        <ele>2200.49</ele>
        <time>2017-01-05T08:31:56Z</time>
      </trkpt>
      <trkpt lat="45.07616" lon="6.75132">
        <ele>2198.62</ele>
        <time>2017-01-05T08:31:58Z</time>
      </trkpt>
      <trkpt lat="45.07614" lon="6.75113">
        <ele>2194.66</ele>
        <time>2017-01-05T08:32:01Z</time>
      </trkpt>
      <trkpt lat="45.07624" lon="6.751">
        <ele>2197.92</ele>
        <time>2017-01-05T08:32:05Z</time>
      </trkpt>
      <trkpt lat="45.07636" lon="6.75079">
        <ele>2202.71</ele>
        <time>2017-01-05T08:32:09Z</time>
      </trkpt>
      <trkpt lat="45.07637" lon="6.75063">
        <ele>2198.24</ele>
        <time>2017-01-05T08:32:10Z</time>
      </trkpt>
      <trkpt lat="45.07645" lon="6.75033">
        <ele>2193.57</ele>
        <time>2017-01-05T08:32:13Z</time>
      </trkpt>
      <trkpt lat="45.0765" lon="6.75016">
        <ele>2191.93</ele>
        <time>2017-01-05T08:32:15Z</time>
      </trkpt>
      <trkpt lat="45.07654" lon="6.74998">
        <ele>2189.62</ele>
        <time>2017-01-05T08:32:17Z</time>
      </trkpt>
      <trkpt lat="45.0766" lon="6.74983">
        <ele>2191.32</ele>
        <time>2017-01-05T08:32:19Z</time>
      </trkpt>
      <trkpt lat="45.07665" lon="6.74966">
        <ele>2191.41</ele>
        <time>2017-01-05T08:32:21Z</time>
      </trkpt>
      <trkpt lat="45.07673" lon="6.74951">
        <ele>2195.85</ele>
        <time>2017-01-05T08:32:23Z</time>
      </trkpt>
      <trkpt lat="45.07671" lon="6.74922">
        <ele>2196.38</ele>
        <time>2017-01-05T08:32:26Z</time>
      </trkpt>
      <trkpt lat="45.07675" lon="6.74909">
        <ele>2200.66</ele>
        <time>2017-01-05T08:32:28Z</time>
      </trkpt>
      <trkpt lat="45.07674" lon="6.74895">
        <ele>2202.19</ele>
        <time>2017-01-05T08:32:30Z</time>
      </trkpt>
      <trkpt lat="45.07673" lon="6.74879">
        <ele>2202.29</ele>
        <time>2017-01-05T08:32:31Z</time>
      </trkpt>
      <trkpt lat="45.0767" lon="6.74852">
        <ele>2197.51</ele>
        <time>2017-01-05T08:32:36Z</time>
      </trkpt>
      <trkpt lat="45.07669" lon="6.74835">
        <ele>2192.93</ele>
        <time>2017-01-05T08:32:39Z</time>
      </trkpt>
      <trkpt lat="45.07677" lon="6.74806">
        <ele>2189.69</ele>
        <time>2017-01-05T08:32:43Z</time>
      </trkpt>
      <trkpt lat="45.07685" lon="6.74789">
        <ele>2191.69</ele>
        <time>2017-01-05T08:32:46Z</time>
      </trkpt>
      <trkpt lat="45.07684" lon="6.74767">
        <ele>2186.07</ele>
        <time>2017-01-05T08:32:48Z</time>
      </trkpt>
      <trkpt lat="45.07686" lon="6.74736">
        <ele>2180.56</ele>
        <time>2017-01-05T08:32:50Z</time>
      </trkpt>
      <trkpt lat="45.0769" lon="6.74723">
        <ele>2179.92</ele>
        <time>2017-01-05T08:32:52Z</time>
      </trkpt>
      <trkpt lat="45.07698" lon="6.74709">
        <ele>2180.96</ele>
        <time>2017-01-05T08:32:55Z</time>
      </trkpt>
      <trkpt lat="45.07698" lon="6.74693">
        <ele>2178.44</ele>
        <time>2017-01-05T08:32:58Z</time>
      </trkpt>
      <trkpt lat="45.07701" lon="6.7468">
        <ele>2177.72</ele>
        <time>2017-01-05T08:32:59Z</time>
      </trkpt>
      <trkpt lat="45.07704" lon="6.74659">
        <ele>2174.97</ele>
        <time>2017-01-05T08:33:03Z</time>
      </trkpt>
      <trkpt lat="45.07706" lon="6.74643">
        <ele>2171.64</ele>
        <time>2017-01-05T08:33:05Z</time>
      </trkpt>
      <trkpt lat="45.07708" lon="6.74623">
        <ele>2167.44</ele>
        <time>2017-01-05T08:33:07Z</time>
      </trkpt>
      <trkpt lat="45.07712" lon="6.74605">
        <ele>2164.4</ele>
        <time>2017-01-05T08:33:09Z</time>
      </trkpt>
      <trkpt lat="45.0772" lon="6.74593">
        <ele>2164.23</ele>
        <time>2017-01-05T08:33:11Z</time>
      </trkpt>
      <trkpt lat="45.07736" lon="6.74581">
        <ele>2169.73</ele>
        <time>2017-01-05T08:33:15Z</time>
      </trkpt>
      <trkpt lat="45.07743" lon="6.74554">
        <ele>2167.65</ele>
        <time>2017-01-05T08:33:19Z</time>
      </trkpt>
      <trkpt lat="45.07752" lon="6.74542">
        <ele>2169.48</ele>
        <time>2017-01-05T08:33:22Z</time>
      </trkpt>
      <trkpt lat="45.07762" lon="6.74534">
        <ele>2169.35</ele>
        <time>2017-01-05T08:33:24Z</time>
      </trkpt>
      <trkpt lat="45.07773" lon="6.74529">
        <ele>2169.59</ele>
        <time>2017-01-05T08:33:26Z</time>
      </trkpt>
      <trkpt lat="45.07785" lon="6.74523">
        <ele>2169.62</ele>
        <time>2017-01-05T08:33:28Z</time>
      </trkpt>
      <trkpt lat="45.07796" lon="6.74517">
        <ele>2168.81</ele>
        <time>2017-01-05T08:33:30Z</time>
      </trkpt>
      <trkpt lat="45.07812" lon="6.74496">
        <ele>2164.3</ele>
        <time>2017-01-05T08:33:35Z</time>
      </trkpt>
      <trkpt lat="45.07823" lon="6.7449">
        <ele>2164.53</ele>
        <time>2017-01-05T08:33:38Z</time>
      </trkpt>
      <trkpt lat="45.0783" lon="6.74478">
        <ele>2162.39</ele>
        <time>2017-01-05T08:33:40Z</time>
      </trkpt>
      <trkpt lat="45.07842" lon="6.7447">
        <ele>2162.12</ele>
        <time>2017-01-05T08:33:42Z</time>
      </trkpt>
      <trkpt lat="45.07849" lon="6.74459">
        <ele>2160.31</ele>
        <time>2017-01-05T08:33:44Z</time>
      </trkpt>
      <trkpt lat="45.07867" lon="6.74448">
        <ele>2158.78</ele>
        <time>2017-01-05T08:33:48Z</time>
      </trkpt>
      <trkpt lat="45.07881" lon="6.7444">
        <ele>2156.71</ele>
        <time>2017-01-05T08:33:50Z</time>
      </trkpt>
      <trkpt lat="45.07891" lon="6.74431">
        <ele>2154.68</ele>
        <time>2017-01-05T08:33:52Z</time>
      </trkpt>
      <trkpt lat="45.07899" lon="6.74436">
        <ele>2158.51</ele>
        <time>2017-01-05T08:35:41Z</time>
      </trkpt>
      <trkpt lat="45.07891" lon="6.74411">
        <ele>2147.77</ele>
        <time>2017-01-05T08:36:02Z</time>
      </trkpt>
      <trkpt lat="45.07876" lon="6.74381">
        <ele>2138.3</ele>
        <time>2017-01-05T08:36:08Z</time>
      </trkpt>
      <trkpt lat="45.0789" lon="6.74401">
        <ele>2144.67</ele>
        <time>2017-01-05T08:36:19Z</time>
      </trkpt>
      <trkpt lat="45.07896" lon="6.74413">
        <ele>2149.42</ele>
        <time>2017-01-05T08:37:46Z</time>
      </trkpt>
      <trkpt lat="45.07909" lon="6.74409">
        <ele>2150.78</ele>
        <time>2017-01-05T08:37:48Z</time>
      </trkpt>
      <trkpt lat="45.07923" lon="6.74391">
        <ele>2147.39</ele>
        <time>2017-01-05T08:37:52Z</time>
      </trkpt>
      <trkpt lat="45.07932" lon="6.7438">
        <ele>2144.57</ele>
        <time>2017-01-05T08:37:55Z</time>
      </trkpt>
      <trkpt lat="45.07943" lon="6.74372">
        <ele>2143.18</ele>
        <time>2017-01-05T08:37:58Z</time>
      </trkpt>
      <trkpt lat="45.07952" lon="6.74365">
        <ele>2142.57</ele>
        <time>2017-01-05T08:38:01Z</time>
      </trkpt>
      <trkpt lat="45.07958" lon="6.74353">
        <ele>2140.1</ele>
        <time>2017-01-05T08:38:03Z</time>
      </trkpt>
      <trkpt lat="45.07967" lon="6.74336">
        <ele>2137.19</ele>
        <time>2017-01-05T08:38:05Z</time>
      </trkpt>
      <trkpt lat="45.07975" lon="6.74325">
        <ele>2137.5</ele>
        <time>2017-01-05T08:38:07Z</time>
      </trkpt>
      <trkpt lat="45.07981" lon="6.7431">
        <ele>2136.79</ele>
        <time>2017-01-05T08:38:09Z</time>
      </trkpt>
      <trkpt lat="45.07988" lon="6.74299">
        <ele>2136.17</ele>
        <time>2017-01-05T08:38:11Z</time>
      </trkpt>
      <trkpt lat="45.07995" lon="6.74284">
        <ele>2134.82</ele>
        <time>2017-01-05T08:38:14Z</time>
      </trkpt>
      <trkpt lat="45.07999" lon="6.74268">
        <ele>2132.69</ele>
        <time>2017-01-05T08:38:16Z</time>
      </trkpt>
      <trkpt lat="45.08009" lon="6.74259">
        <ele>2132.71</ele>
        <time>2017-01-05T08:38:18Z</time>
      </trkpt>
      <trkpt lat="45.0802" lon="6.74253">
        <ele>2133.45</ele>
        <time>2017-01-05T08:38:20Z</time>
      </trkpt>
      <trkpt lat="45.08031" lon="6.74248">
        <ele>2134.23</ele>
        <time>2017-01-05T08:38:22Z</time>
      </trkpt>
      <trkpt lat="45.08039" lon="6.7424">
        <ele>2133.72</ele>
        <time>2017-01-05T08:38:24Z</time>
      </trkpt>
      <trkpt lat="45.08053" lon="6.74219">
        <ele>2130.94</ele>
        <time>2017-01-05T08:38:28Z</time>
      </trkpt>
      <trkpt lat="45.08062" lon="6.74196">
        <ele>2126.82</ele>
        <time>2017-01-05T08:38:32Z</time>
      </trkpt>
      <trkpt lat="45.08069" lon="6.74186">
        <ele>2124.6</ele>
        <time>2017-01-05T08:38:34Z</time>
      </trkpt>
      <trkpt lat="45.08072" lon="6.74172">
        <ele>2121.21</ele>
        <time>2017-01-05T08:38:36Z</time>
      </trkpt>
      <trkpt lat="45.08079" lon="6.74157">
        <ele>2119.41</ele>
        <time>2017-01-05T08:38:39Z</time>
      </trkpt>
      <trkpt lat="45.08082" lon="6.74144">
        <ele>2117.63</ele>
        <time>2017-01-05T08:38:41Z</time>
      </trkpt>
      <trkpt lat="45.0809" lon="6.7413">
        <ele>2118.66</ele>
        <time>2017-01-05T08:38:43Z</time>
      </trkpt>
      <trkpt lat="45.08105" lon="6.74109">
        <ele>2121.82</ele>
        <time>2017-01-05T08:38:48Z</time>
      </trkpt>
      <trkpt lat="45.08117" lon="6.741">
        <ele>2124.59</ele>
        <time>2017-01-05T08:38:51Z</time>
      </trkpt>
      <trkpt lat="45.08126" lon="6.7409">
        <ele>2126.06</ele>
        <time>2017-01-05T08:38:54Z</time>
      </trkpt>
      <trkpt lat="45.08128" lon="6.74063">
        <ele>2120.88</ele>
        <time>2017-01-05T08:38:58Z</time>
      </trkpt>
      <trkpt lat="45.08129" lon="6.74048">
        <ele>2117.98</ele>
        <time>2017-01-05T08:39:00Z</time>
      </trkpt>
      <trkpt lat="45.08133" lon="6.74019">
        <ele>2113.95</ele>
        <time>2017-01-05T08:39:04Z</time>
      </trkpt>
      <trkpt lat="45.08129" lon="6.74004">
        <ele>2110.91</ele>
        <time>2017-01-05T08:39:07Z</time>
      </trkpt>
      <trkpt lat="45.08114" lon="6.74016">
        <ele>2107.33</ele>
        <time>2017-01-05T08:39:12Z</time>
      </trkpt>
      <trkpt lat="45.0811" lon="6.7403">
        <ele>2108.17</ele>
        <time>2017-01-05T08:39:14Z</time>
      </trkpt>
      <trkpt lat="45.08101" lon="6.74043">
        <ele>2108.24</ele>
        <time>2017-01-05T08:39:17Z</time>
      </trkpt>
      <trkpt lat="45.08089" lon="6.74037">
        <ele>2104.04</ele>
        <time>2017-01-05T08:39:21Z</time>
      </trkpt>
      <trkpt lat="45.08088" lon="6.74023">
        <ele>2101.56</ele>
        <time>2017-01-05T08:39:23Z</time>
      </trkpt>
      <trkpt lat="45.08091" lon="6.74008">
        <ele>2099.95</ele>
        <time>2017-01-05T08:39:25Z</time>
      </trkpt>
      <trkpt lat="45.08096" lon="6.73989">
        <ele>2098.95</ele>
        <time>2017-01-05T08:39:28Z</time>
      </trkpt>
      <trkpt lat="45.08098" lon="6.73973">
        <ele>2098.18</ele>
        <time>2017-01-05T08:39:30Z</time>
      </trkpt>
      <trkpt lat="45.08097" lon="6.73946">
        <ele>2094.74</ele>
        <time>2017-01-05T08:39:34Z</time>
      </trkpt>
      <trkpt lat="45.08096" lon="6.73932">
        <ele>2092.21</ele>
        <time>2017-01-05T08:39:36Z</time>
      </trkpt>
      <trkpt lat="45.08097" lon="6.73915">
        <ele>2090.15</ele>
        <time>2017-01-05T08:39:38Z</time>
      </trkpt>
      <trkpt lat="45.08093" lon="6.73889">
        <ele>2088.1</ele>
        <time>2017-01-05T08:39:42Z</time>
      </trkpt>
      <trkpt lat="45.08088" lon="6.73874">
        <ele>2085.97</ele>
        <time>2017-01-05T08:39:44Z</time>
      </trkpt>
      <trkpt lat="45.08085" lon="6.7386">
        <ele>2084.44</ele>
        <time>2017-01-05T08:39:46Z</time>
      </trkpt>
      <trkpt lat="45.08082" lon="6.73846">
        <ele>2081.19</ele>
        <time>2017-01-05T08:39:48Z</time>
      </trkpt>
      <trkpt lat="45.08075" lon="6.7383">
        <ele>2075.84</ele>
        <time>2017-01-05T08:39:50Z</time>
      </trkpt>
      <trkpt lat="45.08066" lon="6.73807">
        <ele>2067.77</ele>
        <time>2017-01-05T08:39:54Z</time>
      </trkpt>
      <trkpt lat="45.08059" lon="6.73794">
        <ele>2063.64</ele>
        <time>2017-01-05T08:39:56Z</time>
      </trkpt>
      <trkpt lat="45.08058" lon="6.73767">
        <ele>2059.8</ele>
        <time>2017-01-05T08:40:00Z</time>
      </trkpt>
      <trkpt lat="45.08056" lon="6.7374">
        <ele>2058.07</ele>
        <time>2017-01-05T08:40:05Z</time>
      </trkpt>
      <trkpt lat="45.08052" lon="6.73726">
        <ele>2056.88</ele>
        <time>2017-01-05T08:40:08Z</time>
      </trkpt>
      <trkpt lat="45.08043" lon="6.73715">
        <ele>2053</ele>
        <time>2017-01-05T08:40:11Z</time>
      </trkpt>
      <trkpt lat="45.08027" lon="6.73702">
        <ele>2047.72</ele>
        <time>2017-01-05T08:40:13Z</time>
      </trkpt>
      <trkpt lat="45.08036" lon="6.73692">
        <ele>2049.45</ele>
        <time>2017-01-05T08:40:16Z</time>
      </trkpt>
      <trkpt lat="45.08058" lon="6.7369">
        <ele>2053.01</ele>
        <time>2017-01-05T08:40:21Z</time>
      </trkpt>
      <trkpt lat="45.08078" lon="6.73682">
        <ele>2050.9</ele>
        <time>2017-01-05T08:40:26Z</time>
      </trkpt>
      <trkpt lat="45.08074" lon="6.73666">
        <ele>2047.64</ele>
        <time>2017-01-05T08:40:29Z</time>
      </trkpt>
      <trkpt lat="45.08061" lon="6.73659">
        <ele>2045.59</ele>
        <time>2017-01-05T08:40:32Z</time>
      </trkpt>
      <trkpt lat="45.08048" lon="6.73657">
        <ele>2044.51</ele>
        <time>2017-01-05T08:40:35Z</time>
      </trkpt>
      <trkpt lat="45.08036" lon="6.73659">
        <ele>2043.98</ele>
        <time>2017-01-05T08:40:38Z</time>
      </trkpt>
      <trkpt lat="45.08017" lon="6.73667">
        <ele>2039.92</ele>
        <time>2017-01-05T08:40:42Z</time>
      </trkpt>
      <trkpt lat="45.08007" lon="6.73663">
        <ele>2034.94</ele>
        <time>2017-01-05T08:40:45Z</time>
      </trkpt>
      <trkpt lat="45.08008" lon="6.73647">
        <ele>2033.36</ele>
        <time>2017-01-05T08:40:48Z</time>
      </trkpt>
      <trkpt lat="45.08014" lon="6.7362">
        <ele>2029.97</ele>
        <time>2017-01-05T08:40:52Z</time>
      </trkpt>
      <trkpt lat="45.08024" lon="6.7361">
        <ele>2031.39</ele>
        <time>2017-01-05T08:40:55Z</time>
      </trkpt>
      <trkpt lat="45.08035" lon="6.73612">
        <ele>2032.59</ele>
        <time>2017-01-05T08:40:58Z</time>
      </trkpt>
      <trkpt lat="45.08048" lon="6.73618">
        <ele>2033.37</ele>
        <time>2017-01-05T08:41:02Z</time>
      </trkpt>
      <trkpt lat="45.08044" lon="6.73605">
        <ele>2030.46</ele>
        <time>2017-01-05T08:41:10Z</time>
      </trkpt>
      <trkpt lat="45.08035" lon="6.73596">
        <ele>2028.7</ele>
        <time>2017-01-05T08:41:12Z</time>
      </trkpt>
      <trkpt lat="45.08021" lon="6.73589">
        <ele>2025.33</ele>
        <time>2017-01-05T08:41:14Z</time>
      </trkpt>
      <trkpt lat="45.0801" lon="6.7359">
        <ele>2022.03</ele>
        <time>2017-01-05T08:41:17Z</time>
      </trkpt>
      <trkpt lat="45.07999" lon="6.73586">
        <ele>2018.01</ele>
        <time>2017-01-05T08:41:20Z</time>
      </trkpt>
      <trkpt lat="45.07992" lon="6.73573">
        <ele>2013.74</ele>
        <time>2017-01-05T08:41:23Z</time>
      </trkpt>
      <trkpt lat="45.07987" lon="6.7356">
        <ele>2010.42</ele>
        <time>2017-01-05T08:41:25Z</time>
      </trkpt>
      <trkpt lat="45.08005" lon="6.73548">
        <ele>2013.86</ele>
        <time>2017-01-05T08:41:31Z</time>
      </trkpt>
      <trkpt lat="45.08015" lon="6.73542">
        <ele>2013.74</ele>
        <time>2017-01-05T08:41:35Z</time>
      </trkpt>
      <trkpt lat="45.08027" lon="6.73543">
        <ele>2015.16</ele>
        <time>2017-01-05T08:41:38Z</time>
      </trkpt>
      <trkpt lat="45.08037" lon="6.73549">
        <ele>2016.42</ele>
        <time>2017-01-05T08:41:40Z</time>
      </trkpt>
      <trkpt lat="45.08043" lon="6.73533">
        <ele>2011.73</ele>
        <time>2017-01-05T08:41:43Z</time>
      </trkpt>
      <trkpt lat="45.08032" lon="6.73522">
        <ele>2009.65</ele>
        <time>2017-01-05T08:41:46Z</time>
      </trkpt>
      <trkpt lat="45.08021" lon="6.73516">
        <ele>2007.64</ele>
        <time>2017-01-05T08:41:49Z</time>
      </trkpt>
      <trkpt lat="45.0801" lon="6.7351">
        <ele>2005.12</ele>
        <time>2017-01-05T08:41:52Z</time>
      </trkpt>
      <trkpt lat="45.08" lon="6.73506">
        <ele>2002.81</ele>
        <time>2017-01-05T08:41:55Z</time>
      </trkpt>
      <trkpt lat="45.07989" lon="6.73517">
        <ele>2001.93</ele>
        <time>2017-01-05T08:41:58Z</time>
      </trkpt>
      <trkpt lat="45.07976" lon="6.73515">
        <ele>1997.19</ele>
        <time>2017-01-05T08:42:00Z</time>
      </trkpt>
      <trkpt lat="45.07964" lon="6.7351">
        <ele>1989.77</ele>
        <time>2017-01-05T08:42:02Z</time>
      </trkpt>
      <trkpt lat="45.07955" lon="6.73501">
        <ele>1982.69</ele>
        <time>2017-01-05T08:42:06Z</time>
      </trkpt>
      <trkpt lat="45.0796" lon="6.73489">
        <ele>1983.16</ele>
        <time>2017-01-05T08:42:09Z</time>
      </trkpt>
      <trkpt lat="45.07981" lon="6.73487">
        <ele>1991.27</ele>
        <time>2017-01-05T08:42:13Z</time>
      </trkpt>
      <trkpt lat="45.07988" lon="6.73477">
        <ele>1990.13</ele>
        <time>2017-01-05T08:42:15Z</time>
      </trkpt>
      <trkpt lat="45.07994" lon="6.73464">
        <ele>1987.81</ele>
        <time>2017-01-05T08:42:17Z</time>
      </trkpt>
      <trkpt lat="45.08005" lon="6.73454">
        <ele>1986.79</ele>
        <time>2017-01-05T08:42:20Z</time>
      </trkpt>
      <trkpt lat="45.08015" lon="6.73455">
        <ele>1987.96</ele>
        <time>2017-01-05T08:42:22Z</time>
      </trkpt>
      <trkpt lat="45.08028" lon="6.73451">
        <ele>1987.88</ele>
        <time>2017-01-05T08:42:25Z</time>
      </trkpt>
      <trkpt lat="45.08039" lon="6.73438">
        <ele>1983.24</ele>
        <time>2017-01-05T08:42:27Z</time>
      </trkpt>
      <trkpt lat="45.08058" lon="6.73432">
        <ele>1982.32</ele>
        <time>2017-01-05T08:42:31Z</time>
      </trkpt>
      <trkpt lat="45.08069" lon="6.73431">
        <ele>1982.06</ele>
        <time>2017-01-05T08:42:34Z</time>
      </trkpt>
      <trkpt lat="45.0808" lon="6.7343">
        <ele>1982.21</ele>
        <time>2017-01-05T08:42:36Z</time>
      </trkpt>
      <trkpt lat="45.0809" lon="6.73429">
        <ele>1981.24</ele>
        <time>2017-01-05T08:42:38Z</time>
      </trkpt>
      <trkpt lat="45.081" lon="6.73428">
        <ele>1980.08</ele>
        <time>2017-01-05T08:42:40Z</time>
      </trkpt>
      <trkpt lat="45.08115" lon="6.73426">
        <ele>1978.35</ele>
        <time>2017-01-05T08:42:42Z</time>
      </trkpt>
      <trkpt lat="45.08126" lon="6.73426">
        <ele>1977.03</ele>
        <time>2017-01-05T08:42:44Z</time>
      </trkpt>
      <trkpt lat="45.08137" lon="6.73429">
        <ele>1977.32</ele>
        <time>2017-01-05T08:42:47Z</time>
      </trkpt>
      <trkpt lat="45.0815" lon="6.73432">
        <ele>1978.46</ele>
        <time>2017-01-05T08:42:50Z</time>
      </trkpt>
      <trkpt lat="45.08161" lon="6.73426">
        <ele>1975.49</ele>
        <time>2017-01-05T08:42:53Z</time>
      </trkpt>
      <trkpt lat="45.08154" lon="6.73414">
        <ele>1970.73</ele>
        <time>2017-01-05T08:42:57Z</time>
      </trkpt>
      <trkpt lat="45.08142" lon="6.73406">
        <ele>1967.75</ele>
        <time>2017-01-05T08:43:00Z</time>
      </trkpt>
      <trkpt lat="45.08133" lon="6.73399">
        <ele>1966.18</ele>
        <time>2017-01-05T08:43:03Z</time>
      </trkpt>
      <trkpt lat="45.08116" lon="6.73385">
        <ele>1963.5</ele>
        <time>2017-01-05T08:43:09Z</time>
      </trkpt>
      <trkpt lat="45.08103" lon="6.73381">
        <ele>1962.55</ele>
        <time>2017-01-05T08:43:12Z</time>
      </trkpt>
      <trkpt lat="45.08093" lon="6.7338">
        <ele>1962.07</ele>
        <time>2017-01-05T08:43:14Z</time>
      </trkpt>
      <trkpt lat="45.08082" lon="6.73374">
        <ele>1960.08</ele>
        <time>2017-01-05T08:43:17Z</time>
      </trkpt>
      <trkpt lat="45.08061" lon="6.73366">
        <ele>1956.17</ele>
        <time>2017-01-05T08:43:21Z</time>
      </trkpt>
      <trkpt lat="45.08055" lon="6.73355">
        <ele>1952.46</ele>
        <time>2017-01-05T08:43:22Z</time>
      </trkpt>
      <trkpt lat="45.08046" lon="6.73346">
        <ele>1950.01</ele>
        <time>2017-01-05T08:43:24Z</time>
      </trkpt>
      <trkpt lat="45.08033" lon="6.73341">
        <ele>1948.6</ele>
        <time>2017-01-05T08:43:27Z</time>
      </trkpt>
      <trkpt lat="45.08021" lon="6.73341">
        <ele>1948.41</ele>
        <time>2017-01-05T08:43:31Z</time>
      </trkpt>
      <trkpt lat="45.08009" lon="6.73343">
        <ele>1948.16</ele>
        <time>2017-01-05T08:43:34Z</time>
      </trkpt>
      <trkpt lat="45.07999" lon="6.73352">
        <ele>1950.25</ele>
        <time>2017-01-05T08:43:37Z</time>
      </trkpt>
      <trkpt lat="45.0799" lon="6.73359">
        <ele>1950.77</ele>
        <time>2017-01-05T08:43:39Z</time>
      </trkpt>
      <trkpt lat="45.07981" lon="6.73365">
        <ele>1951.51</ele>
        <time>2017-01-05T08:43:41Z</time>
      </trkpt>
      <trkpt lat="45.07963" lon="6.73367">
        <ele>1948.75</ele>
        <time>2017-01-05T08:43:45Z</time>
      </trkpt>
      <trkpt lat="45.0795" lon="6.73364">
        <ele>1945.56</ele>
        <time>2017-01-05T08:43:47Z</time>
      </trkpt>
      <trkpt lat="45.07942" lon="6.73351">
        <ele>1939.39</ele>
        <time>2017-01-05T08:43:51Z</time>
      </trkpt>
      <trkpt lat="45.07945" lon="6.73336">
        <ele>1936</ele>
        <time>2017-01-05T08:43:54Z</time>
      </trkpt>
      <trkpt lat="45.07955" lon="6.73334">
        <ele>1937.43</ele>
        <time>2017-01-05T08:43:56Z</time>
      </trkpt>
      <trkpt lat="45.07965" lon="6.73336">
        <ele>1940.2</ele>
        <time>2017-01-05T08:43:58Z</time>
      </trkpt>
      <trkpt lat="45.07975" lon="6.73336">
        <ele>1942.07</ele>
        <time>2017-01-05T08:44:00Z</time>
      </trkpt>
      <trkpt lat="45.07986" lon="6.73333">
        <ele>1942.94</ele>
        <time>2017-01-05T08:44:02Z</time>
      </trkpt>
      <trkpt lat="45.07991" lon="6.73318">
        <ele>1939.12</ele>
        <time>2017-01-05T08:44:03Z</time>
      </trkpt>
      <trkpt lat="45.0799" lon="6.73299">
        <ele>1933.14</ele>
        <time>2017-01-05T08:44:06Z</time>
      </trkpt>
      <trkpt lat="45.07981" lon="6.73287">
        <ele>1928.55</ele>
        <time>2017-01-05T08:44:09Z</time>
      </trkpt>
      <trkpt lat="45.07971" lon="6.73285">
        <ele>1926.53</ele>
        <time>2017-01-05T08:44:12Z</time>
      </trkpt>
      <trkpt lat="45.07959" lon="6.73283">
        <ele>1924.87</ele>
        <time>2017-01-05T08:44:15Z</time>
      </trkpt>
      <trkpt lat="45.07948" lon="6.73285">
        <ele>1924.02</ele>
        <time>2017-01-05T08:44:18Z</time>
      </trkpt>
      <trkpt lat="45.07936" lon="6.73288">
        <ele>1921.13</ele>
        <time>2017-01-05T08:44:21Z</time>
      </trkpt>
      <trkpt lat="45.07926" lon="6.73294">
        <ele>1918.79</ele>
        <time>2017-01-05T08:44:24Z</time>
      </trkpt>
      <trkpt lat="45.07915" lon="6.73295">
        <ele>1914.84</ele>
        <time>2017-01-05T08:44:27Z</time>
      </trkpt>
      <trkpt lat="45.07908" lon="6.73285">
        <ele>1909.11</ele>
        <time>2017-01-05T08:44:30Z</time>
      </trkpt>
      <trkpt lat="45.07918" lon="6.73276">
        <ele>1911.92</ele>
        <time>2017-01-05T08:44:33Z</time>
      </trkpt>
      <trkpt lat="45.07926" lon="6.73248">
        <ele>1907.79</ele>
        <time>2017-01-05T08:44:37Z</time>
      </trkpt>
      <trkpt lat="45.07935" lon="6.73235">
        <ele>1906.61</ele>
        <time>2017-01-05T08:44:39Z</time>
      </trkpt>
      <trkpt lat="45.07947" lon="6.73232">
        <ele>1908.16</ele>
        <time>2017-01-05T08:44:41Z</time>
      </trkpt>
      <trkpt lat="45.07958" lon="6.73228">
        <ele>1908.14</ele>
        <time>2017-01-05T08:44:43Z</time>
      </trkpt>
      <trkpt lat="45.07968" lon="6.73229">
        <ele>1909.76</ele>
        <time>2017-01-05T08:44:45Z</time>
      </trkpt>
      <trkpt lat="45.07978" lon="6.73228">
        <ele>1910.4</ele>
        <time>2017-01-05T08:44:47Z</time>
      </trkpt>
      <trkpt lat="45.07985" lon="6.73217">
        <ele>1907.54</ele>
        <time>2017-01-05T08:44:49Z</time>
      </trkpt>
      <trkpt lat="45.08002" lon="6.73192">
        <ele>1902.52</ele>
        <time>2017-01-05T08:44:53Z</time>
      </trkpt>
      <trkpt lat="45.08013" lon="6.7317">
        <ele>1897.46</ele>
        <time>2017-01-05T08:44:56Z</time>
      </trkpt>
      <trkpt lat="45.08025" lon="6.73167">
        <ele>1896.83</ele>
        <time>2017-01-05T08:44:58Z</time>
      </trkpt>
      <trkpt lat="45.08034" lon="6.73159">
        <ele>1895.14</ele>
        <time>2017-01-05T08:45:00Z</time>
      </trkpt>
      <trkpt lat="45.08043" lon="6.73151">
        <ele>1893.42</ele>
        <time>2017-01-05T08:45:14Z</time>
      </trkpt>
      <trkpt lat="45.08061" lon="6.73148">
        <ele>1894.53</ele>
        <time>2017-01-05T08:45:19Z</time>
      </trkpt>
      <trkpt lat="45.08074" lon="6.73147">
        <ele>1896.18</ele>
        <time>2017-01-05T08:45:21Z</time>
      </trkpt>
      <trkpt lat="45.08087" lon="6.73148">
        <ele>1898.87</ele>
        <time>2017-01-05T08:45:23Z</time>
      </trkpt>
      <trkpt lat="45.08103" lon="6.73149">
        <ele>1900.71</ele>
        <time>2017-01-05T08:45:25Z</time>
      </trkpt>
      <trkpt lat="45.08116" lon="6.73153">
        <ele>1902.94</ele>
        <time>2017-01-05T08:45:27Z</time>
      </trkpt>
      <trkpt lat="45.0813" lon="6.73155">
        <ele>1903.84</ele>
        <time>2017-01-05T08:45:29Z</time>
      </trkpt>
      <trkpt lat="45.08148" lon="6.73166">
        <ele>1907.4</ele>
        <time>2017-01-05T08:45:33Z</time>
      </trkpt>
      <trkpt lat="45.08162" lon="6.73166">
        <ele>1906.9</ele>
        <time>2017-01-05T08:45:34Z</time>
      </trkpt>
      <trkpt lat="45.08183" lon="6.73157">
        <ele>1904.72</ele>
        <time>2017-01-05T08:45:49Z</time>
      </trkpt>
      <trkpt lat="45.08202" lon="6.7315">
        <ele>1905.15</ele>
        <time>2017-01-05T08:45:55Z</time>
      </trkpt>
      <trkpt lat="45.08198" lon="6.73174">
        <ele>1909.29</ele>
        <time>2017-01-05T08:46:02Z</time>
      </trkpt>
      <trkpt lat="45.08189" lon="6.73167">
        <ele>1907.01</ele>
        <time>2017-01-05T08:46:06Z</time>
      </trkpt>
      <trkpt lat="45.08169" lon="6.73168">
        <ele>1907.4</ele>
        <time>2017-01-05T08:46:09Z</time>
      </trkpt>
      <trkpt lat="45.08156" lon="6.73168">
        <ele>1907.89</ele>
        <time>2017-01-05T08:46:12Z</time>
      </trkpt>
      <trkpt lat="45.08145" lon="6.73165">
        <ele>1907.33</ele>
        <time>2017-01-05T08:46:15Z</time>
      </trkpt>
      <trkpt lat="45.08137" lon="6.73176">
        <ele>1911.6</ele>
        <time>2017-01-05T08:46:28Z</time>
      </trkpt>
      <trkpt lat="45.08148" lon="6.73202">
        <ele>1920.45</ele>
        <time>2017-01-05T08:46:32Z</time>
      </trkpt>
      <trkpt lat="45.0816" lon="6.7321">
        <ele>1921.94</ele>
        <time>2017-01-05T08:46:34Z</time>
      </trkpt>
      <trkpt lat="45.08174" lon="6.73213">
        <ele>1921.63</ele>
        <time>2017-01-05T08:46:36Z</time>
      </trkpt>
      <trkpt lat="45.08187" lon="6.73213">
        <ele>1920.66</ele>
        <time>2017-01-05T08:46:49Z</time>
      </trkpt>
      <trkpt lat="45.08207" lon="6.73216">
        <ele>1921.55</ele>
        <time>2017-01-05T08:47:02Z</time>
      </trkpt>
      <trkpt lat="45.08217" lon="6.73224">
        <ele>1924.65</ele>
        <time>2017-01-05T08:47:04Z</time>
      </trkpt>
      <trkpt lat="45.08226" lon="6.73233">
        <ele>1929</ele>
        <time>2017-01-05T08:47:06Z</time>
      </trkpt>
      <trkpt lat="45.08232" lon="6.73246">
        <ele>1935.4</ele>
        <time>2017-01-05T08:47:10Z</time>
      </trkpt>
      <trkpt lat="45.08245" lon="6.73247">
        <ele>1937.07</ele>
        <time>2017-01-05T08:47:12Z</time>
      </trkpt>
      <trkpt lat="45.08259" lon="6.73255">
        <ele>1938.59</ele>
        <time>2017-01-05T08:47:17Z</time>
      </trkpt>
      <trkpt lat="45.08271" lon="6.7326">
        <ele>1937.92</ele>
        <time>2017-01-05T08:47:19Z</time>
      </trkpt>
      <trkpt lat="45.08282" lon="6.73267">
        <ele>1937.17</ele>
        <time>2017-01-05T08:47:21Z</time>
      </trkpt>
      <trkpt lat="45.08295" lon="6.73274">
        <ele>1935.73</ele>
        <time>2017-01-05T08:47:23Z</time>
      </trkpt>
      <trkpt lat="45.0831" lon="6.73279">
        <ele>1934.02</ele>
        <time>2017-01-05T08:47:25Z</time>
      </trkpt>
      <trkpt lat="45.08325" lon="6.73286">
        <ele>1934.71</ele>
        <time>2017-01-05T08:47:27Z</time>
      </trkpt>
      <trkpt lat="45.08341" lon="6.73289">
        <ele>1935.64</ele>
        <time>2017-01-05T08:47:29Z</time>
      </trkpt>
      <trkpt lat="45.08355" lon="6.73295">
        <ele>1938.07</ele>
        <time>2017-01-05T08:47:31Z</time>
      </trkpt>
      <trkpt lat="45.08366" lon="6.73299">
        <ele>1939.09</ele>
        <time>2017-01-05T08:47:33Z</time>
      </trkpt>
      <trkpt lat="45.08384" lon="6.73304">
        <ele>1938.89</ele>
        <time>2017-01-05T08:47:35Z</time>
      </trkpt>
      <trkpt lat="45.08394" lon="6.73308">
        <ele>1938.92</ele>
        <time>2017-01-05T08:47:36Z</time>
      </trkpt>
      <trkpt lat="45.08408" lon="6.73325">
        <ele>1942.66</ele>
        <time>2017-01-05T08:47:38Z</time>
      </trkpt>
      <trkpt lat="45.08427" lon="6.7335">
        <ele>1946.99</ele>
        <time>2017-01-05T08:47:40Z</time>
      </trkpt>
      <trkpt lat="45.08438" lon="6.73357">
        <ele>1946.79</ele>
        <time>2017-01-05T08:47:42Z</time>
      </trkpt>
      <trkpt lat="45.08451" lon="6.73376">
        <ele>1948.04</ele>
        <time>2017-01-05T08:47:46Z</time>
      </trkpt>
      <trkpt lat="45.08455" lon="6.73389">
        <ele>1949.58</ele>
        <time>2017-01-05T08:47:50Z</time>
      </trkpt>
      <trkpt lat="45.08462" lon="6.734">
        <ele>1949.29</ele>
        <time>2017-01-05T08:49:08Z</time>
      </trkpt>
      <trkpt lat="45.08471" lon="6.73408">
        <ele>1948.62</ele>
        <time>2017-01-05T08:49:11Z</time>
      </trkpt>
      <trkpt lat="45.08478" lon="6.73418">
        <ele>1946.9</ele>
        <time>2017-01-05T08:49:13Z</time>
      </trkpt>
      <trkpt lat="45.08495" lon="6.73432">
        <ele>1940.13</ele>
        <time>2017-01-05T08:49:17Z</time>
      </trkpt>
      <trkpt lat="45.08504" lon="6.73443">
        <ele>1937.52</ele>
        <time>2017-01-05T08:49:19Z</time>
      </trkpt>
      <trkpt lat="45.08515" lon="6.73455">
        <ele>1935.85</ele>
        <time>2017-01-05T08:49:20Z</time>
      </trkpt>
      <trkpt lat="45.08534" lon="6.73468">
        <ele>1933.75</ele>
        <time>2017-01-05T08:49:25Z</time>
      </trkpt>
      <trkpt lat="45.08545" lon="6.7347">
        <ele>1933.34</ele>
        <time>2017-01-05T08:49:28Z</time>
      </trkpt>
      <trkpt lat="45.08559" lon="6.73467">
        <ele>1931.88</ele>
        <time>2017-01-05T08:49:31Z</time>
      </trkpt>
      <trkpt lat="45.08572" lon="6.7347">
        <ele>1931.92</ele>
        <time>2017-01-05T08:49:34Z</time>
      </trkpt>
      <trkpt lat="45.08586" lon="6.73487">
        <ele>1934.61</ele>
        <time>2017-01-05T08:49:39Z</time>
      </trkpt>
      <trkpt lat="45.08596" lon="6.73496">
        <ele>1936.52</ele>
        <time>2017-01-05T08:49:41Z</time>
      </trkpt>
      <trkpt lat="45.08608" lon="6.735">
        <ele>1938</ele>
        <time>2017-01-05T08:49:45Z</time>
      </trkpt>
      <trkpt lat="45.08618" lon="6.73505">
        <ele>1939.18</ele>
        <time>2017-01-05T08:49:47Z</time>
      </trkpt>
      <trkpt lat="45.08627" lon="6.73516">
        <ele>1941.93</ele>
        <time>2017-01-05T08:49:50Z</time>
      </trkpt>
      <trkpt lat="45.08642" lon="6.73517">
        <ele>1941.99</ele>
        <time>2017-01-05T08:49:52Z</time>
      </trkpt>
      <trkpt lat="45.08642" lon="6.73532">
        <ele>1945.69</ele>
        <time>2017-01-05T08:49:54Z</time>
      </trkpt>
      <trkpt lat="45.08656" lon="6.73554">
        <ele>1948.6</ele>
        <time>2017-01-05T08:49:56Z</time>
      </trkpt>
      <trkpt lat="45.08665" lon="6.73569">
        <ele>1950.36</ele>
        <time>2017-01-05T08:49:58Z</time>
      </trkpt>
      <trkpt lat="45.08677" lon="6.7359">
        <ele>1951.34</ele>
        <time>2017-01-05T08:50:02Z</time>
      </trkpt>
      <trkpt lat="45.08691" lon="6.73601">
        <ele>1950.73</ele>
        <time>2017-01-05T08:50:05Z</time>
      </trkpt>
      <trkpt lat="45.08696" lon="6.73618">
        <ele>1954.93</ele>
        <time>2017-01-05T08:50:08Z</time>
      </trkpt>
      <trkpt lat="45.08704" lon="6.7363">
        <ele>1956.41</ele>
        <time>2017-01-05T08:50:10Z</time>
      </trkpt>
      <trkpt lat="45.08714" lon="6.73657">
        <ele>1959.94</ele>
        <time>2017-01-05T08:50:15Z</time>
      </trkpt>
      <trkpt lat="45.08718" lon="6.73674">
        <ele>1962.26</ele>
        <time>2017-01-05T08:50:18Z</time>
      </trkpt>
      <trkpt lat="45.08724" lon="6.73692">
        <ele>1963.54</ele>
        <time>2017-01-05T08:50:21Z</time>
      </trkpt>
      <trkpt lat="45.08732" lon="6.73702">
        <ele>1965.05</ele>
        <time>2017-01-05T08:50:24Z</time>
      </trkpt>
      <trkpt lat="45.08744" lon="6.73704">
        <ele>1964.81</ele>
        <time>2017-01-05T08:50:28Z</time>
      </trkpt>
      <trkpt lat="45.08755" lon="6.73702">
        <ele>1964.31</ele>
        <time>2017-01-05T08:51:35Z</time>
      </trkpt>
      <trkpt lat="45.08744" lon="6.73702">
        <ele>1964.48</ele>
        <time>2017-01-05T09:06:42Z</time>
      </trkpt>
      <trkpt lat="45.08736" lon="6.73721">
        <ele>1968.25</ele>
        <time>2017-01-05T09:06:53Z</time>
      </trkpt>
      <trkpt lat="45.08742" lon="6.73734">
        <ele>1969.56</ele>
        <time>2017-01-05T09:06:57Z</time>
      </trkpt>
      <trkpt lat="45.08746" lon="6.73749">
        <ele>1971.22</ele>
        <time>2017-01-05T09:07:00Z</time>
      </trkpt>
      <trkpt lat="45.0875" lon="6.73763">
        <ele>1973.29</ele>
        <time>2017-01-05T09:07:03Z</time>
      </trkpt>
      <trkpt lat="45.08763" lon="6.73787">
        <ele>1979.3</ele>
        <time>2017-01-05T09:07:08Z</time>
      </trkpt>
      <trkpt lat="45.08772" lon="6.73799">
        <ele>1982.35</ele>
        <time>2017-01-05T09:07:11Z</time>
      </trkpt>
      <trkpt lat="45.0878" lon="6.73808">
        <ele>1984.42</ele>
        <time>2017-01-05T09:07:14Z</time>
      </trkpt>
      <trkpt lat="45.0879" lon="6.73821">
        <ele>1986.52</ele>
        <time>2017-01-05T09:07:17Z</time>
      </trkpt>
      <trkpt lat="45.08799" lon="6.73845">
        <ele>1990.58</ele>
        <time>2017-01-05T09:07:22Z</time>
      </trkpt>
      <trkpt lat="45.08808" lon="6.73861">
        <ele>1992.7</ele>
        <time>2017-01-05T09:07:25Z</time>
      </trkpt>
      <trkpt lat="45.08817" lon="6.73874">
        <ele>1994.08</ele>
        <time>2017-01-05T09:07:29Z</time>
      </trkpt>
      <trkpt lat="45.08825" lon="6.73883">
        <ele>1994.79</ele>
        <time>2017-01-05T09:07:31Z</time>
      </trkpt>
      <trkpt lat="45.0884" lon="6.73903">
        <ele>1997.78</ele>
        <time>2017-01-05T09:07:36Z</time>
      </trkpt>
      <trkpt lat="45.08847" lon="6.73916">
        <ele>2000.33</ele>
        <time>2017-01-05T09:07:38Z</time>
      </trkpt>
      <trkpt lat="45.08854" lon="6.73927">
        <ele>2001.69</ele>
        <time>2017-01-05T09:07:40Z</time>
      </trkpt>
      <trkpt lat="45.08861" lon="6.7394">
        <ele>2003.34</ele>
        <time>2017-01-05T09:07:42Z</time>
      </trkpt>
      <trkpt lat="45.08864" lon="6.73957">
        <ele>2005.08</ele>
        <time>2017-01-05T09:07:44Z</time>
      </trkpt>
      <trkpt lat="45.08865" lon="6.73976">
        <ele>2006.89</ele>
        <time>2017-01-05T09:07:46Z</time>
      </trkpt>
      <trkpt lat="45.08866" lon="6.7399">
        <ele>2008.19</ele>
        <time>2017-01-05T09:07:48Z</time>
      </trkpt>
      <trkpt lat="45.08868" lon="6.74004">
        <ele>2009.41</ele>
        <time>2017-01-05T09:07:50Z</time>
      </trkpt>
      <trkpt lat="45.08867" lon="6.7402">
        <ele>2011.83</ele>
        <time>2017-01-05T09:07:52Z</time>
      </trkpt>
      <trkpt lat="45.0887" lon="6.74039">
        <ele>2014.78</ele>
        <time>2017-01-05T09:07:55Z</time>
      </trkpt>
      <trkpt lat="45.08878" lon="6.7405">
        <ele>2015.32</ele>
        <time>2017-01-05T09:08:00Z</time>
      </trkpt>
      <trkpt lat="45.08886" lon="6.74076">
        <ele>2019.36</ele>
        <time>2017-01-05T09:08:07Z</time>
      </trkpt>
      <trkpt lat="45.08893" lon="6.74089">
        <ele>2020.48</ele>
        <time>2017-01-05T09:08:10Z</time>
      </trkpt>
      <trkpt lat="45.08903" lon="6.74097">
        <ele>2019.69</ele>
        <time>2017-01-05T09:08:13Z</time>
      </trkpt>
      <trkpt lat="45.08907" lon="6.74123">
        <ele>2024.31</ele>
        <time>2017-01-05T09:08:19Z</time>
      </trkpt>
      <trkpt lat="45.08906" lon="6.74141">
        <ele>2027.48</ele>
        <time>2017-01-05T09:08:22Z</time>
      </trkpt>
      <trkpt lat="45.08904" lon="6.74156">
        <ele>2028.65</ele>
        <time>2017-01-05T09:08:24Z</time>
      </trkpt>
      <trkpt lat="45.08901" lon="6.74171">
        <ele>2030.35</ele>
        <time>2017-01-05T09:08:26Z</time>
      </trkpt>
      <trkpt lat="45.08895" lon="6.74185">
        <ele>2033.43</ele>
        <time>2017-01-05T09:08:28Z</time>
      </trkpt>
      <trkpt lat="45.08892" lon="6.74199">
        <ele>2035.13</ele>
        <time>2017-01-05T09:08:30Z</time>
      </trkpt>
      <trkpt lat="45.08894" lon="6.74216">
        <ele>2033.66</ele>
        <time>2017-01-05T09:08:32Z</time>
      </trkpt>
      <trkpt lat="45.08891" lon="6.74231">
        <ele>2035.44</ele>
        <time>2017-01-05T09:08:34Z</time>
      </trkpt>
      <trkpt lat="45.08892" lon="6.74251">
        <ele>2035.52</ele>
        <time>2017-01-05T09:08:37Z</time>
      </trkpt>
      <trkpt lat="45.08891" lon="6.74268">
        <ele>2036.89</ele>
        <time>2017-01-05T09:08:40Z</time>
      </trkpt>
      <trkpt lat="45.08887" lon="6.74285">
        <ele>2039.69</ele>
        <time>2017-01-05T09:08:43Z</time>
      </trkpt>
      <trkpt lat="45.08884" lon="6.74304">
        <ele>2042.94</ele>
        <time>2017-01-05T09:08:47Z</time>
      </trkpt>
      <trkpt lat="45.08891" lon="6.74331">
        <ele>2043.1</ele>
        <time>2017-01-05T09:08:57Z</time>
      </trkpt>
      <trkpt lat="45.08899" lon="6.74343">
        <ele>2043.84</ele>
        <time>2017-01-05T09:09:01Z</time>
      </trkpt>
      <trkpt lat="45.08905" lon="6.74356">
        <ele>2045.15</ele>
        <time>2017-01-05T09:09:05Z</time>
      </trkpt>
      <trkpt lat="45.08919" lon="6.74378">
        <ele>2050.19</ele>
        <time>2017-01-05T09:09:12Z</time>
      </trkpt>
      <trkpt lat="45.08928" lon="6.74382">
        <ele>2051.57</ele>
        <time>2017-01-05T09:09:15Z</time>
      </trkpt>
      <trkpt lat="45.08938" lon="6.74386">
        <ele>2052.48</ele>
        <time>2017-01-05T09:09:20Z</time>
      </trkpt>
      <trkpt lat="45.08954" lon="6.74399">
        <ele>2055.77</ele>
        <time>2017-01-05T09:09:28Z</time>
      </trkpt>
      <trkpt lat="45.08959" lon="6.74413">
        <ele>2059.8</ele>
        <time>2017-01-05T09:09:33Z</time>
      </trkpt>
      <trkpt lat="45.08962" lon="6.74426">
        <ele>2063.88</ele>
        <time>2017-01-05T09:09:37Z</time>
      </trkpt>
      <trkpt lat="45.08963" lon="6.74455">
        <ele>2071.72</ele>
        <time>2017-01-05T09:09:49Z</time>
      </trkpt>
      <trkpt lat="45.08975" lon="6.74476">
        <ele>2075.2</ele>
        <time>2017-01-05T09:09:58Z</time>
      </trkpt>
      <trkpt lat="45.08981" lon="6.74487">
        <ele>2076.78</ele>
        <time>2017-01-05T09:10:03Z</time>
      </trkpt>
      <trkpt lat="45.08986" lon="6.745">
        <ele>2079.55</ele>
        <time>2017-01-05T09:10:06Z</time>
      </trkpt>
      <trkpt lat="45.08983" lon="6.74515">
        <ele>2082.73</ele>
        <time>2017-01-05T09:10:10Z</time>
      </trkpt>
      <trkpt lat="45.08975" lon="6.74523">
        <ele>2085.56</ele>
        <time>2017-01-05T09:10:13Z</time>
      </trkpt>
      <trkpt lat="45.08964" lon="6.74529">
        <ele>2087.55</ele>
        <time>2017-01-05T09:10:16Z</time>
      </trkpt>
      <trkpt lat="45.08955" lon="6.74541">
        <ele>2091.69</ele>
        <time>2017-01-05T09:10:20Z</time>
      </trkpt>
      <trkpt lat="45.08953" lon="6.74565">
        <ele>2099.33</ele>
        <time>2017-01-05T09:10:29Z</time>
      </trkpt>
      <trkpt lat="45.08963" lon="6.7457">
        <ele>2098.94</ele>
        <time>2017-01-05T09:10:32Z</time>
      </trkpt>
      <trkpt lat="45.08974" lon="6.74578">
        <ele>2099.41</ele>
        <time>2017-01-05T09:10:36Z</time>
      </trkpt>
      <trkpt lat="45.08983" lon="6.74585">
        <ele>2100.94</ele>
        <time>2017-01-05T09:10:40Z</time>
      </trkpt>
      <trkpt lat="45.08997" lon="6.74604">
        <ele>2107.27</ele>
        <time>2017-01-05T09:10:48Z</time>
      </trkpt>
      <trkpt lat="45.09006" lon="6.74611">
        <ele>2110.06</ele>
        <time>2017-01-05T09:10:53Z</time>
      </trkpt>
      <trkpt lat="45.09027" lon="6.74614">
        <ele>2111.84</ele>
        <time>2017-01-05T09:11:03Z</time>
      </trkpt>
      <trkpt lat="45.09025" lon="6.74635">
        <ele>2119.23</ele>
        <time>2017-01-05T09:11:15Z</time>
      </trkpt>
      <trkpt lat="45.09015" lon="6.7464">
        <ele>2119.82</ele>
        <time>2017-01-05T09:11:21Z</time>
      </trkpt>
      <trkpt lat="45.08999" lon="6.74653">
        <ele>2122.08</ele>
        <time>2017-01-05T09:11:31Z</time>
      </trkpt>
      <trkpt lat="45.08994" lon="6.74665">
        <ele>2126.26</ele>
        <time>2017-01-05T09:11:34Z</time>
      </trkpt>
      <trkpt lat="45.08999" lon="6.74677">
        <ele>2128.8</ele>
        <time>2017-01-05T09:11:38Z</time>
      </trkpt>
      <trkpt lat="45.09009" lon="6.74685">
        <ele>2131.5</ele>
        <time>2017-01-05T09:11:41Z</time>
      </trkpt>
      <trkpt lat="45.09021" lon="6.74692">
        <ele>2134.49</ele>
        <time>2017-01-05T09:11:44Z</time>
      </trkpt>
      <trkpt lat="45.09033" lon="6.74697">
        <ele>2137.29</ele>
        <time>2017-01-05T09:11:47Z</time>
      </trkpt>
      <trkpt lat="45.09043" lon="6.74699">
        <ele>2138.87</ele>
        <time>2017-01-05T09:11:50Z</time>
      </trkpt>
      <trkpt lat="45.0906" lon="6.74714">
        <ele>2144.57</ele>
        <time>2017-01-05T09:11:56Z</time>
      </trkpt>
      <trkpt lat="45.09075" lon="6.74728">
        <ele>2148.48</ele>
        <time>2017-01-05T09:12:03Z</time>
      </trkpt>
      <trkpt lat="45.09085" lon="6.74732">
        <ele>2149.57</ele>
        <time>2017-01-05T09:12:07Z</time>
      </trkpt>
      <trkpt lat="45.09093" lon="6.74741">
        <ele>2151.68</ele>
        <time>2017-01-05T09:12:11Z</time>
      </trkpt>
      <trkpt lat="45.09102" lon="6.74749">
        <ele>2153.67</ele>
        <time>2017-01-05T09:12:15Z</time>
      </trkpt>
      <trkpt lat="45.09118" lon="6.74765">
        <ele>2159.55</ele>
        <time>2017-01-05T09:12:24Z</time>
      </trkpt>
      <trkpt lat="45.09128" lon="6.74769">
        <ele>2161.95</ele>
        <time>2017-01-05T09:12:32Z</time>
      </trkpt>
      <trkpt lat="45.09139" lon="6.74771">
        <ele>2163.66</ele>
        <time>2017-01-05T09:12:37Z</time>
      </trkpt>
      <trkpt lat="45.0915" lon="6.74777">
        <ele>2166.57</ele>
        <time>2017-01-05T09:12:41Z</time>
      </trkpt>
      <trkpt lat="45.09156" lon="6.74789">
        <ele>2170.33</ele>
        <time>2017-01-05T09:12:44Z</time>
      </trkpt>
      <trkpt lat="45.09159" lon="6.74806">
        <ele>2175.1</ele>
        <time>2017-01-05T09:12:49Z</time>
      </trkpt>
      <trkpt lat="45.09146" lon="6.74826">
        <ele>2179.44</ele>
        <time>2017-01-05T09:12:58Z</time>
      </trkpt>
      <trkpt lat="45.09138" lon="6.74836">
        <ele>2181.43</ele>
        <time>2017-01-05T09:13:04Z</time>
      </trkpt>
      <trkpt lat="45.09136" lon="6.74861">
        <ele>2186.05</ele>
        <time>2017-01-05T09:13:15Z</time>
      </trkpt>
      <trkpt lat="45.09141" lon="6.74874">
        <ele>2188.41</ele>
        <time>2017-01-05T09:13:21Z</time>
      </trkpt>
      <trkpt lat="45.09147" lon="6.74887">
        <ele>2191.36</ele>
        <time>2017-01-05T09:13:26Z</time>
      </trkpt>
      <trkpt lat="45.09153" lon="6.74898">
        <ele>2194.56</ele>
        <time>2017-01-05T09:13:31Z</time>
      </trkpt>
      <trkpt lat="45.09158" lon="6.74912">
        <ele>2197.72</ele>
        <time>2017-01-05T09:14:56Z</time>
      </trkpt>
      <trkpt lat="45.0916" lon="6.74926">
        <ele>2200.68</ele>
        <time>2017-01-05T09:15:04Z</time>
      </trkpt>
      <trkpt lat="45.09161" lon="6.7494">
        <ele>2203.74</ele>
        <time>2017-01-05T09:15:09Z</time>
      </trkpt>
      <trkpt lat="45.09166" lon="6.74966">
        <ele>2208.74</ele>
        <time>2017-01-05T09:15:15Z</time>
      </trkpt>
      <trkpt lat="45.09171" lon="6.74981">
        <ele>2211.59</ele>
        <time>2017-01-05T09:15:19Z</time>
      </trkpt>
      <trkpt lat="45.09176" lon="6.74994">
        <ele>2214.14</ele>
        <time>2017-01-05T09:15:23Z</time>
      </trkpt>
      <trkpt lat="45.09181" lon="6.7501">
        <ele>2218.15</ele>
        <time>2017-01-05T09:19:56Z</time>
      </trkpt>
      <trkpt lat="45.09184" lon="6.75038">
        <ele>2226.54</ele>
        <time>2017-01-05T09:20:05Z</time>
      </trkpt>
      <trkpt lat="45.0918" lon="6.75051">
        <ele>2230.3</ele>
        <time>2017-01-05T09:20:08Z</time>
      </trkpt>
      <trkpt lat="45.09172" lon="6.75061">
        <ele>2231.99</ele>
        <time>2017-01-05T09:20:12Z</time>
      </trkpt>
      <trkpt lat="45.09155" lon="6.75076">
        <ele>2233.78</ele>
        <time>2017-01-05T09:20:23Z</time>
      </trkpt>
      <trkpt lat="45.09147" lon="6.75085">
        <ele>2235.23</ele>
        <time>2017-01-05T09:20:28Z</time>
      </trkpt>
      <trkpt lat="45.09131" lon="6.75102">
        <ele>2239.58</ele>
        <time>2017-01-05T09:20:38Z</time>
      </trkpt>
      <trkpt lat="45.09123" lon="6.75112">
        <ele>2242.46</ele>
        <time>2017-01-05T09:20:41Z</time>
      </trkpt>
      <trkpt lat="45.09116" lon="6.75123">
        <ele>2246.22</ele>
        <time>2017-01-05T09:20:44Z</time>
      </trkpt>
      <trkpt lat="45.09109" lon="6.75136">
        <ele>2250.65</ele>
        <time>2017-01-05T09:20:47Z</time>
      </trkpt>
      <trkpt lat="45.09103" lon="6.75149">
        <ele>2254.96</ele>
        <time>2017-01-05T09:20:50Z</time>
      </trkpt>
      <trkpt lat="45.09087" lon="6.75164">
        <ele>2257.88</ele>
        <time>2017-01-05T09:20:54Z</time>
      </trkpt>
      <trkpt lat="45.09078" lon="6.75176">
        <ele>2261.24</ele>
        <time>2017-01-05T09:21:03Z</time>
      </trkpt>
      <trkpt lat="45.09059" lon="6.75177">
        <ele>2262.75</ele>
        <time>2017-01-05T09:21:23Z</time>
      </trkpt>
      <trkpt lat="45.09049" lon="6.75175">
        <ele>2263.73</ele>
        <time>2017-01-05T09:21:30Z</time>
      </trkpt>
      <trkpt lat="45.09037" lon="6.75169">
        <ele>2264.76</ele>
        <time>2017-01-05T09:21:33Z</time>
      </trkpt>
      <trkpt lat="45.09027" lon="6.75166">
        <ele>2266.16</ele>
        <time>2017-01-05T09:21:35Z</time>
      </trkpt>
      <trkpt lat="45.09014" lon="6.75161">
        <ele>2268.03</ele>
        <time>2017-01-05T09:21:38Z</time>
      </trkpt>
      <trkpt lat="45.09005" lon="6.75158">
        <ele>2269.37</ele>
        <time>2017-01-05T09:21:41Z</time>
      </trkpt>
      <trkpt lat="45.08994" lon="6.75159">
        <ele>2270.57</ele>
        <time>2017-01-05T09:21:44Z</time>
      </trkpt>
      <trkpt lat="45.08983" lon="6.75159">
        <ele>2270.76</ele>
        <time>2017-01-05T09:21:47Z</time>
      </trkpt>
      <trkpt lat="45.08966" lon="6.7517">
        <ele>2273.53</ele>
        <time>2017-01-05T09:21:53Z</time>
      </trkpt>
      <trkpt lat="45.08954" lon="6.75191">
        <ele>2279.03</ele>
        <time>2017-01-05T09:22:00Z</time>
      </trkpt>
      <trkpt lat="45.08959" lon="6.75205">
        <ele>2282.73</ele>
        <time>2017-01-05T09:22:04Z</time>
      </trkpt>
      <trkpt lat="45.08978" lon="6.75215">
        <ele>2285.18</ele>
        <time>2017-01-05T09:22:11Z</time>
      </trkpt>
      <trkpt lat="45.08984" lon="6.75227">
        <ele>2288.04</ele>
        <time>2017-01-05T09:22:15Z</time>
      </trkpt>
      <trkpt lat="45.08988" lon="6.75241">
        <ele>2291.11</ele>
        <time>2017-01-05T09:22:19Z</time>
      </trkpt>
      <trkpt lat="45.08992" lon="6.75255">
        <ele>2294.02</ele>
        <time>2017-01-05T09:22:22Z</time>
      </trkpt>
      <trkpt lat="45.08999" lon="6.75269">
        <ele>2296.92</ele>
        <time>2017-01-05T09:22:25Z</time>
      </trkpt>
      <trkpt lat="45.09006" lon="6.75283">
        <ele>2299.45</ele>
        <time>2017-01-05T09:22:28Z</time>
      </trkpt>
      <trkpt lat="45.09015" lon="6.75295">
        <ele>2301.5</ele>
        <time>2017-01-05T09:22:31Z</time>
      </trkpt>
      <trkpt lat="45.09024" lon="6.75307">
        <ele>2304.44</ele>
        <time>2017-01-05T09:22:34Z</time>
      </trkpt>
      <trkpt lat="45.0903" lon="6.75323">
        <ele>2309.63</ele>
        <time>2017-01-05T09:22:38Z</time>
      </trkpt>
      <trkpt lat="45.09024" lon="6.75335">
        <ele>2313.36</ele>
        <time>2017-01-05T09:22:41Z</time>
      </trkpt>
      <trkpt lat="45.09013" lon="6.75339">
        <ele>2314.53</ele>
        <time>2017-01-05T09:22:44Z</time>
      </trkpt>
      <trkpt lat="45.09004" lon="6.75343">
        <ele>2315.98</ele>
        <time>2017-01-05T09:22:47Z</time>
      </trkpt>
      <trkpt lat="45.08986" lon="6.75352">
        <ele>2316.88</ele>
        <time>2017-01-05T09:22:52Z</time>
      </trkpt>
      <trkpt lat="45.08975" lon="6.75356">
        <ele>2316.23</ele>
        <time>2017-01-05T09:22:55Z</time>
      </trkpt>
      <trkpt lat="45.08964" lon="6.75365">
        <ele>2318.28</ele>
        <time>2017-01-05T09:22:58Z</time>
      </trkpt>
      <trkpt lat="45.08943" lon="6.75376">
        <ele>2321.25</ele>
        <time>2017-01-05T09:23:04Z</time>
      </trkpt>
      <trkpt lat="45.0893" lon="6.75381">
        <ele>2322.11</ele>
        <time>2017-01-05T09:23:07Z</time>
      </trkpt>
      <trkpt lat="45.08917" lon="6.75384">
        <ele>2322.5</ele>
        <time>2017-01-05T09:23:10Z</time>
      </trkpt>
      <trkpt lat="45.08907" lon="6.75391">
        <ele>2324.96</ele>
        <time>2017-01-05T09:23:13Z</time>
      </trkpt>
      <trkpt lat="45.08896" lon="6.75394">
        <ele>2326.77</ele>
        <time>2017-01-05T09:23:16Z</time>
      </trkpt>
      <trkpt lat="45.08886" lon="6.7539">
        <ele>2325.86</ele>
        <time>2017-01-05T09:23:19Z</time>
      </trkpt>
      <trkpt lat="45.08874" lon="6.75384">
        <ele>2326.96</ele>
        <time>2017-01-05T09:23:22Z</time>
      </trkpt>
      <trkpt lat="45.08863" lon="6.75385">
        <ele>2329.41</ele>
        <time>2017-01-05T09:23:25Z</time>
      </trkpt>
      <trkpt lat="45.08849" lon="6.7538">
        <ele>2329.84</ele>
        <time>2017-01-05T09:23:27Z</time>
      </trkpt>
      <trkpt lat="45.08828" lon="6.7539">
        <ele>2335.18</ele>
        <time>2017-01-05T09:23:32Z</time>
      </trkpt>
      <trkpt lat="45.08818" lon="6.75399">
        <ele>2337.91</ele>
        <time>2017-01-05T09:23:35Z</time>
      </trkpt>
      <trkpt lat="45.08809" lon="6.75407">
        <ele>2340.27</ele>
        <time>2017-01-05T09:23:38Z</time>
      </trkpt>
      <trkpt lat="45.08797" lon="6.75413">
        <ele>2341.49</ele>
        <time>2017-01-05T09:23:41Z</time>
      </trkpt>
      <trkpt lat="45.08785" lon="6.7542">
        <ele>2342.28</ele>
        <time>2017-01-05T09:23:44Z</time>
      </trkpt>
      <trkpt lat="45.08772" lon="6.75427">
        <ele>2343.7</ele>
        <time>2017-01-05T09:23:47Z</time>
      </trkpt>
      <trkpt lat="45.08762" lon="6.75431">
        <ele>2344.83</ele>
        <time>2017-01-05T09:23:50Z</time>
      </trkpt>
      <trkpt lat="45.08748" lon="6.75444">
        <ele>2349.42</ele>
        <time>2017-01-05T09:24:00Z</time>
      </trkpt>
      <trkpt lat="45.08758" lon="6.75447">
        <ele>2349.45</ele>
        <time>2017-01-05T09:24:04Z</time>
      </trkpt>
      <trkpt lat="45.08768" lon="6.75447">
        <ele>2349.13</ele>
        <time>2017-01-05T09:24:07Z</time>
      </trkpt>
      <trkpt lat="45.08788" lon="6.75447">
        <ele>2349.73</ele>
        <time>2017-01-05T09:24:13Z</time>
      </trkpt>
      <trkpt lat="45.08799" lon="6.75451">
        <ele>2351.66</ele>
        <time>2017-01-05T09:24:18Z</time>
      </trkpt>
      <trkpt lat="45.08809" lon="6.75453">
        <ele>2352.73</ele>
        <time>2017-01-05T09:24:22Z</time>
      </trkpt>
      <trkpt lat="45.08817" lon="6.75462">
        <ele>2354.85</ele>
        <time>2017-01-05T09:24:27Z</time>
      </trkpt>
      <trkpt lat="45.08822" lon="6.75476">
        <ele>2358.42</ele>
        <time>2017-01-05T09:24:32Z</time>
      </trkpt>
      <trkpt lat="45.08825" lon="6.7549">
        <ele>2363.06</ele>
        <time>2017-01-05T09:24:37Z</time>
      </trkpt>
      <trkpt lat="45.08839" lon="6.75504">
        <ele>2365.11</ele>
        <time>2017-01-05T09:24:55Z</time>
      </trkpt>
      <trkpt lat="45.08855" lon="6.75519">
        <ele>2364.74</ele>
        <time>2017-01-05T09:25:01Z</time>
      </trkpt>
      <trkpt lat="45.08859" lon="6.75534">
        <ele>2367.98</ele>
        <time>2017-01-05T09:25:04Z</time>
      </trkpt>
      <trkpt lat="45.08863" lon="6.7555">
        <ele>2372.6</ele>
        <time>2017-01-05T09:25:08Z</time>
      </trkpt>
      <trkpt lat="45.08865" lon="6.75576">
        <ele>2379.5</ele>
        <time>2017-01-05T09:25:16Z</time>
      </trkpt>
      <trkpt lat="45.08865" lon="6.75591">
        <ele>2383.26</ele>
        <time>2017-01-05T09:25:20Z</time>
      </trkpt>
      <trkpt lat="45.08868" lon="6.75606">
        <ele>2387.28</ele>
        <time>2017-01-05T09:25:24Z</time>
      </trkpt>
      <trkpt lat="45.08875" lon="6.75616">
        <ele>2390.55</ele>
        <time>2017-01-05T09:25:28Z</time>
      </trkpt>
      <trkpt lat="45.08885" lon="6.75617">
        <ele>2392.08</ele>
        <time>2017-01-05T09:25:32Z</time>
      </trkpt>
      <trkpt lat="45.08904" lon="6.75623">
        <ele>2395.9</ele>
        <time>2017-01-05T09:25:46Z</time>
      </trkpt>
      <trkpt lat="45.08916" lon="6.75623">
        <ele>2397.4</ele>
        <time>2017-01-05T09:25:49Z</time>
      </trkpt>
      <trkpt lat="45.08926" lon="6.75629">
        <ele>2399.1</ele>
        <time>2017-01-05T09:25:52Z</time>
      </trkpt>
      <trkpt lat="45.08944" lon="6.75637">
        <ele>2401.59</ele>
        <time>2017-01-05T09:25:58Z</time>
      </trkpt>
      <trkpt lat="45.08963" lon="6.75629">
        <ele>2398.1</ele>
        <time>2017-01-05T09:26:05Z</time>
      </trkpt>
      <trkpt lat="45.08974" lon="6.75633">
        <ele>2398.02</ele>
        <time>2017-01-05T09:26:09Z</time>
      </trkpt>
      <trkpt lat="45.08988" lon="6.75651">
        <ele>2402.89</ele>
        <time>2017-01-05T09:26:18Z</time>
      </trkpt>
      <trkpt lat="45.08973" lon="6.75669">
        <ele>2407.66</ele>
        <time>2017-01-05T09:26:26Z</time>
      </trkpt>
      <trkpt lat="45.08971" lon="6.75696">
        <ele>2414.65</ele>
        <time>2017-01-05T09:26:37Z</time>
      </trkpt>
      <trkpt lat="45.08974" lon="6.75722">
        <ele>2421.87</ele>
        <time>2017-01-05T09:26:45Z</time>
      </trkpt>
      <trkpt lat="45.08969" lon="6.75736">
        <ele>2426.34</ele>
        <time>2017-01-05T09:26:51Z</time>
      </trkpt>
      <trkpt lat="45.08964" lon="6.75762">
        <ele>2432.26</ele>
        <time>2017-01-05T09:26:58Z</time>
      </trkpt>
      <trkpt lat="45.08962" lon="6.75779">
        <ele>2434.46</ele>
        <time>2017-01-05T09:27:01Z</time>
      </trkpt>
      <trkpt lat="45.08961" lon="6.75797">
        <ele>2435.79</ele>
        <time>2017-01-05T09:27:04Z</time>
      </trkpt>
      <trkpt lat="45.08956" lon="6.75813">
        <ele>2437.44</ele>
        <time>2017-01-05T09:27:07Z</time>
      </trkpt>
      <trkpt lat="45.08952" lon="6.75828">
        <ele>2439.32</ele>
        <time>2017-01-05T09:27:10Z</time>
      </trkpt>
      <trkpt lat="45.08949" lon="6.75844">
        <ele>2442.09</ele>
        <time>2017-01-05T09:27:13Z</time>
      </trkpt>
      <trkpt lat="45.0895" lon="6.75872">
        <ele>2448.4</ele>
        <time>2017-01-05T09:27:20Z</time>
      </trkpt>
      <trkpt lat="45.08952" lon="6.75898">
        <ele>2454.32</ele>
        <time>2017-01-05T09:27:29Z</time>
      </trkpt>
      <trkpt lat="45.08946" lon="6.75925">
        <ele>2460.15</ele>
        <time>2017-01-05T09:27:35Z</time>
      </trkpt>
      <trkpt lat="45.08943" lon="6.75941">
        <ele>2462.45</ele>
        <time>2017-01-05T09:27:39Z</time>
      </trkpt>
      <trkpt lat="45.0894" lon="6.75955">
        <ele>2465.45</ele>
        <time>2017-01-05T09:27:42Z</time>
      </trkpt>
      <trkpt lat="45.08926" lon="6.7597">
        <ele>2471.79</ele>
        <time>2017-01-05T09:27:49Z</time>
      </trkpt>
      <trkpt lat="45.08917" lon="6.75957">
        <ele>2474.17</ele>
        <time>2017-01-05T09:27:52Z</time>
      </trkpt>
      <trkpt lat="45.08903" lon="6.75937">
        <ele>2477.23</ele>
        <time>2017-01-05T09:27:56Z</time>
      </trkpt>
      <trkpt lat="45.08891" lon="6.75917">
        <ele>2475.78</ele>
        <time>2017-01-05T09:28:00Z</time>
      </trkpt>
      <trkpt lat="45.08877" lon="6.75903">
        <ele>2469.48</ele>
        <time>2017-01-05T09:28:03Z</time>
      </trkpt>
      <trkpt lat="45.08867" lon="6.759">
        <ele>2468.91</ele>
        <time>2017-01-05T09:28:06Z</time>
      </trkpt>
      <trkpt lat="45.08857" lon="6.75899">
        <ele>2469.49</ele>
        <time>2017-01-05T09:28:09Z</time>
      </trkpt>
      <trkpt lat="45.08847" lon="6.75902">
        <ele>2471.19</ele>
        <time>2017-01-05T09:28:12Z</time>
      </trkpt>
      <trkpt lat="45.0884" lon="6.75912">
        <ele>2474.67</ele>
        <time>2017-01-05T09:28:17Z</time>
      </trkpt>
      <trkpt lat="45.08847" lon="6.75922">
        <ele>2477.22</ele>
        <time>2017-01-05T09:28:22Z</time>
      </trkpt>
      <trkpt lat="45.08856" lon="6.75928">
        <ele>2478.83</ele>
        <time>2017-01-05T09:28:27Z</time>
      </trkpt>
      <trkpt lat="45.08866" lon="6.75949">
        <ele>2484.06</ele>
        <time>2017-01-05T09:28:33Z</time>
      </trkpt>
      <trkpt lat="45.08861" lon="6.75975">
        <ele>2490.8</ele>
        <time>2017-01-05T09:28:41Z</time>
      </trkpt>
      <trkpt lat="45.08856" lon="6.75988">
        <ele>2494.18</ele>
        <time>2017-01-05T09:28:47Z</time>
      </trkpt>
      <trkpt lat="45.0885" lon="6.76013">
        <ele>2500.89</ele>
        <time>2017-01-05T09:28:56Z</time>
      </trkpt>
      <trkpt lat="45.08852" lon="6.7603">
        <ele>2504.35</ele>
        <time>2017-01-05T09:28:59Z</time>
      </trkpt>
      <trkpt lat="45.08855" lon="6.76046">
        <ele>2506.82</ele>
        <time>2017-01-05T09:29:03Z</time>
      </trkpt>
      <trkpt lat="45.08855" lon="6.7606">
        <ele>2509.04</ele>
        <time>2017-01-05T09:29:06Z</time>
      </trkpt>
      <trkpt lat="45.08855" lon="6.76075">
        <ele>2511.41</ele>
        <time>2017-01-05T09:29:09Z</time>
      </trkpt>
      <trkpt lat="45.08852" lon="6.76105">
        <ele>2515.61</ele>
        <time>2017-01-05T09:29:16Z</time>
      </trkpt>
      <trkpt lat="45.08846" lon="6.76121">
        <ele>2518.06</ele>
        <time>2017-01-05T09:29:19Z</time>
      </trkpt>
      <trkpt lat="45.08838" lon="6.76136">
        <ele>2520.53</ele>
        <time>2017-01-05T09:29:22Z</time>
      </trkpt>
      <trkpt lat="45.08826" lon="6.76125">
        <ele>2521.29</ele>
        <time>2017-01-05T09:29:40Z</time>
      </trkpt>
      <trkpt lat="45.08817" lon="6.76116">
        <ele>2522.96</ele>
        <time>2017-01-05T09:29:43Z</time>
      </trkpt>
      <trkpt lat="45.08807" lon="6.76108">
        <ele>2525.45</ele>
        <time>2017-01-05T09:29:46Z</time>
      </trkpt>
      <trkpt lat="45.08795" lon="6.76103">
        <ele>2527.41</ele>
        <time>2017-01-05T09:29:49Z</time>
      </trkpt>
      <trkpt lat="45.08783" lon="6.761">
        <ele>2529.17</ele>
        <time>2017-01-05T09:29:52Z</time>
      </trkpt>
      <trkpt lat="45.08771" lon="6.76098">
        <ele>2530.29</ele>
        <time>2017-01-05T09:29:55Z</time>
      </trkpt>
      <trkpt lat="45.0876" lon="6.76097">
        <ele>2531.38</ele>
        <time>2017-01-05T09:29:58Z</time>
      </trkpt>
      <trkpt lat="45.08747" lon="6.76099">
        <ele>2533.19</ele>
        <time>2017-01-05T09:30:01Z</time>
      </trkpt>
      <trkpt lat="45.08737" lon="6.76104">
        <ele>2535.27</ele>
        <time>2017-01-05T09:30:06Z</time>
      </trkpt>
      <trkpt lat="45.08727" lon="6.76111">
        <ele>2537.55</ele>
        <time>2017-01-05T09:30:11Z</time>
      </trkpt>
      <trkpt lat="45.08719" lon="6.76118">
        <ele>2539.99</ele>
        <time>2017-01-05T09:30:15Z</time>
      </trkpt>
      <trkpt lat="45.08709" lon="6.76123">
        <ele>2541.77</ele>
        <time>2017-01-05T09:30:21Z</time>
      </trkpt>
      <trkpt lat="45.08699" lon="6.76128">
        <ele>2543.45</ele>
        <time>2017-01-05T09:30:28Z</time>
      </trkpt>
      <trkpt lat="45.08689" lon="6.76133">
        <ele>2545.18</ele>
        <time>2017-01-05T09:30:36Z</time>
      </trkpt>
      <trkpt lat="45.08691" lon="6.76157">
        <ele>2552.1</ele>
        <time>2017-01-05T09:30:49Z</time>
      </trkpt>
      <trkpt lat="45.08697" lon="6.76169">
        <ele>2555.44</ele>
        <time>2017-01-05T09:30:53Z</time>
      </trkpt>
      <trkpt lat="45.08702" lon="6.76184">
        <ele>2559.28</ele>
        <time>2017-01-05T09:30:57Z</time>
      </trkpt>
      <trkpt lat="45.08711" lon="6.76194">
        <ele>2561.79</ele>
        <time>2017-01-05T09:31:01Z</time>
      </trkpt>
      <trkpt lat="45.08731" lon="6.762">
        <ele>2561.2</ele>
        <time>2017-01-05T09:31:11Z</time>
      </trkpt>
      <trkpt lat="45.08736" lon="6.76215">
        <ele>2563.83</ele>
        <time>2017-01-05T09:31:15Z</time>
      </trkpt>
      <trkpt lat="45.08741" lon="6.76228">
        <ele>2566.29</ele>
        <time>2017-01-05T09:31:19Z</time>
      </trkpt>
      <trkpt lat="45.08752" lon="6.76251">
        <ele>2571.96</ele>
        <time>2017-01-05T09:31:30Z</time>
      </trkpt>
      <trkpt lat="45.08756" lon="6.76265">
        <ele>2576.26</ele>
        <time>2017-01-05T09:31:35Z</time>
      </trkpt>
      <trkpt lat="45.08758" lon="6.76292">
        <ele>2586.01</ele>
        <time>2017-01-05T09:31:45Z</time>
      </trkpt>
      <trkpt lat="45.08763" lon="6.76306">
        <ele>2590.67</ele>
        <time>2017-01-05T09:31:51Z</time>
      </trkpt>
      <trkpt lat="45.08777" lon="6.76324">
        <ele>2595.39</ele>
        <time>2017-01-05T09:32:01Z</time>
      </trkpt>
      <trkpt lat="45.08789" lon="6.76344">
        <ele>2599.72</ele>
        <time>2017-01-05T09:32:12Z</time>
      </trkpt>
      <trkpt lat="45.08802" lon="6.76365">
        <ele>2604.16</ele>
        <time>2017-01-05T09:32:18Z</time>
      </trkpt>
      <trkpt lat="45.08811" lon="6.76378">
        <ele>2605.53</ele>
        <time>2017-01-05T09:32:21Z</time>
      </trkpt>
      <trkpt lat="45.08822" lon="6.76388">
        <ele>2605.36</ele>
        <time>2017-01-05T09:32:24Z</time>
      </trkpt>
      <trkpt lat="45.08831" lon="6.76399">
        <ele>2607.22</ele>
        <time>2017-01-05T09:32:27Z</time>
      </trkpt>
      <trkpt lat="45.08845" lon="6.76417">
        <ele>2614.74</ele>
        <time>2017-01-05T09:32:34Z</time>
      </trkpt>
      <trkpt lat="45.08856" lon="6.76439">
        <ele>2624.15</ele>
        <time>2017-01-05T09:32:47Z</time>
      </trkpt>
      <trkpt lat="45.08864" lon="6.76446">
        <ele>2626.29</ele>
        <time>2017-01-05T09:32:55Z</time>
      </trkpt>
      <trkpt lat="45.08872" lon="6.76457">
        <ele>2628.66</ele>
        <time>2017-01-05T09:33:05Z</time>
      </trkpt>
      <trkpt lat="45.08871" lon="6.76481">
        <ele>2634.74</ele>
        <time>2017-01-05T09:33:18Z</time>
      </trkpt>
      <trkpt lat="45.08853" lon="6.76474">
        <ele>2635.95</ele>
        <time>2017-01-05T09:33:31Z</time>
      </trkpt>
      <trkpt lat="45.08843" lon="6.76477">
        <ele>2638.37</ele>
        <time>2017-01-05T09:33:40Z</time>
      </trkpt>
      <trkpt lat="45.08844" lon="6.76492">
        <ele>2642.25</ele>
        <time>2017-01-05T09:33:45Z</time>
      </trkpt>
      <trkpt lat="45.08827" lon="6.76502">
        <ele>2648.24</ele>
        <time>2017-01-05T09:33:56Z</time>
      </trkpt>
      <trkpt lat="45.08817" lon="6.76502">
        <ele>2649.51</ele>
        <time>2017-01-05T09:34:01Z</time>
      </trkpt>
      <trkpt lat="45.088" lon="6.76515">
        <ele>2654.46</ele>
        <time>2017-01-05T09:34:13Z</time>
      </trkpt>
      <trkpt lat="45.0879" lon="6.76518">
        <ele>2655.19</ele>
        <time>2017-01-05T09:34:17Z</time>
      </trkpt>
      <trkpt lat="45.08774" lon="6.76536">
        <ele>2661.46</ele>
        <time>2017-01-05T09:34:25Z</time>
      </trkpt>
      <trkpt lat="45.08766" lon="6.76561">
        <ele>2671.25</ele>
        <time>2017-01-05T09:34:34Z</time>
      </trkpt>
      <trkpt lat="45.0877" lon="6.76587">
        <ele>2678.81</ele>
        <time>2017-01-05T09:36:56Z</time>
      </trkpt>
      <trkpt lat="45.08765" lon="6.76589">
        <ele>2680.17</ele>
        <time>2017-01-05T09:37:15Z</time>
      </trkpt>
      <trkpt lat="45.08771" lon="6.76616">
        <ele>2686.81</ele>
        <time>2017-01-05T09:37:22Z</time>
      </trkpt>
      <trkpt lat="45.08779" lon="6.76627">
        <ele>2687.78</ele>
        <time>2017-01-05T09:37:27Z</time>
      </trkpt>
      <trkpt lat="45.08793" lon="6.76644">
        <ele>2690.15</ele>
        <time>2017-01-05T09:37:35Z</time>
      </trkpt>
      <trkpt lat="45.0879" lon="6.7666">
        <ele>2694.5</ele>
        <time>2017-01-05T09:37:38Z</time>
      </trkpt>
      <trkpt lat="45.08778" lon="6.76666">
        <ele>2698.81</ele>
        <time>2017-01-05T09:37:41Z</time>
      </trkpt>
      <trkpt lat="45.08759" lon="6.76672">
        <ele>2702.12</ele>
        <time>2017-01-05T09:37:45Z</time>
      </trkpt>
      <trkpt lat="45.08747" lon="6.76674">
        <ele>2704.05</ele>
        <time>2017-01-05T09:37:48Z</time>
      </trkpt>
      <trkpt lat="45.08735" lon="6.76677">
        <ele>2706.86</ele>
        <time>2017-01-05T09:37:51Z</time>
      </trkpt>
      <trkpt lat="45.08725" lon="6.76681">
        <ele>2709.59</ele>
        <time>2017-01-05T09:37:53Z</time>
      </trkpt>
      <trkpt lat="45.08715" lon="6.76683">
        <ele>2711.34</ele>
        <time>2017-01-05T09:37:55Z</time>
      </trkpt>
      <trkpt lat="45.08703" lon="6.76685">
        <ele>2712.8</ele>
        <time>2017-01-05T09:38:43Z</time>
      </trkpt>
      <trkpt lat="45.08694" lon="6.76693">
        <ele>2715.69</ele>
        <time>2017-01-05T09:38:48Z</time>
      </trkpt>
      <trkpt lat="45.08673" lon="6.76703">
        <ele>2718.47</ele>
        <time>2017-01-05T09:38:54Z</time>
      </trkpt>
      <trkpt lat="45.08662" lon="6.76708">
        <ele>2720.75</ele>
        <time>2017-01-05T09:38:57Z</time>
      </trkpt>
      <trkpt lat="45.08651" lon="6.76712">
        <ele>2722.96</ele>
        <time>2017-01-05T09:39:00Z</time>
      </trkpt>
      <trkpt lat="45.08641" lon="6.76719">
        <ele>2725.78</ele>
        <time>2017-01-05T09:39:19Z</time>
      </trkpt>
      <trkpt lat="45.08651" lon="6.7674">
        <ele>2731.95</ele>
        <time>2017-01-05T09:39:26Z</time>
      </trkpt>
      <trkpt lat="45.08658" lon="6.76752">
        <ele>2734.79</ele>
        <time>2017-01-05T09:39:29Z</time>
      </trkpt>
      <trkpt lat="45.08664" lon="6.76767">
        <ele>2737.91</ele>
        <time>2017-01-05T09:39:31Z</time>
      </trkpt>
      <trkpt lat="45.08672" lon="6.76779">
        <ele>2740.47</ele>
        <time>2017-01-05T09:39:34Z</time>
      </trkpt>
      <trkpt lat="45.08683" lon="6.76781">
        <ele>2741.02</ele>
        <time>2017-01-05T09:39:37Z</time>
      </trkpt>
      <trkpt lat="45.08694" lon="6.76783">
        <ele>2741.4</ele>
        <time>2017-01-05T09:39:40Z</time>
      </trkpt>
      <trkpt lat="45.08706" lon="6.76788">
        <ele>2742.81</ele>
        <time>2017-01-05T09:39:43Z</time>
      </trkpt>
      <trkpt lat="45.08722" lon="6.76792">
        <ele>2744.6</ele>
        <time>2017-01-05T09:39:46Z</time>
      </trkpt>
      <trkpt lat="45.08734" lon="6.76789">
        <ele>2743.95</ele>
        <time>2017-01-05T09:39:49Z</time>
      </trkpt>
      <trkpt lat="45.08745" lon="6.76793">
        <ele>2745.53</ele>
        <time>2017-01-05T09:39:52Z</time>
      </trkpt>
      <trkpt lat="45.08753" lon="6.76806">
        <ele>2749.56</ele>
        <time>2017-01-05T09:39:55Z</time>
      </trkpt>
      <trkpt lat="45.0876" lon="6.76817">
        <ele>2751.74</ele>
        <time>2017-01-05T09:39:58Z</time>
      </trkpt>
      <trkpt lat="45.08768" lon="6.76827">
        <ele>2753.3</ele>
        <time>2017-01-05T09:40:01Z</time>
      </trkpt>
      <trkpt lat="45.08765" lon="6.76846">
        <ele>2758.56</ele>
        <time>2017-01-05T09:40:16Z</time>
      </trkpt>
      <trkpt lat="45.08747" lon="6.76853">
        <ele>2762.24</ele>
        <time>2017-01-05T09:40:24Z</time>
      </trkpt>
      <trkpt lat="45.08737" lon="6.76859">
        <ele>2763.55</ele>
        <time>2017-01-05T09:40:27Z</time>
      </trkpt>
      <trkpt lat="45.08725" lon="6.76856">
        <ele>2762.78</ele>
        <time>2017-01-05T09:40:30Z</time>
      </trkpt>
      <trkpt lat="45.08713" lon="6.76854">
        <ele>2763.13</ele>
        <time>2017-01-05T09:40:33Z</time>
      </trkpt>
      <trkpt lat="45.08701" lon="6.76852">
        <ele>2763.58</ele>
        <time>2017-01-05T09:40:36Z</time>
      </trkpt>
      <trkpt lat="45.08689" lon="6.76854">
        <ele>2764.92</ele>
        <time>2017-01-05T09:40:39Z</time>
      </trkpt>
      <trkpt lat="45.08678" lon="6.76857">
        <ele>2766.72</ele>
        <time>2017-01-05T09:40:42Z</time>
      </trkpt>
      <trkpt lat="45.08679" lon="6.76875">
        <ele>2771.61</ele>
        <time>2017-01-05T09:40:51Z</time>
      </trkpt>
      <trkpt lat="45.08697" lon="6.76887">
        <ele>2774.11</ele>
        <time>2017-01-05T09:41:00Z</time>
      </trkpt>
      <trkpt lat="45.08714" lon="6.769">
        <ele>2775.62</ele>
        <time>2017-01-05T09:41:07Z</time>
      </trkpt>
      <trkpt lat="45.08724" lon="6.7691">
        <ele>2777.28</ele>
        <time>2017-01-05T09:41:10Z</time>
      </trkpt>
      <trkpt lat="45.08733" lon="6.76917">
        <ele>2777.76</ele>
        <time>2017-01-05T09:41:13Z</time>
      </trkpt>
      <trkpt lat="45.08744" lon="6.7692">
        <ele>2776.53</ele>
        <time>2017-01-05T09:41:23Z</time>
      </trkpt>
      <trkpt lat="45.08725" lon="6.76925">
        <ele>2778.12</ele>
        <time>2017-01-05T09:41:30Z</time>
      </trkpt>
      <trkpt lat="45.08706" lon="6.76922">
        <ele>2777.89</ele>
        <time>2017-01-05T09:41:36Z</time>
      </trkpt>
      <trkpt lat="45.08694" lon="6.76921">
        <ele>2777.45</ele>
        <time>2017-01-05T09:41:40Z</time>
      </trkpt>
      <trkpt lat="45.08681" lon="6.76923">
        <ele>2776.85</ele>
        <time>2017-01-05T09:46:04Z</time>
      </trkpt>
      <trkpt lat="45.0867" lon="6.7692">
        <ele>2776.81</ele>
        <time>2017-01-05T09:46:08Z</time>
      </trkpt>
      <trkpt lat="45.08651" lon="6.76917">
        <ele>2776.42</ele>
        <time>2017-01-05T09:46:16Z</time>
      </trkpt>
      <trkpt lat="45.0864" lon="6.76922">
        <ele>2775.68</ele>
        <time>2017-01-05T09:46:21Z</time>
      </trkpt>
      <trkpt lat="45.0863" lon="6.76926">
        <ele>2775.04</ele>
        <time>2017-01-05T09:46:25Z</time>
      </trkpt>
      <trkpt lat="45.08611" lon="6.76933">
        <ele>2773.1</ele>
        <time>2017-01-05T09:46:31Z</time>
      </trkpt>
      <trkpt lat="45.0859" lon="6.76939">
        <ele>2773.98</ele>
        <time>2017-01-05T09:46:38Z</time>
      </trkpt>
      <trkpt lat="45.08575" lon="6.76924">
        <ele>2779.71</ele>
        <time>2017-01-05T09:46:44Z</time>
      </trkpt>
      <trkpt lat="45.08565" lon="6.76917">
        <ele>2781.95</ele>
        <time>2017-01-05T09:46:47Z</time>
      </trkpt>
      <trkpt lat="45.08546" lon="6.76906">
        <ele>2783.37</ele>
        <time>2017-01-05T09:46:53Z</time>
      </trkpt>
      <trkpt lat="45.08533" lon="6.76902">
        <ele>2782.58</ele>
        <time>2017-01-05T09:48:15Z</time>
      </trkpt>
      <trkpt lat="45.08457" lon="6.76827">
        <ele>2795.57</ele>
        <time>2017-01-05T09:59:27Z</time>
      </trkpt>
      <trkpt lat="45.08525" lon="6.76902">
        <ele>2781.52</ele>
        <time>2017-01-05T10:19:24Z</time>
      </trkpt>
      <trkpt lat="45.08505" lon="6.76897">
        <ele>2782.06</ele>
        <time>2017-01-05T10:19:30Z</time>
      </trkpt>
      <trkpt lat="45.08494" lon="6.76896">
        <ele>2781.03</ele>
        <time>2017-01-05T10:19:32Z</time>
      </trkpt>
      <trkpt lat="45.08482" lon="6.76895">
        <ele>2779.56</ele>
        <time>2017-01-05T10:19:35Z</time>
      </trkpt>
      <trkpt lat="45.08472" lon="6.76893">
        <ele>2778.67</ele>
        <time>2017-01-05T10:19:38Z</time>
      </trkpt>
      <trkpt lat="45.08453" lon="6.76889">
        <ele>2778.01</ele>
        <time>2017-01-05T10:19:42Z</time>
      </trkpt>
      <trkpt lat="45.0844" lon="6.7689">
        <ele>2776.49</ele>
        <time>2017-01-05T10:19:45Z</time>
      </trkpt>
      <trkpt lat="45.08429" lon="6.76889">
        <ele>2775.76</ele>
        <time>2017-01-05T10:19:48Z</time>
      </trkpt>
      <trkpt lat="45.08418" lon="6.76886">
        <ele>2775.98</ele>
        <time>2017-01-05T10:19:51Z</time>
      </trkpt>
      <trkpt lat="45.08406" lon="6.76883">
        <ele>2775.93</ele>
        <time>2017-01-05T10:19:54Z</time>
      </trkpt>
      <trkpt lat="45.08395" lon="6.76878">
        <ele>2776.76</ele>
        <time>2017-01-05T10:19:58Z</time>
      </trkpt>
      <trkpt lat="45.08386" lon="6.7688">
        <ele>2774.61</ele>
        <time>2017-01-05T10:20:01Z</time>
      </trkpt>
      <trkpt lat="45.08375" lon="6.76877">
        <ele>2774.43</ele>
        <time>2017-01-05T10:20:04Z</time>
      </trkpt>
      <trkpt lat="45.08351" lon="6.7687">
        <ele>2774.37</ele>
        <time>2017-01-05T10:20:08Z</time>
      </trkpt>
      <trkpt lat="45.08342" lon="6.76863">
        <ele>2775.51</ele>
        <time>2017-01-05T10:20:10Z</time>
      </trkpt>
      <trkpt lat="45.08332" lon="6.76857">
        <ele>2775.92</ele>
        <time>2017-01-05T10:20:12Z</time>
      </trkpt>
      <trkpt lat="45.08322" lon="6.76851">
        <ele>2776.02</ele>
        <time>2017-01-05T10:20:14Z</time>
      </trkpt>
      <trkpt lat="45.0831" lon="6.76845">
        <ele>2775.4</ele>
        <time>2017-01-05T10:20:17Z</time>
      </trkpt>
      <trkpt lat="45.083" lon="6.7684">
        <ele>2774.26</ele>
        <time>2017-01-05T10:20:19Z</time>
      </trkpt>
      <trkpt lat="45.08291" lon="6.76836">
        <ele>2772.62</ele>
        <time>2017-01-05T10:20:22Z</time>
      </trkpt>
      <trkpt lat="45.08281" lon="6.76831">
        <ele>2771.68</ele>
        <time>2017-01-05T10:20:24Z</time>
      </trkpt>
      <trkpt lat="45.08271" lon="6.76825">
        <ele>2771.78</ele>
        <time>2017-01-05T10:20:28Z</time>
      </trkpt>
      <trkpt lat="45.08277" lon="6.76837">
        <ele>2769.16</ele>
        <time>2017-01-05T10:20:33Z</time>
      </trkpt>
      <trkpt lat="45.08289" lon="6.76846">
        <ele>2770.19</ele>
        <time>2017-01-05T10:20:36Z</time>
      </trkpt>
      <trkpt lat="45.083" lon="6.76858">
        <ele>2770.19</ele>
        <time>2017-01-05T10:20:39Z</time>
      </trkpt>
      <trkpt lat="45.08318" lon="6.76873">
        <ele>2769.25</ele>
        <time>2017-01-05T10:20:44Z</time>
      </trkpt>
      <trkpt lat="45.08334" lon="6.76896">
        <ele>2764.84</ele>
        <time>2017-01-05T10:20:49Z</time>
      </trkpt>
      <trkpt lat="45.08343" lon="6.76904">
        <ele>2762.57</ele>
        <time>2017-01-05T10:20:51Z</time>
      </trkpt>
      <trkpt lat="45.08354" lon="6.7691">
        <ele>2760.79</ele>
        <time>2017-01-05T10:20:53Z</time>
      </trkpt>
      <trkpt lat="45.08365" lon="6.76918">
        <ele>2758.79</ele>
        <time>2017-01-05T10:20:55Z</time>
      </trkpt>
      <trkpt lat="45.08378" lon="6.76921">
        <ele>2758.75</ele>
        <time>2017-01-05T10:20:57Z</time>
      </trkpt>
      <trkpt lat="45.0839" lon="6.76931">
        <ele>2756.42</ele>
        <time>2017-01-05T10:21:00Z</time>
      </trkpt>
      <trkpt lat="45.08399" lon="6.76937">
        <ele>2756.1</ele>
        <time>2017-01-05T10:21:02Z</time>
      </trkpt>
      <trkpt lat="45.08411" lon="6.76943">
        <ele>2755.61</ele>
        <time>2017-01-05T10:21:04Z</time>
      </trkpt>
      <trkpt lat="45.08422" lon="6.76946">
        <ele>2755.27</ele>
        <time>2017-01-05T10:21:06Z</time>
      </trkpt>
      <trkpt lat="45.08433" lon="6.76946">
        <ele>2754.82</ele>
        <time>2017-01-05T10:21:08Z</time>
      </trkpt>
      <trkpt lat="45.08443" lon="6.76948">
        <ele>2753.47</ele>
        <time>2017-01-05T10:21:11Z</time>
      </trkpt>
      <trkpt lat="45.08428" lon="6.76959">
        <ele>2749.84</ele>
        <time>2017-01-05T10:21:18Z</time>
      </trkpt>
      <trkpt lat="45.0841" lon="6.76957">
        <ele>2750.07</ele>
        <time>2017-01-05T10:21:22Z</time>
      </trkpt>
      <trkpt lat="45.08398" lon="6.7696">
        <ele>2747.6</ele>
        <time>2017-01-05T10:21:25Z</time>
      </trkpt>
      <trkpt lat="45.08379" lon="6.76961">
        <ele>2745.14</ele>
        <time>2017-01-05T10:21:29Z</time>
      </trkpt>
      <trkpt lat="45.08358" lon="6.76962">
        <ele>2742.87</ele>
        <time>2017-01-05T10:21:34Z</time>
      </trkpt>
      <trkpt lat="45.08335" lon="6.76961">
        <ele>2741.18</ele>
        <time>2017-01-05T10:21:39Z</time>
      </trkpt>
      <trkpt lat="45.08316" lon="6.76959">
        <ele>2738.88</ele>
        <time>2017-01-05T10:21:43Z</time>
      </trkpt>
      <trkpt lat="45.08306" lon="6.76957">
        <ele>2738.01</ele>
        <time>2017-01-05T10:21:45Z</time>
      </trkpt>
      <trkpt lat="45.08287" lon="6.76953">
        <ele>2734.81</ele>
        <time>2017-01-05T10:21:49Z</time>
      </trkpt>
      <trkpt lat="45.08274" lon="6.76948">
        <ele>2733.07</ele>
        <time>2017-01-05T10:21:52Z</time>
      </trkpt>
      <trkpt lat="45.08262" lon="6.76947">
        <ele>2731.02</ele>
        <time>2017-01-05T10:21:55Z</time>
      </trkpt>
      <trkpt lat="45.0825" lon="6.76948">
        <ele>2728.55</ele>
        <time>2017-01-05T10:21:58Z</time>
      </trkpt>
      <trkpt lat="45.08238" lon="6.7695">
        <ele>2725.55</ele>
        <time>2017-01-05T10:22:02Z</time>
      </trkpt>
      <trkpt lat="45.08226" lon="6.76949">
        <ele>2723.09</ele>
        <time>2017-01-05T10:22:05Z</time>
      </trkpt>
      <trkpt lat="45.08215" lon="6.7695">
        <ele>2722.08</ele>
        <time>2017-01-05T10:22:06Z</time>
      </trkpt>
      <trkpt lat="45.08203" lon="6.76951">
        <ele>2721.73</ele>
        <time>2017-01-05T10:22:09Z</time>
      </trkpt>
      <trkpt lat="45.08183" lon="6.76949">
        <ele>2720.41</ele>
        <time>2017-01-05T10:22:13Z</time>
      </trkpt>
      <trkpt lat="45.08173" lon="6.76951">
        <ele>2718.36</ele>
        <time>2017-01-05T10:22:15Z</time>
      </trkpt>
      <trkpt lat="45.08154" lon="6.76949">
        <ele>2715.15</ele>
        <time>2017-01-05T10:22:20Z</time>
      </trkpt>
      <trkpt lat="45.08144" lon="6.76943">
        <ele>2714.28</ele>
        <time>2017-01-05T10:22:59Z</time>
      </trkpt>
      <trkpt lat="45.08134" lon="6.7695">
        <ele>2710.73</ele>
        <time>2017-01-05T10:23:02Z</time>
      </trkpt>
      <trkpt lat="45.0814" lon="6.76961">
        <ele>2709.76</ele>
        <time>2017-01-05T10:23:05Z</time>
      </trkpt>
      <trkpt lat="45.08149" lon="6.76968">
        <ele>2709.89</ele>
        <time>2017-01-05T10:23:08Z</time>
      </trkpt>
      <trkpt lat="45.08158" lon="6.76977">
        <ele>2709.1</ele>
        <time>2017-01-05T10:23:11Z</time>
      </trkpt>
      <trkpt lat="45.08169" lon="6.76988">
        <ele>2708.31</ele>
        <time>2017-01-05T10:23:15Z</time>
      </trkpt>
      <trkpt lat="45.08177" lon="6.77">
        <ele>2706.22</ele>
        <time>2017-01-05T10:23:18Z</time>
      </trkpt>
      <trkpt lat="45.08188" lon="6.7701">
        <ele>2705.3</ele>
        <time>2017-01-05T10:23:21Z</time>
      </trkpt>
      <trkpt lat="45.08207" lon="6.77028">
        <ele>2704.77</ele>
        <time>2017-01-05T10:23:26Z</time>
      </trkpt>
      <trkpt lat="45.08218" lon="6.77037">
        <ele>2704.4</ele>
        <time>2017-01-05T10:23:29Z</time>
      </trkpt>
      <trkpt lat="45.08228" lon="6.77046">
        <ele>2703.94</ele>
        <time>2017-01-05T10:23:32Z</time>
      </trkpt>
      <trkpt lat="45.08239" lon="6.77057">
        <ele>2702.97</ele>
        <time>2017-01-05T10:23:35Z</time>
      </trkpt>
      <trkpt lat="45.08256" lon="6.7707">
        <ele>2701.28</ele>
        <time>2017-01-05T10:23:39Z</time>
      </trkpt>
      <trkpt lat="45.08267" lon="6.77078">
        <ele>2700.63</ele>
        <time>2017-01-05T10:23:42Z</time>
      </trkpt>
      <trkpt lat="45.08278" lon="6.77087">
        <ele>2699.94</ele>
        <time>2017-01-05T10:23:45Z</time>
      </trkpt>
      <trkpt lat="45.08288" lon="6.77097">
        <ele>2696.85</ele>
        <time>2017-01-05T10:23:48Z</time>
      </trkpt>
      <trkpt lat="45.08305" lon="6.77108">
        <ele>2694.77</ele>
        <time>2017-01-05T10:23:51Z</time>
      </trkpt>
      <trkpt lat="45.08318" lon="6.77116">
        <ele>2692.26</ele>
        <time>2017-01-05T10:23:54Z</time>
      </trkpt>
      <trkpt lat="45.08339" lon="6.77126">
        <ele>2687.18</ele>
        <time>2017-01-05T10:23:59Z</time>
      </trkpt>
      <trkpt lat="45.08357" lon="6.77136">
        <ele>2681.28</ele>
        <time>2017-01-05T10:24:03Z</time>
      </trkpt>
      <trkpt lat="45.08369" lon="6.7714">
        <ele>2678.64</ele>
        <time>2017-01-05T10:24:06Z</time>
      </trkpt>
      <trkpt lat="45.08381" lon="6.77135">
        <ele>2678.85</ele>
        <time>2017-01-05T10:24:08Z</time>
      </trkpt>
      <trkpt lat="45.08393" lon="6.77136">
        <ele>2677.57</ele>
        <time>2017-01-05T10:24:11Z</time>
      </trkpt>
      <trkpt lat="45.0839" lon="6.77152">
        <ele>2673.2</ele>
        <time>2017-01-05T10:24:15Z</time>
      </trkpt>
      <trkpt lat="45.08379" lon="6.77158">
        <ele>2672.18</ele>
        <time>2017-01-05T10:24:18Z</time>
      </trkpt>
      <trkpt lat="45.08367" lon="6.77161">
        <ele>2671.59</ele>
        <time>2017-01-05T10:24:21Z</time>
      </trkpt>
      <trkpt lat="45.08355" lon="6.77165">
        <ele>2670.71</ele>
        <time>2017-01-05T10:24:24Z</time>
      </trkpt>
      <trkpt lat="45.08336" lon="6.77175">
        <ele>2667.85</ele>
        <time>2017-01-05T10:24:28Z</time>
      </trkpt>
      <trkpt lat="45.08318" lon="6.77179">
        <ele>2666.66</ele>
        <time>2017-01-05T10:24:32Z</time>
      </trkpt>
      <trkpt lat="45.08308" lon="6.77177">
        <ele>2667.67</ele>
        <time>2017-01-05T10:24:34Z</time>
      </trkpt>
      <trkpt lat="45.08295" lon="6.77175">
        <ele>2669.44</ele>
        <time>2017-01-05T10:24:37Z</time>
      </trkpt>
      <trkpt lat="45.08282" lon="6.77174">
        <ele>2671.09</ele>
        <time>2017-01-05T10:24:40Z</time>
      </trkpt>
      <trkpt lat="45.0827" lon="6.77177">
        <ele>2670.72</ele>
        <time>2017-01-05T10:24:43Z</time>
      </trkpt>
      <trkpt lat="45.08258" lon="6.77181">
        <ele>2669.53</ele>
        <time>2017-01-05T10:24:46Z</time>
      </trkpt>
      <trkpt lat="45.08247" lon="6.77186">
        <ele>2667.9</ele>
        <time>2017-01-05T10:24:49Z</time>
      </trkpt>
      <trkpt lat="45.08236" lon="6.7719">
        <ele>2665.59</ele>
        <time>2017-01-05T10:24:52Z</time>
      </trkpt>
      <trkpt lat="45.08225" lon="6.77195">
        <ele>2663.19</ele>
        <time>2017-01-05T10:24:55Z</time>
      </trkpt>
      <trkpt lat="45.08215" lon="6.77201">
        <ele>2660.11</ele>
        <time>2017-01-05T10:24:58Z</time>
      </trkpt>
      <trkpt lat="45.08206" lon="6.77209">
        <ele>2657.32</ele>
        <time>2017-01-05T10:25:02Z</time>
      </trkpt>
      <trkpt lat="45.08197" lon="6.77217">
        <ele>2655.28</ele>
        <time>2017-01-05T10:25:05Z</time>
      </trkpt>
      <trkpt lat="45.08187" lon="6.77227">
        <ele>2654.27</ele>
        <time>2017-01-05T10:25:08Z</time>
      </trkpt>
      <trkpt lat="45.08178" lon="6.77239">
        <ele>2653.94</ele>
        <time>2017-01-05T10:25:12Z</time>
      </trkpt>
      <trkpt lat="45.08172" lon="6.7725">
        <ele>2653.47</ele>
        <time>2017-01-05T10:25:15Z</time>
      </trkpt>
      <trkpt lat="45.08168" lon="6.77265">
        <ele>2654.35</ele>
        <time>2017-01-05T10:25:18Z</time>
      </trkpt>
      <trkpt lat="45.08171" lon="6.77278">
        <ele>2654.39</ele>
        <time>2017-01-05T10:25:20Z</time>
      </trkpt>
      <trkpt lat="45.08178" lon="6.7729">
        <ele>2654.38</ele>
        <time>2017-01-05T10:25:24Z</time>
      </trkpt>
      <trkpt lat="45.08186" lon="6.77301">
        <ele>2653.69</ele>
        <time>2017-01-05T10:25:27Z</time>
      </trkpt>
      <trkpt lat="45.08195" lon="6.77311">
        <ele>2652.65</ele>
        <time>2017-01-05T10:25:30Z</time>
      </trkpt>
      <trkpt lat="45.08206" lon="6.77321">
        <ele>2651.16</ele>
        <time>2017-01-05T10:25:33Z</time>
      </trkpt>
      <trkpt lat="45.08217" lon="6.77331">
        <ele>2648.67</ele>
        <time>2017-01-05T10:25:36Z</time>
      </trkpt>
      <trkpt lat="45.08226" lon="6.7734">
        <ele>2647.29</ele>
        <time>2017-01-05T10:25:39Z</time>
      </trkpt>
      <trkpt lat="45.08242" lon="6.77353">
        <ele>2645.41</ele>
        <time>2017-01-05T10:25:47Z</time>
      </trkpt>
      <trkpt lat="45.08253" lon="6.77355">
        <ele>2643.86</ele>
        <time>2017-01-05T10:25:51Z</time>
      </trkpt>
      <trkpt lat="45.08271" lon="6.77356">
        <ele>2642.77</ele>
        <time>2017-01-05T10:25:59Z</time>
      </trkpt>
      <trkpt lat="45.08283" lon="6.77355">
        <ele>2641.79</ele>
        <time>2017-01-05T10:26:03Z</time>
      </trkpt>
      <trkpt lat="45.08292" lon="6.77359">
        <ele>2640.09</ele>
        <time>2017-01-05T10:26:38Z</time>
      </trkpt>
      <trkpt lat="45.08304" lon="6.77358">
        <ele>2638.6</ele>
        <time>2017-01-05T10:32:01Z</time>
      </trkpt>
      <trkpt lat="45.0831" lon="6.77351">
        <ele>2638.97</ele>
        <time>2017-01-05T10:33:27Z</time>
      </trkpt>
      <trkpt lat="45.08308" lon="6.77365">
        <ele>2637.91</ele>
        <time>2017-01-05T10:34:46Z</time>
      </trkpt>
      <trkpt lat="45.08292" lon="6.77354">
        <ele>2640.56</ele>
        <time>2017-01-05T10:35:26Z</time>
      </trkpt>
      <trkpt lat="45.08282" lon="6.77356">
        <ele>2641.74</ele>
        <time>2017-01-05T10:35:34Z</time>
      </trkpt>
      <trkpt lat="45.08272" lon="6.77356">
        <ele>2642.72</ele>
        <time>2017-01-05T10:35:48Z</time>
      </trkpt>
      <trkpt lat="45.08254" lon="6.77351">
        <ele>2643.83</ele>
        <time>2017-01-05T10:36:25Z</time>
      </trkpt>
      <trkpt lat="45.0826" lon="6.7735">
        <ele>2643.55</ele>
        <time>2017-01-05T10:37:46Z</time>
      </trkpt>
      <trkpt lat="45.08278" lon="6.77357">
        <ele>2642.24</ele>
        <time>2017-01-05T10:38:09Z</time>
      </trkpt>
      <trkpt lat="45.08287" lon="6.77365">
        <ele>2640.64</ele>
        <time>2017-01-05T10:38:47Z</time>
      </trkpt>
      <trkpt lat="45.08281" lon="6.77379">
        <ele>2641.01</ele>
        <time>2017-01-05T10:38:50Z</time>
      </trkpt>
      <trkpt lat="45.08275" lon="6.77395">
        <ele>2641.45</ele>
        <time>2017-01-05T10:38:53Z</time>
      </trkpt>
      <trkpt lat="45.08272" lon="6.7741">
        <ele>2641.69</ele>
        <time>2017-01-05T10:38:55Z</time>
      </trkpt>
      <trkpt lat="45.0827" lon="6.77425">
        <ele>2641.29</ele>
        <time>2017-01-05T10:38:57Z</time>
      </trkpt>
      <trkpt lat="45.08262" lon="6.77454">
        <ele>2640.62</ele>
        <time>2017-01-05T10:39:02Z</time>
      </trkpt>
      <trkpt lat="45.08251" lon="6.77478">
        <ele>2642.29</ele>
        <time>2017-01-05T10:39:37Z</time>
      </trkpt>
      <trkpt lat="45.08238" lon="6.775">
        <ele>2640.9</ele>
        <time>2017-01-05T10:39:41Z</time>
      </trkpt>
      <trkpt lat="45.08227" lon="6.77513">
        <ele>2637.45</ele>
        <time>2017-01-05T10:39:44Z</time>
      </trkpt>
      <trkpt lat="45.08217" lon="6.77524">
        <ele>2634.72</ele>
        <time>2017-01-05T10:39:47Z</time>
      </trkpt>
      <trkpt lat="45.08209" lon="6.77536">
        <ele>2632.49</ele>
        <time>2017-01-05T10:39:49Z</time>
      </trkpt>
      <trkpt lat="45.08201" lon="6.7755">
        <ele>2630.11</ele>
        <time>2017-01-05T10:39:53Z</time>
      </trkpt>
      <trkpt lat="45.08188" lon="6.77571">
        <ele>2628.75</ele>
        <time>2017-01-05T10:40:01Z</time>
      </trkpt>
      <trkpt lat="45.0818" lon="6.77582">
        <ele>2627.83</ele>
        <time>2017-01-05T10:40:05Z</time>
      </trkpt>
      <trkpt lat="45.08166" lon="6.77603">
        <ele>2627.88</ele>
        <time>2017-01-05T10:40:11Z</time>
      </trkpt>
      <trkpt lat="45.08161" lon="6.77616">
        <ele>2627.62</ele>
        <time>2017-01-05T10:40:14Z</time>
      </trkpt>
      <trkpt lat="45.0815" lon="6.77638">
        <ele>2628.2</ele>
        <time>2017-01-05T10:40:20Z</time>
      </trkpt>
      <trkpt lat="45.08146" lon="6.77652">
        <ele>2630.12</ele>
        <time>2017-01-05T10:40:23Z</time>
      </trkpt>
      <trkpt lat="45.08142" lon="6.77665">
        <ele>2632.3</ele>
        <time>2017-01-05T10:40:26Z</time>
      </trkpt>
      <trkpt lat="45.08138" lon="6.77678">
        <ele>2631.97</ele>
        <time>2017-01-05T10:40:29Z</time>
      </trkpt>
      <trkpt lat="45.08134" lon="6.77693">
        <ele>2629.87</ele>
        <time>2017-01-05T10:40:33Z</time>
      </trkpt>
      <trkpt lat="45.08131" lon="6.77719">
        <ele>2626.83</ele>
        <time>2017-01-05T10:42:42Z</time>
      </trkpt>
      <trkpt lat="45.08124" lon="6.77719">
        <ele>2625.54</ele>
        <time>2017-01-05T10:43:16Z</time>
      </trkpt>
      <trkpt lat="45.08132" lon="6.77745">
        <ele>2625.99</ele>
        <time>2017-01-05T10:43:22Z</time>
      </trkpt>
      <trkpt lat="45.08138" lon="6.77757">
        <ele>2626.97</ele>
        <time>2017-01-05T10:43:24Z</time>
      </trkpt>
      <trkpt lat="45.08148" lon="6.77781">
        <ele>2625.4</ele>
        <time>2017-01-05T10:43:27Z</time>
      </trkpt>
      <trkpt lat="45.08154" lon="6.77792">
        <ele>2626.4</ele>
        <time>2017-01-05T10:43:29Z</time>
      </trkpt>
      <trkpt lat="45.08161" lon="6.77806">
        <ele>2628.24</ele>
        <time>2017-01-05T10:43:31Z</time>
      </trkpt>
      <trkpt lat="45.08174" lon="6.77827">
        <ele>2631.49</ele>
        <time>2017-01-05T10:43:35Z</time>
      </trkpt>
      <trkpt lat="45.08184" lon="6.77839">
        <ele>2633.21</ele>
        <time>2017-01-05T10:43:37Z</time>
      </trkpt>
      <trkpt lat="45.08194" lon="6.77854">
        <ele>2635.93</ele>
        <time>2017-01-05T10:43:39Z</time>
      </trkpt>
      <trkpt lat="45.08203" lon="6.77863">
        <ele>2637.36</ele>
        <time>2017-01-05T10:43:41Z</time>
      </trkpt>
      <trkpt lat="45.0821" lon="6.77874">
        <ele>2640.09</ele>
        <time>2017-01-05T10:43:42Z</time>
      </trkpt>
      <trkpt lat="45.08224" lon="6.77903">
        <ele>2645.16</ele>
        <time>2017-01-05T10:43:46Z</time>
      </trkpt>
      <trkpt lat="45.08233" lon="6.77921">
        <ele>2643.45</ele>
        <time>2017-01-05T10:43:48Z</time>
      </trkpt>
      <trkpt lat="45.0824" lon="6.7794">
        <ele>2642.3</ele>
        <time>2017-01-05T10:43:50Z</time>
      </trkpt>
      <trkpt lat="45.08246" lon="6.77966">
        <ele>2639.02</ele>
        <time>2017-01-05T10:44:34Z</time>
      </trkpt>
      <trkpt lat="45.08252" lon="6.7798">
        <ele>2637.16</ele>
        <time>2017-01-05T10:44:38Z</time>
      </trkpt>
      <trkpt lat="45.08255" lon="6.77996">
        <ele>2637.2</ele>
        <time>2017-01-05T10:44:41Z</time>
      </trkpt>
      <trkpt lat="45.08251" lon="6.78012">
        <ele>2639.64</ele>
        <time>2017-01-05T10:44:44Z</time>
      </trkpt>
      <trkpt lat="45.08247" lon="6.78027">
        <ele>2642.05</ele>
        <time>2017-01-05T10:44:47Z</time>
      </trkpt>
      <trkpt lat="45.08247" lon="6.78042">
        <ele>2642.68</ele>
        <time>2017-01-05T10:44:49Z</time>
      </trkpt>
      <trkpt lat="45.08246" lon="6.78058">
        <ele>2643.54</ele>
        <time>2017-01-05T10:44:51Z</time>
      </trkpt>
      <trkpt lat="45.08242" lon="6.78074">
        <ele>2645.34</ele>
        <time>2017-01-05T10:44:53Z</time>
      </trkpt>
      <trkpt lat="45.08239" lon="6.78093">
        <ele>2645.62</ele>
        <time>2017-01-05T10:44:55Z</time>
      </trkpt>
      <trkpt lat="45.0823" lon="6.78119">
        <ele>2645.62</ele>
        <time>2017-01-05T10:44:59Z</time>
      </trkpt>
      <trkpt lat="45.0823" lon="6.78133">
        <ele>2643.55</ele>
        <time>2017-01-05T10:45:02Z</time>
      </trkpt>
      <trkpt lat="45.08223" lon="6.78145">
        <ele>2644.17</ele>
        <time>2017-01-05T10:45:05Z</time>
      </trkpt>
      <trkpt lat="45.08217" lon="6.78156">
        <ele>2641.93</ele>
        <time>2017-01-05T10:45:08Z</time>
      </trkpt>
      <trkpt lat="45.08208" lon="6.78181">
        <ele>2638.74</ele>
        <time>2017-01-05T10:45:12Z</time>
      </trkpt>
      <trkpt lat="45.08207" lon="6.7821">
        <ele>2638.75</ele>
        <time>2017-01-05T10:45:16Z</time>
      </trkpt>
      <trkpt lat="45.08205" lon="6.78226">
        <ele>2639.24</ele>
        <time>2017-01-05T10:45:18Z</time>
      </trkpt>
      <trkpt lat="45.08203" lon="6.78241">
        <ele>2640.4</ele>
        <time>2017-01-05T10:45:20Z</time>
      </trkpt>
      <trkpt lat="45.082" lon="6.78255">
        <ele>2641.24</ele>
        <time>2017-01-05T10:45:22Z</time>
      </trkpt>
      <trkpt lat="45.08196" lon="6.7827">
        <ele>2641.51</ele>
        <time>2017-01-05T10:45:24Z</time>
      </trkpt>
      <trkpt lat="45.08193" lon="6.78285">
        <ele>2640.18</ele>
        <time>2017-01-05T10:45:26Z</time>
      </trkpt>
      <trkpt lat="45.08185" lon="6.78311">
        <ele>2633.99</ele>
        <time>2017-01-05T10:45:30Z</time>
      </trkpt>
      <trkpt lat="45.08181" lon="6.78324">
        <ele>2631.17</ele>
        <time>2017-01-05T10:45:32Z</time>
      </trkpt>
      <trkpt lat="45.08175" lon="6.78337">
        <ele>2628.54</ele>
        <time>2017-01-05T10:45:34Z</time>
      </trkpt>
      <trkpt lat="45.08167" lon="6.78353">
        <ele>2626.15</ele>
        <time>2017-01-05T10:45:36Z</time>
      </trkpt>
      <trkpt lat="45.08161" lon="6.78366">
        <ele>2623.84</ele>
        <time>2017-01-05T10:45:38Z</time>
      </trkpt>
      <trkpt lat="45.08146" lon="6.78389">
        <ele>2622.43</ele>
        <time>2017-01-05T10:45:42Z</time>
      </trkpt>
      <trkpt lat="45.08139" lon="6.78403">
        <ele>2621.36</ele>
        <time>2017-01-05T10:45:44Z</time>
      </trkpt>
      <trkpt lat="45.08134" lon="6.78418">
        <ele>2620.22</ele>
        <time>2017-01-05T10:45:46Z</time>
      </trkpt>
      <trkpt lat="45.0813" lon="6.78435">
        <ele>2622.07</ele>
        <time>2017-01-05T10:45:48Z</time>
      </trkpt>
      <trkpt lat="45.08124" lon="6.78454">
        <ele>2623.74</ele>
        <time>2017-01-05T10:45:51Z</time>
      </trkpt>
      <trkpt lat="45.08117" lon="6.78469">
        <ele>2625.3</ele>
        <time>2017-01-05T10:45:54Z</time>
      </trkpt>
      <trkpt lat="45.08111" lon="6.78484">
        <ele>2627.24</ele>
        <time>2017-01-05T10:45:57Z</time>
      </trkpt>
      <trkpt lat="45.08117" lon="6.78508">
        <ele>2629.83</ele>
        <time>2017-01-05T10:46:01Z</time>
      </trkpt>
      <trkpt lat="45.08129" lon="6.7853">
        <ele>2632.29</ele>
        <time>2017-01-05T10:46:05Z</time>
      </trkpt>
      <trkpt lat="45.08132" lon="6.78545">
        <ele>2634.23</ele>
        <time>2017-01-05T10:46:07Z</time>
      </trkpt>
      <trkpt lat="45.08132" lon="6.78565">
        <ele>2635.11</ele>
        <time>2017-01-05T10:46:10Z</time>
      </trkpt>
      <trkpt lat="45.08127" lon="6.78579">
        <ele>2634.55</ele>
        <time>2017-01-05T10:46:13Z</time>
      </trkpt>
      <trkpt lat="45.08115" lon="6.78606">
        <ele>2634.03</ele>
        <time>2017-01-05T10:46:19Z</time>
      </trkpt>
      <trkpt lat="45.08115" lon="6.78621">
        <ele>2633.56</ele>
        <time>2017-01-05T10:46:21Z</time>
      </trkpt>
      <trkpt lat="45.08111" lon="6.78636">
        <ele>2633.1</ele>
        <time>2017-01-05T10:46:23Z</time>
      </trkpt>
      <trkpt lat="45.08108" lon="6.78651">
        <ele>2634.48</ele>
        <time>2017-01-05T10:46:25Z</time>
      </trkpt>
      <trkpt lat="45.08101" lon="6.7868">
        <ele>2639.22</ele>
        <time>2017-01-05T10:46:30Z</time>
      </trkpt>
      <trkpt lat="45.08098" lon="6.7871">
        <ele>2644.36</ele>
        <time>2017-01-05T10:46:34Z</time>
      </trkpt>
      <trkpt lat="45.08099" lon="6.78726">
        <ele>2647.04</ele>
        <time>2017-01-05T10:46:36Z</time>
      </trkpt>
      <trkpt lat="45.08103" lon="6.78741">
        <ele>2649.19</ele>
        <time>2017-01-05T10:46:38Z</time>
      </trkpt>
      <trkpt lat="45.08107" lon="6.78757">
        <ele>2651.41</ele>
        <time>2017-01-05T10:46:40Z</time>
      </trkpt>
      <trkpt lat="45.08113" lon="6.78771">
        <ele>2652.91</ele>
        <time>2017-01-05T10:46:41Z</time>
      </trkpt>
      <trkpt lat="45.08118" lon="6.78783">
        <ele>2652.29</ele>
        <time>2017-01-05T10:46:43Z</time>
      </trkpt>
      <trkpt lat="45.08124" lon="6.78797">
        <ele>2651.79</ele>
        <time>2017-01-05T10:46:45Z</time>
      </trkpt>
      <trkpt lat="45.08126" lon="6.78815">
        <ele>2652.24</ele>
        <time>2017-01-05T10:46:47Z</time>
      </trkpt>
      <trkpt lat="45.08129" lon="6.78829">
        <ele>2652.22</ele>
        <time>2017-01-05T10:46:49Z</time>
      </trkpt>
      <trkpt lat="45.08132" lon="6.78844">
        <ele>2650.37</ele>
        <time>2017-01-05T10:46:52Z</time>
      </trkpt>
      <trkpt lat="45.08134" lon="6.78859">
        <ele>2648.14</ele>
        <time>2017-01-05T10:46:54Z</time>
      </trkpt>
      <trkpt lat="45.08137" lon="6.78886">
        <ele>2645.33</ele>
        <time>2017-01-05T10:46:58Z</time>
      </trkpt>
      <trkpt lat="45.08137" lon="6.789">
        <ele>2644.45</ele>
        <time>2017-01-05T10:47:00Z</time>
      </trkpt>
      <trkpt lat="45.08139" lon="6.78931">
        <ele>2642.1</ele>
        <time>2017-01-05T10:47:05Z</time>
      </trkpt>
      <trkpt lat="45.08139" lon="6.78962">
        <ele>2640.77</ele>
        <time>2017-01-05T10:47:10Z</time>
      </trkpt>
      <trkpt lat="45.08134" lon="6.78988">
        <ele>2642.61</ele>
        <time>2017-01-05T10:47:14Z</time>
      </trkpt>
      <trkpt lat="45.08134" lon="6.79002">
        <ele>2641.61</ele>
        <time>2017-01-05T10:47:16Z</time>
      </trkpt>
      <trkpt lat="45.08133" lon="6.79016">
        <ele>2640.49</ele>
        <time>2017-01-05T10:47:18Z</time>
      </trkpt>
      <trkpt lat="45.08132" lon="6.79032">
        <ele>2639.53</ele>
        <time>2017-01-05T10:47:20Z</time>
      </trkpt>
      <trkpt lat="45.08132" lon="6.79061">
        <ele>2638.86</ele>
        <time>2017-01-05T10:47:24Z</time>
      </trkpt>
      <trkpt lat="45.08132" lon="6.79075">
        <ele>2638.48</ele>
        <time>2017-01-05T10:47:26Z</time>
      </trkpt>
      <trkpt lat="45.08131" lon="6.79093">
        <ele>2639.52</ele>
        <time>2017-01-05T10:47:29Z</time>
      </trkpt>
      <trkpt lat="45.08132" lon="6.7911">
        <ele>2640.46</ele>
        <time>2017-01-05T10:47:32Z</time>
      </trkpt>
      <trkpt lat="45.08132" lon="6.79125">
        <ele>2642.34</ele>
        <time>2017-01-05T10:47:34Z</time>
      </trkpt>
      <trkpt lat="45.08134" lon="6.79151">
        <ele>2645.46</ele>
        <time>2017-01-05T10:47:38Z</time>
      </trkpt>
      <trkpt lat="45.08136" lon="6.79166">
        <ele>2646.46</ele>
        <time>2017-01-05T10:47:40Z</time>
      </trkpt>
      <trkpt lat="45.08137" lon="6.7918">
        <ele>2647.13</ele>
        <time>2017-01-05T10:47:42Z</time>
      </trkpt>
      <trkpt lat="45.08139" lon="6.79195">
        <ele>2646.94</ele>
        <time>2017-01-05T10:47:44Z</time>
      </trkpt>
      <trkpt lat="45.0814" lon="6.79211">
        <ele>2647.01</ele>
        <time>2017-01-05T10:47:46Z</time>
      </trkpt>
      <trkpt lat="45.08141" lon="6.79226">
        <ele>2646.87</ele>
        <time>2017-01-05T10:47:48Z</time>
      </trkpt>
      <trkpt lat="45.08142" lon="6.79241">
        <ele>2646.65</ele>
        <time>2017-01-05T10:47:50Z</time>
      </trkpt>
      <trkpt lat="45.08146" lon="6.79268">
        <ele>2643.68</ele>
        <time>2017-01-05T10:47:54Z</time>
      </trkpt>
      <trkpt lat="45.0815" lon="6.79294">
        <ele>2643.73</ele>
        <time>2017-01-05T10:47:58Z</time>
      </trkpt>
      <trkpt lat="45.08157" lon="6.79318">
        <ele>2645.42</ele>
        <time>2017-01-05T10:48:02Z</time>
      </trkpt>
      <trkpt lat="45.08162" lon="6.79335">
        <ele>2646.86</ele>
        <time>2017-01-05T10:48:05Z</time>
      </trkpt>
      <trkpt lat="45.08172" lon="6.7936">
        <ele>2648.59</ele>
        <time>2017-01-05T10:48:09Z</time>
      </trkpt>
      <trkpt lat="45.0818" lon="6.79372">
        <ele>2647.76</ele>
        <time>2017-01-05T10:48:11Z</time>
      </trkpt>
      <trkpt lat="45.08188" lon="6.79381">
        <ele>2645.98</ele>
        <time>2017-01-05T10:48:13Z</time>
      </trkpt>
      <trkpt lat="45.08198" lon="6.79389">
        <ele>2642.4</ele>
        <time>2017-01-05T10:48:15Z</time>
      </trkpt>
      <trkpt lat="45.08207" lon="6.79396">
        <ele>2639.24</ele>
        <time>2017-01-05T10:48:17Z</time>
      </trkpt>
      <trkpt lat="45.08214" lon="6.79406">
        <ele>2638.4</ele>
        <time>2017-01-05T10:48:20Z</time>
      </trkpt>
      <trkpt lat="45.0822" lon="6.79433">
        <ele>2640.29</ele>
        <time>2017-01-05T10:48:24Z</time>
      </trkpt>
      <trkpt lat="45.08228" lon="6.79459">
        <ele>2638.7</ele>
        <time>2017-01-05T10:48:29Z</time>
      </trkpt>
      <trkpt lat="45.08229" lon="6.79476">
        <ele>2639.85</ele>
        <time>2017-01-05T10:48:32Z</time>
      </trkpt>
      <trkpt lat="45.08231" lon="6.79504">
        <ele>2642.46</ele>
        <time>2017-01-05T10:48:36Z</time>
      </trkpt>
      <trkpt lat="45.08233" lon="6.79519">
        <ele>2641.88</ele>
        <time>2017-01-05T10:48:38Z</time>
      </trkpt>
      <trkpt lat="45.08235" lon="6.79534">
        <ele>2641.1</ele>
        <time>2017-01-05T10:48:40Z</time>
      </trkpt>
      <trkpt lat="45.08239" lon="6.79552">
        <ele>2639.16</ele>
        <time>2017-01-05T10:48:42Z</time>
      </trkpt>
      <trkpt lat="45.08239" lon="6.79571">
        <ele>2638.39</ele>
        <time>2017-01-05T10:48:45Z</time>
      </trkpt>
      <trkpt lat="45.08239" lon="6.79587">
        <ele>2637.98</ele>
        <time>2017-01-05T10:48:47Z</time>
      </trkpt>
      <trkpt lat="45.08239" lon="6.79602">
        <ele>2637.32</ele>
        <time>2017-01-05T10:48:49Z</time>
      </trkpt>
      <trkpt lat="45.08235" lon="6.79629">
        <ele>2639.43</ele>
        <time>2017-01-05T10:48:54Z</time>
      </trkpt>
      <trkpt lat="45.08235" lon="6.79646">
        <ele>2639.69</ele>
        <time>2017-01-05T10:48:56Z</time>
      </trkpt>
      <trkpt lat="45.08235" lon="6.79661">
        <ele>2638.73</ele>
        <time>2017-01-05T10:48:58Z</time>
      </trkpt>
      <trkpt lat="45.08236" lon="6.79678">
        <ele>2639.18</ele>
        <time>2017-01-05T10:49:00Z</time>
      </trkpt>
      <trkpt lat="45.08235" lon="6.79694">
        <ele>2641.14</ele>
        <time>2017-01-05T10:49:02Z</time>
      </trkpt>
      <trkpt lat="45.08235" lon="6.79709">
        <ele>2640.26</ele>
        <time>2017-01-05T10:49:04Z</time>
      </trkpt>
      <trkpt lat="45.08233" lon="6.79727">
        <ele>2639.45</ele>
        <time>2017-01-05T10:49:06Z</time>
      </trkpt>
      <trkpt lat="45.08234" lon="6.79745">
        <ele>2637.82</ele>
        <time>2017-01-05T10:49:08Z</time>
      </trkpt>
      <trkpt lat="45.08234" lon="6.79763">
        <ele>2635.76</ele>
        <time>2017-01-05T10:49:10Z</time>
      </trkpt>
      <trkpt lat="45.08228" lon="6.79775">
        <ele>2637.44</ele>
        <time>2017-01-05T10:49:12Z</time>
      </trkpt>
      <trkpt lat="45.08228" lon="6.79802">
        <ele>2632.47</ele>
        <time>2017-01-05T10:49:17Z</time>
      </trkpt>
      <trkpt lat="45.08226" lon="6.79817">
        <ele>2631.7</ele>
        <time>2017-01-05T10:49:18Z</time>
      </trkpt>
      <trkpt lat="45.08229" lon="6.79833">
        <ele>2628.92</ele>
        <time>2017-01-05T10:49:21Z</time>
      </trkpt>
      <trkpt lat="45.08228" lon="6.79847">
        <ele>2628.08</ele>
        <time>2017-01-05T10:49:22Z</time>
      </trkpt>
      <trkpt lat="45.08226" lon="6.79862">
        <ele>2626.92</ele>
        <time>2017-01-05T10:49:24Z</time>
      </trkpt>
      <trkpt lat="45.08226" lon="6.79878">
        <ele>2625.2</ele>
        <time>2017-01-05T10:49:26Z</time>
      </trkpt>
      <trkpt lat="45.08223" lon="6.79893">
        <ele>2625.16</ele>
        <time>2017-01-05T10:49:45Z</time>
      </trkpt>
      <trkpt lat="45.08219" lon="6.7991">
        <ele>2625.66</ele>
        <time>2017-01-05T10:49:48Z</time>
      </trkpt>
      <trkpt lat="45.08216" lon="6.79929">
        <ele>2625.82</ele>
        <time>2017-01-05T10:49:51Z</time>
      </trkpt>
      <trkpt lat="45.08212" lon="6.79942">
        <ele>2626.58</ele>
        <time>2017-01-05T10:49:53Z</time>
      </trkpt>
      <trkpt lat="45.08201" lon="6.79964">
        <ele>2628.16</ele>
        <time>2017-01-05T10:49:57Z</time>
      </trkpt>
      <trkpt lat="45.08186" lon="6.79988">
        <ele>2628.57</ele>
        <time>2017-01-05T10:50:02Z</time>
      </trkpt>
      <trkpt lat="45.08178" lon="6.79999">
        <ele>2628.07</ele>
        <time>2017-01-05T10:50:05Z</time>
      </trkpt>
      <trkpt lat="45.08166" lon="6.80006">
        <ele>2628.86</ele>
        <time>2017-01-05T10:50:08Z</time>
      </trkpt>
      <trkpt lat="45.08157" lon="6.80015">
        <ele>2625.56</ele>
        <time>2017-01-05T10:50:10Z</time>
      </trkpt>
      <trkpt lat="45.0815" lon="6.80026">
        <ele>2622.07</ele>
        <time>2017-01-05T10:50:12Z</time>
      </trkpt>
      <trkpt lat="45.08144" lon="6.80039">
        <ele>2620.05</ele>
        <time>2017-01-05T10:50:14Z</time>
      </trkpt>
      <trkpt lat="45.08138" lon="6.80064">
        <ele>2616.61</ele>
        <time>2017-01-05T10:50:18Z</time>
      </trkpt>
      <trkpt lat="45.08133" lon="6.8008">
        <ele>2613.86</ele>
        <time>2017-01-05T10:50:21Z</time>
      </trkpt>
      <trkpt lat="45.08131" lon="6.801">
        <ele>2609.96</ele>
        <time>2017-01-05T10:50:24Z</time>
      </trkpt>
      <trkpt lat="45.08138" lon="6.80125">
        <ele>2606.01</ele>
        <time>2017-01-05T10:50:28Z</time>
      </trkpt>
      <trkpt lat="45.08137" lon="6.8014">
        <ele>2604.08</ele>
        <time>2017-01-05T10:50:30Z</time>
      </trkpt>
      <trkpt lat="45.08128" lon="6.80168">
        <ele>2603.58</ele>
        <time>2017-01-05T10:50:34Z</time>
      </trkpt>
      <trkpt lat="45.08125" lon="6.80191">
        <ele>2602.67</ele>
        <time>2017-01-05T10:50:37Z</time>
      </trkpt>
      <trkpt lat="45.08122" lon="6.80206">
        <ele>2602.19</ele>
        <time>2017-01-05T10:50:39Z</time>
      </trkpt>
      <trkpt lat="45.08123" lon="6.80224">
        <ele>2602.11</ele>
        <time>2017-01-05T10:50:41Z</time>
      </trkpt>
      <trkpt lat="45.0812" lon="6.80255">
        <ele>2600.2</ele>
        <time>2017-01-05T10:51:52Z</time>
      </trkpt>
      <trkpt lat="45.0811" lon="6.80233">
        <ele>2600.4</ele>
        <time>2017-01-05T10:51:57Z</time>
      </trkpt>
      <trkpt lat="45.08101" lon="6.80209">
        <ele>2598.15</ele>
        <time>2017-01-05T10:52:02Z</time>
      </trkpt>
      <trkpt lat="45.08092" lon="6.80185">
        <ele>2595.81</ele>
        <time>2017-01-05T10:52:06Z</time>
      </trkpt>
      <trkpt lat="45.08089" lon="6.80172">
        <ele>2594.83</ele>
        <time>2017-01-05T10:52:08Z</time>
      </trkpt>
      <trkpt lat="45.08086" lon="6.80154">
        <ele>2594.44</ele>
        <time>2017-01-05T10:52:11Z</time>
      </trkpt>
      <trkpt lat="45.08083" lon="6.80137">
        <ele>2594.09</ele>
        <time>2017-01-05T10:52:14Z</time>
      </trkpt>
      <trkpt lat="45.08081" lon="6.80115">
        <ele>2594.19</ele>
        <time>2017-01-05T10:52:17Z</time>
      </trkpt>
      <trkpt lat="45.08076" lon="6.80099">
        <ele>2593.17</ele>
        <time>2017-01-05T10:52:20Z</time>
      </trkpt>
      <trkpt lat="45.08073" lon="6.80083">
        <ele>2592.64</ele>
        <time>2017-01-05T10:52:23Z</time>
      </trkpt>
      <trkpt lat="45.08066" lon="6.80071">
        <ele>2590.3</ele>
        <time>2017-01-05T10:52:26Z</time>
      </trkpt>
      <trkpt lat="45.08057" lon="6.80058">
        <ele>2586.71</ele>
        <time>2017-01-05T10:52:29Z</time>
      </trkpt>
      <trkpt lat="45.08048" lon="6.80043">
        <ele>2583.71</ele>
        <time>2017-01-05T10:52:32Z</time>
      </trkpt>
      <trkpt lat="45.0804" lon="6.80018">
        <ele>2581.8</ele>
        <time>2017-01-05T10:52:36Z</time>
      </trkpt>
      <trkpt lat="45.08033" lon="6.80002">
        <ele>2580.42</ele>
        <time>2017-01-05T10:52:39Z</time>
      </trkpt>
      <trkpt lat="45.08022" lon="6.79975">
        <ele>2578.22</ele>
        <time>2017-01-05T10:52:44Z</time>
      </trkpt>
      <trkpt lat="45.08012" lon="6.79962">
        <ele>2576.24</ele>
        <time>2017-01-05T10:52:47Z</time>
      </trkpt>
      <trkpt lat="45.08002" lon="6.79951">
        <ele>2573.88</ele>
        <time>2017-01-05T10:52:50Z</time>
      </trkpt>
      <trkpt lat="45.07994" lon="6.79944">
        <ele>2570.97</ele>
        <time>2017-01-05T10:52:52Z</time>
      </trkpt>
      <trkpt lat="45.07985" lon="6.79937">
        <ele>2568.28</ele>
        <time>2017-01-05T10:52:54Z</time>
      </trkpt>
      <trkpt lat="45.07977" lon="6.79924">
        <ele>2566.75</ele>
        <time>2017-01-05T10:52:57Z</time>
      </trkpt>
      <trkpt lat="45.07967" lon="6.79921">
        <ele>2561.98</ele>
        <time>2017-01-05T10:53:00Z</time>
      </trkpt>
      <trkpt lat="45.07966" lon="6.79936">
        <ele>2558.81</ele>
        <time>2017-01-05T10:53:03Z</time>
      </trkpt>
      <trkpt lat="45.0797" lon="6.79954">
        <ele>2558.63</ele>
        <time>2017-01-05T10:53:06Z</time>
      </trkpt>
      <trkpt lat="45.07985" lon="6.79971">
        <ele>2563.72</ele>
        <time>2017-01-05T10:53:10Z</time>
      </trkpt>
      <trkpt lat="45.07993" lon="6.79994">
        <ele>2563.43</ele>
        <time>2017-01-05T10:53:14Z</time>
      </trkpt>
      <trkpt lat="45.07995" lon="6.80008">
        <ele>2561.58</ele>
        <time>2017-01-05T10:53:16Z</time>
      </trkpt>
      <trkpt lat="45.07995" lon="6.80022">
        <ele>2559.04</ele>
        <time>2017-01-05T10:53:18Z</time>
      </trkpt>
      <trkpt lat="45.07999" lon="6.80048">
        <ele>2555.03</ele>
        <time>2017-01-05T10:53:22Z</time>
      </trkpt>
      <trkpt lat="45.08003" lon="6.80066">
        <ele>2555.1</ele>
        <time>2017-01-05T10:53:25Z</time>
      </trkpt>
      <trkpt lat="45.08007" lon="6.80097">
        <ele>2553.56</ele>
        <time>2017-01-05T10:53:30Z</time>
      </trkpt>
      <trkpt lat="45.08009" lon="6.80123">
        <ele>2553.37</ele>
        <time>2017-01-05T10:53:34Z</time>
      </trkpt>
      <trkpt lat="45.08007" lon="6.8014">
        <ele>2553.08</ele>
        <time>2017-01-05T10:53:38Z</time>
      </trkpt>
      <trkpt lat="45.08003" lon="6.80155">
        <ele>2551.49</ele>
        <time>2017-01-05T10:53:40Z</time>
      </trkpt>
      <trkpt lat="45.08001" lon="6.80181">
        <ele>2550.29</ele>
        <time>2017-01-05T10:53:44Z</time>
      </trkpt>
      <trkpt lat="45.07995" lon="6.80192">
        <ele>2548.05</ele>
        <time>2017-01-05T10:53:46Z</time>
      </trkpt>
      <trkpt lat="45.0799" lon="6.80205">
        <ele>2546.35</ele>
        <time>2017-01-05T10:53:48Z</time>
      </trkpt>
      <trkpt lat="45.07984" lon="6.80219">
        <ele>2544.78</ele>
        <time>2017-01-05T10:53:50Z</time>
      </trkpt>
      <trkpt lat="45.07982" lon="6.80233">
        <ele>2544.03</ele>
        <time>2017-01-05T10:53:52Z</time>
      </trkpt>
      <trkpt lat="45.07977" lon="6.80264">
        <ele>2541.97</ele>
        <time>2017-01-05T10:53:57Z</time>
      </trkpt>
      <trkpt lat="45.07974" lon="6.80282">
        <ele>2539.99</ele>
        <time>2017-01-05T10:54:00Z</time>
      </trkpt>
      <trkpt lat="45.07977" lon="6.80298">
        <ele>2539.14</ele>
        <time>2017-01-05T10:54:03Z</time>
      </trkpt>
      <trkpt lat="45.07984" lon="6.8031">
        <ele>2540.15</ele>
        <time>2017-01-05T10:54:05Z</time>
      </trkpt>
      <trkpt lat="45.07975" lon="6.80333">
        <ele>2536.75</ele>
        <time>2017-01-05T10:54:10Z</time>
      </trkpt>
      <trkpt lat="45.07959" lon="6.8035">
        <ele>2534.02</ele>
        <time>2017-01-05T10:54:14Z</time>
      </trkpt>
      <trkpt lat="45.07951" lon="6.80357">
        <ele>2531.75</ele>
        <time>2017-01-05T10:54:16Z</time>
      </trkpt>
      <trkpt lat="45.07941" lon="6.80362">
        <ele>2529.44</ele>
        <time>2017-01-05T10:54:18Z</time>
      </trkpt>
      <trkpt lat="45.07924" lon="6.80368">
        <ele>2527.4</ele>
        <time>2017-01-05T10:54:22Z</time>
      </trkpt>
      <trkpt lat="45.07906" lon="6.80375">
        <ele>2526.91</ele>
        <time>2017-01-05T10:54:26Z</time>
      </trkpt>
      <trkpt lat="45.07883" lon="6.80384">
        <ele>2526.58</ele>
        <time>2017-01-05T10:54:31Z</time>
      </trkpt>
      <trkpt lat="45.07871" lon="6.8039">
        <ele>2525.98</ele>
        <time>2017-01-05T10:54:35Z</time>
      </trkpt>
      <trkpt lat="45.0786" lon="6.80393">
        <ele>2524.76</ele>
        <time>2017-01-05T10:55:07Z</time>
      </trkpt>
      <trkpt lat="45.0785" lon="6.80393">
        <ele>2521.87</ele>
        <time>2017-01-05T10:55:10Z</time>
      </trkpt>
      <trkpt lat="45.0784" lon="6.80391">
        <ele>2518.46</ele>
        <time>2017-01-05T10:55:12Z</time>
      </trkpt>
      <trkpt lat="45.07816" lon="6.80397">
        <ele>2513.59</ele>
        <time>2017-01-05T10:55:17Z</time>
      </trkpt>
      <trkpt lat="45.07796" lon="6.80402">
        <ele>2510.93</ele>
        <time>2017-01-05T10:55:21Z</time>
      </trkpt>
      <trkpt lat="45.07783" lon="6.80399">
        <ele>2508.5</ele>
        <time>2017-01-05T10:55:24Z</time>
      </trkpt>
      <trkpt lat="45.07772" lon="6.80397">
        <ele>2505.55</ele>
        <time>2017-01-05T10:55:27Z</time>
      </trkpt>
      <trkpt lat="45.0776" lon="6.80395">
        <ele>2501</ele>
        <time>2017-01-05T10:55:33Z</time>
      </trkpt>
      <trkpt lat="45.07767" lon="6.80385">
        <ele>2501.16</ele>
        <time>2017-01-05T10:55:36Z</time>
      </trkpt>
      <trkpt lat="45.07788" lon="6.80374">
        <ele>2502.65</ele>
        <time>2017-01-05T10:55:41Z</time>
      </trkpt>
      <trkpt lat="45.07804" lon="6.80355">
        <ele>2501.65</ele>
        <time>2017-01-05T10:55:46Z</time>
      </trkpt>
      <trkpt lat="45.07815" lon="6.80333">
        <ele>2500.17</ele>
        <time>2017-01-05T10:55:50Z</time>
      </trkpt>
      <trkpt lat="45.0783" lon="6.80311">
        <ele>2496.84</ele>
        <time>2017-01-05T10:55:55Z</time>
      </trkpt>
      <trkpt lat="45.07835" lon="6.80295">
        <ele>2494.41</ele>
        <time>2017-01-05T10:55:58Z</time>
      </trkpt>
      <trkpt lat="45.07828" lon="6.80282">
        <ele>2490.4</ele>
        <time>2017-01-05T10:56:01Z</time>
      </trkpt>
      <trkpt lat="45.07816" lon="6.80282">
        <ele>2487.3</ele>
        <time>2017-01-05T10:56:04Z</time>
      </trkpt>
      <trkpt lat="45.07803" lon="6.80282">
        <ele>2484.46</ele>
        <time>2017-01-05T10:56:07Z</time>
      </trkpt>
      <trkpt lat="45.07791" lon="6.80284">
        <ele>2482.97</ele>
        <time>2017-01-05T10:56:10Z</time>
      </trkpt>
      <trkpt lat="45.07779" lon="6.80287">
        <ele>2481.45</ele>
        <time>2017-01-05T10:56:13Z</time>
      </trkpt>
      <trkpt lat="45.07767" lon="6.80285">
        <ele>2479.86</ele>
        <time>2017-01-05T10:56:16Z</time>
      </trkpt>
      <trkpt lat="45.07754" lon="6.80282">
        <ele>2478.08</ele>
        <time>2017-01-05T10:56:19Z</time>
      </trkpt>
      <trkpt lat="45.07743" lon="6.80283">
        <ele>2475.3</ele>
        <time>2017-01-05T10:56:22Z</time>
      </trkpt>
      <trkpt lat="45.07722" lon="6.80287">
        <ele>2468.86</ele>
        <time>2017-01-05T10:56:28Z</time>
      </trkpt>
      <trkpt lat="45.07711" lon="6.8029">
        <ele>2464.86</ele>
        <time>2017-01-05T10:56:31Z</time>
      </trkpt>
      <trkpt lat="45.07699" lon="6.80296">
        <ele>2461.23</ele>
        <time>2017-01-05T10:56:34Z</time>
      </trkpt>
      <trkpt lat="45.07692" lon="6.8032">
        <ele>2463.84</ele>
        <time>2017-01-05T10:56:38Z</time>
      </trkpt>
      <trkpt lat="45.07682" lon="6.80342">
        <ele>2465.29</ele>
        <time>2017-01-05T10:56:42Z</time>
      </trkpt>
      <trkpt lat="45.07666" lon="6.80363">
        <ele>2463.53</ele>
        <time>2017-01-05T10:56:48Z</time>
      </trkpt>
      <trkpt lat="45.07659" lon="6.80374">
        <ele>2460.72</ele>
        <time>2017-01-05T10:56:50Z</time>
      </trkpt>
      <trkpt lat="45.07655" lon="6.80387">
        <ele>2459.52</ele>
        <time>2017-01-05T10:56:52Z</time>
      </trkpt>
      <trkpt lat="45.07653" lon="6.80401">
        <ele>2458.06</ele>
        <time>2017-01-05T10:56:54Z</time>
      </trkpt>
      <trkpt lat="45.07648" lon="6.80413">
        <ele>2454.77</ele>
        <time>2017-01-05T10:56:56Z</time>
      </trkpt>
      <trkpt lat="45.07642" lon="6.80428">
        <ele>2451.98</ele>
        <time>2017-01-05T10:56:59Z</time>
      </trkpt>
      <trkpt lat="45.07637" lon="6.80456">
        <ele>2451.93</ele>
        <time>2017-01-05T10:57:03Z</time>
      </trkpt>
      <trkpt lat="45.07632" lon="6.80482">
        <ele>2452.75</ele>
        <time>2017-01-05T10:57:07Z</time>
      </trkpt>
      <trkpt lat="45.07624" lon="6.80496">
        <ele>2450.72</ele>
        <time>2017-01-05T10:57:10Z</time>
      </trkpt>
      <trkpt lat="45.07618" lon="6.80522">
        <ele>2448.06</ele>
        <time>2017-01-05T10:57:14Z</time>
      </trkpt>
      <trkpt lat="45.07618" lon="6.80536">
        <ele>2447.43</ele>
        <time>2017-01-05T10:57:16Z</time>
      </trkpt>
      <trkpt lat="45.0762" lon="6.80562">
        <ele>2446.31</ele>
        <time>2017-01-05T10:57:20Z</time>
      </trkpt>
      <trkpt lat="45.07619" lon="6.80581">
        <ele>2443.45</ele>
        <time>2017-01-05T10:57:23Z</time>
      </trkpt>
      <trkpt lat="45.07617" lon="6.806">
        <ele>2438.88</ele>
        <time>2017-01-05T10:57:25Z</time>
      </trkpt>
      <trkpt lat="45.07622" lon="6.80627">
        <ele>2437.12</ele>
        <time>2017-01-05T10:57:29Z</time>
      </trkpt>
      <trkpt lat="45.07621" lon="6.80644">
        <ele>2434.83</ele>
        <time>2017-01-05T10:57:32Z</time>
      </trkpt>
      <trkpt lat="45.07621" lon="6.80658">
        <ele>2434.98</ele>
        <time>2017-01-05T10:57:34Z</time>
      </trkpt>
      <trkpt lat="45.07621" lon="6.80686">
        <ele>2434.47</ele>
        <time>2017-01-05T10:57:38Z</time>
      </trkpt>
      <trkpt lat="45.07621" lon="6.80706">
        <ele>2432.84</ele>
        <time>2017-01-05T10:57:41Z</time>
      </trkpt>
      <trkpt lat="45.07623" lon="6.80724">
        <ele>2432.5</ele>
        <time>2017-01-05T10:57:44Z</time>
      </trkpt>
      <trkpt lat="45.07626" lon="6.80753">
        <ele>2431.58</ele>
        <time>2017-01-05T10:57:48Z</time>
      </trkpt>
      <trkpt lat="45.07623" lon="6.80766">
        <ele>2427.38</ele>
        <time>2017-01-05T10:57:50Z</time>
      </trkpt>
      <trkpt lat="45.07616" lon="6.80777">
        <ele>2421.51</ele>
        <time>2017-01-05T10:57:52Z</time>
      </trkpt>
      <trkpt lat="45.07612" lon="6.80789">
        <ele>2418.16</ele>
        <time>2017-01-05T10:57:54Z</time>
      </trkpt>
      <trkpt lat="45.07611" lon="6.80816">
        <ele>2416.3</ele>
        <time>2017-01-05T10:57:58Z</time>
      </trkpt>
      <trkpt lat="45.07607" lon="6.80848">
        <ele>2412.78</ele>
        <time>2017-01-05T10:58:03Z</time>
      </trkpt>
      <trkpt lat="45.07598" lon="6.80877">
        <ele>2404.74</ele>
        <time>2017-01-05T10:58:08Z</time>
      </trkpt>
      <trkpt lat="45.07602" lon="6.80893">
        <ele>2405</ele>
        <time>2017-01-05T10:58:11Z</time>
      </trkpt>
      <trkpt lat="45.076" lon="6.80921">
        <ele>2401.34</ele>
        <time>2017-01-05T10:58:16Z</time>
      </trkpt>
      <trkpt lat="45.07603" lon="6.80936">
        <ele>2402.06</ele>
        <time>2017-01-05T10:58:18Z</time>
      </trkpt>
      <trkpt lat="45.07607" lon="6.80954">
        <ele>2402.61</ele>
        <time>2017-01-05T10:58:20Z</time>
      </trkpt>
      <trkpt lat="45.07612" lon="6.8097">
        <ele>2403.77</ele>
        <time>2017-01-05T10:58:22Z</time>
      </trkpt>
      <trkpt lat="45.07618" lon="6.80984">
        <ele>2404.87</ele>
        <time>2017-01-05T10:58:24Z</time>
      </trkpt>
      <trkpt lat="45.0762" lon="6.81">
        <ele>2403.62</ele>
        <time>2017-01-05T10:58:26Z</time>
      </trkpt>
      <trkpt lat="45.07621" lon="6.8102">
        <ele>2401.2</ele>
        <time>2017-01-05T10:58:29Z</time>
      </trkpt>
      <trkpt lat="45.07623" lon="6.81036">
        <ele>2400.9</ele>
        <time>2017-01-05T10:58:32Z</time>
      </trkpt>
      <trkpt lat="45.07628" lon="6.81052">
        <ele>2403.64</ele>
        <time>2017-01-05T10:58:36Z</time>
      </trkpt>
      <trkpt lat="45.07628" lon="6.81069">
        <ele>2405.71</ele>
        <time>2017-01-05T10:58:39Z</time>
      </trkpt>
      <trkpt lat="45.07626" lon="6.81097">
        <ele>2409.38</ele>
        <time>2017-01-05T10:58:43Z</time>
      </trkpt>
      <trkpt lat="45.07624" lon="6.81111">
        <ele>2411.2</ele>
        <time>2017-01-05T10:58:45Z</time>
      </trkpt>
      <trkpt lat="45.07615" lon="6.81126">
        <ele>2407.76</ele>
        <time>2017-01-05T10:58:48Z</time>
      </trkpt>
      <trkpt lat="45.07606" lon="6.81135">
        <ele>2404.43</ele>
        <time>2017-01-05T10:58:50Z</time>
      </trkpt>
      <trkpt lat="45.0759" lon="6.81154">
        <ele>2402.09</ele>
        <time>2017-01-05T10:58:54Z</time>
      </trkpt>
      <trkpt lat="45.0758" lon="6.81161">
        <ele>2399.87</ele>
        <time>2017-01-05T10:58:57Z</time>
      </trkpt>
      <trkpt lat="45.0757" lon="6.81167">
        <ele>2396.36</ele>
        <time>2017-01-05T10:58:59Z</time>
      </trkpt>
      <trkpt lat="45.07548" lon="6.8117">
        <ele>2386.65</ele>
        <time>2017-01-05T10:59:02Z</time>
      </trkpt>
      <trkpt lat="45.07537" lon="6.81172">
        <ele>2382.22</ele>
        <time>2017-01-05T10:59:04Z</time>
      </trkpt>
      <trkpt lat="45.07526" lon="6.81176">
        <ele>2378.75</ele>
        <time>2017-01-05T10:59:06Z</time>
      </trkpt>
      <trkpt lat="45.07515" lon="6.81183">
        <ele>2378.22</ele>
        <time>2017-01-05T10:59:08Z</time>
      </trkpt>
      <trkpt lat="45.07504" lon="6.81191">
        <ele>2378.2</ele>
        <time>2017-01-05T10:59:10Z</time>
      </trkpt>
      <trkpt lat="45.07497" lon="6.81204">
        <ele>2379.34</ele>
        <time>2017-01-05T10:59:12Z</time>
      </trkpt>
      <trkpt lat="45.0749" lon="6.81217">
        <ele>2380.37</ele>
        <time>2017-01-05T10:59:14Z</time>
      </trkpt>
      <trkpt lat="45.07483" lon="6.81229">
        <ele>2380.88</ele>
        <time>2017-01-05T10:59:16Z</time>
      </trkpt>
      <trkpt lat="45.07477" lon="6.8124">
        <ele>2380.55</ele>
        <time>2017-01-05T10:59:18Z</time>
      </trkpt>
      <trkpt lat="45.07465" lon="6.81262">
        <ele>2378.61</ele>
        <time>2017-01-05T10:59:22Z</time>
      </trkpt>
      <trkpt lat="45.07458" lon="6.81277">
        <ele>2376.57</ele>
        <time>2017-01-05T10:59:25Z</time>
      </trkpt>
      <trkpt lat="45.07445" lon="6.81302">
        <ele>2373.95</ele>
        <time>2017-01-05T10:59:30Z</time>
      </trkpt>
      <trkpt lat="45.07441" lon="6.8132">
        <ele>2373.07</ele>
        <time>2017-01-05T10:59:33Z</time>
      </trkpt>
      <trkpt lat="45.07435" lon="6.81345">
        <ele>2369.54</ele>
        <time>2017-01-05T10:59:37Z</time>
      </trkpt>
      <trkpt lat="45.07432" lon="6.81362">
        <ele>2367.16</ele>
        <time>2017-01-05T10:59:40Z</time>
      </trkpt>
      <trkpt lat="45.07428" lon="6.81388">
        <ele>2363.65</ele>
        <time>2017-01-05T10:59:44Z</time>
      </trkpt>
      <trkpt lat="45.07423" lon="6.81418">
        <ele>2360.22</ele>
        <time>2017-01-05T10:59:49Z</time>
      </trkpt>
      <trkpt lat="45.07415" lon="6.81444">
        <ele>2356.21</ele>
        <time>2017-01-05T10:59:53Z</time>
      </trkpt>
      <trkpt lat="45.07412" lon="6.81458">
        <ele>2355.71</ele>
        <time>2017-01-05T10:59:55Z</time>
      </trkpt>
      <trkpt lat="45.07406" lon="6.81485">
        <ele>2354.64</ele>
        <time>2017-01-05T10:59:59Z</time>
      </trkpt>
      <trkpt lat="45.07401" lon="6.81511">
        <ele>2353.65</ele>
        <time>2017-01-05T11:00:03Z</time>
      </trkpt>
      <trkpt lat="45.0739" lon="6.81531">
        <ele>2350.28</ele>
        <time>2017-01-05T11:00:07Z</time>
      </trkpt>
      <trkpt lat="45.07385" lon="6.81549">
        <ele>2344.42</ele>
        <time>2017-01-05T11:00:10Z</time>
      </trkpt>
      <trkpt lat="45.07387" lon="6.81566">
        <ele>2340.08</ele>
        <time>2017-01-05T11:00:13Z</time>
      </trkpt>
      <trkpt lat="45.07401" lon="6.81582">
        <ele>2337.79</ele>
        <time>2017-01-05T11:00:17Z</time>
      </trkpt>
      <trkpt lat="45.07412" lon="6.8159">
        <ele>2337.88</ele>
        <time>2017-01-05T11:00:19Z</time>
      </trkpt>
      <trkpt lat="45.07426" lon="6.81606">
        <ele>2333.28</ele>
        <time>2017-01-05T11:00:32Z</time>
      </trkpt>
      <trkpt lat="45.07408" lon="6.81595">
        <ele>2335.91</ele>
        <time>2017-01-05T11:00:40Z</time>
      </trkpt>
      <trkpt lat="45.07397" lon="6.81588">
        <ele>2335.52</ele>
        <time>2017-01-05T11:00:43Z</time>
      </trkpt>
      <trkpt lat="45.07385" lon="6.81582">
        <ele>2335.15</ele>
        <time>2017-01-05T11:00:46Z</time>
      </trkpt>
      <trkpt lat="45.07374" lon="6.81581">
        <ele>2334.84</ele>
        <time>2017-01-05T11:00:50Z</time>
      </trkpt>
      <trkpt lat="45.07364" lon="6.81573">
        <ele>2335.08</ele>
        <time>2017-01-05T11:00:54Z</time>
      </trkpt>
      <trkpt lat="45.07362" lon="6.81555">
        <ele>2336.29</ele>
        <time>2017-01-05T11:00:57Z</time>
      </trkpt>
      <trkpt lat="45.07362" lon="6.81539">
        <ele>2337.36</ele>
        <time>2017-01-05T11:00:58Z</time>
      </trkpt>
      <trkpt lat="45.0736" lon="6.81521">
        <ele>2336.9</ele>
        <time>2017-01-05T11:01:01Z</time>
      </trkpt>
      <trkpt lat="45.0736" lon="6.81504">
        <ele>2335.85</ele>
        <time>2017-01-05T11:01:03Z</time>
      </trkpt>
      <trkpt lat="45.07358" lon="6.81489">
        <ele>2333.24</ele>
        <time>2017-01-05T11:01:05Z</time>
      </trkpt>
      <trkpt lat="45.07358" lon="6.81475">
        <ele>2332.47</ele>
        <time>2017-01-05T11:01:07Z</time>
      </trkpt>
      <trkpt lat="45.07365" lon="6.8146">
        <ele>2334.61</ele>
        <time>2017-01-05T11:01:09Z</time>
      </trkpt>
      <trkpt lat="45.07365" lon="6.81431">
        <ele>2332.91</ele>
        <time>2017-01-05T11:01:12Z</time>
      </trkpt>
      <trkpt lat="45.07361" lon="6.81414">
        <ele>2330.85</ele>
        <time>2017-01-05T11:01:14Z</time>
      </trkpt>
      <trkpt lat="45.07358" lon="6.81399">
        <ele>2328.97</ele>
        <time>2017-01-05T11:01:16Z</time>
      </trkpt>
      <trkpt lat="45.07358" lon="6.81383">
        <ele>2328.39</ele>
        <time>2017-01-05T11:01:18Z</time>
      </trkpt>
      <trkpt lat="45.07357" lon="6.81369">
        <ele>2327.14</ele>
        <time>2017-01-05T11:01:20Z</time>
      </trkpt>
      <trkpt lat="45.07354" lon="6.81352">
        <ele>2324.66</ele>
        <time>2017-01-05T11:01:22Z</time>
      </trkpt>
      <trkpt lat="45.07353" lon="6.81335">
        <ele>2323.66</ele>
        <time>2017-01-05T11:01:24Z</time>
      </trkpt>
      <trkpt lat="45.07353" lon="6.8132">
        <ele>2323.7</ele>
        <time>2017-01-05T11:01:26Z</time>
      </trkpt>
      <trkpt lat="45.07354" lon="6.813">
        <ele>2324.17</ele>
        <time>2017-01-05T11:01:29Z</time>
      </trkpt>
      <trkpt lat="45.07351" lon="6.81284">
        <ele>2320.95</ele>
        <time>2017-01-05T11:01:31Z</time>
      </trkpt>
      <trkpt lat="45.07359" lon="6.81253">
        <ele>2323.81</ele>
        <time>2017-01-05T11:01:36Z</time>
      </trkpt>
      <trkpt lat="45.0736" lon="6.81236">
        <ele>2323.12</ele>
        <time>2017-01-05T11:01:39Z</time>
      </trkpt>
      <trkpt lat="45.07363" lon="6.81218">
        <ele>2323.17</ele>
        <time>2017-01-05T11:01:42Z</time>
      </trkpt>
      <trkpt lat="45.07369" lon="6.81202">
        <ele>2323.5</ele>
        <time>2017-01-05T11:01:45Z</time>
      </trkpt>
      <trkpt lat="45.07376" lon="6.81192">
        <ele>2324.85</ele>
        <time>2017-01-05T11:01:47Z</time>
      </trkpt>
      <trkpt lat="45.07387" lon="6.81169">
        <ele>2324.74</ele>
        <time>2017-01-05T11:01:51Z</time>
      </trkpt>
      <trkpt lat="45.07394" lon="6.81158">
        <ele>2322.8</ele>
        <time>2017-01-05T11:01:53Z</time>
      </trkpt>
      <trkpt lat="45.07404" lon="6.81149">
        <ele>2322.16</ele>
        <time>2017-01-05T11:01:56Z</time>
      </trkpt>
      <trkpt lat="45.07418" lon="6.81127">
        <ele>2320.64</ele>
        <time>2017-01-05T11:02:01Z</time>
      </trkpt>
      <trkpt lat="45.07424" lon="6.811">
        <ele>2317.2</ele>
        <time>2017-01-05T11:02:05Z</time>
      </trkpt>
      <trkpt lat="45.07423" lon="6.81085">
        <ele>2313.77</ele>
        <time>2017-01-05T11:02:07Z</time>
      </trkpt>
      <trkpt lat="45.0742" lon="6.81054">
        <ele>2311.92</ele>
        <time>2017-01-05T11:02:12Z</time>
      </trkpt>
      <trkpt lat="45.07419" lon="6.81039">
        <ele>2312.06</ele>
        <time>2017-01-05T11:02:15Z</time>
      </trkpt>
      <trkpt lat="45.07424" lon="6.81023">
        <ele>2312.84</ele>
        <time>2017-01-05T11:02:18Z</time>
      </trkpt>
      <trkpt lat="45.07428" lon="6.81009">
        <ele>2311.97</ele>
        <time>2017-01-05T11:02:24Z</time>
      </trkpt>
      <trkpt lat="45.07418" lon="6.81004">
        <ele>2308.89</ele>
        <time>2017-01-05T11:02:28Z</time>
      </trkpt>
      <trkpt lat="45.07404" lon="6.81023">
        <ele>2306.92</ele>
        <time>2017-01-05T11:02:33Z</time>
      </trkpt>
      <trkpt lat="45.07402" lon="6.81037">
        <ele>2306.25</ele>
        <time>2017-01-05T11:02:35Z</time>
      </trkpt>
      <trkpt lat="45.07401" lon="6.81063">
        <ele>2305.13</ele>
        <time>2017-01-05T11:02:40Z</time>
      </trkpt>
      <trkpt lat="45.07395" lon="6.81075">
        <ele>2302.11</ele>
        <time>2017-01-05T11:02:43Z</time>
      </trkpt>
      <trkpt lat="45.07388" lon="6.81092">
        <ele>2299.87</ele>
        <time>2017-01-05T11:02:46Z</time>
      </trkpt>
      <trkpt lat="45.07379" lon="6.81115">
        <ele>2300.98</ele>
        <time>2017-01-05T11:02:50Z</time>
      </trkpt>
      <trkpt lat="45.07367" lon="6.81123">
        <ele>2298.72</ele>
        <time>2017-01-05T11:02:53Z</time>
      </trkpt>
      <trkpt lat="45.07356" lon="6.81124">
        <ele>2294.08</ele>
        <time>2017-01-05T11:02:55Z</time>
      </trkpt>
      <trkpt lat="45.07345" lon="6.81145">
        <ele>2293.88</ele>
        <time>2017-01-05T11:02:59Z</time>
      </trkpt>
      <trkpt lat="45.07336" lon="6.81152">
        <ele>2289.96</ele>
        <time>2017-01-05T11:03:01Z</time>
      </trkpt>
      <trkpt lat="45.07326" lon="6.81161">
        <ele>2286.01</ele>
        <time>2017-01-05T11:03:03Z</time>
      </trkpt>
      <trkpt lat="45.07313" lon="6.81164">
        <ele>2279.41</ele>
        <time>2017-01-05T11:03:05Z</time>
      </trkpt>
      <trkpt lat="45.07293" lon="6.81184">
        <ele>2272.62</ele>
        <time>2017-01-05T11:03:10Z</time>
      </trkpt>
      <trkpt lat="45.07283" lon="6.81191">
        <ele>2268.55</ele>
        <time>2017-01-05T11:03:12Z</time>
      </trkpt>
      <trkpt lat="45.0728" lon="6.81207">
        <ele>2267.92</ele>
        <time>2017-01-05T11:03:16Z</time>
      </trkpt>
      <trkpt lat="45.07276" lon="6.81223">
        <ele>2267.5</ele>
        <time>2017-01-05T11:03:20Z</time>
      </trkpt>
      <trkpt lat="45.0728" lon="6.8126">
        <ele>2275.95</ele>
        <time>2017-01-05T11:03:24Z</time>
      </trkpt>
      <trkpt lat="45.07286" lon="6.81272">
        <ele>2280.53</ele>
        <time>2017-01-05T11:03:25Z</time>
      </trkpt>
      <trkpt lat="45.07275" lon="6.8128">
        <ele>2276.64</ele>
        <time>2017-01-05T11:03:27Z</time>
      </trkpt>
      <trkpt lat="45.07269" lon="6.81294">
        <ele>2274.95</ele>
        <time>2017-01-05T11:03:29Z</time>
      </trkpt>
      <trkpt lat="45.07268" lon="6.8132">
        <ele>2275.21</ele>
        <time>2017-01-05T11:03:31Z</time>
      </trkpt>
      <trkpt lat="45.07268" lon="6.81351">
        <ele>2275.96</ele>
        <time>2017-01-05T11:03:36Z</time>
      </trkpt>
      <trkpt lat="45.07271" lon="6.81368">
        <ele>2278.35</ele>
        <time>2017-01-05T11:03:38Z</time>
      </trkpt>
      <trkpt lat="45.07265" lon="6.81379">
        <ele>2274.09</ele>
        <time>2017-01-05T11:03:40Z</time>
      </trkpt>
      <trkpt lat="45.07264" lon="6.81393">
        <ele>2273.49</ele>
        <time>2017-01-05T11:03:42Z</time>
      </trkpt>
      <trkpt lat="45.07261" lon="6.81411">
        <ele>2270.01</ele>
        <time>2017-01-05T11:03:43Z</time>
      </trkpt>
      <trkpt lat="45.07257" lon="6.81425">
        <ele>2267.08</ele>
        <time>2017-01-05T11:03:45Z</time>
      </trkpt>
      <trkpt lat="45.07251" lon="6.81441">
        <ele>2263.64</ele>
        <time>2017-01-05T11:03:47Z</time>
      </trkpt>
      <trkpt lat="45.0724" lon="6.81467">
        <ele>2263.61</ele>
        <time>2017-01-05T11:03:51Z</time>
      </trkpt>
      <trkpt lat="45.07238" lon="6.81481">
        <ele>2265.31</ele>
        <time>2017-01-05T11:03:53Z</time>
      </trkpt>
      <trkpt lat="45.07234" lon="6.815">
        <ele>2265.37</ele>
        <time>2017-01-05T11:03:56Z</time>
      </trkpt>
      <trkpt lat="45.07226" lon="6.81524">
        <ele>2264.53</ele>
        <time>2017-01-05T11:04:00Z</time>
      </trkpt>
      <trkpt lat="45.07214" lon="6.81539">
        <ele>2260.6</ele>
        <time>2017-01-05T11:04:03Z</time>
      </trkpt>
      <trkpt lat="45.07201" lon="6.81557">
        <ele>2257.78</ele>
        <time>2017-01-05T11:04:08Z</time>
      </trkpt>
      <trkpt lat="45.07195" lon="6.81573">
        <ele>2257.55</ele>
        <time>2017-01-05T11:04:10Z</time>
      </trkpt>
      <trkpt lat="45.07185" lon="6.81579">
        <ele>2252.88</ele>
        <time>2017-01-05T11:04:12Z</time>
      </trkpt>
      <trkpt lat="45.07175" lon="6.81606">
        <ele>2252</ele>
        <time>2017-01-05T11:04:16Z</time>
      </trkpt>
      <trkpt lat="45.07166" lon="6.81621">
        <ele>2248.8</ele>
        <time>2017-01-05T11:04:18Z</time>
      </trkpt>
      <trkpt lat="45.07156" lon="6.8164">
        <ele>2244.02</ele>
        <time>2017-01-05T11:04:21Z</time>
      </trkpt>
      <trkpt lat="45.07158" lon="6.81659">
        <ele>2248.92</ele>
        <time>2017-01-05T11:04:23Z</time>
      </trkpt>
      <trkpt lat="45.0715" lon="6.8167">
        <ele>2244.34</ele>
        <time>2017-01-05T11:04:25Z</time>
      </trkpt>
      <trkpt lat="45.07146" lon="6.81685">
        <ele>2243.17</ele>
        <time>2017-01-05T11:04:28Z</time>
      </trkpt>
      <trkpt lat="45.07145" lon="6.817">
        <ele>2244.54</ele>
        <time>2017-01-05T11:04:30Z</time>
      </trkpt>
      <trkpt lat="45.07134" lon="6.81726">
        <ele>2241.63</ele>
        <time>2017-01-05T11:04:34Z</time>
      </trkpt>
      <trkpt lat="45.07128" lon="6.81743">
        <ele>2242.5</ele>
        <time>2017-01-05T11:04:37Z</time>
      </trkpt>
      <trkpt lat="45.07121" lon="6.81756">
        <ele>2241.01</ele>
        <time>2017-01-05T11:04:39Z</time>
      </trkpt>
      <trkpt lat="45.07111" lon="6.81767">
        <ele>2238.5</ele>
        <time>2017-01-05T11:04:42Z</time>
      </trkpt>
      <trkpt lat="45.07094" lon="6.81774">
        <ele>2231.33</ele>
        <time>2017-01-05T11:04:45Z</time>
      </trkpt>
      <trkpt lat="45.07085" lon="6.81786">
        <ele>2228.14</ele>
        <time>2017-01-05T11:04:48Z</time>
      </trkpt>
      <trkpt lat="45.07076" lon="6.81798">
        <ele>2224.54</ele>
        <time>2017-01-05T11:04:51Z</time>
      </trkpt>
      <trkpt lat="45.07068" lon="6.8181">
        <ele>2222.93</ele>
        <time>2017-01-05T11:04:54Z</time>
      </trkpt>
      <trkpt lat="45.0706" lon="6.81818">
        <ele>2220.34</ele>
        <time>2017-01-05T11:04:56Z</time>
      </trkpt>
      <trkpt lat="45.07062" lon="6.81837">
        <ele>2220.25</ele>
        <time>2017-01-05T11:04:59Z</time>
      </trkpt>
      <trkpt lat="45.07074" lon="6.8184">
        <ele>2223.08</ele>
        <time>2017-01-05T11:05:02Z</time>
      </trkpt>
      <trkpt lat="45.07085" lon="6.81839">
        <ele>2226.87</ele>
        <time>2017-01-05T11:05:04Z</time>
      </trkpt>
      <trkpt lat="45.07094" lon="6.81846">
        <ele>2226.26</ele>
        <time>2017-01-05T11:05:06Z</time>
      </trkpt>
      <trkpt lat="45.07103" lon="6.81843">
        <ele>2229.4</ele>
        <time>2017-01-05T11:05:09Z</time>
      </trkpt>
      <trkpt lat="45.07116" lon="6.81841">
        <ele>2231.52</ele>
        <time>2017-01-05T11:05:12Z</time>
      </trkpt>
      <trkpt lat="45.07128" lon="6.81831">
        <ele>2235.23</ele>
        <time>2017-01-05T11:05:14Z</time>
      </trkpt>
      <trkpt lat="45.0715" lon="6.81828">
        <ele>2236.23</ele>
        <time>2017-01-05T11:05:18Z</time>
      </trkpt>
      <trkpt lat="45.07161" lon="6.8183">
        <ele>2234.32</ele>
        <time>2017-01-05T11:05:20Z</time>
      </trkpt>
      <trkpt lat="45.07172" lon="6.81825">
        <ele>2236.18</ele>
        <time>2017-01-05T11:05:23Z</time>
      </trkpt>
      <trkpt lat="45.07181" lon="6.81817">
        <ele>2241.88</ele>
        <time>2017-01-05T11:05:25Z</time>
      </trkpt>
      <trkpt lat="45.07192" lon="6.81811">
        <ele>2247.67</ele>
        <time>2017-01-05T11:05:27Z</time>
      </trkpt>
      <trkpt lat="45.07204" lon="6.81811">
        <ele>2246.58</ele>
        <time>2017-01-05T11:05:29Z</time>
      </trkpt>
      <trkpt lat="45.07223" lon="6.81805">
        <ele>2247.16</ele>
        <time>2017-01-05T11:05:33Z</time>
      </trkpt>
      <trkpt lat="45.07235" lon="6.81806">
        <ele>2241.16</ele>
        <time>2017-01-05T11:05:35Z</time>
      </trkpt>
      <trkpt lat="45.07248" lon="6.818">
        <ele>2241.87</ele>
        <time>2017-01-05T11:05:37Z</time>
      </trkpt>
      <trkpt lat="45.07258" lon="6.81791">
        <ele>2250.45</ele>
        <time>2017-01-05T11:05:39Z</time>
      </trkpt>
      <trkpt lat="45.07269" lon="6.81788">
        <ele>2250.33</ele>
        <time>2017-01-05T11:05:42Z</time>
      </trkpt>
      <trkpt lat="45.07279" lon="6.81781">
        <ele>2255.57</ele>
        <time>2017-01-05T11:05:45Z</time>
      </trkpt>
      <trkpt lat="45.07291" lon="6.81779">
        <ele>2255.12</ele>
        <time>2017-01-05T11:05:48Z</time>
      </trkpt>
      <trkpt lat="45.07302" lon="6.8178">
        <ele>2250.28</ele>
        <time>2017-01-05T11:05:52Z</time>
      </trkpt>
      <trkpt lat="45.07314" lon="6.81774">
        <ele>2253.24</ele>
        <time>2017-01-05T11:05:55Z</time>
      </trkpt>
      <trkpt lat="45.07326" lon="6.81773">
        <ele>2252.38</ele>
        <time>2017-01-05T11:05:57Z</time>
      </trkpt>
      <trkpt lat="45.0734" lon="6.81776">
        <ele>2249.55</ele>
        <time>2017-01-05T11:06:00Z</time>
      </trkpt>
      <trkpt lat="45.07352" lon="6.81779">
        <ele>2246.94</ele>
        <time>2017-01-05T11:06:04Z</time>
      </trkpt>
      <trkpt lat="45.07374" lon="6.81782">
        <ele>2245.77</ele>
        <time>2017-01-05T11:06:10Z</time>
      </trkpt>
      <trkpt lat="45.07386" lon="6.81784">
        <ele>2246.24</ele>
        <time>2017-01-05T11:06:12Z</time>
      </trkpt>
      <trkpt lat="45.07396" lon="6.81786">
        <ele>2245.14</ele>
        <time>2017-01-05T11:06:14Z</time>
      </trkpt>
      <trkpt lat="45.07418" lon="6.81777">
        <ele>2248.44</ele>
        <time>2017-01-05T11:06:20Z</time>
      </trkpt>
      <trkpt lat="45.07438" lon="6.81772">
        <ele>2251.69</ele>
        <time>2017-01-05T11:06:25Z</time>
      </trkpt>
      <trkpt lat="45.07463" lon="6.81781">
        <ele>2246.27</ele>
        <time>2017-01-05T11:06:29Z</time>
      </trkpt>
      <trkpt lat="45.07479" lon="6.8178">
        <ele>2246.53</ele>
        <time>2017-01-05T11:06:31Z</time>
      </trkpt>
      <trkpt lat="45.07493" lon="6.81785">
        <ele>2245.61</ele>
        <time>2017-01-05T11:06:34Z</time>
      </trkpt>
      <trkpt lat="45.07505" lon="6.81794">
        <ele>2242.99</ele>
        <time>2017-01-05T11:06:37Z</time>
      </trkpt>
      <trkpt lat="45.07525" lon="6.81803">
        <ele>2238.48</ele>
        <time>2017-01-05T11:06:40Z</time>
      </trkpt>
      <trkpt lat="45.07541" lon="6.81814">
        <ele>2232.49</ele>
        <time>2017-01-05T11:06:43Z</time>
      </trkpt>
      <trkpt lat="45.07551" lon="6.81816">
        <ele>2231.08</ele>
        <time>2017-01-05T11:06:45Z</time>
      </trkpt>
      <trkpt lat="45.07571" lon="6.81811">
        <ele>2235.64</ele>
        <time>2017-01-05T11:06:49Z</time>
      </trkpt>
      <trkpt lat="45.07589" lon="6.81799">
        <ele>2244.24</ele>
        <time>2017-01-05T11:06:53Z</time>
      </trkpt>
      <trkpt lat="45.07599" lon="6.81794">
        <ele>2248.13</ele>
        <time>2017-01-05T11:06:55Z</time>
      </trkpt>
      <trkpt lat="45.0761" lon="6.81791">
        <ele>2251.39</ele>
        <time>2017-01-05T11:06:57Z</time>
      </trkpt>
      <trkpt lat="45.0762" lon="6.81813">
        <ele>2244.64</ele>
        <time>2017-01-05T11:07:01Z</time>
      </trkpt>
      <trkpt lat="45.07622" lon="6.81829">
        <ele>2239.75</ele>
        <time>2017-01-05T11:07:04Z</time>
      </trkpt>
      <trkpt lat="45.0763" lon="6.81842">
        <ele>2238.93</ele>
        <time>2017-01-05T11:07:07Z</time>
      </trkpt>
      <trkpt lat="45.0764" lon="6.81852">
        <ele>2241.15</ele>
        <time>2017-01-05T11:07:09Z</time>
      </trkpt>
      <trkpt lat="45.07657" lon="6.81869">
        <ele>2243.22</ele>
        <time>2017-01-05T11:07:14Z</time>
      </trkpt>
      <trkpt lat="45.07663" lon="6.81881">
        <ele>2241.98</ele>
        <time>2017-01-05T11:07:17Z</time>
      </trkpt>
      <trkpt lat="45.07667" lon="6.81897">
        <ele>2237.58</ele>
        <time>2017-01-05T11:07:20Z</time>
      </trkpt>
      <trkpt lat="45.07665" lon="6.81925">
        <ele>2227.54</ele>
        <time>2017-01-05T11:07:25Z</time>
      </trkpt>
      <trkpt lat="45.07657" lon="6.81937">
        <ele>2224.17</ele>
        <time>2017-01-05T11:07:28Z</time>
      </trkpt>
      <trkpt lat="45.07647" lon="6.81945">
        <ele>2220.8</ele>
        <time>2017-01-05T11:07:31Z</time>
      </trkpt>
      <trkpt lat="45.0764" lon="6.81956">
        <ele>2218.85</ele>
        <time>2017-01-05T11:07:34Z</time>
      </trkpt>
      <trkpt lat="45.0764" lon="6.81971">
        <ele>2218.19</ele>
        <time>2017-01-05T11:07:37Z</time>
      </trkpt>
      <trkpt lat="45.07643" lon="6.81985">
        <ele>2218.86</ele>
        <time>2017-01-05T11:07:40Z</time>
      </trkpt>
      <trkpt lat="45.07649" lon="6.81998">
        <ele>2220.59</ele>
        <time>2017-01-05T11:07:43Z</time>
      </trkpt>
      <trkpt lat="45.07652" lon="6.82013">
        <ele>2221.31</ele>
        <time>2017-01-05T11:07:46Z</time>
      </trkpt>
      <trkpt lat="45.07649" lon="6.82028">
        <ele>2220.86</ele>
        <time>2017-01-05T11:07:49Z</time>
      </trkpt>
      <trkpt lat="45.07647" lon="6.82044">
        <ele>2218.59</ele>
        <time>2017-01-05T11:07:52Z</time>
      </trkpt>
      <trkpt lat="45.07649" lon="6.8206">
        <ele>2216.36</ele>
        <time>2017-01-05T11:07:55Z</time>
      </trkpt>
      <trkpt lat="45.07647" lon="6.82074">
        <ele>2213.11</ele>
        <time>2017-01-05T11:07:58Z</time>
      </trkpt>
      <trkpt lat="45.07639" lon="6.82083">
        <ele>2213.12</ele>
        <time>2017-01-05T11:08:02Z</time>
      </trkpt>
      <trkpt lat="45.0763" lon="6.82073">
        <ele>2214.17</ele>
        <time>2017-01-05T11:09:31Z</time>
      </trkpt>
      <trkpt lat="45.07612" lon="6.82071">
        <ele>2213.52</ele>
        <time>2017-01-05T12:32:43Z</time>
      </trkpt>
      <trkpt lat="45.07627" lon="6.82086">
        <ele>2211.8</ele>
        <time>2017-01-05T12:32:49Z</time>
      </trkpt>
      <trkpt lat="45.07644" lon="6.82074">
        <ele>2213.59</ele>
        <time>2017-01-05T12:32:56Z</time>
      </trkpt>
      <trkpt lat="45.07642" lon="6.82059">
        <ele>2216.43</ele>
        <time>2017-01-05T12:33:00Z</time>
      </trkpt>
      <trkpt lat="45.07647" lon="6.8203">
        <ele>2220.26</ele>
        <time>2017-01-05T12:33:05Z</time>
      </trkpt>
      <trkpt lat="45.07651" lon="6.82017">
        <ele>2221.17</ele>
        <time>2017-01-05T12:33:07Z</time>
      </trkpt>
      <trkpt lat="45.07648" lon="6.81998">
        <ele>2220.25</ele>
        <time>2017-01-05T12:33:10Z</time>
      </trkpt>
      <trkpt lat="45.07639" lon="6.81984">
        <ele>2218.05</ele>
        <time>2017-01-05T12:33:12Z</time>
      </trkpt>
      <trkpt lat="45.07638" lon="6.81966">
        <ele>2217.84</ele>
        <time>2017-01-05T12:33:15Z</time>
      </trkpt>
      <trkpt lat="45.07643" lon="6.81953">
        <ele>2219.64</ele>
        <time>2017-01-05T12:33:18Z</time>
      </trkpt>
      <trkpt lat="45.07652" lon="6.81945">
        <ele>2221.75</ele>
        <time>2017-01-05T12:33:21Z</time>
      </trkpt>
      <trkpt lat="45.07662" lon="6.81939">
        <ele>2224.74</ele>
        <time>2017-01-05T12:33:24Z</time>
      </trkpt>
      <trkpt lat="45.07666" lon="6.81925">
        <ele>2227.63</ele>
        <time>2017-01-05T12:33:28Z</time>
      </trkpt>
      <trkpt lat="45.07665" lon="6.81899">
        <ele>2236.07</ele>
        <time>2017-01-05T12:33:39Z</time>
      </trkpt>
      <trkpt lat="45.07663" lon="6.81881">
        <ele>2241.95</ele>
        <time>2017-01-05T12:33:42Z</time>
      </trkpt>
      <trkpt lat="45.07657" lon="6.81868">
        <ele>2243.61</ele>
        <time>2017-01-05T12:33:44Z</time>
      </trkpt>
      <trkpt lat="45.07649" lon="6.81853">
        <ele>2243.83</ele>
        <time>2017-01-05T12:33:46Z</time>
      </trkpt>
      <trkpt lat="45.07638" lon="6.81843">
        <ele>2241.06</ele>
        <time>2017-01-05T12:33:49Z</time>
      </trkpt>
      <trkpt lat="45.07629" lon="6.81834">
        <ele>2239.79</ele>
        <time>2017-01-05T12:33:52Z</time>
      </trkpt>
      <trkpt lat="45.07618" lon="6.8181">
        <ele>2245.09</ele>
        <time>2017-01-05T12:33:57Z</time>
      </trkpt>
      <trkpt lat="45.07603" lon="6.81791">
        <ele>2249.91</ele>
        <time>2017-01-05T12:34:03Z</time>
      </trkpt>
      <trkpt lat="45.07592" lon="6.8179">
        <ele>2249.06</ele>
        <time>2017-01-05T12:34:05Z</time>
      </trkpt>
      <trkpt lat="45.07582" lon="6.81794">
        <ele>2245.85</ele>
        <time>2017-01-05T12:34:08Z</time>
      </trkpt>
      <trkpt lat="45.07568" lon="6.81802">
        <ele>2240.07</ele>
        <time>2017-01-05T12:34:11Z</time>
      </trkpt>
      <trkpt lat="45.07558" lon="6.81804">
        <ele>2238.02</ele>
        <time>2017-01-05T12:34:13Z</time>
      </trkpt>
      <trkpt lat="45.07548" lon="6.81804">
        <ele>2237.93</ele>
        <time>2017-01-05T12:34:16Z</time>
      </trkpt>
      <trkpt lat="45.07537" lon="6.81803">
        <ele>2238.11</ele>
        <time>2017-01-05T12:39:18Z</time>
      </trkpt>
      <trkpt lat="45.07515" lon="6.81798">
        <ele>2241.44</ele>
        <time>2017-01-05T12:39:27Z</time>
      </trkpt>
      <trkpt lat="45.07506" lon="6.8179">
        <ele>2244.61</ele>
        <time>2017-01-05T12:39:28Z</time>
      </trkpt>
      <trkpt lat="45.07496" lon="6.81784">
        <ele>2246.54</ele>
        <time>2017-01-05T12:39:30Z</time>
      </trkpt>
      <trkpt lat="45.07486" lon="6.8178">
        <ele>2246.96</ele>
        <time>2017-01-05T12:39:32Z</time>
      </trkpt>
      <trkpt lat="45.07473" lon="6.81773">
        <ele>2248.98</ele>
        <time>2017-01-05T12:39:35Z</time>
      </trkpt>
      <trkpt lat="45.07451" lon="6.81764">
        <ele>2254.4</ele>
        <time>2017-01-05T12:39:40Z</time>
      </trkpt>
      <trkpt lat="45.07435" lon="6.81764">
        <ele>2254.63</ele>
        <time>2017-01-05T12:39:42Z</time>
      </trkpt>
      <trkpt lat="45.07425" lon="6.81772">
        <ele>2251.09</ele>
        <time>2017-01-05T12:39:44Z</time>
      </trkpt>
      <trkpt lat="45.07413" lon="6.81775">
        <ele>2249.7</ele>
        <time>2017-01-05T12:39:46Z</time>
      </trkpt>
      <trkpt lat="45.07401" lon="6.8178">
        <ele>2248.06</ele>
        <time>2017-01-05T12:39:48Z</time>
      </trkpt>
      <trkpt lat="45.07389" lon="6.81781">
        <ele>2248.4</ele>
        <time>2017-01-05T12:39:51Z</time>
      </trkpt>
      <trkpt lat="45.07373" lon="6.81781">
        <ele>2246.39</ele>
        <time>2017-01-05T12:39:53Z</time>
      </trkpt>
      <trkpt lat="45.07359" lon="6.81776">
        <ele>2247.9</ele>
        <time>2017-01-05T12:39:55Z</time>
      </trkpt>
      <trkpt lat="45.07346" lon="6.81777">
        <ele>2248.54</ele>
        <time>2017-01-05T12:39:57Z</time>
      </trkpt>
      <trkpt lat="45.07327" lon="6.81779">
        <ele>2247.97</ele>
        <time>2017-01-05T12:40:14Z</time>
      </trkpt>
      <trkpt lat="45.07316" lon="6.81782">
        <ele>2245.99</ele>
        <time>2017-01-05T12:40:18Z</time>
      </trkpt>
      <trkpt lat="45.07297" lon="6.81785">
        <ele>2246.21</ele>
        <time>2017-01-05T12:40:26Z</time>
      </trkpt>
      <trkpt lat="45.07285" lon="6.81786">
        <ele>2248.27</ele>
        <time>2017-01-05T12:40:29Z</time>
      </trkpt>
      <trkpt lat="45.07268" lon="6.81795">
        <ele>2242.62</ele>
        <time>2017-01-05T12:40:32Z</time>
      </trkpt>
      <trkpt lat="45.07246" lon="6.81804">
        <ele>2238.19</ele>
        <time>2017-01-05T12:40:37Z</time>
      </trkpt>
      <trkpt lat="45.07234" lon="6.8181">
        <ele>2238.39</ele>
        <time>2017-01-05T12:40:39Z</time>
      </trkpt>
      <trkpt lat="45.07222" lon="6.81814">
        <ele>2240.57</ele>
        <time>2017-01-05T12:40:41Z</time>
      </trkpt>
      <trkpt lat="45.07201" lon="6.81819">
        <ele>2239.88</ele>
        <time>2017-01-05T12:40:45Z</time>
      </trkpt>
      <trkpt lat="45.07189" lon="6.8182">
        <ele>2239.76</ele>
        <time>2017-01-05T12:40:48Z</time>
      </trkpt>
      <trkpt lat="45.07178" lon="6.81822">
        <ele>2238.09</ele>
        <time>2017-01-05T12:40:50Z</time>
      </trkpt>
      <trkpt lat="45.07167" lon="6.81823">
        <ele>2237.57</ele>
        <time>2017-01-05T12:40:52Z</time>
      </trkpt>
      <trkpt lat="45.07153" lon="6.81826">
        <ele>2237.01</ele>
        <time>2017-01-05T12:40:55Z</time>
      </trkpt>
      <trkpt lat="45.07144" lon="6.81834">
        <ele>2234.13</ele>
        <time>2017-01-05T12:40:56Z</time>
      </trkpt>
      <trkpt lat="45.07124" lon="6.81843">
        <ele>2231.04</ele>
        <time>2017-01-05T12:40:59Z</time>
      </trkpt>
      <trkpt lat="45.07112" lon="6.81847">
        <ele>2229.7</ele>
        <time>2017-01-05T12:41:02Z</time>
      </trkpt>
      <trkpt lat="45.07101" lon="6.81849">
        <ele>2226.91</ele>
        <time>2017-01-05T12:41:05Z</time>
      </trkpt>
      <trkpt lat="45.07088" lon="6.81849">
        <ele>2224.3</ele>
        <time>2017-01-05T12:41:08Z</time>
      </trkpt>
      <trkpt lat="45.07078" lon="6.81843">
        <ele>2223.54</ele>
        <time>2017-01-05T12:41:11Z</time>
      </trkpt>
      <trkpt lat="45.07068" lon="6.81841">
        <ele>2221.01</ele>
        <time>2017-01-05T12:41:14Z</time>
      </trkpt>
      <trkpt lat="45.07062" lon="6.81827">
        <ele>2221.18</ele>
        <time>2017-01-05T12:41:19Z</time>
      </trkpt>
      <trkpt lat="45.0707" lon="6.81812">
        <ele>2223.81</ele>
        <time>2017-01-05T12:41:22Z</time>
      </trkpt>
      <trkpt lat="45.07079" lon="6.81803">
        <ele>2226.4</ele>
        <time>2017-01-05T12:41:24Z</time>
      </trkpt>
      <trkpt lat="45.07085" lon="6.8179">
        <ele>2228.35</ele>
        <time>2017-01-05T12:41:26Z</time>
      </trkpt>
      <trkpt lat="45.07093" lon="6.8178">
        <ele>2231.55</ele>
        <time>2017-01-05T12:41:28Z</time>
      </trkpt>
      <trkpt lat="45.07104" lon="6.81766">
        <ele>2234.74</ele>
        <time>2017-01-05T12:41:31Z</time>
      </trkpt>
      <trkpt lat="45.07114" lon="6.81744">
        <ele>2236.31</ele>
        <time>2017-01-05T12:41:35Z</time>
      </trkpt>
      <trkpt lat="45.07127" lon="6.81722">
        <ele>2237.78</ele>
        <time>2017-01-05T12:41:39Z</time>
      </trkpt>
      <trkpt lat="45.07133" lon="6.81704">
        <ele>2237.72</ele>
        <time>2017-01-05T12:41:42Z</time>
      </trkpt>
      <trkpt lat="45.07137" lon="6.81687">
        <ele>2237.56</ele>
        <time>2017-01-05T12:41:45Z</time>
      </trkpt>
      <trkpt lat="45.07145" lon="6.81657">
        <ele>2238.83</ele>
        <time>2017-01-05T12:41:50Z</time>
      </trkpt>
      <trkpt lat="45.07153" lon="6.81647">
        <ele>2242.53</ele>
        <time>2017-01-05T12:41:52Z</time>
      </trkpt>
      <trkpt lat="45.07162" lon="6.81633">
        <ele>2247.55</ele>
        <time>2017-01-05T12:41:55Z</time>
      </trkpt>
      <trkpt lat="45.07166" lon="6.81608">
        <ele>2246.86</ele>
        <time>2017-01-05T12:41:57Z</time>
      </trkpt>
      <trkpt lat="45.07171" lon="6.81596">
        <ele>2248.07</ele>
        <time>2017-01-05T12:42:01Z</time>
      </trkpt>
      <trkpt lat="45.0718" lon="6.81586">
        <ele>2251.7</ele>
        <time>2017-01-05T12:42:04Z</time>
      </trkpt>
      <trkpt lat="45.07188" lon="6.81571">
        <ele>2253.38</ele>
        <time>2017-01-05T12:42:07Z</time>
      </trkpt>
      <trkpt lat="45.07194" lon="6.81556">
        <ele>2253.03</ele>
        <time>2017-01-05T12:42:10Z</time>
      </trkpt>
      <trkpt lat="45.072" lon="6.81543">
        <ele>2253.02</ele>
        <time>2017-01-05T12:42:12Z</time>
      </trkpt>
      <trkpt lat="45.07205" lon="6.81531">
        <ele>2252.72</ele>
        <time>2017-01-05T12:42:15Z</time>
      </trkpt>
      <trkpt lat="45.07211" lon="6.81518">
        <ele>2254.07</ele>
        <time>2017-01-05T12:42:18Z</time>
      </trkpt>
      <trkpt lat="45.07215" lon="6.81502">
        <ele>2254.13</ele>
        <time>2017-01-05T12:42:21Z</time>
      </trkpt>
      <trkpt lat="45.07226" lon="6.81486">
        <ele>2258.9</ele>
        <time>2017-01-05T12:42:25Z</time>
      </trkpt>
      <trkpt lat="45.07231" lon="6.8147">
        <ele>2259.74</ele>
        <time>2017-01-05T12:42:29Z</time>
      </trkpt>
      <trkpt lat="45.07236" lon="6.81457">
        <ele>2260.09</ele>
        <time>2017-01-05T12:42:31Z</time>
      </trkpt>
      <trkpt lat="45.07243" lon="6.8143">
        <ele>2259.3</ele>
        <time>2017-01-05T12:42:35Z</time>
      </trkpt>
      <trkpt lat="45.0725" lon="6.81406">
        <ele>2262.61</ele>
        <time>2017-01-05T12:42:39Z</time>
      </trkpt>
      <trkpt lat="45.07254" lon="6.8139">
        <ele>2266.95</ele>
        <time>2017-01-05T12:42:42Z</time>
      </trkpt>
      <trkpt lat="45.0726" lon="6.81376">
        <ele>2271.13</ele>
        <time>2017-01-05T12:42:45Z</time>
      </trkpt>
      <trkpt lat="45.07261" lon="6.81341">
        <ele>2272.3</ele>
        <time>2017-01-05T12:42:50Z</time>
      </trkpt>
      <trkpt lat="45.07267" lon="6.81311">
        <ele>2274.59</ele>
        <time>2017-01-05T12:42:55Z</time>
      </trkpt>
      <trkpt lat="45.07267" lon="6.81296">
        <ele>2273.95</ele>
        <time>2017-01-05T12:42:57Z</time>
      </trkpt>
      <trkpt lat="45.07272" lon="6.8128">
        <ele>2275</ele>
        <time>2017-01-05T12:43:00Z</time>
      </trkpt>
      <trkpt lat="45.07275" lon="6.81253">
        <ele>2272.18</ele>
        <time>2017-01-05T12:43:04Z</time>
      </trkpt>
      <trkpt lat="45.07282" lon="6.81238">
        <ele>2272.98</ele>
        <time>2017-01-05T12:43:07Z</time>
      </trkpt>
      <trkpt lat="45.07285" lon="6.81225">
        <ele>2271.79</ele>
        <time>2017-01-05T12:43:09Z</time>
      </trkpt>
      <trkpt lat="45.07291" lon="6.8121">
        <ele>2273.29</ele>
        <time>2017-01-05T12:43:12Z</time>
      </trkpt>
      <trkpt lat="45.07298" lon="6.81196">
        <ele>2275.55</ele>
        <time>2017-01-05T12:43:16Z</time>
      </trkpt>
      <trkpt lat="45.07306" lon="6.81185">
        <ele>2278.39</ele>
        <time>2017-01-05T12:43:20Z</time>
      </trkpt>
      <trkpt lat="45.07315" lon="6.81177">
        <ele>2282.29</ele>
        <time>2017-01-05T12:43:23Z</time>
      </trkpt>
      <trkpt lat="45.07324" lon="6.81167">
        <ele>2286.14</ele>
        <time>2017-01-05T12:43:26Z</time>
      </trkpt>
      <trkpt lat="45.07334" lon="6.81158">
        <ele>2289.92</ele>
        <time>2017-01-05T12:43:29Z</time>
      </trkpt>
      <trkpt lat="45.07345" lon="6.81149">
        <ele>2295.2</ele>
        <time>2017-01-05T12:43:32Z</time>
      </trkpt>
      <trkpt lat="45.07356" lon="6.81142">
        <ele>2299.13</ele>
        <time>2017-01-05T12:43:35Z</time>
      </trkpt>
      <trkpt lat="45.07365" lon="6.81134">
        <ele>2301.38</ele>
        <time>2017-01-05T12:43:38Z</time>
      </trkpt>
      <trkpt lat="45.07374" lon="6.81127">
        <ele>2302.71</ele>
        <time>2017-01-05T12:43:41Z</time>
      </trkpt>
      <trkpt lat="45.0738" lon="6.81115">
        <ele>2301.28</ele>
        <time>2017-01-05T12:43:43Z</time>
      </trkpt>
      <trkpt lat="45.07385" lon="6.81102">
        <ele>2300.27</ele>
        <time>2017-01-05T12:43:46Z</time>
      </trkpt>
      <trkpt lat="45.07394" lon="6.81092">
        <ele>2302.51</ele>
        <time>2017-01-05T12:43:49Z</time>
      </trkpt>
      <trkpt lat="45.07401" lon="6.81079">
        <ele>2304.24</ele>
        <time>2017-01-05T12:43:52Z</time>
      </trkpt>
      <trkpt lat="45.07397" lon="6.81063">
        <ele>2303.37</ele>
        <time>2017-01-05T12:43:55Z</time>
      </trkpt>
      <trkpt lat="45.07395" lon="6.81048">
        <ele>2303.53</ele>
        <time>2017-01-05T12:43:58Z</time>
      </trkpt>
      <trkpt lat="45.07401" lon="6.81034">
        <ele>2306.26</ele>
        <time>2017-01-05T12:44:01Z</time>
      </trkpt>
      <trkpt lat="45.07409" lon="6.81021">
        <ele>2308.57</ele>
        <time>2017-01-05T12:44:04Z</time>
      </trkpt>
      <trkpt lat="45.07417" lon="6.81009">
        <ele>2309.3</ele>
        <time>2017-01-05T12:44:07Z</time>
      </trkpt>
      <trkpt lat="45.07429" lon="6.81">
        <ele>2311.22</ele>
        <time>2017-01-05T12:44:12Z</time>
      </trkpt>
      <trkpt lat="45.07444" lon="6.80983">
        <ele>2314.73</ele>
        <time>2017-01-05T12:47:42Z</time>
      </trkpt>
      <trkpt lat="45.0745" lon="6.80968">
        <ele>2318.32</ele>
        <time>2017-01-05T12:47:45Z</time>
      </trkpt>
      <trkpt lat="45.07444" lon="6.80955">
        <ele>2315.92</ele>
        <time>2017-01-05T12:47:48Z</time>
      </trkpt>
      <trkpt lat="45.07434" lon="6.80945">
        <ele>2312.26</ele>
        <time>2017-01-05T12:47:51Z</time>
      </trkpt>
      <trkpt lat="45.07424" lon="6.80937">
        <ele>2307.68</ele>
        <time>2017-01-05T12:47:54Z</time>
      </trkpt>
      <trkpt lat="45.07416" lon="6.80923">
        <ele>2304.37</ele>
        <time>2017-01-05T12:47:57Z</time>
      </trkpt>
      <trkpt lat="45.07416" lon="6.80897">
        <ele>2308.31</ele>
        <time>2017-01-05T12:48:02Z</time>
      </trkpt>
      <trkpt lat="45.07414" lon="6.80883">
        <ele>2309.71</ele>
        <time>2017-01-05T12:48:04Z</time>
      </trkpt>
      <trkpt lat="45.07408" lon="6.8087">
        <ele>2308.88</ele>
        <time>2017-01-05T12:48:07Z</time>
      </trkpt>
      <trkpt lat="45.07388" lon="6.80851">
        <ele>2302.38</ele>
        <time>2017-01-05T12:48:13Z</time>
      </trkpt>
      <trkpt lat="45.07391" lon="6.80834">
        <ele>2306.7</ele>
        <time>2017-01-05T12:48:17Z</time>
      </trkpt>
      <trkpt lat="45.07386" lon="6.80821">
        <ele>2306.78</ele>
        <time>2017-01-05T12:48:20Z</time>
      </trkpt>
      <trkpt lat="45.07375" lon="6.80811">
        <ele>2303.68</ele>
        <time>2017-01-05T12:48:22Z</time>
      </trkpt>
      <trkpt lat="45.07366" lon="6.808">
        <ele>2301.9</ele>
        <time>2017-01-05T12:48:24Z</time>
      </trkpt>
      <trkpt lat="45.07359" lon="6.80775">
        <ele>2301.02</ele>
        <time>2017-01-05T12:48:28Z</time>
      </trkpt>
      <trkpt lat="45.07356" lon="6.80761">
        <ele>2299.9</ele>
        <time>2017-01-05T12:48:30Z</time>
      </trkpt>
      <trkpt lat="45.07351" lon="6.80747">
        <ele>2298.23</ele>
        <time>2017-01-05T12:48:32Z</time>
      </trkpt>
      <trkpt lat="45.07347" lon="6.80732">
        <ele>2296.26</ele>
        <time>2017-01-05T12:48:34Z</time>
      </trkpt>
      <trkpt lat="45.07346" lon="6.80716">
        <ele>2295.79</ele>
        <time>2017-01-05T12:48:36Z</time>
      </trkpt>
      <trkpt lat="45.07345" lon="6.80699">
        <ele>2296.2</ele>
        <time>2017-01-05T12:48:38Z</time>
      </trkpt>
      <trkpt lat="45.07342" lon="6.80681">
        <ele>2295.72</ele>
        <time>2017-01-05T12:48:40Z</time>
      </trkpt>
      <trkpt lat="45.07341" lon="6.80666">
        <ele>2295.88</ele>
        <time>2017-01-05T12:48:42Z</time>
      </trkpt>
      <trkpt lat="45.07342" lon="6.80649">
        <ele>2297.01</ele>
        <time>2017-01-05T12:48:44Z</time>
      </trkpt>
      <trkpt lat="45.07346" lon="6.80631">
        <ele>2299.68</ele>
        <time>2017-01-05T12:48:46Z</time>
      </trkpt>
      <trkpt lat="45.07348" lon="6.80612">
        <ele>2302.31</ele>
        <time>2017-01-05T12:48:48Z</time>
      </trkpt>
      <trkpt lat="45.07345" lon="6.80595">
        <ele>2302.2</ele>
        <time>2017-01-05T12:48:50Z</time>
      </trkpt>
      <trkpt lat="45.07342" lon="6.8058">
        <ele>2300.65</ele>
        <time>2017-01-05T12:48:52Z</time>
      </trkpt>
      <trkpt lat="45.07337" lon="6.80563">
        <ele>2296.99</ele>
        <time>2017-01-05T12:48:54Z</time>
      </trkpt>
      <trkpt lat="45.07328" lon="6.80547">
        <ele>2291.78</ele>
        <time>2017-01-05T12:48:56Z</time>
      </trkpt>
      <trkpt lat="45.07322" lon="6.80526">
        <ele>2290.19</ele>
        <time>2017-01-05T12:48:59Z</time>
      </trkpt>
      <trkpt lat="45.07317" lon="6.80512">
        <ele>2290.25</ele>
        <time>2017-01-05T12:49:01Z</time>
      </trkpt>
      <trkpt lat="45.07312" lon="6.80498">
        <ele>2290.41</ele>
        <time>2017-01-05T12:49:03Z</time>
      </trkpt>
      <trkpt lat="45.07309" lon="6.80482">
        <ele>2291.12</ele>
        <time>2017-01-05T12:49:05Z</time>
      </trkpt>
      <trkpt lat="45.07303" lon="6.80467">
        <ele>2290</ele>
        <time>2017-01-05T12:49:08Z</time>
      </trkpt>
      <trkpt lat="45.07292" lon="6.80457">
        <ele>2284.78</ele>
        <time>2017-01-05T12:49:11Z</time>
      </trkpt>
      <trkpt lat="45.07285" lon="6.80442">
        <ele>2282.34</ele>
        <time>2017-01-05T12:49:13Z</time>
      </trkpt>
      <trkpt lat="45.07279" lon="6.80427">
        <ele>2281.58</ele>
        <time>2017-01-05T12:49:15Z</time>
      </trkpt>
      <trkpt lat="45.07276" lon="6.80412">
        <ele>2283.23</ele>
        <time>2017-01-05T12:49:17Z</time>
      </trkpt>
      <trkpt lat="45.07275" lon="6.80395">
        <ele>2285.47</ele>
        <time>2017-01-05T12:49:19Z</time>
      </trkpt>
      <trkpt lat="45.07276" lon="6.8038">
        <ele>2287.62</ele>
        <time>2017-01-05T12:49:21Z</time>
      </trkpt>
      <trkpt lat="45.07275" lon="6.80363">
        <ele>2288.62</ele>
        <time>2017-01-05T12:49:23Z</time>
      </trkpt>
      <trkpt lat="45.07274" lon="6.80346">
        <ele>2288.36</ele>
        <time>2017-01-05T12:49:25Z</time>
      </trkpt>
      <trkpt lat="45.07269" lon="6.80332">
        <ele>2286.05</ele>
        <time>2017-01-05T12:49:27Z</time>
      </trkpt>
      <trkpt lat="45.07254" lon="6.80312">
        <ele>2282.05</ele>
        <time>2017-01-05T12:49:32Z</time>
      </trkpt>
      <trkpt lat="45.07251" lon="6.80297">
        <ele>2282.47</ele>
        <time>2017-01-05T12:49:35Z</time>
      </trkpt>
      <trkpt lat="45.07246" lon="6.80283">
        <ele>2282.45</ele>
        <time>2017-01-05T12:49:38Z</time>
      </trkpt>
      <trkpt lat="45.07242" lon="6.80264">
        <ele>2280.52</ele>
        <time>2017-01-05T12:49:40Z</time>
      </trkpt>
      <trkpt lat="45.07237" lon="6.80249">
        <ele>2278.47</ele>
        <time>2017-01-05T12:49:43Z</time>
      </trkpt>
      <trkpt lat="45.07238" lon="6.80232">
        <ele>2277.03</ele>
        <time>2017-01-05T12:49:46Z</time>
      </trkpt>
      <trkpt lat="45.07247" lon="6.80217">
        <ele>2278.05</ele>
        <time>2017-01-05T12:49:49Z</time>
      </trkpt>
      <trkpt lat="45.07254" lon="6.80205">
        <ele>2276.75</ele>
        <time>2017-01-05T12:49:51Z</time>
      </trkpt>
      <trkpt lat="45.07264" lon="6.80193">
        <ele>2276.54</ele>
        <time>2017-01-05T12:49:54Z</time>
      </trkpt>
      <trkpt lat="45.07283" lon="6.80184">
        <ele>2279.43</ele>
        <time>2017-01-05T12:49:59Z</time>
      </trkpt>
      <trkpt lat="45.07293" lon="6.80173">
        <ele>2279.38</ele>
        <time>2017-01-05T12:50:02Z</time>
      </trkpt>
      <trkpt lat="45.07304" lon="6.80163">
        <ele>2281.41</ele>
        <time>2017-01-05T12:50:05Z</time>
      </trkpt>
      <trkpt lat="45.07324" lon="6.80152">
        <ele>2285.22</ele>
        <time>2017-01-05T12:50:10Z</time>
      </trkpt>
      <trkpt lat="45.07332" lon="6.80142">
        <ele>2283.13</ele>
        <time>2017-01-05T12:50:14Z</time>
      </trkpt>
      <trkpt lat="45.07349" lon="6.80123">
        <ele>2280.16</ele>
        <time>2017-01-05T12:50:19Z</time>
      </trkpt>
      <trkpt lat="45.0736" lon="6.8011">
        <ele>2277</ele>
        <time>2017-01-05T12:50:21Z</time>
      </trkpt>
      <trkpt lat="45.07368" lon="6.80098">
        <ele>2275.45</ele>
        <time>2017-01-05T12:50:23Z</time>
      </trkpt>
      <trkpt lat="45.07379" lon="6.80087">
        <ele>2276.69</ele>
        <time>2017-01-05T12:50:25Z</time>
      </trkpt>
      <trkpt lat="45.07384" lon="6.80074">
        <ele>2274.41</ele>
        <time>2017-01-05T12:50:27Z</time>
      </trkpt>
      <trkpt lat="45.07393" lon="6.80063">
        <ele>2273.82</ele>
        <time>2017-01-05T12:50:30Z</time>
      </trkpt>
      <trkpt lat="45.07406" lon="6.80057">
        <ele>2276.98</ele>
        <time>2017-01-05T12:50:33Z</time>
      </trkpt>
      <trkpt lat="45.07414" lon="6.80049">
        <ele>2276.26</ele>
        <time>2017-01-05T12:50:35Z</time>
      </trkpt>
      <trkpt lat="45.07421" lon="6.80035">
        <ele>2271.63</ele>
        <time>2017-01-05T12:50:37Z</time>
      </trkpt>
      <trkpt lat="45.07426" lon="6.8002">
        <ele>2267.15</ele>
        <time>2017-01-05T12:50:39Z</time>
      </trkpt>
      <trkpt lat="45.07437" lon="6.80009">
        <ele>2267.41</ele>
        <time>2017-01-05T12:50:42Z</time>
      </trkpt>
      <trkpt lat="45.07456" lon="6.79999">
        <ele>2274.9</ele>
        <time>2017-01-05T12:50:46Z</time>
      </trkpt>
      <trkpt lat="45.07454" lon="6.79971">
        <ele>2267.62</ele>
        <time>2017-01-05T12:50:52Z</time>
      </trkpt>
      <trkpt lat="45.0745" lon="6.79956">
        <ele>2263.47</ele>
        <time>2017-01-05T12:50:54Z</time>
      </trkpt>
      <trkpt lat="45.07445" lon="6.7994">
        <ele>2259.83</ele>
        <time>2017-01-05T12:50:56Z</time>
      </trkpt>
      <trkpt lat="45.07437" lon="6.79927">
        <ele>2259.8</ele>
        <time>2017-01-05T12:50:58Z</time>
      </trkpt>
      <trkpt lat="45.07427" lon="6.79905">
        <ele>2258.4</ele>
        <time>2017-01-05T12:51:01Z</time>
      </trkpt>
      <trkpt lat="45.07424" lon="6.7989">
        <ele>2257.05</ele>
        <time>2017-01-05T12:51:04Z</time>
      </trkpt>
      <trkpt lat="45.0743" lon="6.79877">
        <ele>2259.11</ele>
        <time>2017-01-05T12:51:07Z</time>
      </trkpt>
      <trkpt lat="45.07438" lon="6.79867">
        <ele>2261.39</ele>
        <time>2017-01-05T12:51:10Z</time>
      </trkpt>
      <trkpt lat="45.07449" lon="6.7986">
        <ele>2266.37</ele>
        <time>2017-01-05T12:51:13Z</time>
      </trkpt>
      <trkpt lat="45.07456" lon="6.79838">
        <ele>2272.48</ele>
        <time>2017-01-05T12:51:17Z</time>
      </trkpt>
      <trkpt lat="45.0745" lon="6.79824">
        <ele>2270.9</ele>
        <time>2017-01-05T12:51:19Z</time>
      </trkpt>
      <trkpt lat="45.07436" lon="6.79802">
        <ele>2266.94</ele>
        <time>2017-01-05T12:51:23Z</time>
      </trkpt>
      <trkpt lat="45.07427" lon="6.79777">
        <ele>2267.76</ele>
        <time>2017-01-05T12:51:27Z</time>
      </trkpt>
      <trkpt lat="45.07419" lon="6.7976">
        <ele>2268.04</ele>
        <time>2017-01-05T12:51:29Z</time>
      </trkpt>
      <trkpt lat="45.07412" lon="6.79749">
        <ele>2267.32</ele>
        <time>2017-01-05T12:51:31Z</time>
      </trkpt>
      <trkpt lat="45.07402" lon="6.79736">
        <ele>2267.65</ele>
        <time>2017-01-05T12:51:33Z</time>
      </trkpt>
      <trkpt lat="45.07394" lon="6.79725">
        <ele>2267.77</ele>
        <time>2017-01-05T12:51:35Z</time>
      </trkpt>
      <trkpt lat="45.07387" lon="6.79713">
        <ele>2267.04</ele>
        <time>2017-01-05T12:51:37Z</time>
      </trkpt>
      <trkpt lat="45.07377" lon="6.79705">
        <ele>2262.3</ele>
        <time>2017-01-05T12:51:39Z</time>
      </trkpt>
      <trkpt lat="45.07362" lon="6.79686">
        <ele>2255.45</ele>
        <time>2017-01-05T12:51:43Z</time>
      </trkpt>
      <trkpt lat="45.07356" lon="6.79667">
        <ele>2257.48</ele>
        <time>2017-01-05T12:51:47Z</time>
      </trkpt>
      <trkpt lat="45.07351" lon="6.79645">
        <ele>2258.89</ele>
        <time>2017-01-05T12:51:49Z</time>
      </trkpt>
      <trkpt lat="45.07355" lon="6.79625">
        <ele>2261.98</ele>
        <time>2017-01-05T12:51:51Z</time>
      </trkpt>
      <trkpt lat="45.07361" lon="6.79598">
        <ele>2260.87</ele>
        <time>2017-01-05T12:51:55Z</time>
      </trkpt>
      <trkpt lat="45.07369" lon="6.79583">
        <ele>2260.82</ele>
        <time>2017-01-05T12:51:58Z</time>
      </trkpt>
      <trkpt lat="45.07378" lon="6.79576">
        <ele>2263.45</ele>
        <time>2017-01-05T12:52:00Z</time>
      </trkpt>
      <trkpt lat="45.07383" lon="6.79561">
        <ele>2261.5</ele>
        <time>2017-01-05T12:52:02Z</time>
      </trkpt>
      <trkpt lat="45.0739" lon="6.79548">
        <ele>2261.85</ele>
        <time>2017-01-05T12:52:04Z</time>
      </trkpt>
      <trkpt lat="45.074" lon="6.79537">
        <ele>2266.22</ele>
        <time>2017-01-05T12:52:07Z</time>
      </trkpt>
      <trkpt lat="45.07405" lon="6.79523">
        <ele>2267.46</ele>
        <time>2017-01-05T12:52:09Z</time>
      </trkpt>
      <trkpt lat="45.07404" lon="6.79509">
        <ele>2263.67</ele>
        <time>2017-01-05T12:52:11Z</time>
      </trkpt>
      <trkpt lat="45.07392" lon="6.79481">
        <ele>2253.59</ele>
        <time>2017-01-05T12:52:16Z</time>
      </trkpt>
      <trkpt lat="45.07391" lon="6.79466">
        <ele>2254.27</ele>
        <time>2017-01-05T12:52:18Z</time>
      </trkpt>
      <trkpt lat="45.07386" lon="6.79453">
        <ele>2252.97</ele>
        <time>2017-01-05T12:52:20Z</time>
      </trkpt>
      <trkpt lat="45.07382" lon="6.79438">
        <ele>2253.82</ele>
        <time>2017-01-05T12:52:22Z</time>
      </trkpt>
      <trkpt lat="45.0738" lon="6.79423">
        <ele>2255.69</ele>
        <time>2017-01-05T12:52:24Z</time>
      </trkpt>
      <trkpt lat="45.07376" lon="6.79404">
        <ele>2256.94</ele>
        <time>2017-01-05T12:52:26Z</time>
      </trkpt>
      <trkpt lat="45.07374" lon="6.79386">
        <ele>2257.36</ele>
        <time>2017-01-05T12:52:28Z</time>
      </trkpt>
      <trkpt lat="45.07372" lon="6.79372">
        <ele>2258.31</ele>
        <time>2017-01-05T12:52:30Z</time>
      </trkpt>
      <trkpt lat="45.0737" lon="6.79343">
        <ele>2260.67</ele>
        <time>2017-01-05T12:52:33Z</time>
      </trkpt>
      <trkpt lat="45.0737" lon="6.79328">
        <ele>2262.01</ele>
        <time>2017-01-05T12:52:35Z</time>
      </trkpt>
      <trkpt lat="45.07369" lon="6.79314">
        <ele>2262.91</ele>
        <time>2017-01-05T12:52:37Z</time>
      </trkpt>
      <trkpt lat="45.07367" lon="6.79298">
        <ele>2262.51</ele>
        <time>2017-01-05T12:52:39Z</time>
      </trkpt>
      <trkpt lat="45.07362" lon="6.79285">
        <ele>2259.81</ele>
        <time>2017-01-05T12:52:41Z</time>
      </trkpt>
      <trkpt lat="45.07359" lon="6.79271">
        <ele>2256.01</ele>
        <time>2017-01-05T12:52:43Z</time>
      </trkpt>
      <trkpt lat="45.07361" lon="6.79251">
        <ele>2255.29</ele>
        <time>2017-01-05T12:52:46Z</time>
      </trkpt>
      <trkpt lat="45.07362" lon="6.79234">
        <ele>2255.4</ele>
        <time>2017-01-05T12:52:48Z</time>
      </trkpt>
      <trkpt lat="45.07358" lon="6.79215">
        <ele>2253.76</ele>
        <time>2017-01-05T12:52:50Z</time>
      </trkpt>
      <trkpt lat="45.07358" lon="6.79194">
        <ele>2254.86</ele>
        <time>2017-01-05T12:52:52Z</time>
      </trkpt>
      <trkpt lat="45.07358" lon="6.79177">
        <ele>2256.16</ele>
        <time>2017-01-05T12:52:54Z</time>
      </trkpt>
      <trkpt lat="45.07351" lon="6.79161">
        <ele>2253.38</ele>
        <time>2017-01-05T12:52:56Z</time>
      </trkpt>
      <trkpt lat="45.07347" lon="6.79131">
        <ele>2254.74</ele>
        <time>2017-01-05T12:53:00Z</time>
      </trkpt>
      <trkpt lat="45.07344" lon="6.79114">
        <ele>2255.24</ele>
        <time>2017-01-05T12:53:02Z</time>
      </trkpt>
      <trkpt lat="45.07336" lon="6.79103">
        <ele>2252.7</ele>
        <time>2017-01-05T12:53:04Z</time>
      </trkpt>
      <trkpt lat="45.07331" lon="6.79091">
        <ele>2251.48</ele>
        <time>2017-01-05T12:53:06Z</time>
      </trkpt>
      <trkpt lat="45.07327" lon="6.79075">
        <ele>2250.27</ele>
        <time>2017-01-05T12:53:08Z</time>
      </trkpt>
      <trkpt lat="45.07326" lon="6.79057">
        <ele>2250.02</ele>
        <time>2017-01-05T12:53:10Z</time>
      </trkpt>
      <trkpt lat="45.07323" lon="6.79043">
        <ele>2249.4</ele>
        <time>2017-01-05T12:53:12Z</time>
      </trkpt>
      <trkpt lat="45.07318" lon="6.79027">
        <ele>2248.12</ele>
        <time>2017-01-05T12:53:14Z</time>
      </trkpt>
      <trkpt lat="45.07312" lon="6.79015">
        <ele>2247.36</ele>
        <time>2017-01-05T12:53:16Z</time>
      </trkpt>
      <trkpt lat="45.07309" lon="6.79">
        <ele>2249.29</ele>
        <time>2017-01-05T12:53:18Z</time>
      </trkpt>
      <trkpt lat="45.07304" lon="6.78985">
        <ele>2249.74</ele>
        <time>2017-01-05T12:53:20Z</time>
      </trkpt>
      <trkpt lat="45.07301" lon="6.7897">
        <ele>2251.07</ele>
        <time>2017-01-05T12:53:22Z</time>
      </trkpt>
      <trkpt lat="45.07297" lon="6.78953">
        <ele>2251.03</ele>
        <time>2017-01-05T12:53:24Z</time>
      </trkpt>
      <trkpt lat="45.07296" lon="6.78937">
        <ele>2250.93</ele>
        <time>2017-01-05T12:53:26Z</time>
      </trkpt>
      <trkpt lat="45.07295" lon="6.78922">
        <ele>2250.24</ele>
        <time>2017-01-05T12:53:28Z</time>
      </trkpt>
      <trkpt lat="45.07293" lon="6.78905">
        <ele>2249.44</ele>
        <time>2017-01-05T12:53:30Z</time>
      </trkpt>
      <trkpt lat="45.07292" lon="6.78887">
        <ele>2248.91</ele>
        <time>2017-01-05T12:53:32Z</time>
      </trkpt>
      <trkpt lat="45.0729" lon="6.7887">
        <ele>2248.13</ele>
        <time>2017-01-05T12:53:34Z</time>
      </trkpt>
      <trkpt lat="45.07291" lon="6.78853">
        <ele>2247.58</ele>
        <time>2017-01-05T12:53:36Z</time>
      </trkpt>
      <trkpt lat="45.07289" lon="6.78836">
        <ele>2245.6</ele>
        <time>2017-01-05T12:53:38Z</time>
      </trkpt>
      <trkpt lat="45.07288" lon="6.78821">
        <ele>2243.75</ele>
        <time>2017-01-05T12:53:40Z</time>
      </trkpt>
      <trkpt lat="45.07291" lon="6.78801">
        <ele>2243.81</ele>
        <time>2017-01-05T12:53:42Z</time>
      </trkpt>
      <trkpt lat="45.07291" lon="6.78785">
        <ele>2244.57</ele>
        <time>2017-01-05T12:53:44Z</time>
      </trkpt>
      <trkpt lat="45.07297" lon="6.78754">
        <ele>2248.39</ele>
        <time>2017-01-05T12:53:48Z</time>
      </trkpt>
      <trkpt lat="45.07299" lon="6.78737">
        <ele>2248.84</ele>
        <time>2017-01-05T12:53:50Z</time>
      </trkpt>
      <trkpt lat="45.073" lon="6.78722">
        <ele>2249.22</ele>
        <time>2017-01-05T12:53:52Z</time>
      </trkpt>
      <trkpt lat="45.07302" lon="6.78708">
        <ele>2247.72</ele>
        <time>2017-01-05T12:53:54Z</time>
      </trkpt>
      <trkpt lat="45.07304" lon="6.78692">
        <ele>2245.86</ele>
        <time>2017-01-05T12:53:56Z</time>
      </trkpt>
      <trkpt lat="45.07308" lon="6.78678">
        <ele>2244.81</ele>
        <time>2017-01-05T12:53:59Z</time>
      </trkpt>
      <trkpt lat="45.07309" lon="6.78662">
        <ele>2242.55</ele>
        <time>2017-01-05T12:54:01Z</time>
      </trkpt>
      <trkpt lat="45.07315" lon="6.78637">
        <ele>2243.45</ele>
        <time>2017-01-05T12:54:05Z</time>
      </trkpt>
      <trkpt lat="45.07319" lon="6.78619">
        <ele>2244.49</ele>
        <time>2017-01-05T12:54:07Z</time>
      </trkpt>
      <trkpt lat="45.07318" lon="6.78603">
        <ele>2241.93</ele>
        <time>2017-01-05T12:54:09Z</time>
      </trkpt>
      <trkpt lat="45.07323" lon="6.7859">
        <ele>2242.35</ele>
        <time>2017-01-05T12:54:11Z</time>
      </trkpt>
      <trkpt lat="45.07334" lon="6.78569">
        <ele>2243.69</ele>
        <time>2017-01-05T12:54:15Z</time>
      </trkpt>
      <trkpt lat="45.07334" lon="6.78548">
        <ele>2239.93</ele>
        <time>2017-01-05T12:54:17Z</time>
      </trkpt>
      <trkpt lat="45.07336" lon="6.78533">
        <ele>2237.85</ele>
        <time>2017-01-05T12:54:19Z</time>
      </trkpt>
      <trkpt lat="45.07341" lon="6.78506">
        <ele>2234.59</ele>
        <time>2017-01-05T12:54:24Z</time>
      </trkpt>
      <trkpt lat="45.07346" lon="6.78494">
        <ele>2234.47</ele>
        <time>2017-01-05T12:54:26Z</time>
      </trkpt>
      <trkpt lat="45.07355" lon="6.78481">
        <ele>2235.71</ele>
        <time>2017-01-05T12:54:28Z</time>
      </trkpt>
      <trkpt lat="45.07374" lon="6.78468">
        <ele>2241.39</ele>
        <time>2017-01-05T12:54:33Z</time>
      </trkpt>
      <trkpt lat="45.07385" lon="6.78459">
        <ele>2245.01</ele>
        <time>2017-01-05T12:54:36Z</time>
      </trkpt>
      <trkpt lat="45.07391" lon="6.78444">
        <ele>2245.76</ele>
        <time>2017-01-05T12:54:39Z</time>
      </trkpt>
      <trkpt lat="45.07395" lon="6.7843">
        <ele>2243.88</ele>
        <time>2017-01-05T12:54:41Z</time>
      </trkpt>
      <trkpt lat="45.07394" lon="6.78415">
        <ele>2240.28</ele>
        <time>2017-01-05T12:54:43Z</time>
      </trkpt>
      <trkpt lat="45.07398" lon="6.784">
        <ele>2238.46</ele>
        <time>2017-01-05T12:54:45Z</time>
      </trkpt>
      <trkpt lat="45.07405" lon="6.78387">
        <ele>2238.42</ele>
        <time>2017-01-05T12:54:49Z</time>
      </trkpt>
      <trkpt lat="45.07406" lon="6.7837">
        <ele>2235.49</ele>
        <time>2017-01-05T12:54:51Z</time>
      </trkpt>
      <trkpt lat="45.07411" lon="6.78352">
        <ele>2233.26</ele>
        <time>2017-01-05T12:54:54Z</time>
      </trkpt>
      <trkpt lat="45.07419" lon="6.7834">
        <ele>2233.32</ele>
        <time>2017-01-05T12:54:57Z</time>
      </trkpt>
      <trkpt lat="45.07437" lon="6.78325">
        <ele>2236.76</ele>
        <time>2017-01-05T12:55:01Z</time>
      </trkpt>
      <trkpt lat="45.07446" lon="6.78319">
        <ele>2239.3</ele>
        <time>2017-01-05T12:55:03Z</time>
      </trkpt>
      <trkpt lat="45.07456" lon="6.7831">
        <ele>2242.4</ele>
        <time>2017-01-05T12:55:05Z</time>
      </trkpt>
      <trkpt lat="45.0746" lon="6.78282">
        <ele>2238.59</ele>
        <time>2017-01-05T12:55:09Z</time>
      </trkpt>
      <trkpt lat="45.07462" lon="6.78261">
        <ele>2234.05</ele>
        <time>2017-01-05T12:55:11Z</time>
      </trkpt>
      <trkpt lat="45.07468" lon="6.78249">
        <ele>2233.48</ele>
        <time>2017-01-05T12:55:13Z</time>
      </trkpt>
      <trkpt lat="45.07475" lon="6.78239">
        <ele>2234.97</ele>
        <time>2017-01-05T12:55:15Z</time>
      </trkpt>
      <trkpt lat="45.07487" lon="6.7821">
        <ele>2236.18</ele>
        <time>2017-01-05T12:55:20Z</time>
      </trkpt>
      <trkpt lat="45.07503" lon="6.78188">
        <ele>2240.9</ele>
        <time>2017-01-05T12:55:25Z</time>
      </trkpt>
      <trkpt lat="45.07506" lon="6.78174">
        <ele>2239.55</ele>
        <time>2017-01-05T12:55:27Z</time>
      </trkpt>
      <trkpt lat="45.07511" lon="6.78148">
        <ele>2237.86</ele>
        <time>2017-01-05T12:55:31Z</time>
      </trkpt>
      <trkpt lat="45.07514" lon="6.78133">
        <ele>2237.12</ele>
        <time>2017-01-05T12:55:33Z</time>
      </trkpt>
      <trkpt lat="45.07515" lon="6.78119">
        <ele>2235.69</ele>
        <time>2017-01-05T12:55:35Z</time>
      </trkpt>
      <trkpt lat="45.07518" lon="6.78105">
        <ele>2235.88</ele>
        <time>2017-01-05T12:55:37Z</time>
      </trkpt>
      <trkpt lat="45.07523" lon="6.7809">
        <ele>2238.4</ele>
        <time>2017-01-05T12:55:41Z</time>
      </trkpt>
      <trkpt lat="45.07522" lon="6.78068">
        <ele>2235.27</ele>
        <time>2017-01-05T12:55:44Z</time>
      </trkpt>
      <trkpt lat="45.07522" lon="6.7805">
        <ele>2232.81</ele>
        <time>2017-01-05T12:55:46Z</time>
      </trkpt>
      <trkpt lat="45.07521" lon="6.78033">
        <ele>2230.49</ele>
        <time>2017-01-05T12:55:48Z</time>
      </trkpt>
      <trkpt lat="45.0752" lon="6.78018">
        <ele>2230.71</ele>
        <time>2017-01-05T12:55:50Z</time>
      </trkpt>
      <trkpt lat="45.0752" lon="6.77989">
        <ele>2233.82</ele>
        <time>2017-01-05T12:55:54Z</time>
      </trkpt>
      <trkpt lat="45.07523" lon="6.77963">
        <ele>2239.28</ele>
        <time>2017-01-05T12:55:58Z</time>
      </trkpt>
      <trkpt lat="45.07517" lon="6.77948">
        <ele>2239.91</ele>
        <time>2017-01-05T12:56:02Z</time>
      </trkpt>
      <trkpt lat="45.0751" lon="6.77937">
        <ele>2237.51</ele>
        <time>2017-01-05T12:56:04Z</time>
      </trkpt>
      <trkpt lat="45.07502" lon="6.77925">
        <ele>2234.47</ele>
        <time>2017-01-05T12:56:06Z</time>
      </trkpt>
      <trkpt lat="45.07498" lon="6.77912">
        <ele>2233.27</ele>
        <time>2017-01-05T12:56:08Z</time>
      </trkpt>
      <trkpt lat="45.07499" lon="6.77898">
        <ele>2233.99</ele>
        <time>2017-01-05T12:56:10Z</time>
      </trkpt>
      <trkpt lat="45.07498" lon="6.77883">
        <ele>2234.18</ele>
        <time>2017-01-05T12:56:12Z</time>
      </trkpt>
      <trkpt lat="45.07502" lon="6.77866">
        <ele>2236.56</ele>
        <time>2017-01-05T12:56:15Z</time>
      </trkpt>
      <trkpt lat="45.07512" lon="6.77838">
        <ele>2237.42</ele>
        <time>2017-01-05T12:56:19Z</time>
      </trkpt>
      <trkpt lat="45.07519" lon="6.77824">
        <ele>2237.44</ele>
        <time>2017-01-05T12:56:21Z</time>
      </trkpt>
      <trkpt lat="45.07526" lon="6.77808">
        <ele>2235.96</ele>
        <time>2017-01-05T12:56:23Z</time>
      </trkpt>
      <trkpt lat="45.07532" lon="6.77791">
        <ele>2235.4</ele>
        <time>2017-01-05T12:56:25Z</time>
      </trkpt>
      <trkpt lat="45.07533" lon="6.77773">
        <ele>2234.64</ele>
        <time>2017-01-05T12:56:27Z</time>
      </trkpt>
      <trkpt lat="45.07532" lon="6.77756">
        <ele>2233.54</ele>
        <time>2017-01-05T12:56:29Z</time>
      </trkpt>
      <trkpt lat="45.07529" lon="6.77736">
        <ele>2230.62</ele>
        <time>2017-01-05T12:56:31Z</time>
      </trkpt>
      <trkpt lat="45.07527" lon="6.77699">
        <ele>2228.65</ele>
        <time>2017-01-05T12:56:33Z</time>
      </trkpt>
      <trkpt lat="45.07524" lon="6.77685">
        <ele>2227.49</ele>
        <time>2017-01-05T12:57:48Z</time>
      </trkpt>
      <trkpt lat="45.07513" lon="6.77709">
        <ele>2222.71</ele>
        <time>2017-01-05T12:57:54Z</time>
      </trkpt>
      <trkpt lat="45.07508" lon="6.77733">
        <ele>2221.15</ele>
        <time>2017-01-05T12:57:59Z</time>
      </trkpt>
      <trkpt lat="45.0751" lon="6.77748">
        <ele>2223.26</ele>
        <time>2017-01-05T12:58:02Z</time>
      </trkpt>
      <trkpt lat="45.07503" lon="6.77758">
        <ele>2221.13</ele>
        <time>2017-01-05T12:58:04Z</time>
      </trkpt>
      <trkpt lat="45.07493" lon="6.77761">
        <ele>2218.21</ele>
        <time>2017-01-05T12:58:07Z</time>
      </trkpt>
      <trkpt lat="45.07487" lon="6.77747">
        <ele>2215.45</ele>
        <time>2017-01-05T12:58:10Z</time>
      </trkpt>
      <trkpt lat="45.07476" lon="6.77735">
        <ele>2211.97</ele>
        <time>2017-01-05T12:58:14Z</time>
      </trkpt>
      <trkpt lat="45.07464" lon="6.77713">
        <ele>2208.2</ele>
        <time>2017-01-05T12:58:18Z</time>
      </trkpt>
      <trkpt lat="45.07464" lon="6.77685">
        <ele>2208.35</ele>
        <time>2017-01-05T12:58:23Z</time>
      </trkpt>
      <trkpt lat="45.07465" lon="6.77668">
        <ele>2208.86</ele>
        <time>2017-01-05T12:58:27Z</time>
      </trkpt>
      <trkpt lat="45.0745" lon="6.77677">
        <ele>2204.73</ele>
        <time>2017-01-05T12:58:34Z</time>
      </trkpt>
      <trkpt lat="45.07444" lon="6.7769">
        <ele>2203.81</ele>
        <time>2017-01-05T12:58:37Z</time>
      </trkpt>
      <trkpt lat="45.07438" lon="6.77706">
        <ele>2202.59</ele>
        <time>2017-01-05T12:58:40Z</time>
      </trkpt>
      <trkpt lat="45.07432" lon="6.77719">
        <ele>2200.48</ele>
        <time>2017-01-05T12:58:43Z</time>
      </trkpt>
      <trkpt lat="45.07425" lon="6.77732">
        <ele>2198.73</ele>
        <time>2017-01-05T12:58:46Z</time>
      </trkpt>
      <trkpt lat="45.07419" lon="6.77747">
        <ele>2197.36</ele>
        <time>2017-01-05T12:58:49Z</time>
      </trkpt>
      <trkpt lat="45.07412" lon="6.7777">
        <ele>2196.79</ele>
        <time>2017-01-05T12:58:52Z</time>
      </trkpt>
      <trkpt lat="45.07408" lon="6.77787">
        <ele>2194.91</ele>
        <time>2017-01-05T12:58:55Z</time>
      </trkpt>
      <trkpt lat="45.07408" lon="6.77816">
        <ele>2192.84</ele>
        <time>2017-01-05T12:59:00Z</time>
      </trkpt>
      <trkpt lat="45.07406" lon="6.77834">
        <ele>2190.88</ele>
        <time>2017-01-05T12:59:03Z</time>
      </trkpt>
      <trkpt lat="45.074" lon="6.77865">
        <ele>2186.5</ele>
        <time>2017-01-05T12:59:08Z</time>
      </trkpt>
      <trkpt lat="45.07397" lon="6.77883">
        <ele>2184.34</ele>
        <time>2017-01-05T12:59:11Z</time>
      </trkpt>
      <trkpt lat="45.07394" lon="6.779">
        <ele>2180.91</ele>
        <time>2017-01-05T12:59:14Z</time>
      </trkpt>
      <trkpt lat="45.07394" lon="6.77917">
        <ele>2178.07</ele>
        <time>2017-01-05T12:59:17Z</time>
      </trkpt>
      <trkpt lat="45.07406" lon="6.7794">
        <ele>2180.24</ele>
        <time>2017-01-05T12:59:22Z</time>
      </trkpt>
      <trkpt lat="45.07414" lon="6.77957">
        <ele>2180.57</ele>
        <time>2017-01-05T12:59:25Z</time>
      </trkpt>
      <trkpt lat="45.07417" lon="6.7797">
        <ele>2179.31</ele>
        <time>2017-01-05T12:59:27Z</time>
      </trkpt>
      <trkpt lat="45.07417" lon="6.77984">
        <ele>2178.55</ele>
        <time>2017-01-05T12:59:29Z</time>
      </trkpt>
      <trkpt lat="45.07418" lon="6.78016">
        <ele>2177.91</ele>
        <time>2017-01-05T12:59:34Z</time>
      </trkpt>
      <trkpt lat="45.07414" lon="6.78041">
        <ele>2176.24</ele>
        <time>2017-01-05T12:59:38Z</time>
      </trkpt>
      <trkpt lat="45.07411" lon="6.78061">
        <ele>2175.78</ele>
        <time>2017-01-05T12:59:41Z</time>
      </trkpt>
      <trkpt lat="45.07399" lon="6.78086">
        <ele>2174.05</ele>
        <time>2017-01-05T12:59:46Z</time>
      </trkpt>
      <trkpt lat="45.07383" lon="6.78105">
        <ele>2170.59</ele>
        <time>2017-01-05T12:59:51Z</time>
      </trkpt>
      <trkpt lat="45.07377" lon="6.7812">
        <ele>2170.68</ele>
        <time>2017-01-05T12:59:54Z</time>
      </trkpt>
      <trkpt lat="45.07371" lon="6.78132">
        <ele>2169.7</ele>
        <time>2017-01-05T12:59:58Z</time>
      </trkpt>
      <trkpt lat="45.0736" lon="6.78137">
        <ele>2165.44</ele>
        <time>2017-01-05T13:00:01Z</time>
      </trkpt>
      <trkpt lat="45.07348" lon="6.78145">
        <ele>2160.95</ele>
        <time>2017-01-05T13:00:04Z</time>
      </trkpt>
      <trkpt lat="45.07328" lon="6.78163">
        <ele>2156.73</ele>
        <time>2017-01-05T13:00:09Z</time>
      </trkpt>
      <trkpt lat="45.0732" lon="6.78176">
        <ele>2157.05</ele>
        <time>2017-01-05T13:00:12Z</time>
      </trkpt>
      <trkpt lat="45.07316" lon="6.78189">
        <ele>2158.74</ele>
        <time>2017-01-05T13:00:15Z</time>
      </trkpt>
      <trkpt lat="45.0731" lon="6.78219">
        <ele>2162.11</ele>
        <time>2017-01-05T13:00:21Z</time>
      </trkpt>
      <trkpt lat="45.07304" lon="6.78245">
        <ele>2161.72</ele>
        <time>2017-01-05T13:00:26Z</time>
      </trkpt>
      <trkpt lat="45.07296" lon="6.78255">
        <ele>2158.7</ele>
        <time>2017-01-05T13:00:29Z</time>
      </trkpt>
      <trkpt lat="45.07285" lon="6.78261">
        <ele>2154.63</ele>
        <time>2017-01-05T13:00:32Z</time>
      </trkpt>
      <trkpt lat="45.07276" lon="6.78267">
        <ele>2151.54</ele>
        <time>2017-01-05T13:00:35Z</time>
      </trkpt>
      <trkpt lat="45.07264" lon="6.78269">
        <ele>2146.05</ele>
        <time>2017-01-05T13:00:39Z</time>
      </trkpt>
      <trkpt lat="45.07254" lon="6.78272">
        <ele>2141.68</ele>
        <time>2017-01-05T13:00:42Z</time>
      </trkpt>
      <trkpt lat="45.07242" lon="6.78282">
        <ele>2137.47</ele>
        <time>2017-01-05T13:00:45Z</time>
      </trkpt>
      <trkpt lat="45.07232" lon="6.78292">
        <ele>2134.97</ele>
        <time>2017-01-05T13:00:48Z</time>
      </trkpt>
      <trkpt lat="45.07223" lon="6.78304">
        <ele>2134.91</ele>
        <time>2017-01-05T13:00:50Z</time>
      </trkpt>
      <trkpt lat="45.07215" lon="6.78317">
        <ele>2133.85</ele>
        <time>2017-01-05T13:00:53Z</time>
      </trkpt>
      <trkpt lat="45.07206" lon="6.78328">
        <ele>2133.84</ele>
        <time>2017-01-05T13:00:56Z</time>
      </trkpt>
      <trkpt lat="45.07196" lon="6.78341">
        <ele>2134.8</ele>
        <time>2017-01-05T13:00:59Z</time>
      </trkpt>
      <trkpt lat="45.07189" lon="6.78354">
        <ele>2135.97</ele>
        <time>2017-01-05T13:01:02Z</time>
      </trkpt>
      <trkpt lat="45.07179" lon="6.78358">
        <ele>2133.46</ele>
        <time>2017-01-05T13:01:05Z</time>
      </trkpt>
      <trkpt lat="45.07167" lon="6.78357">
        <ele>2128.72</ele>
        <time>2017-01-05T13:01:08Z</time>
      </trkpt>
      <trkpt lat="45.07146" lon="6.78352">
        <ele>2119.09</ele>
        <time>2017-01-05T13:01:14Z</time>
      </trkpt>
      <trkpt lat="45.07134" lon="6.78344">
        <ele>2113.48</ele>
        <time>2017-01-05T13:01:17Z</time>
      </trkpt>
      <trkpt lat="45.07122" lon="6.78341">
        <ele>2109.44</ele>
        <time>2017-01-05T13:01:20Z</time>
      </trkpt>
      <trkpt lat="45.07111" lon="6.7834">
        <ele>2106.31</ele>
        <time>2017-01-05T13:01:23Z</time>
      </trkpt>
      <trkpt lat="45.07098" lon="6.7834">
        <ele>2102.23</ele>
        <time>2017-01-05T13:01:26Z</time>
      </trkpt>
      <trkpt lat="45.07077" lon="6.78336">
        <ele>2095.65</ele>
        <time>2017-01-05T13:01:30Z</time>
      </trkpt>
      <trkpt lat="45.07064" lon="6.78334">
        <ele>2092.18</ele>
        <time>2017-01-05T13:01:33Z</time>
      </trkpt>
      <trkpt lat="45.07049" lon="6.78328">
        <ele>2088.25</ele>
        <time>2017-01-05T13:01:36Z</time>
      </trkpt>
      <trkpt lat="45.07037" lon="6.78327">
        <ele>2086.97</ele>
        <time>2017-01-05T13:01:39Z</time>
      </trkpt>
      <trkpt lat="45.07027" lon="6.78323">
        <ele>2085.47</ele>
        <time>2017-01-05T13:01:42Z</time>
      </trkpt>
      <trkpt lat="45.07009" lon="6.78327">
        <ele>2082.3</ele>
        <time>2017-01-05T13:01:46Z</time>
      </trkpt>
      <trkpt lat="45.06995" lon="6.78327">
        <ele>2079.11</ele>
        <time>2017-01-05T13:01:49Z</time>
      </trkpt>
      <trkpt lat="45.06983" lon="6.78328">
        <ele>2075.35</ele>
        <time>2017-01-05T13:01:52Z</time>
      </trkpt>
      <trkpt lat="45.0697" lon="6.7833">
        <ele>2071.51</ele>
        <time>2017-01-05T13:01:55Z</time>
      </trkpt>
      <trkpt lat="45.06958" lon="6.7833">
        <ele>2067.64</ele>
        <time>2017-01-05T13:01:58Z</time>
      </trkpt>
      <trkpt lat="45.06948" lon="6.78328">
        <ele>2064.2</ele>
        <time>2017-01-05T13:02:00Z</time>
      </trkpt>
      <trkpt lat="45.06925" lon="6.78325">
        <ele>2058.56</ele>
        <time>2017-01-05T13:02:05Z</time>
      </trkpt>
      <trkpt lat="45.06911" lon="6.78325">
        <ele>2056</ele>
        <time>2017-01-05T13:02:08Z</time>
      </trkpt>
      <trkpt lat="45.06896" lon="6.78327">
        <ele>2054.01</ele>
        <time>2017-01-05T13:02:11Z</time>
      </trkpt>
      <trkpt lat="45.06878" lon="6.78334">
        <ele>2052.01</ele>
        <time>2017-01-05T13:02:15Z</time>
      </trkpt>
      <trkpt lat="45.06866" lon="6.78345">
        <ele>2051.01</ele>
        <time>2017-01-05T13:02:18Z</time>
      </trkpt>
      <trkpt lat="45.06862" lon="6.78357">
        <ele>2051.69</ele>
        <time>2017-01-05T13:02:20Z</time>
      </trkpt>
      <trkpt lat="45.06859" lon="6.78373">
        <ele>2052.43</ele>
        <time>2017-01-05T13:02:23Z</time>
      </trkpt>
      <trkpt lat="45.06855" lon="6.78386">
        <ele>2052.61</ele>
        <time>2017-01-05T13:02:25Z</time>
      </trkpt>
      <trkpt lat="45.06847" lon="6.78398">
        <ele>2051.78</ele>
        <time>2017-01-05T13:02:27Z</time>
      </trkpt>
      <trkpt lat="45.06841" lon="6.78414">
        <ele>2051.67</ele>
        <time>2017-01-05T13:02:29Z</time>
      </trkpt>
      <trkpt lat="45.06834" lon="6.78424">
        <ele>2050.82</ele>
        <time>2017-01-05T13:02:31Z</time>
      </trkpt>
      <trkpt lat="45.06828" lon="6.78438">
        <ele>2049.15</ele>
        <time>2017-01-05T13:02:33Z</time>
      </trkpt>
      <trkpt lat="45.06825" lon="6.78454">
        <ele>2048.38</ele>
        <time>2017-01-05T13:02:36Z</time>
      </trkpt>
      <trkpt lat="45.06819" lon="6.78467">
        <ele>2046.61</ele>
        <time>2017-01-05T13:02:38Z</time>
      </trkpt>
      <trkpt lat="45.06815" lon="6.7848">
        <ele>2044.96</ele>
        <time>2017-01-05T13:02:39Z</time>
      </trkpt>
      <trkpt lat="45.06807" lon="6.78491">
        <ele>2042.74</ele>
        <time>2017-01-05T13:02:41Z</time>
      </trkpt>
      <trkpt lat="45.06803" lon="6.78507">
        <ele>2041.64</ele>
        <time>2017-01-05T13:02:44Z</time>
      </trkpt>
      <trkpt lat="45.06799" lon="6.78523">
        <ele>2041.38</ele>
        <time>2017-01-05T13:02:47Z</time>
      </trkpt>
      <trkpt lat="45.06793" lon="6.78549">
        <ele>2039.45</ele>
        <time>2017-01-05T13:02:52Z</time>
      </trkpt>
      <trkpt lat="45.06796" lon="6.78564">
        <ele>2039.02</ele>
        <time>2017-01-05T13:02:55Z</time>
      </trkpt>
      <trkpt lat="45.06804" lon="6.78574">
        <ele>2039.67</ele>
        <time>2017-01-05T13:02:57Z</time>
      </trkpt>
      <trkpt lat="45.06806" lon="6.78591">
        <ele>2038.58</ele>
        <time>2017-01-05T13:03:00Z</time>
      </trkpt>
      <trkpt lat="45.068" lon="6.78604">
        <ele>2036.51</ele>
        <time>2017-01-05T13:03:03Z</time>
      </trkpt>
      <trkpt lat="45.06791" lon="6.78613">
        <ele>2034.51</ele>
        <time>2017-01-05T13:03:05Z</time>
      </trkpt>
      <trkpt lat="45.06781" lon="6.78622">
        <ele>2033.64</ele>
        <time>2017-01-05T13:03:09Z</time>
      </trkpt>
      <trkpt lat="45.06772" lon="6.78629">
        <ele>2032.78</ele>
        <time>2017-01-05T13:03:11Z</time>
      </trkpt>
      <trkpt lat="45.06756" lon="6.78642">
        <ele>2030.23</ele>
        <time>2017-01-05T13:03:15Z</time>
      </trkpt>
      <trkpt lat="45.06743" lon="6.78661">
        <ele>2026.66</ele>
        <time>2017-01-05T13:03:20Z</time>
      </trkpt>
      <trkpt lat="45.0673" lon="6.78685">
        <ele>2019.95</ele>
        <time>2017-01-05T13:03:25Z</time>
      </trkpt>
      <trkpt lat="45.06724" lon="6.78698">
        <ele>2016.87</ele>
        <time>2017-01-05T13:03:27Z</time>
      </trkpt>
      <trkpt lat="45.06722" lon="6.78713">
        <ele>2016.6</ele>
        <time>2017-01-05T13:03:30Z</time>
      </trkpt>
      <trkpt lat="45.06718" lon="6.78728">
        <ele>2015.62</ele>
        <time>2017-01-05T13:03:32Z</time>
      </trkpt>
      <trkpt lat="45.06716" lon="6.78744">
        <ele>2015.66</ele>
        <time>2017-01-05T13:03:35Z</time>
      </trkpt>
      <trkpt lat="45.06715" lon="6.78763">
        <ele>2014.96</ele>
        <time>2017-01-05T13:03:38Z</time>
      </trkpt>
      <trkpt lat="45.0672" lon="6.78784">
        <ele>2016.48</ele>
        <time>2017-01-05T13:03:41Z</time>
      </trkpt>
      <trkpt lat="45.06706" lon="6.78784">
        <ele>2010.34</ele>
        <time>2017-01-05T13:03:48Z</time>
      </trkpt>
      <trkpt lat="45.06706" lon="6.78767">
        <ele>2010.93</ele>
        <time>2017-01-05T13:03:51Z</time>
      </trkpt>
      <trkpt lat="45.06704" lon="6.7875">
        <ele>2010.32</ele>
        <time>2017-01-05T13:03:54Z</time>
      </trkpt>
      <trkpt lat="45.067" lon="6.78731">
        <ele>2008.28</ele>
        <time>2017-01-05T13:03:57Z</time>
      </trkpt>
      <trkpt lat="45.06695" lon="6.78713">
        <ele>2006.64</ele>
        <time>2017-01-05T13:04:00Z</time>
      </trkpt>
      <trkpt lat="45.06695" lon="6.78698">
        <ele>2006.98</ele>
        <time>2017-01-05T13:04:02Z</time>
      </trkpt>
      <trkpt lat="45.06685" lon="6.78675">
        <ele>2005.34</ele>
        <time>2017-01-05T13:04:06Z</time>
      </trkpt>
      <trkpt lat="45.06675" lon="6.78652">
        <ele>2004.18</ele>
        <time>2017-01-05T13:04:10Z</time>
      </trkpt>
      <trkpt lat="45.06666" lon="6.78628">
        <ele>2001.86</ele>
        <time>2017-01-05T13:04:14Z</time>
      </trkpt>
      <trkpt lat="45.06663" lon="6.78614">
        <ele>2001.14</ele>
        <time>2017-01-05T13:04:16Z</time>
      </trkpt>
      <trkpt lat="45.06652" lon="6.78591">
        <ele>1996.04</ele>
        <time>2017-01-05T13:04:20Z</time>
      </trkpt>
      <trkpt lat="45.06646" lon="6.78575">
        <ele>1994.05</ele>
        <time>2017-01-05T13:04:23Z</time>
      </trkpt>
      <trkpt lat="45.06635" lon="6.78563">
        <ele>1989.24</ele>
        <time>2017-01-05T13:04:25Z</time>
      </trkpt>
      <trkpt lat="45.06628" lon="6.7855">
        <ele>1984.69</ele>
        <time>2017-01-05T13:04:27Z</time>
      </trkpt>
      <trkpt lat="45.0662" lon="6.78536">
        <ele>1979.77</ele>
        <time>2017-01-05T13:04:30Z</time>
      </trkpt>
      <trkpt lat="45.06622" lon="6.78521">
        <ele>1980.24</ele>
        <time>2017-01-05T13:04:32Z</time>
      </trkpt>
      <trkpt lat="45.06623" lon="6.78503">
        <ele>1980.69</ele>
        <time>2017-01-05T13:04:34Z</time>
      </trkpt>
      <trkpt lat="45.06626" lon="6.78485">
        <ele>1981.15</ele>
        <time>2017-01-05T13:04:36Z</time>
      </trkpt>
      <trkpt lat="45.06621" lon="6.78468">
        <ele>1980.28</ele>
        <time>2017-01-05T13:04:38Z</time>
      </trkpt>
      <trkpt lat="45.06616" lon="6.7845">
        <ele>1979.69</ele>
        <time>2017-01-05T13:04:40Z</time>
      </trkpt>
      <trkpt lat="45.06614" lon="6.78432">
        <ele>1978.65</ele>
        <time>2017-01-05T13:04:42Z</time>
      </trkpt>
      <trkpt lat="45.06611" lon="6.78414">
        <ele>1976.5</ele>
        <time>2017-01-05T13:04:44Z</time>
      </trkpt>
      <trkpt lat="45.06619" lon="6.78389">
        <ele>1974.9</ele>
        <time>2017-01-05T13:04:48Z</time>
      </trkpt>
      <trkpt lat="45.06627" lon="6.78381">
        <ele>1975.75</ele>
        <time>2017-01-05T13:04:50Z</time>
      </trkpt>
      <trkpt lat="45.06637" lon="6.78358">
        <ele>1974.86</ele>
        <time>2017-01-05T13:04:54Z</time>
      </trkpt>
      <trkpt lat="45.06639" lon="6.78331">
        <ele>1969.2</ele>
        <time>2017-01-05T13:05:02Z</time>
      </trkpt>
      <trkpt lat="45.06629" lon="6.78343">
        <ele>1969.59</ele>
        <time>2017-01-05T13:05:04Z</time>
      </trkpt>
      <trkpt lat="45.06611" lon="6.78358">
        <ele>1967.51</ele>
        <time>2017-01-05T13:05:08Z</time>
      </trkpt>
      <trkpt lat="45.06602" lon="6.78367">
        <ele>1966.26</ele>
        <time>2017-01-05T13:05:10Z</time>
      </trkpt>
      <trkpt lat="45.06592" lon="6.78381">
        <ele>1966.03</ele>
        <time>2017-01-05T13:05:13Z</time>
      </trkpt>
      <trkpt lat="45.06585" lon="6.78392">
        <ele>1965.72</ele>
        <time>2017-01-05T13:05:16Z</time>
      </trkpt>
      <trkpt lat="45.06576" lon="6.78404">
        <ele>1963.03</ele>
        <time>2017-01-05T13:05:19Z</time>
      </trkpt>
      <trkpt lat="45.06569" lon="6.78415">
        <ele>1960.62</ele>
        <time>2017-01-05T13:05:21Z</time>
      </trkpt>
      <trkpt lat="45.0656" lon="6.78439">
        <ele>1957.62</ele>
        <time>2017-01-05T13:05:27Z</time>
      </trkpt>
      <trkpt lat="45.06555" lon="6.78452">
        <ele>1955.98</ele>
        <time>2017-01-05T13:05:29Z</time>
      </trkpt>
      <trkpt lat="45.06554" lon="6.78468">
        <ele>1955.95</ele>
        <time>2017-01-05T13:05:32Z</time>
      </trkpt>
      <trkpt lat="45.0655" lon="6.78481">
        <ele>1953.98</ele>
        <time>2017-01-05T13:05:34Z</time>
      </trkpt>
      <trkpt lat="45.06547" lon="6.785">
        <ele>1952.49</ele>
        <time>2017-01-05T13:05:36Z</time>
      </trkpt>
      <trkpt lat="45.06537" lon="6.78532">
        <ele>1949.69</ele>
        <time>2017-01-05T13:05:38Z</time>
      </trkpt>
      <trkpt lat="45.06536" lon="6.78549">
        <ele>1948.42</ele>
        <time>2017-01-05T13:06:45Z</time>
      </trkpt>
      <trkpt lat="45.06531" lon="6.78579">
        <ele>1943.74</ele>
        <time>2017-01-05T13:06:52Z</time>
      </trkpt>
      <trkpt lat="45.06524" lon="6.7859">
        <ele>1939.5</ele>
        <time>2017-01-05T13:06:54Z</time>
      </trkpt>
      <trkpt lat="45.06519" lon="6.78604">
        <ele>1935.49</ele>
        <time>2017-01-05T13:06:56Z</time>
      </trkpt>
      <trkpt lat="45.06525" lon="6.78617">
        <ele>1936.99</ele>
        <time>2017-01-05T13:06:58Z</time>
      </trkpt>
      <trkpt lat="45.06528" lon="6.78633">
        <ele>1936.78</ele>
        <time>2017-01-05T13:07:01Z</time>
      </trkpt>
      <trkpt lat="45.06528" lon="6.78653">
        <ele>1936.1</ele>
        <time>2017-01-05T13:07:04Z</time>
      </trkpt>
      <trkpt lat="45.06532" lon="6.78679">
        <ele>1936.22</ele>
        <time>2017-01-05T13:07:09Z</time>
      </trkpt>
      <trkpt lat="45.06527" lon="6.78695">
        <ele>1931.57</ele>
        <time>2017-01-05T13:07:11Z</time>
      </trkpt>
      <trkpt lat="45.06527" lon="6.7871">
        <ele>1928.85</ele>
        <time>2017-01-05T13:07:13Z</time>
      </trkpt>
      <trkpt lat="45.06525" lon="6.78725">
        <ele>1925.59</ele>
        <time>2017-01-05T13:07:15Z</time>
      </trkpt>
      <trkpt lat="45.06525" lon="6.78743">
        <ele>1924.63</ele>
        <time>2017-01-05T13:07:17Z</time>
      </trkpt>
      <trkpt lat="45.06523" lon="6.78775">
        <ele>1924.16</ele>
        <time>2017-01-05T13:07:20Z</time>
      </trkpt>
      <trkpt lat="45.06522" lon="6.78796">
        <ele>1926.13</ele>
        <time>2017-01-05T13:07:22Z</time>
      </trkpt>
      <trkpt lat="45.06518" lon="6.78814">
        <ele>1926.79</ele>
        <time>2017-01-05T13:07:25Z</time>
      </trkpt>
      <trkpt lat="45.06515" lon="6.78831">
        <ele>1928.01</ele>
        <time>2017-01-05T13:07:28Z</time>
      </trkpt>
      <trkpt lat="45.06511" lon="6.78859">
        <ele>1928.87</ele>
        <time>2017-01-05T13:07:32Z</time>
      </trkpt>
      <trkpt lat="45.06507" lon="6.78878">
        <ele>1928.23</ele>
        <time>2017-01-05T13:07:34Z</time>
      </trkpt>
      <trkpt lat="45.06503" lon="6.78895">
        <ele>1926.9</ele>
        <time>2017-01-05T13:07:36Z</time>
      </trkpt>
      <trkpt lat="45.06499" lon="6.78911">
        <ele>1924.68</ele>
        <time>2017-01-05T13:07:38Z</time>
      </trkpt>
      <trkpt lat="45.06497" lon="6.78926">
        <ele>1923.08</ele>
        <time>2017-01-05T13:07:40Z</time>
      </trkpt>
      <trkpt lat="45.06496" lon="6.78947">
        <ele>1922.23</ele>
        <time>2017-01-05T13:07:43Z</time>
      </trkpt>
      <trkpt lat="45.06489" lon="6.78976">
        <ele>1919.15</ele>
        <time>2017-01-05T13:07:48Z</time>
      </trkpt>
      <trkpt lat="45.06485" lon="6.78989">
        <ele>1916.77</ele>
        <time>2017-01-05T13:07:54Z</time>
      </trkpt>
      <trkpt lat="45.0647" lon="6.78984">
        <ele>1910.3</ele>
        <time>2017-01-05T13:08:01Z</time>
      </trkpt>
      <trkpt lat="45.06475" lon="6.78971">
        <ele>1913.03</ele>
        <time>2017-01-05T13:08:03Z</time>
      </trkpt>
      <trkpt lat="45.06469" lon="6.78957">
        <ele>1910.62</ele>
        <time>2017-01-05T13:08:05Z</time>
      </trkpt>
      <trkpt lat="45.06458" lon="6.7893">
        <ele>1905.56</ele>
        <time>2017-01-05T13:08:10Z</time>
      </trkpt>
      <trkpt lat="45.06453" lon="6.78913">
        <ele>1903.33</ele>
        <time>2017-01-05T13:08:13Z</time>
      </trkpt>
      <trkpt lat="45.06448" lon="6.78884">
        <ele>1898.82</ele>
        <time>2017-01-05T13:08:17Z</time>
      </trkpt>
      <trkpt lat="45.06445" lon="6.78863">
        <ele>1894.4</ele>
        <time>2017-01-05T13:08:21Z</time>
      </trkpt>
      <trkpt lat="45.0645" lon="6.78848">
        <ele>1895.56</ele>
        <time>2017-01-05T13:08:23Z</time>
      </trkpt>
      <trkpt lat="45.06448" lon="6.7883">
        <ele>1891.71</ele>
        <time>2017-01-05T13:08:25Z</time>
      </trkpt>
      <trkpt lat="45.06446" lon="6.78811">
        <ele>1890.23</ele>
        <time>2017-01-05T13:08:27Z</time>
      </trkpt>
      <trkpt lat="45.06445" lon="6.78796">
        <ele>1889.17</ele>
        <time>2017-01-05T13:08:29Z</time>
      </trkpt>
      <trkpt lat="45.06443" lon="6.78782">
        <ele>1888.59</ele>
        <time>2017-01-05T13:08:31Z</time>
      </trkpt>
      <trkpt lat="45.06441" lon="6.78764">
        <ele>1889.07</ele>
        <time>2017-01-05T13:08:34Z</time>
      </trkpt>
      <trkpt lat="45.06437" lon="6.78747">
        <ele>1888.92</ele>
        <time>2017-01-05T13:08:37Z</time>
      </trkpt>
      <trkpt lat="45.06434" lon="6.7873">
        <ele>1888.61</ele>
        <time>2017-01-05T13:08:40Z</time>
      </trkpt>
      <trkpt lat="45.06431" lon="6.78717">
        <ele>1888.52</ele>
        <time>2017-01-05T13:08:42Z</time>
      </trkpt>
      <trkpt lat="45.06435" lon="6.78702">
        <ele>1890.28</ele>
        <time>2017-01-05T13:08:44Z</time>
      </trkpt>
      <trkpt lat="45.06434" lon="6.78687">
        <ele>1891.44</ele>
        <time>2017-01-05T13:08:46Z</time>
      </trkpt>
      <trkpt lat="45.06424" lon="6.78655">
        <ele>1892.57</ele>
        <time>2017-01-05T13:08:51Z</time>
      </trkpt>
      <trkpt lat="45.06421" lon="6.78642">
        <ele>1892.34</ele>
        <time>2017-01-05T13:08:53Z</time>
      </trkpt>
      <trkpt lat="45.06419" lon="6.78615">
        <ele>1892.86</ele>
        <time>2017-01-05T13:09:44Z</time>
      </trkpt>
      <trkpt lat="45.06413" lon="6.78598">
        <ele>1891.56</ele>
        <time>2017-01-05T13:09:47Z</time>
      </trkpt>
      <trkpt lat="45.06405" lon="6.78568">
        <ele>1891.79</ele>
        <time>2017-01-05T13:09:52Z</time>
      </trkpt>
      <trkpt lat="45.06397" lon="6.78551">
        <ele>1891.28</ele>
        <time>2017-01-05T13:09:55Z</time>
      </trkpt>
      <trkpt lat="45.06392" lon="6.78537">
        <ele>1889.69</ele>
        <time>2017-01-05T13:09:57Z</time>
      </trkpt>
      <trkpt lat="45.06382" lon="6.7851">
        <ele>1886.81</ele>
        <time>2017-01-05T13:10:02Z</time>
      </trkpt>
      <trkpt lat="45.06377" lon="6.78493">
        <ele>1885.9</ele>
        <time>2017-01-05T13:10:05Z</time>
      </trkpt>
      <trkpt lat="45.0637" lon="6.78481">
        <ele>1884.51</ele>
        <time>2017-01-05T13:10:08Z</time>
      </trkpt>
      <trkpt lat="45.06361" lon="6.78474">
        <ele>1882.87</ele>
        <time>2017-01-05T13:10:11Z</time>
      </trkpt>
      <trkpt lat="45.06352" lon="6.78465">
        <ele>1878.87</ele>
        <time>2017-01-05T13:10:13Z</time>
      </trkpt>
      <trkpt lat="45.06349" lon="6.78451">
        <ele>1876.86</ele>
        <time>2017-01-05T13:10:15Z</time>
      </trkpt>
      <trkpt lat="45.0635" lon="6.78434">
        <ele>1877</ele>
        <time>2017-01-05T13:10:17Z</time>
      </trkpt>
      <trkpt lat="45.06351" lon="6.78418">
        <ele>1877.47</ele>
        <time>2017-01-05T13:10:21Z</time>
      </trkpt>
      <trkpt lat="45.06352" lon="6.78403">
        <ele>1877.19</ele>
        <time>2017-01-05T13:10:22Z</time>
      </trkpt>
      <trkpt lat="45.0635" lon="6.78388">
        <ele>1875.92</ele>
        <time>2017-01-05T13:10:25Z</time>
      </trkpt>
      <trkpt lat="45.06358" lon="6.78364">
        <ele>1875.52</ele>
        <time>2017-01-05T13:10:29Z</time>
      </trkpt>
      <trkpt lat="45.06362" lon="6.78351">
        <ele>1874.2</ele>
        <time>2017-01-05T13:10:31Z</time>
      </trkpt>
      <trkpt lat="45.06364" lon="6.78334">
        <ele>1871.63</ele>
        <time>2017-01-05T13:10:34Z</time>
      </trkpt>
      <trkpt lat="45.06372" lon="6.78322">
        <ele>1870.83</ele>
        <time>2017-01-05T13:10:37Z</time>
      </trkpt>
      <trkpt lat="45.06373" lon="6.78306">
        <ele>1867.93</ele>
        <time>2017-01-05T13:10:40Z</time>
      </trkpt>
      <trkpt lat="45.06376" lon="6.78279">
        <ele>1862.64</ele>
        <time>2017-01-05T13:10:44Z</time>
      </trkpt>
      <trkpt lat="45.0638" lon="6.78263">
        <ele>1860.22</ele>
        <time>2017-01-05T13:10:47Z</time>
      </trkpt>
      <trkpt lat="45.06382" lon="6.78246">
        <ele>1857.68</ele>
        <time>2017-01-05T13:10:49Z</time>
      </trkpt>
      <trkpt lat="45.064" lon="6.78236">
        <ele>1861.95</ele>
        <time>2017-01-05T13:10:53Z</time>
      </trkpt>
      <trkpt lat="45.06418" lon="6.7822">
        <ele>1864.89</ele>
        <time>2017-01-05T13:10:57Z</time>
      </trkpt>
      <trkpt lat="45.0641" lon="6.78209">
        <ele>1860.97</ele>
        <time>2017-01-05T13:11:03Z</time>
      </trkpt>
      <trkpt lat="45.06391" lon="6.78225">
        <ele>1858.04</ele>
        <time>2017-01-05T13:11:08Z</time>
      </trkpt>
      <trkpt lat="45.06382" lon="6.78229">
        <ele>1855.36</ele>
        <time>2017-01-05T13:11:11Z</time>
      </trkpt>
      <trkpt lat="45.06369" lon="6.78235">
        <ele>1852.2</ele>
        <time>2017-01-05T13:11:13Z</time>
      </trkpt>
      <trkpt lat="45.0636" lon="6.78244">
        <ele>1851.33</ele>
        <time>2017-01-05T13:11:15Z</time>
      </trkpt>
      <trkpt lat="45.06353" lon="6.78261">
        <ele>1852.59</ele>
        <time>2017-01-05T13:11:18Z</time>
      </trkpt>
      <trkpt lat="45.0635" lon="6.7828">
        <ele>1855.28</ele>
        <time>2017-01-05T13:11:20Z</time>
      </trkpt>
      <trkpt lat="45.06341" lon="6.78293">
        <ele>1855.86</ele>
        <time>2017-01-05T13:11:23Z</time>
      </trkpt>
      <trkpt lat="45.06336" lon="6.78307">
        <ele>1858.32</ele>
        <time>2017-01-05T13:11:25Z</time>
      </trkpt>
      <trkpt lat="45.06326" lon="6.78318">
        <ele>1857.7</ele>
        <time>2017-01-05T13:11:27Z</time>
      </trkpt>
      <trkpt lat="45.06316" lon="6.78323">
        <ele>1855.38</ele>
        <time>2017-01-05T13:11:29Z</time>
      </trkpt>
      <trkpt lat="45.06306" lon="6.78331">
        <ele>1854.42</ele>
        <time>2017-01-05T13:11:32Z</time>
      </trkpt>
      <trkpt lat="45.06291" lon="6.7834">
        <ele>1851.28</ele>
        <time>2017-01-05T13:11:35Z</time>
      </trkpt>
      <trkpt lat="45.06277" lon="6.78342">
        <ele>1846.77</ele>
        <time>2017-01-05T13:11:38Z</time>
      </trkpt>
      <trkpt lat="45.06263" lon="6.78344">
        <ele>1841.47</ele>
        <time>2017-01-05T13:11:41Z</time>
      </trkpt>
      <trkpt lat="45.06253" lon="6.78348">
        <ele>1837.96</ele>
        <time>2017-01-05T13:11:43Z</time>
      </trkpt>
      <trkpt lat="45.06242" lon="6.78351">
        <ele>1834.32</ele>
        <time>2017-01-05T13:11:45Z</time>
      </trkpt>
      <trkpt lat="45.06228" lon="6.78356">
        <ele>1830.07</ele>
        <time>2017-01-05T13:11:48Z</time>
      </trkpt>
      <trkpt lat="45.06218" lon="6.78368">
        <ele>1829.92</ele>
        <time>2017-01-05T13:11:51Z</time>
      </trkpt>
      <trkpt lat="45.06213" lon="6.78384">
        <ele>1832.33</ele>
        <time>2017-01-05T13:11:54Z</time>
      </trkpt>
      <trkpt lat="45.062" lon="6.78405">
        <ele>1833.21</ele>
        <time>2017-01-05T13:11:58Z</time>
      </trkpt>
      <trkpt lat="45.06194" lon="6.78416">
        <ele>1833.68</ele>
        <time>2017-01-05T13:12:00Z</time>
      </trkpt>
      <trkpt lat="45.06186" lon="6.78445">
        <ele>1831.54</ele>
        <time>2017-01-05T13:12:05Z</time>
      </trkpt>
      <trkpt lat="45.06183" lon="6.78463">
        <ele>1828.25</ele>
        <time>2017-01-05T13:12:08Z</time>
      </trkpt>
      <trkpt lat="45.06185" lon="6.78495">
        <ele>1825.52</ele>
        <time>2017-01-05T13:12:13Z</time>
      </trkpt>
      <trkpt lat="45.06179" lon="6.78515">
        <ele>1825.94</ele>
        <time>2017-01-05T13:12:18Z</time>
      </trkpt>
      <trkpt lat="45.06164" lon="6.785">
        <ele>1822.22</ele>
        <time>2017-01-05T13:12:24Z</time>
      </trkpt>
      <trkpt lat="45.06154" lon="6.78491">
        <ele>1819.43</ele>
        <time>2017-01-05T13:12:26Z</time>
      </trkpt>
      <trkpt lat="45.06139" lon="6.78471">
        <ele>1814.27</ele>
        <time>2017-01-05T13:12:30Z</time>
      </trkpt>
      <trkpt lat="45.06131" lon="6.78454">
        <ele>1813.93</ele>
        <time>2017-01-05T13:12:33Z</time>
      </trkpt>
      <trkpt lat="45.06126" lon="6.78441">
        <ele>1813.61</ele>
        <time>2017-01-05T13:12:35Z</time>
      </trkpt>
      <trkpt lat="45.06122" lon="6.78422">
        <ele>1812.54</ele>
        <time>2017-01-05T13:12:38Z</time>
      </trkpt>
      <trkpt lat="45.06125" lon="6.78408">
        <ele>1812.65</ele>
        <time>2017-01-05T13:12:41Z</time>
      </trkpt>
      <trkpt lat="45.06126" lon="6.78392">
        <ele>1812.35</ele>
        <time>2017-01-05T13:12:44Z</time>
      </trkpt>
      <trkpt lat="45.06125" lon="6.78375">
        <ele>1809.64</ele>
        <time>2017-01-05T13:12:46Z</time>
      </trkpt>
      <trkpt lat="45.06125" lon="6.78355">
        <ele>1805.69</ele>
        <time>2017-01-05T13:12:48Z</time>
      </trkpt>
      <trkpt lat="45.06134" lon="6.78342">
        <ele>1804.72</ele>
        <time>2017-01-05T13:12:50Z</time>
      </trkpt>
      <trkpt lat="45.06142" lon="6.78331">
        <ele>1804.24</ele>
        <time>2017-01-05T13:12:52Z</time>
      </trkpt>
      <trkpt lat="45.06154" lon="6.78314">
        <ele>1802.51</ele>
        <time>2017-01-05T13:12:54Z</time>
      </trkpt>
      <trkpt lat="45.06179" lon="6.78312">
        <ele>1807.1</ele>
        <time>2017-01-05T13:12:58Z</time>
      </trkpt>
      <trkpt lat="45.06191" lon="6.78307">
        <ele>1807.89</ele>
        <time>2017-01-05T13:13:01Z</time>
      </trkpt>
      <trkpt lat="45.0621" lon="6.78292">
        <ele>1809.02</ele>
        <time>2017-01-05T13:13:03Z</time>
      </trkpt>
      <trkpt lat="45.06217" lon="6.78264">
        <ele>1805.16</ele>
        <time>2017-01-05T13:13:08Z</time>
      </trkpt>
      <trkpt lat="45.06221" lon="6.78248">
        <ele>1803.54</ele>
        <time>2017-01-05T13:13:11Z</time>
      </trkpt>
      <trkpt lat="45.06224" lon="6.78232">
        <ele>1803.97</ele>
        <time>2017-01-05T13:13:14Z</time>
      </trkpt>
      <trkpt lat="45.06226" lon="6.78218">
        <ele>1803.49</ele>
        <time>2017-01-05T13:13:17Z</time>
      </trkpt>
      <trkpt lat="45.06225" lon="6.78203">
        <ele>1801.1</ele>
        <time>2017-01-05T13:13:20Z</time>
      </trkpt>
      <trkpt lat="45.06223" lon="6.78186">
        <ele>1797.92</ele>
        <time>2017-01-05T13:13:23Z</time>
      </trkpt>
      <trkpt lat="45.06224" lon="6.78155">
        <ele>1793.09</ele>
        <time>2017-01-05T13:13:29Z</time>
      </trkpt>
      <trkpt lat="45.06236" lon="6.78134">
        <ele>1791.4</ele>
        <time>2017-01-05T13:13:33Z</time>
      </trkpt>
      <trkpt lat="45.06236" lon="6.78118">
        <ele>1788.41</ele>
        <time>2017-01-05T13:13:36Z</time>
      </trkpt>
      <trkpt lat="45.06227" lon="6.78112">
        <ele>1784.65</ele>
        <time>2017-01-05T13:13:38Z</time>
      </trkpt>
      <trkpt lat="45.06207" lon="6.78118">
        <ele>1781.14</ele>
        <time>2017-01-05T13:13:42Z</time>
      </trkpt>
      <trkpt lat="45.06196" lon="6.78118">
        <ele>1778.74</ele>
        <time>2017-01-05T13:13:44Z</time>
      </trkpt>
      <trkpt lat="45.06183" lon="6.78118">
        <ele>1774.43</ele>
        <time>2017-01-05T13:13:46Z</time>
      </trkpt>
      <trkpt lat="45.06171" lon="6.78119">
        <ele>1770.51</ele>
        <time>2017-01-05T13:13:48Z</time>
      </trkpt>
      <trkpt lat="45.06157" lon="6.7812">
        <ele>1767.24</ele>
        <time>2017-01-05T13:13:50Z</time>
      </trkpt>
      <trkpt lat="45.06149" lon="6.78132">
        <ele>1768</ele>
        <time>2017-01-05T13:13:52Z</time>
      </trkpt>
      <trkpt lat="45.06144" lon="6.78145">
        <ele>1769.23</ele>
        <time>2017-01-05T13:13:54Z</time>
      </trkpt>
      <trkpt lat="45.06144" lon="6.78161">
        <ele>1771.32</ele>
        <time>2017-01-05T13:13:56Z</time>
      </trkpt>
      <trkpt lat="45.06145" lon="6.78185">
        <ele>1774.39</ele>
        <time>2017-01-05T13:13:58Z</time>
      </trkpt>
      <trkpt lat="45.06143" lon="6.78207">
        <ele>1776.63</ele>
        <time>2017-01-05T13:14:00Z</time>
      </trkpt>
      <trkpt lat="45.06138" lon="6.78223">
        <ele>1777.88</ele>
        <time>2017-01-05T13:14:02Z</time>
      </trkpt>
      <trkpt lat="45.06132" lon="6.78236">
        <ele>1778.67</ele>
        <time>2017-01-05T13:14:03Z</time>
      </trkpt>
      <trkpt lat="45.06128" lon="6.7825">
        <ele>1779.68</ele>
        <time>2017-01-05T13:14:04Z</time>
      </trkpt>
      <trkpt lat="45.06119" lon="6.78268">
        <ele>1781.2</ele>
        <time>2017-01-05T13:14:06Z</time>
      </trkpt>
      <trkpt lat="45.06107" lon="6.78266">
        <ele>1777.63</ele>
        <time>2017-01-05T13:14:08Z</time>
      </trkpt>
      <trkpt lat="45.06096" lon="6.78268">
        <ele>1774.32</ele>
        <time>2017-01-05T13:14:10Z</time>
      </trkpt>
      <trkpt lat="45.06084" lon="6.78271">
        <ele>1770.92</ele>
        <time>2017-01-05T13:14:13Z</time>
      </trkpt>
      <trkpt lat="45.0607" lon="6.78275">
        <ele>1768.47</ele>
        <time>2017-01-05T13:14:16Z</time>
      </trkpt>
      <trkpt lat="45.06061" lon="6.7828">
        <ele>1767.7</ele>
        <time>2017-01-05T13:14:18Z</time>
      </trkpt>
      <trkpt lat="45.06042" lon="6.78277">
        <ele>1760.39</ele>
        <time>2017-01-05T13:14:23Z</time>
      </trkpt>
      <trkpt lat="45.0603" lon="6.78287">
        <ele>1758.95</ele>
        <time>2017-01-05T13:14:26Z</time>
      </trkpt>
      <trkpt lat="45.06022" lon="6.78295">
        <ele>1757.79</ele>
        <time>2017-01-05T13:14:28Z</time>
      </trkpt>
      <trkpt lat="45.06012" lon="6.78304">
        <ele>1756.28</ele>
        <time>2017-01-05T13:14:30Z</time>
      </trkpt>
      <trkpt lat="45.06" lon="6.78312">
        <ele>1752.84</ele>
        <time>2017-01-05T13:14:33Z</time>
      </trkpt>
      <trkpt lat="45.05988" lon="6.78318">
        <ele>1750.12</ele>
        <time>2017-01-05T13:14:36Z</time>
      </trkpt>
      <trkpt lat="45.05967" lon="6.78325">
        <ele>1745.67</ele>
        <time>2017-01-05T13:14:41Z</time>
      </trkpt>
      <trkpt lat="45.05956" lon="6.78332">
        <ele>1745.11</ele>
        <time>2017-01-05T13:14:46Z</time>
      </trkpt>
      <trkpt lat="45.05964" lon="6.78311">
        <ele>1741.44</ele>
        <time>2017-01-05T13:14:52Z</time>
      </trkpt>
      <trkpt lat="45.05975" lon="6.78302">
        <ele>1741.69</ele>
        <time>2017-01-05T13:14:56Z</time>
      </trkpt>
      <trkpt lat="45.05987" lon="6.78299">
        <ele>1744.7</ele>
        <time>2017-01-05T13:14:58Z</time>
      </trkpt>
      <trkpt lat="45.05997" lon="6.78291">
        <ele>1745.72</ele>
        <time>2017-01-05T13:15:00Z</time>
      </trkpt>
      <trkpt lat="45.06016" lon="6.78276">
        <ele>1749.42</ele>
        <time>2017-01-05T13:15:04Z</time>
      </trkpt>
      <trkpt lat="45.06028" lon="6.78263">
        <ele>1751.2</ele>
        <time>2017-01-05T13:15:06Z</time>
      </trkpt>
      <trkpt lat="45.06034" lon="6.78247">
        <ele>1748.5</ele>
        <time>2017-01-05T13:15:09Z</time>
      </trkpt>
      <trkpt lat="45.06039" lon="6.78234">
        <ele>1745.52</ele>
        <time>2017-01-05T13:15:12Z</time>
      </trkpt>
      <trkpt lat="45.06038" lon="6.78213">
        <ele>1739.92</ele>
        <time>2017-01-05T13:15:44Z</time>
      </trkpt>
      <trkpt lat="45.06037" lon="6.78185">
        <ele>1735.09</ele>
        <time>2017-01-05T13:15:50Z</time>
      </trkpt>
      <trkpt lat="45.06031" lon="6.78173">
        <ele>1731.14</ele>
        <time>2017-01-05T13:15:53Z</time>
      </trkpt>
      <trkpt lat="45.06027" lon="6.78155">
        <ele>1727.87</ele>
        <time>2017-01-05T13:15:56Z</time>
      </trkpt>
      <trkpt lat="45.06024" lon="6.78128">
        <ele>1724.65</ele>
        <time>2017-01-05T13:16:01Z</time>
      </trkpt>
      <trkpt lat="45.06006" lon="6.78114">
        <ele>1716.6</ele>
        <time>2017-01-05T13:16:05Z</time>
      </trkpt>
      <trkpt lat="45.0601" lon="6.78143">
        <ele>1720.74</ele>
        <time>2017-01-05T13:16:08Z</time>
      </trkpt>
      <trkpt lat="45.06009" lon="6.78162">
        <ele>1722.03</ele>
        <time>2017-01-05T13:16:10Z</time>
      </trkpt>
      <trkpt lat="45.06013" lon="6.78178">
        <ele>1724.88</ele>
        <time>2017-01-05T13:16:12Z</time>
      </trkpt>
      <trkpt lat="45.06012" lon="6.78196">
        <ele>1726.27</ele>
        <time>2017-01-05T13:16:15Z</time>
      </trkpt>
      <trkpt lat="45.05993" lon="6.78204">
        <ele>1719.07</ele>
        <time>2017-01-05T13:16:19Z</time>
      </trkpt>
      <trkpt lat="45.05981" lon="6.78212">
        <ele>1715.21</ele>
        <time>2017-01-05T13:16:21Z</time>
      </trkpt>
      <trkpt lat="45.05971" lon="6.78222">
        <ele>1713.83</ele>
        <time>2017-01-05T13:16:23Z</time>
      </trkpt>
      <trkpt lat="45.05966" lon="6.78235">
        <ele>1716.86</ele>
        <time>2017-01-05T13:16:25Z</time>
      </trkpt>
      <trkpt lat="45.05953" lon="6.78248">
        <ele>1717.78</ele>
        <time>2017-01-05T13:16:28Z</time>
      </trkpt>
      <trkpt lat="45.05941" lon="6.78251">
        <ele>1715.37</ele>
        <time>2017-01-05T13:16:31Z</time>
      </trkpt>
      <trkpt lat="45.05929" lon="6.7825">
        <ele>1711.91</ele>
        <time>2017-01-05T13:16:34Z</time>
      </trkpt>
      <trkpt lat="45.05911" lon="6.78249">
        <ele>1706.86</ele>
        <time>2017-01-05T13:16:38Z</time>
      </trkpt>
      <trkpt lat="45.05899" lon="6.78246">
        <ele>1702.37</ele>
        <time>2017-01-05T13:16:41Z</time>
      </trkpt>
      <trkpt lat="45.05887" lon="6.78247">
        <ele>1699.73</ele>
        <time>2017-01-05T13:16:44Z</time>
      </trkpt>
      <trkpt lat="45.05877" lon="6.78253">
        <ele>1699.64</ele>
        <time>2017-01-05T13:16:47Z</time>
      </trkpt>
      <trkpt lat="45.05865" lon="6.78256">
        <ele>1698.31</ele>
        <time>2017-01-05T13:16:50Z</time>
      </trkpt>
      <trkpt lat="45.05874" lon="6.78246">
        <ele>1696.94</ele>
        <time>2017-01-05T13:16:54Z</time>
      </trkpt>
      <trkpt lat="45.05883" lon="6.78234">
        <ele>1695.04</ele>
        <time>2017-01-05T13:16:56Z</time>
      </trkpt>
      <trkpt lat="45.05895" lon="6.78222">
        <ele>1693.27</ele>
        <time>2017-01-05T13:16:58Z</time>
      </trkpt>
      <trkpt lat="45.05905" lon="6.78218">
        <ele>1694.51</ele>
        <time>2017-01-05T13:17:00Z</time>
      </trkpt>
      <trkpt lat="45.0592" lon="6.78208">
        <ele>1695.94</ele>
        <time>2017-01-05T13:17:02Z</time>
      </trkpt>
      <trkpt lat="45.05937" lon="6.78195">
        <ele>1697.35</ele>
        <time>2017-01-05T13:17:06Z</time>
      </trkpt>
      <trkpt lat="45.05933" lon="6.78179">
        <ele>1693.54</ele>
        <time>2017-01-05T13:17:10Z</time>
      </trkpt>
      <trkpt lat="45.05921" lon="6.78175">
        <ele>1690.28</ele>
        <time>2017-01-05T13:17:13Z</time>
      </trkpt>
      <trkpt lat="45.05903" lon="6.7819">
        <ele>1687.51</ele>
        <time>2017-01-05T13:17:17Z</time>
      </trkpt>
      <trkpt lat="45.05886" lon="6.78197">
        <ele>1684.39</ele>
        <time>2017-01-05T13:17:20Z</time>
      </trkpt>
      <trkpt lat="45.05875" lon="6.78201">
        <ele>1683.74</ele>
        <time>2017-01-05T13:17:24Z</time>
      </trkpt>
      <trkpt lat="45.05865" lon="6.78206">
        <ele>1683.85</ele>
        <time>2017-01-05T13:17:27Z</time>
      </trkpt>
      <trkpt lat="45.05846" lon="6.78209">
        <ele>1680.72</ele>
        <time>2017-01-05T13:17:31Z</time>
      </trkpt>
      <trkpt lat="45.05828" lon="6.78221">
        <ele>1679.39</ele>
        <time>2017-01-05T13:17:40Z</time>
      </trkpt>
      <trkpt lat="45.05812" lon="6.78244">
        <ele>1679.01</ele>
        <time>2017-01-05T13:17:46Z</time>
      </trkpt>
      <trkpt lat="45.05798" lon="6.78271">
        <ele>1675.66</ele>
        <time>2017-01-05T13:17:50Z</time>
      </trkpt>
      <trkpt lat="45.05787" lon="6.783">
        <ele>1676.23</ele>
        <time>2017-01-05T13:17:54Z</time>
      </trkpt>
      <trkpt lat="45.05787" lon="6.78331">
        <ele>1681.56</ele>
        <time>2017-01-05T13:17:59Z</time>
      </trkpt>
      <trkpt lat="45.05774" lon="6.78356">
        <ele>1678.2</ele>
        <time>2017-01-05T13:18:04Z</time>
      </trkpt>
      <trkpt lat="45.05759" lon="6.78377">
        <ele>1669.48</ele>
        <time>2017-01-05T13:18:08Z</time>
      </trkpt>
      <trkpt lat="45.0575" lon="6.78387">
        <ele>1665.53</ele>
        <time>2017-01-05T13:18:10Z</time>
      </trkpt>
      <trkpt lat="45.05746" lon="6.78402">
        <ele>1667.24</ele>
        <time>2017-01-05T13:18:12Z</time>
      </trkpt>
      <trkpt lat="45.05737" lon="6.78419">
        <ele>1666.95</ele>
        <time>2017-01-05T13:18:14Z</time>
      </trkpt>
      <trkpt lat="45.0573" lon="6.78432">
        <ele>1665.32</ele>
        <time>2017-01-05T13:18:16Z</time>
      </trkpt>
      <trkpt lat="45.05719" lon="6.78455">
        <ele>1663.68</ele>
        <time>2017-01-05T13:18:19Z</time>
      </trkpt>
      <trkpt lat="45.05711" lon="6.78468">
        <ele>1661.07</ele>
        <time>2017-01-05T13:18:23Z</time>
      </trkpt>
      <trkpt lat="45.05705" lon="6.78481">
        <ele>1659.02</ele>
        <time>2017-01-05T13:18:26Z</time>
      </trkpt>
      <trkpt lat="45.05697" lon="6.78495">
        <ele>1656.7</ele>
        <time>2017-01-05T13:18:29Z</time>
      </trkpt>
      <trkpt lat="45.05693" lon="6.7851">
        <ele>1656.53</ele>
        <time>2017-01-05T13:18:32Z</time>
      </trkpt>
      <trkpt lat="45.05688" lon="6.78523">
        <ele>1654.78</ele>
        <time>2017-01-05T13:18:35Z</time>
      </trkpt>
      <trkpt lat="45.05682" lon="6.78535">
        <ele>1651.95</ele>
        <time>2017-01-05T13:18:38Z</time>
      </trkpt>
      <trkpt lat="45.05675" lon="6.78549">
        <ele>1647.67</ele>
        <time>2017-01-05T13:18:41Z</time>
      </trkpt>
      <trkpt lat="45.05672" lon="6.78569">
        <ele>1647.24</ele>
        <time>2017-01-05T13:18:44Z</time>
      </trkpt>
      <trkpt lat="45.0567" lon="6.78597">
        <ele>1648.3</ele>
        <time>2017-01-05T13:18:49Z</time>
      </trkpt>
      <trkpt lat="45.05665" lon="6.78616">
        <ele>1647.18</ele>
        <time>2017-01-05T13:18:51Z</time>
      </trkpt>
      <trkpt lat="45.05666" lon="6.78634">
        <ele>1646.62</ele>
        <time>2017-01-05T13:18:53Z</time>
      </trkpt>
      <trkpt lat="45.05666" lon="6.78662">
        <ele>1639.06</ele>
        <time>2017-01-05T13:18:56Z</time>
      </trkpt>
      <trkpt lat="45.05669" lon="6.78681">
        <ele>1636.91</ele>
        <time>2017-01-05T13:18:59Z</time>
      </trkpt>
      <trkpt lat="45.05658" lon="6.78684">
        <ele>1632.41</ele>
        <time>2017-01-05T13:19:12Z</time>
      </trkpt>
      <trkpt lat="45.05662" lon="6.78669">
        <ele>1635.48</ele>
        <time>2017-01-05T13:19:14Z</time>
      </trkpt>
      <trkpt lat="45.05654" lon="6.7864">
        <ele>1639.64</ele>
        <time>2017-01-05T13:19:19Z</time>
      </trkpt>
      <trkpt lat="45.05654" lon="6.78625">
        <ele>1641</ele>
        <time>2017-01-05T13:19:21Z</time>
      </trkpt>
      <trkpt lat="45.05649" lon="6.78598">
        <ele>1638.1</ele>
        <time>2017-01-05T13:19:25Z</time>
      </trkpt>
      <trkpt lat="45.05647" lon="6.78576">
        <ele>1634.21</ele>
        <time>2017-01-05T13:19:27Z</time>
      </trkpt>
      <trkpt lat="45.05645" lon="6.7856">
        <ele>1630.06</ele>
        <time>2017-01-05T13:19:30Z</time>
      </trkpt>
      <trkpt lat="45.05643" lon="6.78543">
        <ele>1627.22</ele>
        <time>2017-01-05T13:19:33Z</time>
      </trkpt>
      <trkpt lat="45.05644" lon="6.78512">
        <ele>1625.6</ele>
        <time>2017-01-05T13:19:37Z</time>
      </trkpt>
      <trkpt lat="45.05649" lon="6.78496">
        <ele>1627.79</ele>
        <time>2017-01-05T13:19:40Z</time>
      </trkpt>
      <trkpt lat="45.05648" lon="6.7848">
        <ele>1626</ele>
        <time>2017-01-05T13:19:44Z</time>
      </trkpt>
      <trkpt lat="45.05653" lon="6.78462">
        <ele>1626.66</ele>
        <time>2017-01-05T13:19:46Z</time>
      </trkpt>
      <trkpt lat="45.05655" lon="6.78443">
        <ele>1625.67</ele>
        <time>2017-01-05T13:19:49Z</time>
      </trkpt>
      <trkpt lat="45.05656" lon="6.78425">
        <ele>1622.99</ele>
        <time>2017-01-05T13:19:52Z</time>
      </trkpt>
      <trkpt lat="45.05657" lon="6.78405">
        <ele>1620.51</ele>
        <time>2017-01-05T13:19:54Z</time>
      </trkpt>
      <trkpt lat="45.05657" lon="6.78387">
        <ele>1617.92</ele>
        <time>2017-01-05T13:19:57Z</time>
      </trkpt>
      <trkpt lat="45.0566" lon="6.7836">
        <ele>1616.06</ele>
        <time>2017-01-05T13:20:01Z</time>
      </trkpt>
      <trkpt lat="45.05664" lon="6.78344">
        <ele>1616</ele>
        <time>2017-01-05T13:20:04Z</time>
      </trkpt>
      <trkpt lat="45.05669" lon="6.78331">
        <ele>1616.65</ele>
        <time>2017-01-05T13:20:07Z</time>
      </trkpt>
      <trkpt lat="45.05666" lon="6.78315">
        <ele>1613.61</ele>
        <time>2017-01-05T13:20:11Z</time>
      </trkpt>
      <trkpt lat="45.05649" lon="6.78321">
        <ele>1604.19</ele>
        <time>2017-01-05T13:20:17Z</time>
      </trkpt>
      <trkpt lat="45.05643" lon="6.78333">
        <ele>1602.44</ele>
        <time>2017-01-05T13:20:20Z</time>
      </trkpt>
      <trkpt lat="45.05639" lon="6.78347">
        <ele>1602.02</ele>
        <time>2017-01-05T13:20:23Z</time>
      </trkpt>
      <trkpt lat="45.05636" lon="6.7836">
        <ele>1601.94</ele>
        <time>2017-01-05T13:20:26Z</time>
      </trkpt>
      <trkpt lat="45.05631" lon="6.78374">
        <ele>1600.84</ele>
        <time>2017-01-05T13:20:28Z</time>
      </trkpt>
      <trkpt lat="45.05624" lon="6.78387">
        <ele>1598.89</ele>
        <time>2017-01-05T13:20:30Z</time>
      </trkpt>
      <trkpt lat="45.0562" lon="6.78401">
        <ele>1597.92</ele>
        <time>2017-01-05T13:20:32Z</time>
      </trkpt>
      <trkpt lat="45.05617" lon="6.78427">
        <ele>1597.56</ele>
        <time>2017-01-05T13:20:36Z</time>
      </trkpt>
      <trkpt lat="45.05613" lon="6.78445">
        <ele>1597.68</ele>
        <time>2017-01-05T13:20:39Z</time>
      </trkpt>
      <trkpt lat="45.05607" lon="6.7846">
        <ele>1597.27</ele>
        <time>2017-01-05T13:20:42Z</time>
      </trkpt>
      <trkpt lat="45.05601" lon="6.78473">
        <ele>1595.61</ele>
        <time>2017-01-05T13:20:44Z</time>
      </trkpt>
      <trkpt lat="45.05596" lon="6.78485">
        <ele>1593.62</ele>
        <time>2017-01-05T13:20:46Z</time>
      </trkpt>
      <trkpt lat="45.05591" lon="6.78503">
        <ele>1592.7</ele>
        <time>2017-01-05T13:20:48Z</time>
      </trkpt>
      <trkpt lat="45.05587" lon="6.78518">
        <ele>1592.57</ele>
        <time>2017-01-05T13:20:50Z</time>
      </trkpt>
      <trkpt lat="45.05583" lon="6.78532">
        <ele>1592.7</ele>
        <time>2017-01-05T13:20:52Z</time>
      </trkpt>
      <trkpt lat="45.05577" lon="6.78549">
        <ele>1592.31</ele>
        <time>2017-01-05T13:20:54Z</time>
      </trkpt>
      <trkpt lat="45.0557" lon="6.78565">
        <ele>1589.65</ele>
        <time>2017-01-05T13:20:56Z</time>
      </trkpt>
      <trkpt lat="45.05566" lon="6.78585">
        <ele>1587.78</ele>
        <time>2017-01-05T13:20:59Z</time>
      </trkpt>
      <trkpt lat="45.05563" lon="6.78601">
        <ele>1586.91</ele>
        <time>2017-01-05T13:21:01Z</time>
      </trkpt>
      <trkpt lat="45.05563" lon="6.78616">
        <ele>1586.76</ele>
        <time>2017-01-05T13:21:04Z</time>
      </trkpt>
      <trkpt lat="45.05563" lon="6.78633">
        <ele>1586.34</ele>
        <time>2017-01-05T13:21:06Z</time>
      </trkpt>
      <trkpt lat="45.05562" lon="6.78648">
        <ele>1584.17</ele>
        <time>2017-01-05T13:21:08Z</time>
      </trkpt>
      <trkpt lat="45.05561" lon="6.78665">
        <ele>1580.64</ele>
        <time>2017-01-05T13:21:11Z</time>
      </trkpt>
      <trkpt lat="45.05558" lon="6.7868">
        <ele>1576.56</ele>
        <time>2017-01-05T13:21:15Z</time>
      </trkpt>
      <trkpt lat="45.05551" lon="6.78693">
        <ele>1572.02</ele>
        <time>2017-01-05T13:21:17Z</time>
      </trkpt>
      <trkpt lat="45.05546" lon="6.78712">
        <ele>1568.37</ele>
        <time>2017-01-05T13:21:23Z</time>
      </trkpt>
      <trkpt lat="45.05548" lon="6.78696">
        <ele>1570.25</ele>
        <time>2017-01-05T13:21:26Z</time>
      </trkpt>
      <trkpt lat="45.05549" lon="6.78669">
        <ele>1573.32</ele>
        <time>2017-01-05T13:21:30Z</time>
      </trkpt>
      <trkpt lat="45.05532" lon="6.78661">
        <ele>1565.17</ele>
        <time>2017-01-05T13:21:32Z</time>
      </trkpt>
      <trkpt lat="45.05529" lon="6.78645">
        <ele>1563.6</ele>
        <time>2017-01-05T13:21:34Z</time>
      </trkpt>
      <trkpt lat="45.05532" lon="6.78627">
        <ele>1565.51</ele>
        <time>2017-01-05T13:21:36Z</time>
      </trkpt>
      <trkpt lat="45.05532" lon="6.78609">
        <ele>1565.18</ele>
        <time>2017-01-05T13:21:38Z</time>
      </trkpt>
      <trkpt lat="45.05528" lon="6.78589">
        <ele>1562.23</ele>
        <time>2017-01-05T13:21:41Z</time>
      </trkpt>
      <trkpt lat="45.05528" lon="6.78562">
        <ele>1558.14</ele>
        <time>2017-01-05T13:21:45Z</time>
      </trkpt>
      <trkpt lat="45.05526" lon="6.78534">
        <ele>1557.01</ele>
        <time>2017-01-05T13:21:50Z</time>
      </trkpt>
      <trkpt lat="45.05528" lon="6.78518">
        <ele>1557.95</ele>
        <time>2017-01-05T13:21:52Z</time>
      </trkpt>
      <trkpt lat="45.05535" lon="6.78487">
        <ele>1559.68</ele>
        <time>2017-01-05T13:21:58Z</time>
      </trkpt>
      <trkpt lat="45.05536" lon="6.7847">
        <ele>1558.89</ele>
        <time>2017-01-05T13:22:01Z</time>
      </trkpt>
      <trkpt lat="45.05538" lon="6.78456">
        <ele>1557.25</ele>
        <time>2017-01-05T13:22:10Z</time>
      </trkpt>
      <trkpt lat="45.05526" lon="6.78466">
        <ele>1551.69</ele>
        <time>2017-01-05T13:22:12Z</time>
      </trkpt>
      <trkpt lat="45.05521" lon="6.78479">
        <ele>1549.8</ele>
        <time>2017-01-05T13:22:14Z</time>
      </trkpt>
      <trkpt lat="45.0552" lon="6.78493">
        <ele>1550.27</ele>
        <time>2017-01-05T13:22:17Z</time>
      </trkpt>
      <trkpt lat="45.05517" lon="6.78507">
        <ele>1549.32</ele>
        <time>2017-01-05T13:22:19Z</time>
      </trkpt>
      <trkpt lat="45.05506" lon="6.78521">
        <ele>1543.04</ele>
        <time>2017-01-05T13:22:21Z</time>
      </trkpt>
      <trkpt lat="45.05507" lon="6.78541">
        <ele>1544.3</ele>
        <time>2017-01-05T13:22:24Z</time>
      </trkpt>
      <trkpt lat="45.05502" lon="6.78555">
        <ele>1542.28</ele>
        <time>2017-01-05T13:22:26Z</time>
      </trkpt>
      <trkpt lat="45.05496" lon="6.78568">
        <ele>1540.27</ele>
        <time>2017-01-05T13:22:28Z</time>
      </trkpt>
      <trkpt lat="45.05493" lon="6.78588">
        <ele>1540.4</ele>
        <time>2017-01-05T13:22:30Z</time>
      </trkpt>
      <trkpt lat="45.0549" lon="6.78605">
        <ele>1538.81</ele>
        <time>2017-01-05T13:22:32Z</time>
      </trkpt>
      <trkpt lat="45.05489" lon="6.78625">
        <ele>1538.29</ele>
        <time>2017-01-05T13:22:34Z</time>
      </trkpt>
      <trkpt lat="45.05485" lon="6.78642">
        <ele>1535.97</ele>
        <time>2017-01-05T13:22:37Z</time>
      </trkpt>
      <trkpt lat="45.05484" lon="6.78661">
        <ele>1534.2</ele>
        <time>2017-01-05T13:22:40Z</time>
      </trkpt>
      <trkpt lat="45.05481" lon="6.78691">
        <ele>1534.2</ele>
        <time>2017-01-05T13:22:45Z</time>
      </trkpt>
      <trkpt lat="45.0548" lon="6.78708">
        <ele>1535.33</ele>
        <time>2017-01-05T13:22:48Z</time>
      </trkpt>
      <trkpt lat="45.05475" lon="6.78727">
        <ele>1533.34</ele>
        <time>2017-01-05T13:22:51Z</time>
      </trkpt>
      <trkpt lat="45.05474" lon="6.78758">
        <ele>1527.47</ele>
        <time>2017-01-05T13:22:56Z</time>
      </trkpt>
      <trkpt lat="45.05471" lon="6.78776">
        <ele>1523.72</ele>
        <time>2017-01-05T13:22:58Z</time>
      </trkpt>
      <trkpt lat="45.05477" lon="6.78789">
        <ele>1523.24</ele>
        <time>2017-01-05T13:23:02Z</time>
      </trkpt>
      <trkpt lat="45.05464" lon="6.78791">
        <ele>1516.94</ele>
        <time>2017-01-05T13:23:07Z</time>
      </trkpt>
      <trkpt lat="45.05459" lon="6.78767">
        <ele>1518.15</ele>
        <time>2017-01-05T13:23:11Z</time>
      </trkpt>
      <trkpt lat="45.05457" lon="6.7875">
        <ele>1518.33</ele>
        <time>2017-01-05T13:23:13Z</time>
      </trkpt>
      <trkpt lat="45.05453" lon="6.78733">
        <ele>1517.06</ele>
        <time>2017-01-05T13:23:15Z</time>
      </trkpt>
      <trkpt lat="45.05453" lon="6.78715">
        <ele>1516.2</ele>
        <time>2017-01-05T13:23:17Z</time>
      </trkpt>
      <trkpt lat="45.05452" lon="6.78695">
        <ele>1513.07</ele>
        <time>2017-01-05T13:23:19Z</time>
      </trkpt>
      <trkpt lat="45.05448" lon="6.78678">
        <ele>1509.91</ele>
        <time>2017-01-05T13:23:21Z</time>
      </trkpt>
      <trkpt lat="45.05445" lon="6.78663">
        <ele>1508.88</ele>
        <time>2017-01-05T13:23:23Z</time>
      </trkpt>
      <trkpt lat="45.05444" lon="6.78647">
        <ele>1509.72</ele>
        <time>2017-01-05T13:23:25Z</time>
      </trkpt>
      <trkpt lat="45.0544" lon="6.78626">
        <ele>1509.8</ele>
        <time>2017-01-05T13:23:27Z</time>
      </trkpt>
      <trkpt lat="45.05434" lon="6.78603">
        <ele>1507.37</ele>
        <time>2017-01-05T13:23:29Z</time>
      </trkpt>
      <trkpt lat="45.05428" lon="6.78585">
        <ele>1503.04</ele>
        <time>2017-01-05T13:23:31Z</time>
      </trkpt>
      <trkpt lat="45.05427" lon="6.78569">
        <ele>1501.55</ele>
        <time>2017-01-05T13:23:33Z</time>
      </trkpt>
      <trkpt lat="45.05427" lon="6.78555">
        <ele>1501.33</ele>
        <time>2017-01-05T13:23:35Z</time>
      </trkpt>
      <trkpt lat="45.0543" lon="6.7854">
        <ele>1502.49</ele>
        <time>2017-01-05T13:23:37Z</time>
      </trkpt>
      <trkpt lat="45.05427" lon="6.78525">
        <ele>1499.36</ele>
        <time>2017-01-05T13:23:39Z</time>
      </trkpt>
      <trkpt lat="45.0543" lon="6.78512">
        <ele>1499.78</ele>
        <time>2017-01-05T13:23:42Z</time>
      </trkpt>
      <trkpt lat="45.05428" lon="6.78497">
        <ele>1497.04</ele>
        <time>2017-01-05T13:23:44Z</time>
      </trkpt>
      <trkpt lat="45.05423" lon="6.78484">
        <ele>1492.85</ele>
        <time>2017-01-05T13:23:47Z</time>
      </trkpt>
      <trkpt lat="45.0542" lon="6.78464">
        <ele>1489.18</ele>
        <time>2017-01-05T13:23:50Z</time>
      </trkpt>
      <trkpt lat="45.05421" lon="6.78447">
        <ele>1488.28</ele>
        <time>2017-01-05T13:23:53Z</time>
      </trkpt>
      <trkpt lat="45.05423" lon="6.78432">
        <ele>1488.76</ele>
        <time>2017-01-05T13:23:56Z</time>
      </trkpt>
      <trkpt lat="45.05424" lon="6.78405">
        <ele>1488.68</ele>
        <time>2017-01-05T13:24:00Z</time>
      </trkpt>
      <trkpt lat="45.05425" lon="6.78387">
        <ele>1488.43</ele>
        <time>2017-01-05T13:24:03Z</time>
      </trkpt>
      <trkpt lat="45.0542" lon="6.78361">
        <ele>1484.39</ele>
        <time>2017-01-05T13:24:09Z</time>
      </trkpt>
      <trkpt lat="45.05415" lon="6.78345">
        <ele>1481.8</ele>
        <time>2017-01-05T13:24:12Z</time>
      </trkpt>
      <trkpt lat="45.0541" lon="6.78328">
        <ele>1479.69</ele>
        <time>2017-01-05T13:24:15Z</time>
      </trkpt>
      <trkpt lat="45.05409" lon="6.7831">
        <ele>1479.38</ele>
        <time>2017-01-05T13:24:18Z</time>
      </trkpt>
      <trkpt lat="45.05404" lon="6.7828">
        <ele>1475.25</ele>
        <time>2017-01-05T13:24:23Z</time>
      </trkpt>
      <trkpt lat="45.05407" lon="6.78253">
        <ele>1473.56</ele>
        <time>2017-01-05T13:24:29Z</time>
      </trkpt>
      <trkpt lat="45.05406" lon="6.78238">
        <ele>1471.2</ele>
        <time>2017-01-05T13:24:34Z</time>
      </trkpt>
      <trkpt lat="45.05397" lon="6.78251">
        <ele>1468.77</ele>
        <time>2017-01-05T13:24:37Z</time>
      </trkpt>
      <trkpt lat="45.05381" lon="6.78275">
        <ele>1463.82</ele>
        <time>2017-01-05T13:24:42Z</time>
      </trkpt>
      <trkpt lat="45.05375" lon="6.78302">
        <ele>1462.9</ele>
        <time>2017-01-05T13:24:49Z</time>
      </trkpt>
      <trkpt lat="45.0537" lon="6.78315">
        <ele>1461.89</ele>
        <time>2017-01-05T13:24:55Z</time>
      </trkpt>
      <trkpt lat="45.0536" lon="6.78344">
        <ele>1460.21</ele>
        <time>2017-01-05T13:25:00Z</time>
      </trkpt>
      <trkpt lat="45.05358" lon="6.78358">
        <ele>1461.23</ele>
        <time>2017-01-05T13:25:02Z</time>
      </trkpt>
      <trkpt lat="45.05353" lon="6.78373">
        <ele>1459.95</ele>
        <time>2017-01-05T13:25:05Z</time>
      </trkpt>
      <trkpt lat="45.05343" lon="6.78395">
        <ele>1457.16</ele>
        <time>2017-01-05T13:25:09Z</time>
      </trkpt>
      <trkpt lat="45.05337" lon="6.78413">
        <ele>1455.42</ele>
        <time>2017-01-05T13:25:11Z</time>
      </trkpt>
      <trkpt lat="45.05335" lon="6.78429">
        <ele>1454.71</ele>
        <time>2017-01-05T13:25:14Z</time>
      </trkpt>
      <trkpt lat="45.05332" lon="6.78446">
        <ele>1453.14</ele>
        <time>2017-01-05T13:25:17Z</time>
      </trkpt>
      <trkpt lat="45.05331" lon="6.7846">
        <ele>1452.09</ele>
        <time>2017-01-05T13:25:19Z</time>
      </trkpt>
      <trkpt lat="45.0533" lon="6.78478">
        <ele>1450.82</ele>
        <time>2017-01-05T13:25:21Z</time>
      </trkpt>
      <trkpt lat="45.05328" lon="6.78494">
        <ele>1449.17</ele>
        <time>2017-01-05T13:25:24Z</time>
      </trkpt>
      <trkpt lat="45.05324" lon="6.78514">
        <ele>1446.07</ele>
        <time>2017-01-05T13:25:28Z</time>
      </trkpt>
      <trkpt lat="45.05323" lon="6.78533">
        <ele>1444.9</ele>
        <time>2017-01-05T13:25:32Z</time>
      </trkpt>
      <trkpt lat="45.05326" lon="6.78549">
        <ele>1445.58</ele>
        <time>2017-01-05T13:25:34Z</time>
      </trkpt>
      <trkpt lat="45.05324" lon="6.78567">
        <ele>1444.15</ele>
        <time>2017-01-05T13:25:36Z</time>
      </trkpt>
      <trkpt lat="45.05322" lon="6.78591">
        <ele>1443.01</ele>
        <time>2017-01-05T13:25:39Z</time>
      </trkpt>
      <trkpt lat="45.0532" lon="6.78605">
        <ele>1441.09</ele>
        <time>2017-01-05T13:25:41Z</time>
      </trkpt>
      <trkpt lat="45.05318" lon="6.78621">
        <ele>1441.03</ele>
        <time>2017-01-05T13:25:42Z</time>
      </trkpt>
      <trkpt lat="45.05315" lon="6.78638">
        <ele>1441.32</ele>
        <time>2017-01-05T13:25:45Z</time>
      </trkpt>
      <trkpt lat="45.05316" lon="6.78653">
        <ele>1443.35</ele>
        <time>2017-01-05T13:25:47Z</time>
      </trkpt>
      <trkpt lat="45.05312" lon="6.7867">
        <ele>1442.47</ele>
        <time>2017-01-05T13:25:49Z</time>
      </trkpt>
      <trkpt lat="45.05309" lon="6.78686">
        <ele>1440.21</ele>
        <time>2017-01-05T13:25:51Z</time>
      </trkpt>
      <trkpt lat="45.05304" lon="6.787">
        <ele>1436.3</ele>
        <time>2017-01-05T13:25:53Z</time>
      </trkpt>
      <trkpt lat="45.05298" lon="6.78712">
        <ele>1432.06</ele>
        <time>2017-01-05T13:25:55Z</time>
      </trkpt>
      <trkpt lat="45.05292" lon="6.78725">
        <ele>1428.7</ele>
        <time>2017-01-05T13:25:57Z</time>
      </trkpt>
      <trkpt lat="45.05291" lon="6.78748">
        <ele>1428.19</ele>
        <time>2017-01-05T13:25:59Z</time>
      </trkpt>
      <trkpt lat="45.05288" lon="6.78764">
        <ele>1428.55</ele>
        <time>2017-01-05T13:26:01Z</time>
      </trkpt>
      <trkpt lat="45.05282" lon="6.78781">
        <ele>1428.16</ele>
        <time>2017-01-05T13:26:04Z</time>
      </trkpt>
      <trkpt lat="45.05275" lon="6.78805">
        <ele>1427.56</ele>
        <time>2017-01-05T13:26:08Z</time>
      </trkpt>
      <trkpt lat="45.05276" lon="6.78821">
        <ele>1427.51</ele>
        <time>2017-01-05T13:26:10Z</time>
      </trkpt>
      <trkpt lat="45.05268" lon="6.78826">
        <ele>1422.89</ele>
        <time>2017-01-05T13:26:18Z</time>
      </trkpt>
      <trkpt lat="45.05266" lon="6.7881">
        <ele>1422.76</ele>
        <time>2017-01-05T13:26:21Z</time>
      </trkpt>
      <trkpt lat="45.05267" lon="6.78792">
        <ele>1422.46</ele>
        <time>2017-01-05T13:26:24Z</time>
      </trkpt>
      <trkpt lat="45.05263" lon="6.78775">
        <ele>1419.43</ele>
        <time>2017-01-05T13:26:31Z</time>
      </trkpt>
      <trkpt lat="45.05257" lon="6.78764">
        <ele>1415.84</ele>
        <time>2017-01-05T13:26:42Z</time>
      </trkpt>
      <trkpt lat="45.05262" lon="6.7874">
        <ele>1416.27</ele>
        <time>2017-01-05T13:27:06Z</time>
      </trkpt>
      <trkpt lat="45.05261" lon="6.78724">
        <ele>1415.41</ele>
        <time>2017-01-05T13:27:09Z</time>
      </trkpt>
      <trkpt lat="45.05256" lon="6.78704">
        <ele>1412.69</ele>
        <time>2017-01-05T13:27:12Z</time>
      </trkpt>
      <trkpt lat="45.05252" lon="6.78673">
        <ele>1410.86</ele>
        <time>2017-01-05T13:27:17Z</time>
      </trkpt>
      <trkpt lat="45.05239" lon="6.78652">
        <ele>1407.1</ele>
        <time>2017-01-05T13:27:21Z</time>
      </trkpt>
      <trkpt lat="45.05232" lon="6.7864">
        <ele>1404.65</ele>
        <time>2017-01-05T13:27:23Z</time>
      </trkpt>
      <trkpt lat="45.05223" lon="6.78616">
        <ele>1402.04</ele>
        <time>2017-01-05T13:27:27Z</time>
      </trkpt>
      <trkpt lat="45.0522" lon="6.78601">
        <ele>1401.35</ele>
        <time>2017-01-05T13:27:29Z</time>
      </trkpt>
      <trkpt lat="45.05217" lon="6.78584">
        <ele>1400.86</ele>
        <time>2017-01-05T13:27:32Z</time>
      </trkpt>
      <trkpt lat="45.05218" lon="6.78567">
        <ele>1402.27</ele>
        <time>2017-01-05T13:27:35Z</time>
      </trkpt>
      <trkpt lat="45.05218" lon="6.7855">
        <ele>1403.34</ele>
        <time>2017-01-05T13:27:38Z</time>
      </trkpt>
      <trkpt lat="45.052" lon="6.78536">
        <ele>1396.13</ele>
        <time>2017-01-05T13:27:42Z</time>
      </trkpt>
      <trkpt lat="45.05192" lon="6.78525">
        <ele>1392.93</ele>
        <time>2017-01-05T13:27:44Z</time>
      </trkpt>
      <trkpt lat="45.05183" lon="6.78514">
        <ele>1390.19</ele>
        <time>2017-01-05T13:27:46Z</time>
      </trkpt>
      <trkpt lat="45.05178" lon="6.78489">
        <ele>1389.67</ele>
        <time>2017-01-05T13:27:50Z</time>
      </trkpt>
      <trkpt lat="45.05166" lon="6.78467">
        <ele>1386.68</ele>
        <time>2017-01-05T13:27:54Z</time>
      </trkpt>
      <trkpt lat="45.05157" lon="6.78444">
        <ele>1381.35</ele>
        <time>2017-01-05T13:27:58Z</time>
      </trkpt>
      <trkpt lat="45.0516" lon="6.78424">
        <ele>1384.46</ele>
        <time>2017-01-05T13:28:01Z</time>
      </trkpt>
      <trkpt lat="45.05157" lon="6.78406">
        <ele>1383.8</ele>
        <time>2017-01-05T13:28:03Z</time>
      </trkpt>
      <trkpt lat="45.05159" lon="6.78389">
        <ele>1384.88</ele>
        <time>2017-01-05T13:28:06Z</time>
      </trkpt>
      <trkpt lat="45.05162" lon="6.78374">
        <ele>1385.3</ele>
        <time>2017-01-05T13:28:08Z</time>
      </trkpt>
      <trkpt lat="45.05162" lon="6.7835">
        <ele>1383.16</ele>
        <time>2017-01-05T13:28:14Z</time>
      </trkpt>
      <trkpt lat="45.0516" lon="6.78333">
        <ele>1380.79</ele>
        <time>2017-01-05T13:28:17Z</time>
      </trkpt>
      <trkpt lat="45.05166" lon="6.78316">
        <ele>1384.49</ele>
        <time>2017-01-05T13:28:19Z</time>
      </trkpt>
      <trkpt lat="45.05174" lon="6.7829">
        <ele>1387.44</ele>
        <time>2017-01-05T13:28:24Z</time>
      </trkpt>
      <trkpt lat="45.05163" lon="6.78279">
        <ele>1382.68</ele>
        <time>2017-01-05T13:28:27Z</time>
      </trkpt>
      <trkpt lat="45.05151" lon="6.78271">
        <ele>1378.36</ele>
        <time>2017-01-05T13:28:30Z</time>
      </trkpt>
      <trkpt lat="45.05132" lon="6.78263">
        <ele>1371.13</ele>
        <time>2017-01-05T13:28:34Z</time>
      </trkpt>
      <trkpt lat="45.05119" lon="6.78241">
        <ele>1367.41</ele>
        <time>2017-01-05T13:28:38Z</time>
      </trkpt>
      <trkpt lat="45.05117" lon="6.78226">
        <ele>1367.34</ele>
        <time>2017-01-05T13:28:40Z</time>
      </trkpt>
      <trkpt lat="45.05107" lon="6.78232">
        <ele>1362.59</ele>
        <time>2017-01-05T13:28:46Z</time>
      </trkpt>
      <trkpt lat="45.05113" lon="6.78246">
        <ele>1364.73</ele>
        <time>2017-01-05T13:28:49Z</time>
      </trkpt>
      <trkpt lat="45.05121" lon="6.78273">
        <ele>1364.71</ele>
        <time>2017-01-05T13:28:53Z</time>
      </trkpt>
      <trkpt lat="45.05131" lon="6.78286">
        <ele>1368.32</ele>
        <time>2017-01-05T13:28:55Z</time>
      </trkpt>
      <trkpt lat="45.05129" lon="6.78303">
        <ele>1365.56</ele>
        <time>2017-01-05T13:28:57Z</time>
      </trkpt>
      <trkpt lat="45.05121" lon="6.78314">
        <ele>1362.3</ele>
        <time>2017-01-05T13:28:59Z</time>
      </trkpt>
      <trkpt lat="45.0511" lon="6.78321">
        <ele>1358.12</ele>
        <time>2017-01-05T13:29:01Z</time>
      </trkpt>
      <trkpt lat="45.05099" lon="6.78326">
        <ele>1353.74</ele>
        <time>2017-01-05T13:29:04Z</time>
      </trkpt>
      <trkpt lat="45.05089" lon="6.7834">
        <ele>1349.5</ele>
        <time>2017-01-05T13:29:06Z</time>
      </trkpt>
      <trkpt lat="45.05084" lon="6.78355">
        <ele>1347.12</ele>
        <time>2017-01-05T13:29:09Z</time>
      </trkpt>
      <trkpt lat="45.05084" lon="6.78372">
        <ele>1346.91</ele>
        <time>2017-01-05T13:29:11Z</time>
      </trkpt>
      <trkpt lat="45.05082" lon="6.78386">
        <ele>1345.35</ele>
        <time>2017-01-05T13:29:13Z</time>
      </trkpt>
      <trkpt lat="45.05084" lon="6.78418">
        <ele>1349.42</ele>
        <time>2017-01-05T13:29:17Z</time>
      </trkpt>
      <trkpt lat="45.05084" lon="6.78438">
        <ele>1347.68</ele>
        <time>2017-01-05T13:29:19Z</time>
      </trkpt>
      <trkpt lat="45.05081" lon="6.78453">
        <ele>1344.5</ele>
        <time>2017-01-05T13:29:22Z</time>
      </trkpt>
      <trkpt lat="45.05081" lon="6.78469">
        <ele>1342.99</ele>
        <time>2017-01-05T13:29:24Z</time>
      </trkpt>
      <trkpt lat="45.05083" lon="6.78484">
        <ele>1343.93</ele>
        <time>2017-01-05T13:29:26Z</time>
      </trkpt>
      <trkpt lat="45.05093" lon="6.78498">
        <ele>1349.81</ele>
        <time>2017-01-05T13:29:29Z</time>
      </trkpt>
      <trkpt lat="45.05082" lon="6.78506">
        <ele>1342.85</ele>
        <time>2017-01-05T13:29:32Z</time>
      </trkpt>
      <trkpt lat="45.05076" lon="6.78523">
        <ele>1338.67</ele>
        <time>2017-01-05T13:29:35Z</time>
      </trkpt>
      <trkpt lat="45.05076" lon="6.78539">
        <ele>1336.51</ele>
        <time>2017-01-05T13:29:37Z</time>
      </trkpt>
      <trkpt lat="45.05083" lon="6.78556">
        <ele>1337.57</ele>
        <time>2017-01-05T13:29:39Z</time>
      </trkpt>
      <trkpt lat="45.05089" lon="6.78569">
        <ele>1342.24</ele>
        <time>2017-01-05T13:29:41Z</time>
      </trkpt>
      <trkpt lat="45.05089" lon="6.78585">
        <ele>1342.9</ele>
        <time>2017-01-05T13:29:44Z</time>
      </trkpt>
      <trkpt lat="45.05084" lon="6.78601">
        <ele>1341.13</ele>
        <time>2017-01-05T13:29:47Z</time>
      </trkpt>
      <trkpt lat="45.05082" lon="6.78621">
        <ele>1341.2</ele>
        <time>2017-01-05T13:29:49Z</time>
      </trkpt>
      <trkpt lat="45.05072" lon="6.78627">
        <ele>1336.46</ele>
        <time>2017-01-05T13:29:51Z</time>
      </trkpt>
      <trkpt lat="45.0506" lon="6.78633">
        <ele>1330.79</ele>
        <time>2017-01-05T13:29:53Z</time>
      </trkpt>
      <trkpt lat="45.05049" lon="6.78639">
        <ele>1325.77</ele>
        <time>2017-01-05T13:29:55Z</time>
      </trkpt>
      <trkpt lat="45.05038" lon="6.7865">
        <ele>1322.69</ele>
        <time>2017-01-05T13:29:57Z</time>
      </trkpt>
      <trkpt lat="45.05031" lon="6.78668">
        <ele>1322.51</ele>
        <time>2017-01-05T13:30:00Z</time>
      </trkpt>
      <trkpt lat="45.05023" lon="6.78683">
        <ele>1320.04</ele>
        <time>2017-01-05T13:30:03Z</time>
      </trkpt>
      <trkpt lat="45.05024" lon="6.78701">
        <ele>1321.97</ele>
        <time>2017-01-05T13:30:05Z</time>
      </trkpt>
      <trkpt lat="45.05028" lon="6.78727">
        <ele>1323.53</ele>
        <time>2017-01-05T13:30:09Z</time>
      </trkpt>
      <trkpt lat="45.05026" lon="6.78745">
        <ele>1321.55</ele>
        <time>2017-01-05T13:30:12Z</time>
      </trkpt>
      <trkpt lat="45.0502" lon="6.78761">
        <ele>1316.49</ele>
        <time>2017-01-05T13:30:15Z</time>
      </trkpt>
      <trkpt lat="45.05011" lon="6.78771">
        <ele>1310.21</ele>
        <time>2017-01-05T13:30:19Z</time>
      </trkpt>
      <trkpt lat="45.05011" lon="6.78756">
        <ele>1311.4</ele>
        <time>2017-01-05T13:30:22Z</time>
      </trkpt>
      <trkpt lat="45.05009" lon="6.7874">
        <ele>1310.9</ele>
        <time>2017-01-05T13:30:26Z</time>
      </trkpt>
      <trkpt lat="45.04996" lon="6.78717">
        <ele>1305.3</ele>
        <time>2017-01-05T13:30:30Z</time>
      </trkpt>
      <trkpt lat="45.04984" lon="6.78706">
        <ele>1300.33</ele>
        <time>2017-01-05T13:30:32Z</time>
      </trkpt>
      <trkpt lat="45.04986" lon="6.78685">
        <ele>1301.45</ele>
        <time>2017-01-05T13:30:34Z</time>
      </trkpt>
      <trkpt lat="45.04984" lon="6.78667">
        <ele>1299.4</ele>
        <time>2017-01-05T13:30:36Z</time>
      </trkpt>
      <trkpt lat="45.04988" lon="6.7865">
        <ele>1298.59</ele>
        <time>2017-01-05T13:30:39Z</time>
      </trkpt>
      <trkpt lat="45.04992" lon="6.7862">
        <ele>1296.71</ele>
        <time>2017-01-05T13:30:43Z</time>
      </trkpt>
      <trkpt lat="45.0501" lon="6.78604">
        <ele>1302.11</ele>
        <time>2017-01-05T13:30:47Z</time>
      </trkpt>
      <trkpt lat="45.05021" lon="6.78599">
        <ele>1306.19</ele>
        <time>2017-01-05T13:30:49Z</time>
      </trkpt>
      <trkpt lat="45.05029" lon="6.78588">
        <ele>1309.7</ele>
        <time>2017-01-05T13:30:51Z</time>
      </trkpt>
      <trkpt lat="45.05024" lon="6.78575">
        <ele>1307.28</ele>
        <time>2017-01-05T13:30:53Z</time>
      </trkpt>
      <trkpt lat="45.05015" lon="6.78568">
        <ele>1302.79</ele>
        <time>2017-01-05T13:30:55Z</time>
      </trkpt>
      <trkpt lat="45.05005" lon="6.78557">
        <ele>1297.43</ele>
        <time>2017-01-05T13:30:59Z</time>
      </trkpt>
      <trkpt lat="45.04998" lon="6.78541">
        <ele>1295.15</ele>
        <time>2017-01-05T13:31:00Z</time>
      </trkpt>
      <trkpt lat="45.04998" lon="6.78524">
        <ele>1296.28</ele>
        <time>2017-01-05T13:31:02Z</time>
      </trkpt>
      <trkpt lat="45.04997" lon="6.78507">
        <ele>1296.83</ele>
        <time>2017-01-05T13:31:04Z</time>
      </trkpt>
      <trkpt lat="45.05002" lon="6.78481">
        <ele>1301.94</ele>
        <time>2017-01-05T13:31:08Z</time>
      </trkpt>
      <trkpt lat="45.05005" lon="6.78465">
        <ele>1304.56</ele>
        <time>2017-01-05T13:31:11Z</time>
      </trkpt>
      <trkpt lat="45.04997" lon="6.78454">
        <ele>1301.7</ele>
        <time>2017-01-05T13:31:14Z</time>
      </trkpt>
      <trkpt lat="45.04988" lon="6.78443">
        <ele>1297.35</ele>
        <time>2017-01-05T13:31:17Z</time>
      </trkpt>
      <trkpt lat="45.0498" lon="6.78433">
        <ele>1293.25</ele>
        <time>2017-01-05T13:31:20Z</time>
      </trkpt>
      <trkpt lat="45.04976" lon="6.78412">
        <ele>1293.19</ele>
        <time>2017-01-05T13:31:23Z</time>
      </trkpt>
      <trkpt lat="45.04974" lon="6.78397">
        <ele>1292.06</ele>
        <time>2017-01-05T13:31:27Z</time>
      </trkpt>
      <trkpt lat="45.04961" lon="6.78412">
        <ele>1284.64</ele>
        <time>2017-01-05T13:31:34Z</time>
      </trkpt>
      <trkpt lat="45.04956" lon="6.78427">
        <ele>1280.18</ele>
        <time>2017-01-05T13:31:36Z</time>
      </trkpt>
      <trkpt lat="45.04959" lon="6.78443">
        <ele>1280.33</ele>
        <time>2017-01-05T13:31:38Z</time>
      </trkpt>
      <trkpt lat="45.04964" lon="6.78464">
        <ele>1282.55</ele>
        <time>2017-01-05T13:31:40Z</time>
      </trkpt>
      <trkpt lat="45.04972" lon="6.78482">
        <ele>1285.12</ele>
        <time>2017-01-05T13:31:42Z</time>
      </trkpt>
      <trkpt lat="45.04967" lon="6.78498">
        <ele>1279.89</ele>
        <time>2017-01-05T13:31:44Z</time>
      </trkpt>
      <trkpt lat="45.04964" lon="6.78514">
        <ele>1277.16</ele>
        <time>2017-01-05T13:31:46Z</time>
      </trkpt>
      <trkpt lat="45.04967" lon="6.78529">
        <ele>1277.63</ele>
        <time>2017-01-05T13:31:48Z</time>
      </trkpt>
      <trkpt lat="45.04969" lon="6.78551">
        <ele>1280.87</ele>
        <time>2017-01-05T13:31:50Z</time>
      </trkpt>
      <trkpt lat="45.04962" lon="6.78562">
        <ele>1278.65</ele>
        <time>2017-01-05T13:31:53Z</time>
      </trkpt>
      <trkpt lat="45.04951" lon="6.78559">
        <ele>1272.68</ele>
        <time>2017-01-05T13:37:11Z</time>
      </trkpt>
      <trkpt lat="45.04951" lon="6.78587">
        <ele>1275.97</ele>
        <time>2017-01-05T13:37:18Z</time>
      </trkpt>
      <trkpt lat="45.04939" lon="6.78606">
        <ele>1272.5</ele>
        <time>2017-01-05T13:37:21Z</time>
      </trkpt>
      <trkpt lat="45.04932" lon="6.78617">
        <ele>1270.55</ele>
        <time>2017-01-05T13:37:23Z</time>
      </trkpt>
      <trkpt lat="45.04922" lon="6.7863">
        <ele>1267.47</ele>
        <time>2017-01-05T13:37:27Z</time>
      </trkpt>
      <trkpt lat="45.04914" lon="6.78644">
        <ele>1265.17</ele>
        <time>2017-01-05T13:37:28Z</time>
      </trkpt>
      <trkpt lat="45.04912" lon="6.78661">
        <ele>1264.54</ele>
        <time>2017-01-05T13:37:31Z</time>
      </trkpt>
      <trkpt lat="45.04914" lon="6.78681">
        <ele>1265.28</ele>
        <time>2017-01-05T13:37:34Z</time>
      </trkpt>
      <trkpt lat="45.04919" lon="6.78698">
        <ele>1267.02</ele>
        <time>2017-01-05T13:37:36Z</time>
      </trkpt>
      <trkpt lat="45.04923" lon="6.78713">
        <ele>1269.01</ele>
        <time>2017-01-05T13:37:38Z</time>
      </trkpt>
      <trkpt lat="45.04928" lon="6.78727">
        <ele>1271.43</ele>
        <time>2017-01-05T13:37:41Z</time>
      </trkpt>
      <trkpt lat="45.04927" lon="6.78752">
        <ele>1268.92</ele>
        <time>2017-01-05T13:37:46Z</time>
      </trkpt>
      <trkpt lat="45.04923" lon="6.78769">
        <ele>1266.25</ele>
        <time>2017-01-05T13:37:48Z</time>
      </trkpt>
      <trkpt lat="45.04916" lon="6.78785">
        <ele>1262.05</ele>
        <time>2017-01-05T13:37:50Z</time>
      </trkpt>
      <trkpt lat="45.04913" lon="6.78799">
        <ele>1259.38</ele>
        <time>2017-01-05T13:37:52Z</time>
      </trkpt>
      <trkpt lat="45.04913" lon="6.78813">
        <ele>1258.81</ele>
        <time>2017-01-05T13:37:54Z</time>
      </trkpt>
      <trkpt lat="45.04907" lon="6.78826">
        <ele>1255.72</ele>
        <time>2017-01-05T13:37:56Z</time>
      </trkpt>
      <trkpt lat="45.04901" lon="6.78843">
        <ele>1253.56</ele>
        <time>2017-01-05T13:37:59Z</time>
      </trkpt>
      <trkpt lat="45.04903" lon="6.78873">
        <ele>1254.36</ele>
        <time>2017-01-05T13:38:01Z</time>
      </trkpt>
      <trkpt lat="45.04906" lon="6.78889">
        <ele>1254.56</ele>
        <time>2017-01-05T13:38:04Z</time>
      </trkpt>
      <trkpt lat="45.04903" lon="6.78906">
        <ele>1251.84</ele>
        <time>2017-01-05T13:38:06Z</time>
      </trkpt>
      <trkpt lat="45.04897" lon="6.78931">
        <ele>1245.29</ele>
        <time>2017-01-05T13:38:12Z</time>
      </trkpt>
      <trkpt lat="45.0489" lon="6.78945">
        <ele>1240.14</ele>
        <time>2017-01-05T13:38:15Z</time>
      </trkpt>
      <trkpt lat="45.04886" lon="6.78966">
        <ele>1237.1</ele>
        <time>2017-01-05T13:38:18Z</time>
      </trkpt>
      <trkpt lat="45.0488" lon="6.78984">
        <ele>1232.73</ele>
        <time>2017-01-05T13:38:21Z</time>
      </trkpt>
      <trkpt lat="45.04873" lon="6.78967">
        <ele>1233.75</ele>
        <time>2017-01-05T13:38:24Z</time>
      </trkpt>
      <trkpt lat="45.04878" lon="6.78952">
        <ele>1235.75</ele>
        <time>2017-01-05T13:38:26Z</time>
      </trkpt>
      <trkpt lat="45.04879" lon="6.78936">
        <ele>1236.92</ele>
        <time>2017-01-05T13:38:29Z</time>
      </trkpt>
      <trkpt lat="45.04881" lon="6.78907">
        <ele>1240.64</ele>
        <time>2017-01-05T13:38:33Z</time>
      </trkpt>
      <trkpt lat="45.04889" lon="6.7889">
        <ele>1247.64</ele>
        <time>2017-01-05T13:38:34Z</time>
      </trkpt>
      <trkpt lat="45.0488" lon="6.78869">
        <ele>1242.38</ele>
        <time>2017-01-05T13:38:38Z</time>
      </trkpt>
      <trkpt lat="45.0487" lon="6.78849">
        <ele>1237.83</ele>
        <time>2017-01-05T13:38:41Z</time>
      </trkpt>
      <trkpt lat="45.04871" lon="6.78833">
        <ele>1238.93</ele>
        <time>2017-01-05T13:38:44Z</time>
      </trkpt>
      <trkpt lat="45.0486" lon="6.78825">
        <ele>1233.3</ele>
        <time>2017-01-05T13:38:47Z</time>
      </trkpt>
      <trkpt lat="45.04856" lon="6.78809">
        <ele>1231.11</ele>
        <time>2017-01-05T13:38:49Z</time>
      </trkpt>
      <trkpt lat="45.04853" lon="6.78773">
        <ele>1228.06</ele>
        <time>2017-01-05T13:38:54Z</time>
      </trkpt>
      <trkpt lat="45.04852" lon="6.78758">
        <ele>1227.83</ele>
        <time>2017-01-05T13:38:57Z</time>
      </trkpt>
      <trkpt lat="45.04841" lon="6.78745">
        <ele>1222.81</ele>
        <time>2017-01-05T13:39:01Z</time>
      </trkpt>
      <trkpt lat="45.04826" lon="6.78739">
        <ele>1215.64</ele>
        <time>2017-01-05T13:39:04Z</time>
      </trkpt>
      <trkpt lat="45.04818" lon="6.7873">
        <ele>1211.63</ele>
        <time>2017-01-05T13:39:06Z</time>
      </trkpt>
      <trkpt lat="45.04811" lon="6.78716">
        <ele>1208.67</ele>
        <time>2017-01-05T13:39:08Z</time>
      </trkpt>
      <trkpt lat="45.04809" lon="6.78699">
        <ele>1209.57</ele>
        <time>2017-01-05T13:39:10Z</time>
      </trkpt>
      <trkpt lat="45.04792" lon="6.78676">
        <ele>1203.12</ele>
        <time>2017-01-05T13:39:14Z</time>
      </trkpt>
      <trkpt lat="45.04793" lon="6.78656">
        <ele>1205.28</ele>
        <time>2017-01-05T13:39:17Z</time>
      </trkpt>
      <trkpt lat="45.04799" lon="6.78638">
        <ele>1208.65</ele>
        <time>2017-01-05T13:39:20Z</time>
      </trkpt>
      <trkpt lat="45.04808" lon="6.78625">
        <ele>1212.89</ele>
        <time>2017-01-05T13:39:23Z</time>
      </trkpt>
      <trkpt lat="45.04794" lon="6.78608">
        <ele>1206.43</ele>
        <time>2017-01-05T13:39:25Z</time>
      </trkpt>
      <trkpt lat="45.04785" lon="6.786">
        <ele>1202.2</ele>
        <time>2017-01-05T13:39:27Z</time>
      </trkpt>
      <trkpt lat="45.04777" lon="6.78579">
        <ele>1199.49</ele>
        <time>2017-01-05T13:39:31Z</time>
      </trkpt>
      <trkpt lat="45.04778" lon="6.7856">
        <ele>1199.34</ele>
        <time>2017-01-05T13:39:34Z</time>
      </trkpt>
      <trkpt lat="45.0478" lon="6.78533">
        <ele>1196.59</ele>
        <time>2017-01-05T13:39:39Z</time>
      </trkpt>
      <trkpt lat="45.04785" lon="6.78519">
        <ele>1196.79</ele>
        <time>2017-01-05T13:39:43Z</time>
      </trkpt>
      <trkpt lat="45.04783" lon="6.78505">
        <ele>1194.32</ele>
        <time>2017-01-05T13:39:45Z</time>
      </trkpt>
      <trkpt lat="45.04771" lon="6.78497">
        <ele>1190.27</ele>
        <time>2017-01-05T13:39:48Z</time>
      </trkpt>
      <trkpt lat="45.04753" lon="6.78506">
        <ele>1185.03</ele>
        <time>2017-01-05T13:39:53Z</time>
      </trkpt>
      <trkpt lat="45.04744" lon="6.78512">
        <ele>1182.68</ele>
        <time>2017-01-05T13:39:55Z</time>
      </trkpt>
      <trkpt lat="45.04733" lon="6.78517">
        <ele>1179.67</ele>
        <time>2017-01-05T13:39:58Z</time>
      </trkpt>
      <trkpt lat="45.04727" lon="6.7853">
        <ele>1177.46</ele>
        <time>2017-01-05T13:40:48Z</time>
      </trkpt>
      <trkpt lat="45.04717" lon="6.78549">
        <ele>1175.94</ele>
        <time>2017-01-05T13:41:07Z</time>
      </trkpt>
      <trkpt lat="45.04708" lon="6.78542">
        <ele>1174.25</ele>
        <time>2017-01-05T13:41:17Z</time>
      </trkpt>
      <trkpt lat="45.04695" lon="6.78547">
        <ele>1172.47</ele>
        <time>2017-01-05T13:41:19Z</time>
      </trkpt>
      <trkpt lat="45.0468" lon="6.78558">
        <ele>1170.53</ele>
        <time>2017-01-05T13:41:21Z</time>
      </trkpt>
      <trkpt lat="45.04669" lon="6.78558">
        <ele>1168.61</ele>
        <time>2017-01-05T13:41:23Z</time>
      </trkpt>
      <trkpt lat="45.04656" lon="6.78556">
        <ele>1165.4</ele>
        <time>2017-01-05T13:41:25Z</time>
      </trkpt>
      <trkpt lat="45.04643" lon="6.7855">
        <ele>1161.9</ele>
        <time>2017-01-05T13:41:27Z</time>
      </trkpt>
      <trkpt lat="45.04631" lon="6.78544">
        <ele>1159.47</ele>
        <time>2017-01-05T13:41:29Z</time>
      </trkpt>
      <trkpt lat="45.04619" lon="6.78539">
        <ele>1157.05</ele>
        <time>2017-01-05T13:41:31Z</time>
      </trkpt>
      <trkpt lat="45.04605" lon="6.78535">
        <ele>1155.07</ele>
        <time>2017-01-05T13:41:33Z</time>
      </trkpt>
      <trkpt lat="45.04594" lon="6.7853">
        <ele>1154</ele>
        <time>2017-01-05T13:41:35Z</time>
      </trkpt>
      <trkpt lat="45.04582" lon="6.78525">
        <ele>1152.89</ele>
        <time>2017-01-05T13:41:37Z</time>
      </trkpt>
      <trkpt lat="45.04569" lon="6.78523">
        <ele>1151.14</ele>
        <time>2017-01-05T13:41:39Z</time>
      </trkpt>
      <trkpt lat="45.04559" lon="6.78521">
        <ele>1149.78</ele>
        <time>2017-01-05T13:41:42Z</time>
      </trkpt>
      <trkpt lat="45.0454" lon="6.78522">
        <ele>1146.67</ele>
        <time>2017-01-05T13:41:46Z</time>
      </trkpt>
      <trkpt lat="45.04514" lon="6.7853">
        <ele>1142.18</ele>
        <time>2017-01-05T13:41:49Z</time>
      </trkpt>
      <trkpt lat="45.04497" lon="6.78532">
        <ele>1138.88</ele>
        <time>2017-01-05T13:41:52Z</time>
      </trkpt>
      <trkpt lat="45.04482" lon="6.78537">
        <ele>1137.4</ele>
        <time>2017-01-05T13:41:54Z</time>
      </trkpt>
      <trkpt lat="45.0447" lon="6.78541">
        <ele>1135.96</ele>
        <time>2017-01-05T13:41:57Z</time>
      </trkpt>
      <trkpt lat="45.04459" lon="6.78549">
        <ele>1135.02</ele>
        <time>2017-01-05T13:42:01Z</time>
      </trkpt>
      <trkpt lat="45.04451" lon="6.78557">
        <ele>1134.08</ele>
        <time>2017-01-05T13:42:04Z</time>
      </trkpt>
      <trkpt lat="45.04455" lon="6.7857">
        <ele>1132.81</ele>
        <time>2017-01-05T13:42:08Z</time>
      </trkpt>
      <trkpt lat="45.04459" lon="6.78589">
        <ele>1131.21</ele>
        <time>2017-01-05T13:42:11Z</time>
      </trkpt>
      <trkpt lat="45.04462" lon="6.78602">
        <ele>1130.72</ele>
        <time>2017-01-05T13:42:13Z</time>
      </trkpt>
      <trkpt lat="45.04462" lon="6.78621">
        <ele>1130.26</ele>
        <time>2017-01-05T13:42:16Z</time>
      </trkpt>
      <trkpt lat="45.04464" lon="6.78634">
        <ele>1130.41</ele>
        <time>2017-01-05T13:42:18Z</time>
      </trkpt>
      <trkpt lat="45.04457" lon="6.78648">
        <ele>1129.88</ele>
        <time>2017-01-05T13:42:21Z</time>
      </trkpt>
      <trkpt lat="45.0445" lon="6.78663">
        <ele>1128.93</ele>
        <time>2017-01-05T13:42:24Z</time>
      </trkpt>
      <trkpt lat="45.04438" lon="6.78685">
        <ele>1126.13</ele>
        <time>2017-01-05T13:42:28Z</time>
      </trkpt>
      <trkpt lat="45.04432" lon="6.78698">
        <ele>1124.46</ele>
        <time>2017-01-05T13:42:30Z</time>
      </trkpt>
      <trkpt lat="45.04424" lon="6.78708">
        <ele>1122.27</ele>
        <time>2017-01-05T13:42:32Z</time>
      </trkpt>
      <trkpt lat="45.04416" lon="6.7872">
        <ele>1120.02</ele>
        <time>2017-01-05T13:42:34Z</time>
      </trkpt>
      <trkpt lat="45.04401" lon="6.78742">
        <ele>1116.38</ele>
        <time>2017-01-05T13:42:39Z</time>
      </trkpt>
      <trkpt lat="45.04393" lon="6.78754">
        <ele>1115.13</ele>
        <time>2017-01-05T13:42:42Z</time>
      </trkpt>
      <trkpt lat="45.04385" lon="6.78766">
        <ele>1114.42</ele>
        <time>2017-01-05T13:42:45Z</time>
      </trkpt>
      <trkpt lat="45.04381" lon="6.78779">
        <ele>1113.9</ele>
        <time>2017-01-05T13:43:30Z</time>
      </trkpt>
      <trkpt lat="45.0439" lon="6.78801">
        <ele>1112.39</ele>
        <time>2017-01-05T13:43:35Z</time>
      </trkpt>
      <trkpt lat="45.04396" lon="6.78817">
        <ele>1111.8</ele>
        <time>2017-01-05T13:43:37Z</time>
      </trkpt>
      <trkpt lat="45.04401" lon="6.78833">
        <ele>1111.32</ele>
        <time>2017-01-05T13:43:40Z</time>
      </trkpt>
      <trkpt lat="45.04408" lon="6.78853">
        <ele>1111.4</ele>
        <time>2017-01-05T13:43:41Z</time>
      </trkpt>
      <trkpt lat="45.04421" lon="6.78865">
        <ele>1112.02</ele>
        <time>2017-01-05T13:43:43Z</time>
      </trkpt>
      <trkpt lat="45.04432" lon="6.78883">
        <ele>1111.07</ele>
        <time>2017-01-05T13:43:45Z</time>
      </trkpt>
      <trkpt lat="45.04439" lon="6.789">
        <ele>1109.98</ele>
        <time>2017-01-05T13:43:47Z</time>
      </trkpt>
      <trkpt lat="45.04443" lon="6.78916">
        <ele>1109.03</ele>
        <time>2017-01-05T13:43:49Z</time>
      </trkpt>
      <trkpt lat="45.04448" lon="6.78933">
        <ele>1108.78</ele>
        <time>2017-01-05T13:43:51Z</time>
      </trkpt>
      <trkpt lat="45.04456" lon="6.78957">
        <ele>1108.83</ele>
        <time>2017-01-05T13:43:55Z</time>
      </trkpt>
      <trkpt lat="45.0446" lon="6.78976">
        <ele>1109.11</ele>
        <time>2017-01-05T13:43:57Z</time>
      </trkpt>
      <trkpt lat="45.04471" lon="6.79005">
        <ele>1110.07</ele>
        <time>2017-01-05T13:44:00Z</time>
      </trkpt>
      <trkpt lat="45.04474" lon="6.79039">
        <ele>1111.56</ele>
        <time>2017-01-05T13:44:03Z</time>
      </trkpt>
      <trkpt lat="45.04478" lon="6.79075">
        <ele>1112.27</ele>
        <time>2017-01-05T13:44:06Z</time>
      </trkpt>
      <trkpt lat="45.04483" lon="6.79096">
        <ele>1112.98</ele>
        <time>2017-01-05T13:44:08Z</time>
      </trkpt>
      <trkpt lat="45.04491" lon="6.79114">
        <ele>1114.41</ele>
        <time>2017-01-05T13:44:10Z</time>
      </trkpt>
      <trkpt lat="45.0449" lon="6.7913">
        <ele>1114.74</ele>
        <time>2017-01-05T13:44:11Z</time>
      </trkpt>
      <trkpt lat="45.04491" lon="6.79144">
        <ele>1114.95</ele>
        <time>2017-01-05T13:44:12Z</time>
      </trkpt>
      <trkpt lat="45.04499" lon="6.79161">
        <ele>1115.15</ele>
        <time>2017-01-05T13:44:14Z</time>
      </trkpt>
      <trkpt lat="45.04506" lon="6.79179">
        <ele>1115.76</ele>
        <time>2017-01-05T13:44:16Z</time>
      </trkpt>
      <trkpt lat="45.04507" lon="6.79199">
        <ele>1115.75</ele>
        <time>2017-01-05T13:44:18Z</time>
      </trkpt>
      <trkpt lat="45.04502" lon="6.79217">
        <ele>1115.21</ele>
        <time>2017-01-05T13:44:20Z</time>
      </trkpt>
      <trkpt lat="45.04501" lon="6.79242">
        <ele>1115.78</ele>
        <time>2017-01-05T13:44:22Z</time>
      </trkpt>
      <trkpt lat="45.04498" lon="6.79277">
        <ele>1116.65</ele>
        <time>2017-01-05T13:44:25Z</time>
      </trkpt>
      <trkpt lat="45.04493" lon="6.79309">
        <ele>1115.18</ele>
        <time>2017-01-05T13:45:38Z</time>
      </trkpt>
      <trkpt lat="45.04491" lon="6.79335">
        <ele>1115.67</ele>
        <time>2017-01-05T13:45:47Z</time>
      </trkpt>
      <trkpt lat="45.04483" lon="6.79346">
        <ele>1115.13</ele>
        <time>2017-01-05T13:45:48Z</time>
      </trkpt>
      <trkpt lat="45.04479" lon="6.79367">
        <ele>1115.46</ele>
        <time>2017-01-05T13:45:50Z</time>
      </trkpt>
      <trkpt lat="45.04479" lon="6.79384">
        <ele>1115.29</ele>
        <time>2017-01-05T13:45:52Z</time>
      </trkpt>
      <trkpt lat="45.04479" lon="6.79403">
        <ele>1114.51</ele>
        <time>2017-01-05T13:45:54Z</time>
      </trkpt>
      <trkpt lat="45.04481" lon="6.79419">
        <ele>1113.86</ele>
        <time>2017-01-05T13:45:56Z</time>
      </trkpt>
      <trkpt lat="45.04483" lon="6.79437">
        <ele>1113.73</ele>
        <time>2017-01-05T13:45:58Z</time>
      </trkpt>
      <trkpt lat="45.04476" lon="6.79448">
        <ele>1112.52</ele>
        <time>2017-01-05T13:46:00Z</time>
      </trkpt>
      <trkpt lat="45.04476" lon="6.79469">
        <ele>1112.66</ele>
        <time>2017-01-05T13:46:02Z</time>
      </trkpt>
      <trkpt lat="45.04472" lon="6.79484">
        <ele>1111.55</ele>
        <time>2017-01-05T13:46:04Z</time>
      </trkpt>
      <trkpt lat="45.04471" lon="6.79498">
        <ele>1110.94</ele>
        <time>2017-01-05T13:46:06Z</time>
      </trkpt>
      <trkpt lat="45.04471" lon="6.7952">
        <ele>1110.11</ele>
        <time>2017-01-05T13:46:07Z</time>
      </trkpt>
      <trkpt lat="45.04462" lon="6.79547">
        <ele>1108.08</ele>
        <time>2017-01-05T13:46:11Z</time>
      </trkpt>
      <trkpt lat="45.04458" lon="6.79563">
        <ele>1107.47</ele>
        <time>2017-01-05T13:46:13Z</time>
      </trkpt>
      <trkpt lat="45.04509" lon="6.79703">
        <ele>1106.15</ele>
        <time>2017-01-06T04:40:31Z</time>
      </trkpt>
      <trkpt lat="45.04524" lon="6.79788">
        <ele>1101.27</ele>
        <time>2017-01-06T04:40:34Z</time>
      </trkpt>
      <trkpt lat="45.04525" lon="6.79866">
        <ele>1102.82</ele>
        <time>2017-01-06T04:40:37Z</time>
      </trkpt>
      <trkpt lat="45.04464" lon="6.80283">
        <ele>1113.39</ele>
        <time>2017-01-06T04:40:53Z</time>
      </trkpt>
      <trkpt lat="45.04428" lon="6.80409">
        <ele>1108.52</ele>
        <time>2017-01-06T04:40:59Z</time>
      </trkpt>
      <trkpt lat="45.04375" lon="6.80526">
        <ele>1105.9</ele>
        <time>2017-01-06T04:41:04Z</time>
      </trkpt>
      <trkpt lat="45.04252" lon="6.80742">
        <ele>1104.23</ele>
        <time>2017-01-06T04:41:15Z</time>
      </trkpt>
      <trkpt lat="45.04214" lon="6.80825">
        <ele>1096.7</ele>
        <time>2017-01-06T04:41:19Z</time>
      </trkpt>
      <trkpt lat="45.04197" lon="6.80909">
        <ele>1098.12</ele>
        <time>2017-01-06T04:41:22Z</time>
      </trkpt>
      <trkpt lat="45.0418" lon="6.81058">
        <ele>1092.31</ele>
        <time>2017-01-06T04:41:28Z</time>
      </trkpt>
      <trkpt lat="45.0419" lon="6.81117">
        <ele>1087.56</ele>
        <time>2017-01-06T04:41:30Z</time>
      </trkpt>
      <trkpt lat="45.04209" lon="6.81162">
        <ele>1083.25</ele>
        <time>2017-01-06T04:41:32Z</time>
      </trkpt>
      <trkpt lat="45.04268" lon="6.81277">
        <ele>1077.41</ele>
        <time>2017-01-06T04:41:38Z</time>
      </trkpt>
      <trkpt lat="45.0428" lon="6.81342">
        <ele>1079.94</ele>
        <time>2017-01-06T04:41:40Z</time>
      </trkpt>
      <trkpt lat="45.04279" lon="6.81401">
        <ele>1085.84</ele>
        <time>2017-01-06T04:41:43Z</time>
      </trkpt>
      <trkpt lat="45.0425" lon="6.81594">
        <ele>1089.15</ele>
        <time>2017-01-06T04:41:50Z</time>
      </trkpt>
      <trkpt lat="45.04198" lon="6.81882">
        <ele>1080.86</ele>
        <time>2017-01-06T04:42:02Z</time>
      </trkpt>
      <trkpt lat="45.04134" lon="6.8207">
        <ele>1079.82</ele>
        <time>2017-01-06T04:42:10Z</time>
      </trkpt>
      <trkpt lat="45.04133" lon="6.82132">
        <ele>1078.24</ele>
        <time>2017-01-06T04:42:12Z</time>
      </trkpt>
      <trkpt lat="45.04155" lon="6.82217">
        <ele>1079.65</ele>
        <time>2017-01-06T04:42:16Z</time>
      </trkpt>
      <trkpt lat="45.04165" lon="6.82289">
        <ele>1082.18</ele>
        <time>2017-01-06T04:42:19Z</time>
      </trkpt>
      <trkpt lat="45.04167" lon="6.82378">
        <ele>1076.36</ele>
        <time>2017-01-06T04:42:22Z</time>
      </trkpt>
      <trkpt lat="45.04167" lon="6.8245">
        <ele>1079.9</ele>
        <time>2017-01-06T04:42:25Z</time>
      </trkpt>
    </trkseg>
  </trk>
</gpx>